<?xml version="1.0" encoding="UTF-8" standalone="no" ?>
<gpx xmlns="http://www.topografix.com/GPX/1/1" xmlns:xsi="http://www.w3.org/2001/XMLSchema-instance" xsi:schemaLocation="http://www.topografix.com/GPX/1/1 http://www.topografix.com/GPX/1/1/gpx.xsd" version="1.1" creator="VisuGPX - https://www.visugpx.com">
  <metadata>
    <name>mont st cyr</name>
    <desc><![CDATA[rando mont st cyr au départ de CAHORS]]></desc>
  </metadata>
  <trk>
    <name><![CDATA[Lap 1]]></name>
    <trkseg>
      <trkpt lat="44.44295" lon="1.43989">
        <ele>122</ele>
        <time>2011-03-20T08:50:20</time>
      </trkpt>
      <trkpt lat="44.44295" lon="1.43989">
        <ele>122</ele>
        <time>2011-03-20T08:50:30</time>
      </trkpt>
      <trkpt lat="44.44295" lon="1.43989">
        <ele>122</ele>
        <time>2011-03-20T08:50:54</time>
      </trkpt>
      <trkpt lat="44.44295" lon="1.43989">
        <ele>122</ele>
        <time>2011-03-20T08:50:55</time>
      </trkpt>
      <trkpt lat="44.44297" lon="1.43993">
        <ele>122</ele>
        <time>2011-03-20T08:50:56</time>
      </trkpt>
      <trkpt lat="44.44297" lon="1.43997">
        <ele>122</ele>
        <time>2011-03-20T08:50:57</time>
      </trkpt>
      <trkpt lat="44.44296" lon="1.44004">
        <ele>122</ele>
        <time>2011-03-20T08:50:59</time>
      </trkpt>
      <trkpt lat="44.44295" lon="1.44007">
        <ele>122</ele>
        <time>2011-03-20T08:51:00</time>
      </trkpt>
      <trkpt lat="44.44291" lon="1.44013">
        <ele>121</ele>
        <time>2011-03-20T08:51:02</time>
      </trkpt>
      <trkpt lat="44.44281" lon="1.44017">
        <ele>121</ele>
        <time>2011-03-20T08:51:04</time>
      </trkpt>
      <trkpt lat="44.44277" lon="1.44019">
        <ele>121</ele>
        <time>2011-03-20T08:51:05</time>
      </trkpt>
      <trkpt lat="44.44269" lon="1.44021">
        <ele>121</ele>
        <time>2011-03-20T08:51:08</time>
      </trkpt>
      <trkpt lat="44.44264" lon="1.44021">
        <ele>121</ele>
        <time>2011-03-20T08:51:11</time>
      </trkpt>
      <trkpt lat="44.4426" lon="1.44022">
        <ele>121</ele>
        <time>2011-03-20T08:51:14</time>
      </trkpt>
      <trkpt lat="44.44268" lon="1.44046">
        <ele>121</ele>
        <time>2011-03-20T08:51:22</time>
      </trkpt>
      <trkpt lat="44.44262" lon="1.44047">
        <ele>121</ele>
        <time>2011-03-20T08:51:23</time>
      </trkpt>
      <trkpt lat="44.4426" lon="1.44054">
        <ele>121</ele>
        <time>2011-03-20T08:51:25</time>
      </trkpt>
      <trkpt lat="44.4426" lon="1.44054">
        <ele>121</ele>
        <time>2011-03-20T08:51:45</time>
      </trkpt>
      <trkpt lat="44.44259" lon="1.44046">
        <ele>121</ele>
        <time>2011-03-20T08:51:51</time>
      </trkpt>
      <trkpt lat="44.44258" lon="1.44038">
        <ele>121</ele>
        <time>2011-03-20T08:51:54</time>
      </trkpt>
      <trkpt lat="44.44258" lon="1.44038">
        <ele>121</ele>
        <time>2011-03-20T08:51:55</time>
      </trkpt>
      <trkpt lat="44.44258" lon="1.44032">
        <ele>121</ele>
        <time>2011-03-20T08:52:01</time>
      </trkpt>
      <trkpt lat="44.44258" lon="1.44032">
        <ele>121</ele>
        <time>2011-03-20T08:52:12</time>
      </trkpt>
      <trkpt lat="44.44259" lon="1.44038">
        <ele>121</ele>
        <time>2011-03-20T08:52:14</time>
      </trkpt>
      <trkpt lat="44.4426" lon="1.44041">
        <ele>121</ele>
        <time>2011-03-20T08:52:18</time>
      </trkpt>
      <trkpt lat="44.4426" lon="1.44041">
        <ele>121</ele>
        <time>2011-03-20T08:52:19</time>
      </trkpt>
      <trkpt lat="44.44257" lon="1.44042">
        <ele>121</ele>
        <time>2011-03-20T08:52:23</time>
      </trkpt>
      <trkpt lat="44.44254" lon="1.44043">
        <ele>121</ele>
        <time>2011-03-20T08:52:25</time>
      </trkpt>
      <trkpt lat="44.44251" lon="1.44043">
        <ele>121</ele>
        <time>2011-03-20T08:52:27</time>
      </trkpt>
      <trkpt lat="44.44249" lon="1.44044">
        <ele>121</ele>
        <time>2011-03-20T08:52:28</time>
      </trkpt>
      <trkpt lat="44.44245" lon="1.44045">
        <ele>121</ele>
        <time>2011-03-20T08:52:30</time>
      </trkpt>
      <trkpt lat="44.44241" lon="1.44045">
        <ele>121</ele>
        <time>2011-03-20T08:52:32</time>
      </trkpt>
      <trkpt lat="44.44237" lon="1.44046">
        <ele>121</ele>
        <time>2011-03-20T08:52:34</time>
      </trkpt>
      <trkpt lat="44.44233" lon="1.44047">
        <ele>121</ele>
        <time>2011-03-20T08:52:36</time>
      </trkpt>
      <trkpt lat="44.4423" lon="1.44048">
        <ele>121</ele>
        <time>2011-03-20T08:52:38</time>
      </trkpt>
      <trkpt lat="44.44226" lon="1.44049">
        <ele>121</ele>
        <time>2011-03-20T08:52:40</time>
      </trkpt>
      <trkpt lat="44.44221" lon="1.44051">
        <ele>121</ele>
        <time>2011-03-20T08:52:42</time>
      </trkpt>
      <trkpt lat="44.44219" lon="1.44052">
        <ele>121</ele>
        <time>2011-03-20T08:52:43</time>
      </trkpt>
      <trkpt lat="44.44212" lon="1.44054">
        <ele>121</ele>
        <time>2011-03-20T08:52:46</time>
      </trkpt>
      <trkpt lat="44.44209" lon="1.44055">
        <ele>121</ele>
        <time>2011-03-20T08:52:48</time>
      </trkpt>
      <trkpt lat="44.44205" lon="1.44057">
        <ele>118</ele>
        <time>2011-03-20T08:52:50</time>
      </trkpt>
      <trkpt lat="44.44202" lon="1.44057">
        <ele>118</ele>
        <time>2011-03-20T08:52:52</time>
      </trkpt>
      <trkpt lat="44.44198" lon="1.44057">
        <ele>118</ele>
        <time>2011-03-20T08:52:55</time>
      </trkpt>
      <trkpt lat="44.44194" lon="1.44057">
        <ele>118</ele>
        <time>2011-03-20T08:52:58</time>
      </trkpt>
      <trkpt lat="44.44191" lon="1.44055">
        <ele>118</ele>
        <time>2011-03-20T08:53:00</time>
      </trkpt>
      <trkpt lat="44.44187" lon="1.44051">
        <ele>118</ele>
        <time>2011-03-20T08:53:02</time>
      </trkpt>
      <trkpt lat="44.44184" lon="1.44047">
        <ele>118</ele>
        <time>2011-03-20T08:53:04</time>
      </trkpt>
      <trkpt lat="44.44181" lon="1.4404">
        <ele>119</ele>
        <time>2011-03-20T08:53:07</time>
      </trkpt>
      <trkpt lat="44.44179" lon="1.44035">
        <ele>119</ele>
        <time>2011-03-20T08:53:09</time>
      </trkpt>
      <trkpt lat="44.44177" lon="1.44027">
        <ele>119</ele>
        <time>2011-03-20T08:53:11</time>
      </trkpt>
      <trkpt lat="44.44174" lon="1.44019">
        <ele>119</ele>
        <time>2011-03-20T08:53:13</time>
      </trkpt>
      <trkpt lat="44.44172" lon="1.44015">
        <ele>119</ele>
        <time>2011-03-20T08:53:14</time>
      </trkpt>
      <trkpt lat="44.44169" lon="1.44006">
        <ele>119</ele>
        <time>2011-03-20T08:53:16</time>
      </trkpt>
      <trkpt lat="44.44167" lon="1.43998">
        <ele>119</ele>
        <time>2011-03-20T08:53:18</time>
      </trkpt>
      <trkpt lat="44.44166" lon="1.4399">
        <ele>119</ele>
        <time>2011-03-20T08:53:20</time>
      </trkpt>
      <trkpt lat="44.44165" lon="1.43987">
        <ele>119</ele>
        <time>2011-03-20T08:53:21</time>
      </trkpt>
      <trkpt lat="44.44165" lon="1.43983">
        <ele>119</ele>
        <time>2011-03-20T08:53:22</time>
      </trkpt>
      <trkpt lat="44.44164" lon="1.43979">
        <ele>119</ele>
        <time>2011-03-20T08:53:23</time>
      </trkpt>
      <trkpt lat="44.44162" lon="1.43971">
        <ele>119</ele>
        <time>2011-03-20T08:53:25</time>
      </trkpt>
      <trkpt lat="44.44162" lon="1.43967">
        <ele>119</ele>
        <time>2011-03-20T08:53:26</time>
      </trkpt>
      <trkpt lat="44.4416" lon="1.43957">
        <ele>119</ele>
        <time>2011-03-20T08:53:28</time>
      </trkpt>
      <trkpt lat="44.44159" lon="1.43952">
        <ele>119</ele>
        <time>2011-03-20T08:53:29</time>
      </trkpt>
      <trkpt lat="44.44158" lon="1.43947">
        <ele>119</ele>
        <time>2011-03-20T08:53:30</time>
      </trkpt>
      <trkpt lat="44.44156" lon="1.43942">
        <ele>119</ele>
        <time>2011-03-20T08:53:31</time>
      </trkpt>
      <trkpt lat="44.44153" lon="1.43933">
        <ele>119</ele>
        <time>2011-03-20T08:53:33</time>
      </trkpt>
      <trkpt lat="44.44151" lon="1.43929">
        <ele>119</ele>
        <time>2011-03-20T08:53:34</time>
      </trkpt>
      <trkpt lat="44.44148" lon="1.43921">
        <ele>119</ele>
        <time>2011-03-20T08:53:36</time>
      </trkpt>
      <trkpt lat="44.44147" lon="1.43916">
        <ele>119</ele>
        <time>2011-03-20T08:53:37</time>
      </trkpt>
      <trkpt lat="44.44145" lon="1.43907">
        <ele>119</ele>
        <time>2011-03-20T08:53:39</time>
      </trkpt>
      <trkpt lat="44.44144" lon="1.43902">
        <ele>119</ele>
        <time>2011-03-20T08:53:40</time>
      </trkpt>
      <trkpt lat="44.44142" lon="1.43892">
        <ele>119</ele>
        <time>2011-03-20T08:53:42</time>
      </trkpt>
      <trkpt lat="44.44141" lon="1.43887">
        <ele>119</ele>
        <time>2011-03-20T08:53:43</time>
      </trkpt>
      <trkpt lat="44.44138" lon="1.43877">
        <ele>119</ele>
        <time>2011-03-20T08:53:45</time>
      </trkpt>
      <trkpt lat="44.44137" lon="1.43866">
        <ele>120</ele>
        <time>2011-03-20T08:53:47</time>
      </trkpt>
      <trkpt lat="44.44136" lon="1.43861">
        <ele>120</ele>
        <time>2011-03-20T08:53:48</time>
      </trkpt>
      <trkpt lat="44.44134" lon="1.43845">
        <ele>120</ele>
        <time>2011-03-20T08:53:50</time>
      </trkpt>
      <trkpt lat="44.44135" lon="1.43833">
        <ele>120</ele>
        <time>2011-03-20T08:53:52</time>
      </trkpt>
      <trkpt lat="44.44134" lon="1.43821">
        <ele>120</ele>
        <time>2011-03-20T08:53:54</time>
      </trkpt>
      <trkpt lat="44.44133" lon="1.4381">
        <ele>120</ele>
        <time>2011-03-20T08:53:56</time>
      </trkpt>
      <trkpt lat="44.44132" lon="1.43805">
        <ele>120</ele>
        <time>2011-03-20T08:53:57</time>
      </trkpt>
      <trkpt lat="44.44131" lon="1.43799">
        <ele>120</ele>
        <time>2011-03-20T08:53:58</time>
      </trkpt>
      <trkpt lat="44.4413" lon="1.43787">
        <ele>120</ele>
        <time>2011-03-20T08:54:00</time>
      </trkpt>
      <trkpt lat="44.44129" lon="1.43776">
        <ele>120</ele>
        <time>2011-03-20T08:54:02</time>
      </trkpt>
      <trkpt lat="44.44128" lon="1.43771">
        <ele>120</ele>
        <time>2011-03-20T08:54:03</time>
      </trkpt>
      <trkpt lat="44.44129" lon="1.43757">
        <ele>120</ele>
        <time>2011-03-20T08:54:05</time>
      </trkpt>
      <trkpt lat="44.4413" lon="1.43749">
        <ele>120</ele>
        <time>2011-03-20T08:54:06</time>
      </trkpt>
      <trkpt lat="44.4413" lon="1.43736">
        <ele>120</ele>
        <time>2011-03-20T08:54:08</time>
      </trkpt>
      <trkpt lat="44.44131" lon="1.43729">
        <ele>120</ele>
        <time>2011-03-20T08:54:09</time>
      </trkpt>
      <trkpt lat="44.44131" lon="1.43716">
        <ele>120</ele>
        <time>2011-03-20T08:54:11</time>
      </trkpt>
      <trkpt lat="44.44129" lon="1.43705">
        <ele>118</ele>
        <time>2011-03-20T08:54:13</time>
      </trkpt>
      <trkpt lat="44.44128" lon="1.43692">
        <ele>118</ele>
        <time>2011-03-20T08:54:15</time>
      </trkpt>
      <trkpt lat="44.44128" lon="1.43685">
        <ele>118</ele>
        <time>2011-03-20T08:54:16</time>
      </trkpt>
      <trkpt lat="44.44129" lon="1.4367">
        <ele>118</ele>
        <time>2011-03-20T08:54:18</time>
      </trkpt>
      <trkpt lat="44.44128" lon="1.43656">
        <ele>118</ele>
        <time>2011-03-20T08:54:20</time>
      </trkpt>
      <trkpt lat="44.44128" lon="1.4365">
        <ele>118</ele>
        <time>2011-03-20T08:54:21</time>
      </trkpt>
      <trkpt lat="44.44127" lon="1.43637">
        <ele>118</ele>
        <time>2011-03-20T08:54:23</time>
      </trkpt>
      <trkpt lat="44.44128" lon="1.43631">
        <ele>118</ele>
        <time>2011-03-20T08:54:24</time>
      </trkpt>
      <trkpt lat="44.4413" lon="1.43621">
        <ele>116</ele>
        <time>2011-03-20T08:54:26</time>
      </trkpt>
      <trkpt lat="44.44132" lon="1.43618">
        <ele>116</ele>
        <time>2011-03-20T08:54:27</time>
      </trkpt>
      <trkpt lat="44.44133" lon="1.43606">
        <ele>116</ele>
        <time>2011-03-20T08:54:29</time>
      </trkpt>
      <trkpt lat="44.44134" lon="1.436">
        <ele>116</ele>
        <time>2011-03-20T08:54:30</time>
      </trkpt>
      <trkpt lat="44.44134" lon="1.43596">
        <ele>116</ele>
        <time>2011-03-20T08:54:31</time>
      </trkpt>
      <trkpt lat="44.44136" lon="1.43586">
        <ele>116</ele>
        <time>2011-03-20T08:54:33</time>
      </trkpt>
      <trkpt lat="44.44138" lon="1.43574">
        <ele>116</ele>
        <time>2011-03-20T08:54:35</time>
      </trkpt>
      <trkpt lat="44.44139" lon="1.4356">
        <ele>116</ele>
        <time>2011-03-20T08:54:37</time>
      </trkpt>
      <trkpt lat="44.44139" lon="1.43553">
        <ele>116</ele>
        <time>2011-03-20T08:54:38</time>
      </trkpt>
      <trkpt lat="44.4414" lon="1.43542">
        <ele>116</ele>
        <time>2011-03-20T08:54:40</time>
      </trkpt>
      <trkpt lat="44.44142" lon="1.43538">
        <ele>117</ele>
        <time>2011-03-20T08:54:41</time>
      </trkpt>
      <trkpt lat="44.44145" lon="1.43527">
        <ele>117</ele>
        <time>2011-03-20T08:54:43</time>
      </trkpt>
      <trkpt lat="44.44147" lon="1.43521">
        <ele>117</ele>
        <time>2011-03-20T08:54:44</time>
      </trkpt>
      <trkpt lat="44.4415" lon="1.43511">
        <ele>117</ele>
        <time>2011-03-20T08:54:46</time>
      </trkpt>
      <trkpt lat="44.44154" lon="1.435">
        <ele>117</ele>
        <time>2011-03-20T08:54:48</time>
      </trkpt>
      <trkpt lat="44.44157" lon="1.43494">
        <ele>117</ele>
        <time>2011-03-20T08:54:49</time>
      </trkpt>
      <trkpt lat="44.44163" lon="1.43481">
        <ele>117</ele>
        <time>2011-03-20T08:54:51</time>
      </trkpt>
      <trkpt lat="44.4417" lon="1.43469">
        <ele>117</ele>
        <time>2011-03-20T08:54:53</time>
      </trkpt>
      <trkpt lat="44.44178" lon="1.43458">
        <ele>117</ele>
        <time>2011-03-20T08:54:55</time>
      </trkpt>
      <trkpt lat="44.44186" lon="1.4345">
        <ele>117</ele>
        <time>2011-03-20T08:54:57</time>
      </trkpt>
      <trkpt lat="44.44193" lon="1.43444">
        <ele>117</ele>
        <time>2011-03-20T08:54:59</time>
      </trkpt>
      <trkpt lat="44.44201" lon="1.43437">
        <ele>117</ele>
        <time>2011-03-20T08:55:01</time>
      </trkpt>
      <trkpt lat="44.44205" lon="1.43433">
        <ele>117</ele>
        <time>2011-03-20T08:55:02</time>
      </trkpt>
      <trkpt lat="44.44212" lon="1.43425">
        <ele>117</ele>
        <time>2011-03-20T08:55:04</time>
      </trkpt>
      <trkpt lat="44.4422" lon="1.43419">
        <ele>117</ele>
        <time>2011-03-20T08:55:06</time>
      </trkpt>
      <trkpt lat="44.44227" lon="1.43413">
        <ele>117</ele>
        <time>2011-03-20T08:55:08</time>
      </trkpt>
      <trkpt lat="44.44235" lon="1.43407">
        <ele>117</ele>
        <time>2011-03-20T08:55:10</time>
      </trkpt>
      <trkpt lat="44.44242" lon="1.43401">
        <ele>117</ele>
        <time>2011-03-20T08:55:12</time>
      </trkpt>
      <trkpt lat="44.44249" lon="1.43394">
        <ele>117</ele>
        <time>2011-03-20T08:55:14</time>
      </trkpt>
      <trkpt lat="44.44253" lon="1.43391">
        <ele>117</ele>
        <time>2011-03-20T08:55:15</time>
      </trkpt>
      <trkpt lat="44.4426" lon="1.43387">
        <ele>117</ele>
        <time>2011-03-20T08:55:17</time>
      </trkpt>
      <trkpt lat="44.44268" lon="1.43385">
        <ele>117</ele>
        <time>2011-03-20T08:55:19</time>
      </trkpt>
      <trkpt lat="44.44275" lon="1.43386">
        <ele>117</ele>
        <time>2011-03-20T08:55:21</time>
      </trkpt>
      <trkpt lat="44.44281" lon="1.43384">
        <ele>117</ele>
        <time>2011-03-20T08:55:23</time>
      </trkpt>
      <trkpt lat="44.44283" lon="1.43383">
        <ele>117</ele>
        <time>2011-03-20T08:55:24</time>
      </trkpt>
      <trkpt lat="44.44289" lon="1.43378">
        <ele>117</ele>
        <time>2011-03-20T08:55:26</time>
      </trkpt>
      <trkpt lat="44.44296" lon="1.43374">
        <ele>116</ele>
        <time>2011-03-20T08:55:28</time>
      </trkpt>
      <trkpt lat="44.443" lon="1.43372">
        <ele>116</ele>
        <time>2011-03-20T08:55:29</time>
      </trkpt>
      <trkpt lat="44.44303" lon="1.4337">
        <ele>116</ele>
        <time>2011-03-20T08:55:30</time>
      </trkpt>
      <trkpt lat="44.4431" lon="1.43368">
        <ele>116</ele>
        <time>2011-03-20T08:55:32</time>
      </trkpt>
      <trkpt lat="44.44314" lon="1.43365">
        <ele>116</ele>
        <time>2011-03-20T08:55:33</time>
      </trkpt>
      <trkpt lat="44.44318" lon="1.43362">
        <ele>116</ele>
        <time>2011-03-20T08:55:34</time>
      </trkpt>
      <trkpt lat="44.44326" lon="1.43354">
        <ele>116</ele>
        <time>2011-03-20T08:55:36</time>
      </trkpt>
      <trkpt lat="44.44331" lon="1.43349">
        <ele>116</ele>
        <time>2011-03-20T08:55:37</time>
      </trkpt>
      <trkpt lat="44.4434" lon="1.4334">
        <ele>116</ele>
        <time>2011-03-20T08:55:39</time>
      </trkpt>
      <trkpt lat="44.44349" lon="1.43334">
        <ele>116</ele>
        <time>2011-03-20T08:55:41</time>
      </trkpt>
      <trkpt lat="44.44356" lon="1.43328">
        <ele>116</ele>
        <time>2011-03-20T08:55:43</time>
      </trkpt>
      <trkpt lat="44.4436" lon="1.43327">
        <ele>116</ele>
        <time>2011-03-20T08:55:44</time>
      </trkpt>
      <trkpt lat="44.44364" lon="1.43324">
        <ele>116</ele>
        <time>2011-03-20T08:55:45</time>
      </trkpt>
      <trkpt lat="44.44371" lon="1.43322">
        <ele>116</ele>
        <time>2011-03-20T08:55:47</time>
      </trkpt>
      <trkpt lat="44.44375" lon="1.43322">
        <ele>116</ele>
        <time>2011-03-20T08:55:48</time>
      </trkpt>
      <trkpt lat="44.44382" lon="1.4332">
        <ele>120</ele>
        <time>2011-03-20T08:55:50</time>
      </trkpt>
      <trkpt lat="44.44389" lon="1.43314">
        <ele>120</ele>
        <time>2011-03-20T08:55:52</time>
      </trkpt>
      <trkpt lat="44.44395" lon="1.43308">
        <ele>120</ele>
        <time>2011-03-20T08:55:54</time>
      </trkpt>
      <trkpt lat="44.44403" lon="1.43304">
        <ele>120</ele>
        <time>2011-03-20T08:55:56</time>
      </trkpt>
      <trkpt lat="44.4441" lon="1.433">
        <ele>120</ele>
        <time>2011-03-20T08:55:58</time>
      </trkpt>
      <trkpt lat="44.44414" lon="1.43299">
        <ele>120</ele>
        <time>2011-03-20T08:55:59</time>
      </trkpt>
      <trkpt lat="44.44421" lon="1.43297">
        <ele>120</ele>
        <time>2011-03-20T08:56:01</time>
      </trkpt>
      <trkpt lat="44.44429" lon="1.43294">
        <ele>120</ele>
        <time>2011-03-20T08:56:03</time>
      </trkpt>
      <trkpt lat="44.44432" lon="1.43292">
        <ele>120</ele>
        <time>2011-03-20T08:56:04</time>
      </trkpt>
      <trkpt lat="44.44441" lon="1.43288">
        <ele>115</ele>
        <time>2011-03-20T08:56:06</time>
      </trkpt>
      <trkpt lat="44.44446" lon="1.43287">
        <ele>115</ele>
        <time>2011-03-20T08:56:07</time>
      </trkpt>
      <trkpt lat="44.44456" lon="1.43288">
        <ele>115</ele>
        <time>2011-03-20T08:56:09</time>
      </trkpt>
      <trkpt lat="44.44465" lon="1.43292">
        <ele>120</ele>
        <time>2011-03-20T08:56:11</time>
      </trkpt>
      <trkpt lat="44.44469" lon="1.43295">
        <ele>120</ele>
        <time>2011-03-20T08:56:12</time>
      </trkpt>
      <trkpt lat="44.44472" lon="1.43299">
        <ele>120</ele>
        <time>2011-03-20T08:56:13</time>
      </trkpt>
      <trkpt lat="44.44476" lon="1.43303">
        <ele>120</ele>
        <time>2011-03-20T08:56:14</time>
      </trkpt>
      <trkpt lat="44.44481" lon="1.43313">
        <ele>120</ele>
        <time>2011-03-20T08:56:16</time>
      </trkpt>
      <trkpt lat="44.44486" lon="1.43325">
        <ele>120</ele>
        <time>2011-03-20T08:56:18</time>
      </trkpt>
      <trkpt lat="44.44491" lon="1.43336">
        <ele>120</ele>
        <time>2011-03-20T08:56:20</time>
      </trkpt>
      <trkpt lat="44.44493" lon="1.43341">
        <ele>120</ele>
        <time>2011-03-20T08:56:21</time>
      </trkpt>
      <trkpt lat="44.44497" lon="1.43346">
        <ele>120</ele>
        <time>2011-03-20T08:56:22</time>
      </trkpt>
      <trkpt lat="44.445" lon="1.4335">
        <ele>120</ele>
        <time>2011-03-20T08:56:23</time>
      </trkpt>
      <trkpt lat="44.44504" lon="1.43353">
        <ele>120</ele>
        <time>2011-03-20T08:56:24</time>
      </trkpt>
      <trkpt lat="44.44509" lon="1.43355">
        <ele>120</ele>
        <time>2011-03-20T08:56:25</time>
      </trkpt>
      <trkpt lat="44.44517" lon="1.43356">
        <ele>120</ele>
        <time>2011-03-20T08:56:27</time>
      </trkpt>
      <trkpt lat="44.44525" lon="1.43353">
        <ele>120</ele>
        <time>2011-03-20T08:56:29</time>
      </trkpt>
      <trkpt lat="44.44531" lon="1.43348">
        <ele>120</ele>
        <time>2011-03-20T08:56:31</time>
      </trkpt>
      <trkpt lat="44.44533" lon="1.43346">
        <ele>120</ele>
        <time>2011-03-20T08:56:32</time>
      </trkpt>
      <trkpt lat="44.44536" lon="1.43342">
        <ele>120</ele>
        <time>2011-03-20T08:56:34</time>
      </trkpt>
      <trkpt lat="44.44537" lon="1.43337">
        <ele>120</ele>
        <time>2011-03-20T08:56:36</time>
      </trkpt>
      <trkpt lat="44.44534" lon="1.43333">
        <ele>120</ele>
        <time>2011-03-20T08:56:38</time>
      </trkpt>
      <trkpt lat="44.44529" lon="1.43329">
        <ele>120</ele>
        <time>2011-03-20T08:56:40</time>
      </trkpt>
      <trkpt lat="44.44524" lon="1.43323">
        <ele>120</ele>
        <time>2011-03-20T08:56:43</time>
      </trkpt>
      <trkpt lat="44.44525" lon="1.4332">
        <ele>120</ele>
        <time>2011-03-20T08:56:45</time>
      </trkpt>
      <trkpt lat="44.44528" lon="1.43321">
        <ele>120</ele>
        <time>2011-03-20T08:56:47</time>
      </trkpt>
      <trkpt lat="44.44532" lon="1.43319">
        <ele>120</ele>
        <time>2011-03-20T08:56:49</time>
      </trkpt>
      <trkpt lat="44.44533" lon="1.43314">
        <ele>120</ele>
        <time>2011-03-20T08:56:51</time>
      </trkpt>
      <trkpt lat="44.44533" lon="1.43308">
        <ele>120</ele>
        <time>2011-03-20T08:56:53</time>
      </trkpt>
      <trkpt lat="44.44533" lon="1.43305">
        <ele>120</ele>
        <time>2011-03-20T08:56:54</time>
      </trkpt>
      <trkpt lat="44.44533" lon="1.43298">
        <ele>120</ele>
        <time>2011-03-20T08:56:56</time>
      </trkpt>
      <trkpt lat="44.44532" lon="1.4329">
        <ele>115</ele>
        <time>2011-03-20T08:56:58</time>
      </trkpt>
      <trkpt lat="44.44532" lon="1.43283">
        <ele>115</ele>
        <time>2011-03-20T08:57:00</time>
      </trkpt>
      <trkpt lat="44.44531" lon="1.43276">
        <ele>115</ele>
        <time>2011-03-20T08:57:02</time>
      </trkpt>
      <trkpt lat="44.44531" lon="1.43273">
        <ele>115</ele>
        <time>2011-03-20T08:57:03</time>
      </trkpt>
      <trkpt lat="44.44529" lon="1.43264">
        <ele>115</ele>
        <time>2011-03-20T08:57:06</time>
      </trkpt>
      <trkpt lat="44.44528" lon="1.43261">
        <ele>115</ele>
        <time>2011-03-20T08:57:07</time>
      </trkpt>
      <trkpt lat="44.44527" lon="1.43256">
        <ele>115</ele>
        <time>2011-03-20T08:57:09</time>
      </trkpt>
      <trkpt lat="44.44525" lon="1.43251">
        <ele>115</ele>
        <time>2011-03-20T08:57:11</time>
      </trkpt>
      <trkpt lat="44.44524" lon="1.43245">
        <ele>115</ele>
        <time>2011-03-20T08:57:13</time>
      </trkpt>
      <trkpt lat="44.44523" lon="1.43243">
        <ele>115</ele>
        <time>2011-03-20T08:57:14</time>
      </trkpt>
      <trkpt lat="44.44521" lon="1.43236">
        <ele>115</ele>
        <time>2011-03-20T08:57:16</time>
      </trkpt>
      <trkpt lat="44.4452" lon="1.4323">
        <ele>115</ele>
        <time>2011-03-20T08:57:18</time>
      </trkpt>
      <trkpt lat="44.44519" lon="1.43223">
        <ele>115</ele>
        <time>2011-03-20T08:57:20</time>
      </trkpt>
      <trkpt lat="44.44518" lon="1.43216">
        <ele>115</ele>
        <time>2011-03-20T08:57:22</time>
      </trkpt>
      <trkpt lat="44.44516" lon="1.43209">
        <ele>115</ele>
        <time>2011-03-20T08:57:24</time>
      </trkpt>
      <trkpt lat="44.44514" lon="1.43201">
        <ele>113</ele>
        <time>2011-03-20T08:57:26</time>
      </trkpt>
      <trkpt lat="44.44513" lon="1.43193">
        <ele>113</ele>
        <time>2011-03-20T08:57:28</time>
      </trkpt>
      <trkpt lat="44.44512" lon="1.43189">
        <ele>113</ele>
        <time>2011-03-20T08:57:29</time>
      </trkpt>
      <trkpt lat="44.4451" lon="1.43181">
        <ele>113</ele>
        <time>2011-03-20T08:57:31</time>
      </trkpt>
      <trkpt lat="44.44507" lon="1.43172">
        <ele>113</ele>
        <time>2011-03-20T08:57:34</time>
      </trkpt>
      <trkpt lat="44.44506" lon="1.43168">
        <ele>113</ele>
        <time>2011-03-20T08:57:35</time>
      </trkpt>
      <trkpt lat="44.44506" lon="1.43163">
        <ele>113</ele>
        <time>2011-03-20T08:57:36</time>
      </trkpt>
      <trkpt lat="44.44503" lon="1.43154">
        <ele>113</ele>
        <time>2011-03-20T08:57:38</time>
      </trkpt>
      <trkpt lat="44.44501" lon="1.43145">
        <ele>113</ele>
        <time>2011-03-20T08:57:40</time>
      </trkpt>
      <trkpt lat="44.44501" lon="1.43141">
        <ele>113</ele>
        <time>2011-03-20T08:57:41</time>
      </trkpt>
      <trkpt lat="44.44499" lon="1.43131">
        <ele>113</ele>
        <time>2011-03-20T08:57:43</time>
      </trkpt>
      <trkpt lat="44.44497" lon="1.43122">
        <ele>122</ele>
        <time>2011-03-20T08:57:45</time>
      </trkpt>
      <trkpt lat="44.44495" lon="1.43113">
        <ele>122</ele>
        <time>2011-03-20T08:57:47</time>
      </trkpt>
      <trkpt lat="44.44494" lon="1.43109">
        <ele>122</ele>
        <time>2011-03-20T08:57:48</time>
      </trkpt>
      <trkpt lat="44.44492" lon="1.43104">
        <ele>122</ele>
        <time>2011-03-20T08:57:49</time>
      </trkpt>
      <trkpt lat="44.44491" lon="1.43099">
        <ele>122</ele>
        <time>2011-03-20T08:57:50</time>
      </trkpt>
      <trkpt lat="44.4449" lon="1.43088">
        <ele>122</ele>
        <time>2011-03-20T08:57:52</time>
      </trkpt>
      <trkpt lat="44.44489" lon="1.43083">
        <ele>122</ele>
        <time>2011-03-20T08:57:53</time>
      </trkpt>
      <trkpt lat="44.44487" lon="1.43078">
        <ele>122</ele>
        <time>2011-03-20T08:57:54</time>
      </trkpt>
      <trkpt lat="44.44481" lon="1.4307">
        <ele>122</ele>
        <time>2011-03-20T08:57:56</time>
      </trkpt>
      <trkpt lat="44.44478" lon="1.43068">
        <ele>122</ele>
        <time>2011-03-20T08:57:57</time>
      </trkpt>
      <trkpt lat="44.44469" lon="1.43066">
        <ele>122</ele>
        <time>2011-03-20T08:57:59</time>
      </trkpt>
      <trkpt lat="44.44465" lon="1.43066">
        <ele>122</ele>
        <time>2011-03-20T08:58:00</time>
      </trkpt>
      <trkpt lat="44.44457" lon="1.43068">
        <ele>159</ele>
        <time>2011-03-20T08:58:02</time>
      </trkpt>
      <trkpt lat="44.44453" lon="1.43069">
        <ele>159</ele>
        <time>2011-03-20T08:58:03</time>
      </trkpt>
      <trkpt lat="44.44445" lon="1.43073">
        <ele>159</ele>
        <time>2011-03-20T08:58:05</time>
      </trkpt>
      <trkpt lat="44.44441" lon="1.43076">
        <ele>159</ele>
        <time>2011-03-20T08:58:06</time>
      </trkpt>
      <trkpt lat="44.44434" lon="1.43082">
        <ele>159</ele>
        <time>2011-03-20T08:58:08</time>
      </trkpt>
      <trkpt lat="44.44424" lon="1.43089">
        <ele>159</ele>
        <time>2011-03-20T08:58:10</time>
      </trkpt>
      <trkpt lat="44.4442" lon="1.43093">
        <ele>159</ele>
        <time>2011-03-20T08:58:11</time>
      </trkpt>
      <trkpt lat="44.4441" lon="1.43102">
        <ele>159</ele>
        <time>2011-03-20T08:58:13</time>
      </trkpt>
      <trkpt lat="44.44405" lon="1.43106">
        <ele>159</ele>
        <time>2011-03-20T08:58:14</time>
      </trkpt>
      <trkpt lat="44.444" lon="1.43111">
        <ele>159</ele>
        <time>2011-03-20T08:58:15</time>
      </trkpt>
      <trkpt lat="44.44396" lon="1.43117">
        <ele>159</ele>
        <time>2011-03-20T08:58:16</time>
      </trkpt>
      <trkpt lat="44.44386" lon="1.43129">
        <ele>120</ele>
        <time>2011-03-20T08:58:18</time>
      </trkpt>
      <trkpt lat="44.4438" lon="1.43132">
        <ele>120</ele>
        <time>2011-03-20T08:58:19</time>
      </trkpt>
      <trkpt lat="44.44368" lon="1.43143">
        <ele>130</ele>
        <time>2011-03-20T08:58:21</time>
      </trkpt>
      <trkpt lat="44.44354" lon="1.43154">
        <ele>130</ele>
        <time>2011-03-20T08:58:23</time>
      </trkpt>
      <trkpt lat="44.44347" lon="1.4316">
        <ele>130</ele>
        <time>2011-03-20T08:58:24</time>
      </trkpt>
      <trkpt lat="44.44333" lon="1.43172">
        <ele>130</ele>
        <time>2011-03-20T08:58:26</time>
      </trkpt>
      <trkpt lat="44.44324" lon="1.43178">
        <ele>130</ele>
        <time>2011-03-20T08:58:27</time>
      </trkpt>
      <trkpt lat="44.44315" lon="1.43184">
        <ele>130</ele>
        <time>2011-03-20T08:58:28</time>
      </trkpt>
      <trkpt lat="44.44297" lon="1.43196">
        <ele>130</ele>
        <time>2011-03-20T08:58:30</time>
      </trkpt>
      <trkpt lat="44.4428" lon="1.43207">
        <ele>160</ele>
        <time>2011-03-20T08:58:32</time>
      </trkpt>
      <trkpt lat="44.44272" lon="1.43212">
        <ele>125</ele>
        <time>2011-03-20T08:58:33</time>
      </trkpt>
      <trkpt lat="44.44264" lon="1.43217">
        <ele>125</ele>
        <time>2011-03-20T08:58:34</time>
      </trkpt>
      <trkpt lat="44.44256" lon="1.43222">
        <ele>125</ele>
        <time>2011-03-20T08:58:35</time>
      </trkpt>
      <trkpt lat="44.44248" lon="1.43226">
        <ele>125</ele>
        <time>2011-03-20T08:58:36</time>
      </trkpt>
      <trkpt lat="44.44241" lon="1.43231">
        <ele>125</ele>
        <time>2011-03-20T08:58:37</time>
      </trkpt>
      <trkpt lat="44.44228" lon="1.43241">
        <ele>125</ele>
        <time>2011-03-20T08:58:39</time>
      </trkpt>
      <trkpt lat="44.44222" lon="1.43247">
        <ele>125</ele>
        <time>2011-03-20T08:58:40</time>
      </trkpt>
      <trkpt lat="44.4421" lon="1.4326">
        <ele>125</ele>
        <time>2011-03-20T08:58:42</time>
      </trkpt>
      <trkpt lat="44.44204" lon="1.43266">
        <ele>165</ele>
        <time>2011-03-20T08:58:43</time>
      </trkpt>
      <trkpt lat="44.44194" lon="1.43279">
        <ele>165</ele>
        <time>2011-03-20T08:58:45</time>
      </trkpt>
      <trkpt lat="44.44182" lon="1.4329">
        <ele>165</ele>
        <time>2011-03-20T08:58:47</time>
      </trkpt>
      <trkpt lat="44.44177" lon="1.43295">
        <ele>138</ele>
        <time>2011-03-20T08:58:48</time>
      </trkpt>
      <trkpt lat="44.44166" lon="1.43306">
        <ele>138</ele>
        <time>2011-03-20T08:58:50</time>
      </trkpt>
      <trkpt lat="44.44161" lon="1.43311">
        <ele>138</ele>
        <time>2011-03-20T08:58:51</time>
      </trkpt>
      <trkpt lat="44.44155" lon="1.43316">
        <ele>138</ele>
        <time>2011-03-20T08:58:52</time>
      </trkpt>
      <trkpt lat="44.44144" lon="1.43326">
        <ele>138</ele>
        <time>2011-03-20T08:58:54</time>
      </trkpt>
      <trkpt lat="44.44138" lon="1.43331">
        <ele>138</ele>
        <time>2011-03-20T08:58:55</time>
      </trkpt>
      <trkpt lat="44.44132" lon="1.43334">
        <ele>138</ele>
        <time>2011-03-20T08:58:56</time>
      </trkpt>
      <trkpt lat="44.4412" lon="1.43342">
        <ele>150</ele>
        <time>2011-03-20T08:58:58</time>
      </trkpt>
      <trkpt lat="44.44109" lon="1.43353">
        <ele>150</ele>
        <time>2011-03-20T08:59:00</time>
      </trkpt>
      <trkpt lat="44.44103" lon="1.43359">
        <ele>150</ele>
        <time>2011-03-20T08:59:01</time>
      </trkpt>
      <trkpt lat="44.44097" lon="1.43364">
        <ele>150</ele>
        <time>2011-03-20T08:59:02</time>
      </trkpt>
      <trkpt lat="44.44091" lon="1.43368">
        <ele>150</ele>
        <time>2011-03-20T08:59:03</time>
      </trkpt>
      <trkpt lat="44.4408" lon="1.43378">
        <ele>115</ele>
        <time>2011-03-20T08:59:05</time>
      </trkpt>
      <trkpt lat="44.44068" lon="1.43389">
        <ele>115</ele>
        <time>2011-03-20T08:59:07</time>
      </trkpt>
      <trkpt lat="44.44062" lon="1.43395">
        <ele>115</ele>
        <time>2011-03-20T08:59:08</time>
      </trkpt>
      <trkpt lat="44.44052" lon="1.43407">
        <ele>115</ele>
        <time>2011-03-20T08:59:10</time>
      </trkpt>
      <trkpt lat="44.44047" lon="1.43414">
        <ele>115</ele>
        <time>2011-03-20T08:59:11</time>
      </trkpt>
      <trkpt lat="44.44043" lon="1.43422">
        <ele>115</ele>
        <time>2011-03-20T08:59:12</time>
      </trkpt>
      <trkpt lat="44.44036" lon="1.43439">
        <ele>152</ele>
        <time>2011-03-20T08:59:14</time>
      </trkpt>
      <trkpt lat="44.44033" lon="1.43448">
        <ele>152</ele>
        <time>2011-03-20T08:59:15</time>
      </trkpt>
      <trkpt lat="44.44028" lon="1.43465">
        <ele>128</ele>
        <time>2011-03-20T08:59:17</time>
      </trkpt>
      <trkpt lat="44.44024" lon="1.43483">
        <ele>128</ele>
        <time>2011-03-20T08:59:19</time>
      </trkpt>
      <trkpt lat="44.44023" lon="1.43493">
        <ele>128</ele>
        <time>2011-03-20T08:59:20</time>
      </trkpt>
      <trkpt lat="44.44022" lon="1.43502">
        <ele>128</ele>
        <time>2011-03-20T08:59:21</time>
      </trkpt>
      <trkpt lat="44.4402" lon="1.43521">
        <ele>128</ele>
        <time>2011-03-20T08:59:23</time>
      </trkpt>
      <trkpt lat="44.44017" lon="1.43538">
        <ele>128</ele>
        <time>2011-03-20T08:59:25</time>
      </trkpt>
      <trkpt lat="44.44016" lon="1.43547">
        <ele>116</ele>
        <time>2011-03-20T08:59:26</time>
      </trkpt>
      <trkpt lat="44.44015" lon="1.43555">
        <ele>116</ele>
        <time>2011-03-20T08:59:27</time>
      </trkpt>
      <trkpt lat="44.44014" lon="1.43563">
        <ele>116</ele>
        <time>2011-03-20T08:59:28</time>
      </trkpt>
      <trkpt lat="44.44012" lon="1.43572">
        <ele>116</ele>
        <time>2011-03-20T08:59:29</time>
      </trkpt>
      <trkpt lat="44.4401" lon="1.43589">
        <ele>116</ele>
        <time>2011-03-20T08:59:31</time>
      </trkpt>
      <trkpt lat="44.44007" lon="1.43607">
        <ele>116</ele>
        <time>2011-03-20T08:59:33</time>
      </trkpt>
      <trkpt lat="44.44004" lon="1.43625">
        <ele>115</ele>
        <time>2011-03-20T08:59:35</time>
      </trkpt>
      <trkpt lat="44.44003" lon="1.43634">
        <ele>115</ele>
        <time>2011-03-20T08:59:36</time>
      </trkpt>
      <trkpt lat="44.44002" lon="1.43644">
        <ele>115</ele>
        <time>2011-03-20T08:59:37</time>
      </trkpt>
      <trkpt lat="44.44003" lon="1.43661">
        <ele>115</ele>
        <time>2011-03-20T08:59:39</time>
      </trkpt>
      <trkpt lat="44.44002" lon="1.43669">
        <ele>115</ele>
        <time>2011-03-20T08:59:40</time>
      </trkpt>
      <trkpt lat="44.44002" lon="1.43678">
        <ele>115</ele>
        <time>2011-03-20T08:59:41</time>
      </trkpt>
      <trkpt lat="44.44001" lon="1.43686">
        <ele>115</ele>
        <time>2011-03-20T08:59:42</time>
      </trkpt>
      <trkpt lat="44.43999" lon="1.43693">
        <ele>115</ele>
        <time>2011-03-20T08:59:43</time>
      </trkpt>
      <trkpt lat="44.43997" lon="1.43709">
        <ele>117</ele>
        <time>2011-03-20T08:59:45</time>
      </trkpt>
      <trkpt lat="44.43996" lon="1.43718">
        <ele>117</ele>
        <time>2011-03-20T08:59:46</time>
      </trkpt>
      <trkpt lat="44.43995" lon="1.43727">
        <ele>117</ele>
        <time>2011-03-20T08:59:47</time>
      </trkpt>
      <trkpt lat="44.43995" lon="1.43746">
        <ele>117</ele>
        <time>2011-03-20T08:59:49</time>
      </trkpt>
      <trkpt lat="44.43995" lon="1.43764">
        <ele>117</ele>
        <time>2011-03-20T08:59:51</time>
      </trkpt>
      <trkpt lat="44.43995" lon="1.43773">
        <ele>117</ele>
        <time>2011-03-20T08:59:52</time>
      </trkpt>
      <trkpt lat="44.43995" lon="1.43782">
        <ele>117</ele>
        <time>2011-03-20T08:59:53</time>
      </trkpt>
      <trkpt lat="44.43995" lon="1.438">
        <ele>115</ele>
        <time>2011-03-20T08:59:55</time>
      </trkpt>
      <trkpt lat="44.43995" lon="1.43809">
        <ele>115</ele>
        <time>2011-03-20T08:59:56</time>
      </trkpt>
      <trkpt lat="44.43995" lon="1.43817">
        <ele>115</ele>
        <time>2011-03-20T08:59:57</time>
      </trkpt>
      <trkpt lat="44.43994" lon="1.43826">
        <ele>115</ele>
        <time>2011-03-20T08:59:58</time>
      </trkpt>
      <trkpt lat="44.43994" lon="1.43835">
        <ele>115</ele>
        <time>2011-03-20T08:59:59</time>
      </trkpt>
      <trkpt lat="44.43994" lon="1.43852">
        <ele>115</ele>
        <time>2011-03-20T09:00:01</time>
      </trkpt>
      <trkpt lat="44.43993" lon="1.43867">
        <ele>115</ele>
        <time>2011-03-20T09:00:03</time>
      </trkpt>
      <trkpt lat="44.43993" lon="1.43875">
        <ele>115</ele>
        <time>2011-03-20T09:00:04</time>
      </trkpt>
      <trkpt lat="44.43992" lon="1.43883">
        <ele>115</ele>
        <time>2011-03-20T09:00:05</time>
      </trkpt>
      <trkpt lat="44.43992" lon="1.43891">
        <ele>115</ele>
        <time>2011-03-20T09:00:06</time>
      </trkpt>
      <trkpt lat="44.43991" lon="1.43907">
        <ele>115</ele>
        <time>2011-03-20T09:00:08</time>
      </trkpt>
      <trkpt lat="44.43991" lon="1.43914">
        <ele>115</ele>
        <time>2011-03-20T09:00:09</time>
      </trkpt>
      <trkpt lat="44.43991" lon="1.43926">
        <ele>115</ele>
        <time>2011-03-20T09:00:11</time>
      </trkpt>
      <trkpt lat="44.43987" lon="1.43934">
        <ele>115</ele>
        <time>2011-03-20T09:00:13</time>
      </trkpt>
      <trkpt lat="44.43984" lon="1.43937">
        <ele>115</ele>
        <time>2011-03-20T09:00:14</time>
      </trkpt>
      <trkpt lat="44.43979" lon="1.43942">
        <ele>115</ele>
        <time>2011-03-20T09:00:16</time>
      </trkpt>
      <trkpt lat="44.43972" lon="1.43951">
        <ele>115</ele>
        <time>2011-03-20T09:00:18</time>
      </trkpt>
      <trkpt lat="44.43968" lon="1.43957">
        <ele>115</ele>
        <time>2011-03-20T09:00:19</time>
      </trkpt>
      <trkpt lat="44.43959" lon="1.43969">
        <ele>116</ele>
        <time>2011-03-20T09:00:21</time>
      </trkpt>
      <trkpt lat="44.4395" lon="1.4398">
        <ele>116</ele>
        <time>2011-03-20T09:00:23</time>
      </trkpt>
      <trkpt lat="44.4394" lon="1.43989">
        <ele>116</ele>
        <time>2011-03-20T09:00:25</time>
      </trkpt>
      <trkpt lat="44.43931" lon="1.43998">
        <ele>116</ele>
        <time>2011-03-20T09:00:27</time>
      </trkpt>
      <trkpt lat="44.43924" lon="1.44008">
        <ele>116</ele>
        <time>2011-03-20T09:00:29</time>
      </trkpt>
      <trkpt lat="44.4392" lon="1.44013">
        <ele>116</ele>
        <time>2011-03-20T09:00:30</time>
      </trkpt>
      <trkpt lat="44.43913" lon="1.44023">
        <ele>116</ele>
        <time>2011-03-20T09:00:32</time>
      </trkpt>
      <trkpt lat="44.4391" lon="1.44029">
        <ele>116</ele>
        <time>2011-03-20T09:00:33</time>
      </trkpt>
      <trkpt lat="44.43907" lon="1.44035">
        <ele>116</ele>
        <time>2011-03-20T09:00:34</time>
      </trkpt>
      <trkpt lat="44.43902" lon="1.44047">
        <ele>119</ele>
        <time>2011-03-20T09:00:36</time>
      </trkpt>
      <trkpt lat="44.43898" lon="1.4406">
        <ele>119</ele>
        <time>2011-03-20T09:00:38</time>
      </trkpt>
      <trkpt lat="44.43895" lon="1.44066">
        <ele>119</ele>
        <time>2011-03-20T09:00:39</time>
      </trkpt>
      <trkpt lat="44.4389" lon="1.44079">
        <ele>119</ele>
        <time>2011-03-20T09:00:41</time>
      </trkpt>
      <trkpt lat="44.43885" lon="1.44091">
        <ele>119</ele>
        <time>2011-03-20T09:00:43</time>
      </trkpt>
      <trkpt lat="44.43885" lon="1.44098">
        <ele>119</ele>
        <time>2011-03-20T09:00:44</time>
      </trkpt>
      <trkpt lat="44.43879" lon="1.4411">
        <ele>119</ele>
        <time>2011-03-20T09:00:46</time>
      </trkpt>
      <trkpt lat="44.43871" lon="1.44119">
        <ele>118</ele>
        <time>2011-03-20T09:00:48</time>
      </trkpt>
      <trkpt lat="44.43861" lon="1.44123">
        <ele>118</ele>
        <time>2011-03-20T09:00:50</time>
      </trkpt>
      <trkpt lat="44.43851" lon="1.44127">
        <ele>122</ele>
        <time>2011-03-20T09:00:52</time>
      </trkpt>
      <trkpt lat="44.43839" lon="1.44129">
        <ele>122</ele>
        <time>2011-03-20T09:00:54</time>
      </trkpt>
      <trkpt lat="44.43829" lon="1.4413">
        <ele>122</ele>
        <time>2011-03-20T09:00:56</time>
      </trkpt>
      <trkpt lat="44.43823" lon="1.44131">
        <ele>122</ele>
        <time>2011-03-20T09:00:57</time>
      </trkpt>
      <trkpt lat="44.43811" lon="1.44131">
        <ele>122</ele>
        <time>2011-03-20T09:00:59</time>
      </trkpt>
      <trkpt lat="44.43806" lon="1.44129">
        <ele>122</ele>
        <time>2011-03-20T09:01:00</time>
      </trkpt>
      <trkpt lat="44.43794" lon="1.44125">
        <ele>118</ele>
        <time>2011-03-20T09:01:02</time>
      </trkpt>
      <trkpt lat="44.43783" lon="1.44119">
        <ele>118</ele>
        <time>2011-03-20T09:01:04</time>
      </trkpt>
      <trkpt lat="44.43778" lon="1.44117">
        <ele>118</ele>
        <time>2011-03-20T09:01:05</time>
      </trkpt>
      <trkpt lat="44.43766" lon="1.44118">
        <ele>118</ele>
        <time>2011-03-20T09:01:07</time>
      </trkpt>
      <trkpt lat="44.43755" lon="1.4412">
        <ele>118</ele>
        <time>2011-03-20T09:01:09</time>
      </trkpt>
      <trkpt lat="44.43745" lon="1.44125">
        <ele>118</ele>
        <time>2011-03-20T09:01:11</time>
      </trkpt>
      <trkpt lat="44.43739" lon="1.44127">
        <ele>119</ele>
        <time>2011-03-20T09:01:12</time>
      </trkpt>
      <trkpt lat="44.43729" lon="1.44133">
        <ele>119</ele>
        <time>2011-03-20T09:01:14</time>
      </trkpt>
      <trkpt lat="44.43718" lon="1.44139">
        <ele>119</ele>
        <time>2011-03-20T09:01:16</time>
      </trkpt>
      <trkpt lat="44.43713" lon="1.44142">
        <ele>119</ele>
        <time>2011-03-20T09:01:17</time>
      </trkpt>
      <trkpt lat="44.43708" lon="1.44146">
        <ele>118</ele>
        <time>2011-03-20T09:01:18</time>
      </trkpt>
      <trkpt lat="44.43699" lon="1.44152">
        <ele>118</ele>
        <time>2011-03-20T09:01:20</time>
      </trkpt>
      <trkpt lat="44.43689" lon="1.44159">
        <ele>118</ele>
        <time>2011-03-20T09:01:22</time>
      </trkpt>
      <trkpt lat="44.43684" lon="1.44162">
        <ele>118</ele>
        <time>2011-03-20T09:01:23</time>
      </trkpt>
      <trkpt lat="44.43674" lon="1.44169">
        <ele>118</ele>
        <time>2011-03-20T09:01:25</time>
      </trkpt>
      <trkpt lat="44.43669" lon="1.44173">
        <ele>118</ele>
        <time>2011-03-20T09:01:26</time>
      </trkpt>
      <trkpt lat="44.4366" lon="1.4418">
        <ele>118</ele>
        <time>2011-03-20T09:01:28</time>
      </trkpt>
      <trkpt lat="44.4365" lon="1.44188">
        <ele>118</ele>
        <time>2011-03-20T09:01:30</time>
      </trkpt>
      <trkpt lat="44.4364" lon="1.44195">
        <ele>118</ele>
        <time>2011-03-20T09:01:32</time>
      </trkpt>
      <trkpt lat="44.43635" lon="1.44199">
        <ele>118</ele>
        <time>2011-03-20T09:01:33</time>
      </trkpt>
      <trkpt lat="44.43625" lon="1.44207">
        <ele>118</ele>
        <time>2011-03-20T09:01:35</time>
      </trkpt>
      <trkpt lat="44.43616" lon="1.44214">
        <ele>119</ele>
        <time>2011-03-20T09:01:37</time>
      </trkpt>
      <trkpt lat="44.43611" lon="1.44217">
        <ele>119</ele>
        <time>2011-03-20T09:01:38</time>
      </trkpt>
      <trkpt lat="44.43606" lon="1.44221">
        <ele>119</ele>
        <time>2011-03-20T09:01:39</time>
      </trkpt>
      <trkpt lat="44.43601" lon="1.44224">
        <ele>119</ele>
        <time>2011-03-20T09:01:40</time>
      </trkpt>
      <trkpt lat="44.43597" lon="1.44227">
        <ele>119</ele>
        <time>2011-03-20T09:01:41</time>
      </trkpt>
      <trkpt lat="44.43587" lon="1.44233">
        <ele>119</ele>
        <time>2011-03-20T09:01:43</time>
      </trkpt>
      <trkpt lat="44.43582" lon="1.44236">
        <ele>119</ele>
        <time>2011-03-20T09:01:44</time>
      </trkpt>
      <trkpt lat="44.43572" lon="1.44241">
        <ele>119</ele>
        <time>2011-03-20T09:01:46</time>
      </trkpt>
      <trkpt lat="44.43563" lon="1.44247">
        <ele>119</ele>
        <time>2011-03-20T09:01:48</time>
      </trkpt>
      <trkpt lat="44.43558" lon="1.44249">
        <ele>119</ele>
        <time>2011-03-20T09:01:49</time>
      </trkpt>
      <trkpt lat="44.43553" lon="1.44251">
        <ele>119</ele>
        <time>2011-03-20T09:01:50</time>
      </trkpt>
      <trkpt lat="44.43547" lon="1.44253">
        <ele>119</ele>
        <time>2011-03-20T09:01:51</time>
      </trkpt>
      <trkpt lat="44.43542" lon="1.44255">
        <ele>119</ele>
        <time>2011-03-20T09:01:52</time>
      </trkpt>
      <trkpt lat="44.43537" lon="1.44255">
        <ele>123</ele>
        <time>2011-03-20T09:01:53</time>
      </trkpt>
      <trkpt lat="44.43529" lon="1.44254">
        <ele>123</ele>
        <time>2011-03-20T09:01:55</time>
      </trkpt>
      <trkpt lat="44.43525" lon="1.44253">
        <ele>123</ele>
        <time>2011-03-20T09:01:56</time>
      </trkpt>
      <trkpt lat="44.43521" lon="1.44252">
        <ele>123</ele>
        <time>2011-03-20T09:01:57</time>
      </trkpt>
      <trkpt lat="44.43514" lon="1.4425">
        <ele>123</ele>
        <time>2011-03-20T09:01:59</time>
      </trkpt>
      <trkpt lat="44.4351" lon="1.4425">
        <ele>123</ele>
        <time>2011-03-20T09:02:00</time>
      </trkpt>
      <trkpt lat="44.43503" lon="1.44249">
        <ele>123</ele>
        <time>2011-03-20T09:02:02</time>
      </trkpt>
      <trkpt lat="44.435" lon="1.44248">
        <ele>123</ele>
        <time>2011-03-20T09:02:03</time>
      </trkpt>
      <trkpt lat="44.43496" lon="1.44248">
        <ele>123</ele>
        <time>2011-03-20T09:02:04</time>
      </trkpt>
      <trkpt lat="44.43489" lon="1.44249">
        <ele>123</ele>
        <time>2011-03-20T09:02:06</time>
      </trkpt>
      <trkpt lat="44.43486" lon="1.44249">
        <ele>123</ele>
        <time>2011-03-20T09:02:07</time>
      </trkpt>
      <trkpt lat="44.4348" lon="1.4425">
        <ele>123</ele>
        <time>2011-03-20T09:02:09</time>
      </trkpt>
      <trkpt lat="44.43476" lon="1.4425">
        <ele>123</ele>
        <time>2011-03-20T09:02:10</time>
      </trkpt>
      <trkpt lat="44.43474" lon="1.44252">
        <ele>123</ele>
        <time>2011-03-20T09:02:11</time>
      </trkpt>
      <trkpt lat="44.43471" lon="1.44254">
        <ele>123</ele>
        <time>2011-03-20T09:02:12</time>
      </trkpt>
      <trkpt lat="44.43466" lon="1.44257">
        <ele>123</ele>
        <time>2011-03-20T09:02:14</time>
      </trkpt>
      <trkpt lat="44.43463" lon="1.44259">
        <ele>123</ele>
        <time>2011-03-20T09:02:15</time>
      </trkpt>
      <trkpt lat="44.4346" lon="1.44261">
        <ele>123</ele>
        <time>2011-03-20T09:02:16</time>
      </trkpt>
      <trkpt lat="44.43455" lon="1.44264">
        <ele>131</ele>
        <time>2011-03-20T09:02:18</time>
      </trkpt>
      <trkpt lat="44.43452" lon="1.44266">
        <ele>131</ele>
        <time>2011-03-20T09:02:19</time>
      </trkpt>
      <trkpt lat="44.43446" lon="1.44268">
        <ele>131</ele>
        <time>2011-03-20T09:02:21</time>
      </trkpt>
      <trkpt lat="44.43439" lon="1.44268">
        <ele>131</ele>
        <time>2011-03-20T09:02:23</time>
      </trkpt>
      <trkpt lat="44.43436" lon="1.44268">
        <ele>131</ele>
        <time>2011-03-20T09:02:24</time>
      </trkpt>
      <trkpt lat="44.4343" lon="1.44268">
        <ele>131</ele>
        <time>2011-03-20T09:02:26</time>
      </trkpt>
      <trkpt lat="44.43427" lon="1.44268">
        <ele>131</ele>
        <time>2011-03-20T09:02:27</time>
      </trkpt>
      <trkpt lat="44.43419" lon="1.44269">
        <ele>131</ele>
        <time>2011-03-20T09:02:29</time>
      </trkpt>
      <trkpt lat="44.43415" lon="1.44271">
        <ele>131</ele>
        <time>2011-03-20T09:02:30</time>
      </trkpt>
      <trkpt lat="44.43411" lon="1.44273">
        <ele>131</ele>
        <time>2011-03-20T09:02:31</time>
      </trkpt>
      <trkpt lat="44.43402" lon="1.44277">
        <ele>131</ele>
        <time>2011-03-20T09:02:33</time>
      </trkpt>
      <trkpt lat="44.43398" lon="1.44279">
        <ele>131</ele>
        <time>2011-03-20T09:02:34</time>
      </trkpt>
      <trkpt lat="44.43394" lon="1.44281">
        <ele>131</ele>
        <time>2011-03-20T09:02:35</time>
      </trkpt>
      <trkpt lat="44.43385" lon="1.44286">
        <ele>131</ele>
        <time>2011-03-20T09:02:37</time>
      </trkpt>
      <trkpt lat="44.4338" lon="1.44288">
        <ele>131</ele>
        <time>2011-03-20T09:02:38</time>
      </trkpt>
      <trkpt lat="44.43376" lon="1.44291">
        <ele>131</ele>
        <time>2011-03-20T09:02:39</time>
      </trkpt>
      <trkpt lat="44.43367" lon="1.44296">
        <ele>126</ele>
        <time>2011-03-20T09:02:41</time>
      </trkpt>
      <trkpt lat="44.43356" lon="1.44302">
        <ele>126</ele>
        <time>2011-03-20T09:02:43</time>
      </trkpt>
      <trkpt lat="44.43351" lon="1.44305">
        <ele>126</ele>
        <time>2011-03-20T09:02:44</time>
      </trkpt>
      <trkpt lat="44.43346" lon="1.44308">
        <ele>126</ele>
        <time>2011-03-20T09:02:45</time>
      </trkpt>
      <trkpt lat="44.43337" lon="1.44314">
        <ele>126</ele>
        <time>2011-03-20T09:02:47</time>
      </trkpt>
      <trkpt lat="44.43332" lon="1.44316">
        <ele>126</ele>
        <time>2011-03-20T09:02:48</time>
      </trkpt>
      <trkpt lat="44.43323" lon="1.44321">
        <ele>126</ele>
        <time>2011-03-20T09:02:50</time>
      </trkpt>
      <trkpt lat="44.43318" lon="1.44322">
        <ele>126</ele>
        <time>2011-03-20T09:02:51</time>
      </trkpt>
      <trkpt lat="44.43313" lon="1.44324">
        <ele>126</ele>
        <time>2011-03-20T09:02:52</time>
      </trkpt>
      <trkpt lat="44.43303" lon="1.44325">
        <ele>126</ele>
        <time>2011-03-20T09:02:54</time>
      </trkpt>
      <trkpt lat="44.43298" lon="1.44326">
        <ele>126</ele>
        <time>2011-03-20T09:02:55</time>
      </trkpt>
      <trkpt lat="44.43293" lon="1.44326">
        <ele>126</ele>
        <time>2011-03-20T09:02:56</time>
      </trkpt>
      <trkpt lat="44.43288" lon="1.44326">
        <ele>128</ele>
        <time>2011-03-20T09:02:57</time>
      </trkpt>
      <trkpt lat="44.43283" lon="1.44326">
        <ele>128</ele>
        <time>2011-03-20T09:02:58</time>
      </trkpt>
      <trkpt lat="44.43277" lon="1.44326">
        <ele>128</ele>
        <time>2011-03-20T09:02:59</time>
      </trkpt>
      <trkpt lat="44.43267" lon="1.44325">
        <ele>128</ele>
        <time>2011-03-20T09:03:01</time>
      </trkpt>
      <trkpt lat="44.43261" lon="1.44325">
        <ele>128</ele>
        <time>2011-03-20T09:03:02</time>
      </trkpt>
      <trkpt lat="44.43255" lon="1.44324">
        <ele>128</ele>
        <time>2011-03-20T09:03:03</time>
      </trkpt>
      <trkpt lat="44.4325" lon="1.44323">
        <ele>128</ele>
        <time>2011-03-20T09:03:04</time>
      </trkpt>
      <trkpt lat="44.43239" lon="1.44322">
        <ele>128</ele>
        <time>2011-03-20T09:03:06</time>
      </trkpt>
      <trkpt lat="44.43232" lon="1.44322">
        <ele>128</ele>
        <time>2011-03-20T09:03:07</time>
      </trkpt>
      <trkpt lat="44.43226" lon="1.44321">
        <ele>128</ele>
        <time>2011-03-20T09:03:08</time>
      </trkpt>
      <trkpt lat="44.43214" lon="1.44319">
        <ele>128</ele>
        <time>2011-03-20T09:03:10</time>
      </trkpt>
      <trkpt lat="44.43202" lon="1.44313">
        <ele>124</ele>
        <time>2011-03-20T09:03:12</time>
      </trkpt>
      <trkpt lat="44.43189" lon="1.44306">
        <ele>124</ele>
        <time>2011-03-20T09:03:14</time>
      </trkpt>
      <trkpt lat="44.43183" lon="1.44303">
        <ele>124</ele>
        <time>2011-03-20T09:03:15</time>
      </trkpt>
      <trkpt lat="44.43171" lon="1.44296">
        <ele>124</ele>
        <time>2011-03-20T09:03:17</time>
      </trkpt>
      <trkpt lat="44.43165" lon="1.44292">
        <ele>124</ele>
        <time>2011-03-20T09:03:18</time>
      </trkpt>
      <trkpt lat="44.43158" lon="1.44288">
        <ele>136</ele>
        <time>2011-03-20T09:03:19</time>
      </trkpt>
      <trkpt lat="44.43146" lon="1.4428">
        <ele>136</ele>
        <time>2011-03-20T09:03:21</time>
      </trkpt>
      <trkpt lat="44.43135" lon="1.44272">
        <ele>136</ele>
        <time>2011-03-20T09:03:23</time>
      </trkpt>
      <trkpt lat="44.43129" lon="1.44268">
        <ele>136</ele>
        <time>2011-03-20T09:03:24</time>
      </trkpt>
      <trkpt lat="44.43123" lon="1.44264">
        <ele>124</ele>
        <time>2011-03-20T09:03:25</time>
      </trkpt>
      <trkpt lat="44.43118" lon="1.44259">
        <ele>124</ele>
        <time>2011-03-20T09:03:26</time>
      </trkpt>
      <trkpt lat="44.43107" lon="1.44251">
        <ele>124</ele>
        <time>2011-03-20T09:03:28</time>
      </trkpt>
      <trkpt lat="44.43096" lon="1.44243">
        <ele>124</ele>
        <time>2011-03-20T09:03:30</time>
      </trkpt>
      <trkpt lat="44.43091" lon="1.44238">
        <ele>124</ele>
        <time>2011-03-20T09:03:31</time>
      </trkpt>
      <trkpt lat="44.4308" lon="1.44228">
        <ele>124</ele>
        <time>2011-03-20T09:03:33</time>
      </trkpt>
      <trkpt lat="44.4307" lon="1.44217">
        <ele>124</ele>
        <time>2011-03-20T09:03:35</time>
      </trkpt>
      <trkpt lat="44.4306" lon="1.44205">
        <ele>136</ele>
        <time>2011-03-20T09:03:37</time>
      </trkpt>
      <trkpt lat="44.43055" lon="1.442">
        <ele>136</ele>
        <time>2011-03-20T09:03:38</time>
      </trkpt>
      <trkpt lat="44.43046" lon="1.44189">
        <ele>136</ele>
        <time>2011-03-20T09:03:40</time>
      </trkpt>
      <trkpt lat="44.43041" lon="1.44183">
        <ele>125</ele>
        <time>2011-03-20T09:03:41</time>
      </trkpt>
      <trkpt lat="44.43037" lon="1.44178">
        <ele>125</ele>
        <time>2011-03-20T09:03:42</time>
      </trkpt>
      <trkpt lat="44.43027" lon="1.44168">
        <ele>125</ele>
        <time>2011-03-20T09:03:44</time>
      </trkpt>
      <trkpt lat="44.43017" lon="1.4416">
        <ele>125</ele>
        <time>2011-03-20T09:03:46</time>
      </trkpt>
      <trkpt lat="44.43012" lon="1.44156">
        <ele>125</ele>
        <time>2011-03-20T09:03:47</time>
      </trkpt>
      <trkpt lat="44.43001" lon="1.4415">
        <ele>125</ele>
        <time>2011-03-20T09:03:49</time>
      </trkpt>
      <trkpt lat="44.4299" lon="1.44145">
        <ele>125</ele>
        <time>2011-03-20T09:03:51</time>
      </trkpt>
      <trkpt lat="44.4298" lon="1.44141">
        <ele>125</ele>
        <time>2011-03-20T09:03:53</time>
      </trkpt>
      <trkpt lat="44.42975" lon="1.44139">
        <ele>125</ele>
        <time>2011-03-20T09:03:54</time>
      </trkpt>
      <trkpt lat="44.42967" lon="1.44131">
        <ele>125</ele>
        <time>2011-03-20T09:03:56</time>
      </trkpt>
      <trkpt lat="44.42964" lon="1.44125">
        <ele>125</ele>
        <time>2011-03-20T09:03:57</time>
      </trkpt>
      <trkpt lat="44.42957" lon="1.44113">
        <ele>126</ele>
        <time>2011-03-20T09:03:59</time>
      </trkpt>
      <trkpt lat="44.42953" lon="1.44108">
        <ele>126</ele>
        <time>2011-03-20T09:04:00</time>
      </trkpt>
      <trkpt lat="44.42943" lon="1.44101">
        <ele>126</ele>
        <time>2011-03-20T09:04:02</time>
      </trkpt>
      <trkpt lat="44.42938" lon="1.44099">
        <ele>126</ele>
        <time>2011-03-20T09:04:03</time>
      </trkpt>
      <trkpt lat="44.42928" lon="1.44096">
        <ele>126</ele>
        <time>2011-03-20T09:04:05</time>
      </trkpt>
      <trkpt lat="44.42922" lon="1.44094">
        <ele>126</ele>
        <time>2011-03-20T09:04:06</time>
      </trkpt>
      <trkpt lat="44.42916" lon="1.44092">
        <ele>126</ele>
        <time>2011-03-20T09:04:07</time>
      </trkpt>
      <trkpt lat="44.42905" lon="1.44089">
        <ele>126</ele>
        <time>2011-03-20T09:04:09</time>
      </trkpt>
      <trkpt lat="44.42895" lon="1.44088">
        <ele>126</ele>
        <time>2011-03-20T09:04:11</time>
      </trkpt>
      <trkpt lat="44.42889" lon="1.44087">
        <ele>126</ele>
        <time>2011-03-20T09:04:12</time>
      </trkpt>
      <trkpt lat="44.42877" lon="1.44084">
        <ele>126</ele>
        <time>2011-03-20T09:04:14</time>
      </trkpt>
      <trkpt lat="44.42866" lon="1.44081">
        <ele>125</ele>
        <time>2011-03-20T09:04:16</time>
      </trkpt>
      <trkpt lat="44.42861" lon="1.4408">
        <ele>125</ele>
        <time>2011-03-20T09:04:17</time>
      </trkpt>
      <trkpt lat="44.42856" lon="1.44079">
        <ele>125</ele>
        <time>2011-03-20T09:04:18</time>
      </trkpt>
      <trkpt lat="44.42846" lon="1.44078">
        <ele>125</ele>
        <time>2011-03-20T09:04:20</time>
      </trkpt>
      <trkpt lat="44.42836" lon="1.44078">
        <ele>125</ele>
        <time>2011-03-20T09:04:22</time>
      </trkpt>
      <trkpt lat="44.4283" lon="1.44078">
        <ele>125</ele>
        <time>2011-03-20T09:04:23</time>
      </trkpt>
      <trkpt lat="44.42825" lon="1.44077">
        <ele>125</ele>
        <time>2011-03-20T09:04:24</time>
      </trkpt>
      <trkpt lat="44.4282" lon="1.44077">
        <ele>125</ele>
        <time>2011-03-20T09:04:25</time>
      </trkpt>
      <trkpt lat="44.42809" lon="1.44076">
        <ele>125</ele>
        <time>2011-03-20T09:04:27</time>
      </trkpt>
      <trkpt lat="44.42804" lon="1.44076">
        <ele>125</ele>
        <time>2011-03-20T09:04:28</time>
      </trkpt>
      <trkpt lat="44.42799" lon="1.44076">
        <ele>125</ele>
        <time>2011-03-20T09:04:29</time>
      </trkpt>
      <trkpt lat="44.42788" lon="1.44077">
        <ele>127</ele>
        <time>2011-03-20T09:04:31</time>
      </trkpt>
      <trkpt lat="44.42783" lon="1.44076">
        <ele>127</ele>
        <time>2011-03-20T09:04:32</time>
      </trkpt>
      <trkpt lat="44.42778" lon="1.44075">
        <ele>127</ele>
        <time>2011-03-20T09:04:33</time>
      </trkpt>
      <trkpt lat="44.42768" lon="1.4407">
        <ele>127</ele>
        <time>2011-03-20T09:04:35</time>
      </trkpt>
      <trkpt lat="44.4276" lon="1.44061">
        <ele>127</ele>
        <time>2011-03-20T09:04:37</time>
      </trkpt>
      <trkpt lat="44.42756" lon="1.44056">
        <ele>127</ele>
        <time>2011-03-20T09:04:38</time>
      </trkpt>
      <trkpt lat="44.42751" lon="1.44044">
        <ele>127</ele>
        <time>2011-03-20T09:04:40</time>
      </trkpt>
      <trkpt lat="44.42747" lon="1.44033">
        <ele>129</ele>
        <time>2011-03-20T09:04:42</time>
      </trkpt>
      <trkpt lat="44.42745" lon="1.44029">
        <ele>129</ele>
        <time>2011-03-20T09:04:43</time>
      </trkpt>
      <trkpt lat="44.42738" lon="1.44026">
        <ele>129</ele>
        <time>2011-03-20T09:04:45</time>
      </trkpt>
      <trkpt lat="44.42735" lon="1.44027">
        <ele>129</ele>
        <time>2011-03-20T09:04:46</time>
      </trkpt>
      <trkpt lat="44.42731" lon="1.44029">
        <ele>129</ele>
        <time>2011-03-20T09:04:47</time>
      </trkpt>
      <trkpt lat="44.42724" lon="1.44034">
        <ele>129</ele>
        <time>2011-03-20T09:04:49</time>
      </trkpt>
      <trkpt lat="44.42717" lon="1.4404">
        <ele>129</ele>
        <time>2011-03-20T09:04:51</time>
      </trkpt>
      <trkpt lat="44.42714" lon="1.44043">
        <ele>127</ele>
        <time>2011-03-20T09:04:52</time>
      </trkpt>
      <trkpt lat="44.42711" lon="1.44046">
        <ele>127</ele>
        <time>2011-03-20T09:04:53</time>
      </trkpt>
      <trkpt lat="44.42703" lon="1.44051">
        <ele>127</ele>
        <time>2011-03-20T09:04:55</time>
      </trkpt>
      <trkpt lat="44.42699" lon="1.44053">
        <ele>127</ele>
        <time>2011-03-20T09:04:56</time>
      </trkpt>
      <trkpt lat="44.42691" lon="1.44055">
        <ele>127</ele>
        <time>2011-03-20T09:04:58</time>
      </trkpt>
      <trkpt lat="44.42683" lon="1.44056">
        <ele>127</ele>
        <time>2011-03-20T09:05:00</time>
      </trkpt>
      <trkpt lat="44.42674" lon="1.44055">
        <ele>127</ele>
        <time>2011-03-20T09:05:02</time>
      </trkpt>
      <trkpt lat="44.42666" lon="1.44051">
        <ele>127</ele>
        <time>2011-03-20T09:05:04</time>
      </trkpt>
      <trkpt lat="44.42656" lon="1.44047">
        <ele>127</ele>
        <time>2011-03-20T09:05:06</time>
      </trkpt>
      <trkpt lat="44.42651" lon="1.44044">
        <ele>127</ele>
        <time>2011-03-20T09:05:07</time>
      </trkpt>
      <trkpt lat="44.42646" lon="1.44042">
        <ele>127</ele>
        <time>2011-03-20T09:05:08</time>
      </trkpt>
      <trkpt lat="44.42635" lon="1.44038">
        <ele>132</ele>
        <time>2011-03-20T09:05:10</time>
      </trkpt>
      <trkpt lat="44.42624" lon="1.44034">
        <ele>131</ele>
        <time>2011-03-20T09:05:12</time>
      </trkpt>
      <trkpt lat="44.42619" lon="1.44033">
        <ele>131</ele>
        <time>2011-03-20T09:05:13</time>
      </trkpt>
      <trkpt lat="44.42607" lon="1.44031">
        <ele>131</ele>
        <time>2011-03-20T09:05:15</time>
      </trkpt>
      <trkpt lat="44.42598" lon="1.44041">
        <ele>131</ele>
        <time>2011-03-20T09:05:17</time>
      </trkpt>
      <trkpt lat="44.42594" lon="1.44054">
        <ele>127</ele>
        <time>2011-03-20T09:05:19</time>
      </trkpt>
      <trkpt lat="44.42593" lon="1.44062">
        <ele>127</ele>
        <time>2011-03-20T09:05:20</time>
      </trkpt>
      <trkpt lat="44.42592" lon="1.44077">
        <ele>127</ele>
        <time>2011-03-20T09:05:22</time>
      </trkpt>
      <trkpt lat="44.42591" lon="1.44084">
        <ele>127</ele>
        <time>2011-03-20T09:05:23</time>
      </trkpt>
      <trkpt lat="44.42591" lon="1.44097">
        <ele>127</ele>
        <time>2011-03-20T09:05:25</time>
      </trkpt>
      <trkpt lat="44.42589" lon="1.44106">
        <ele>127</ele>
        <time>2011-03-20T09:05:27</time>
      </trkpt>
      <trkpt lat="44.42588" lon="1.44111">
        <ele>127</ele>
        <time>2011-03-20T09:05:28</time>
      </trkpt>
      <trkpt lat="44.42585" lon="1.4412">
        <ele>127</ele>
        <time>2011-03-20T09:05:30</time>
      </trkpt>
      <trkpt lat="44.42581" lon="1.44131">
        <ele>129</ele>
        <time>2011-03-20T09:05:32</time>
      </trkpt>
      <trkpt lat="44.4258" lon="1.44143">
        <ele>129</ele>
        <time>2011-03-20T09:05:34</time>
      </trkpt>
      <trkpt lat="44.4258" lon="1.44148">
        <ele>129</ele>
        <time>2011-03-20T09:05:35</time>
      </trkpt>
      <trkpt lat="44.42581" lon="1.44159">
        <ele>129</ele>
        <time>2011-03-20T09:05:37</time>
      </trkpt>
      <trkpt lat="44.42582" lon="1.4417">
        <ele>129</ele>
        <time>2011-03-20T09:05:39</time>
      </trkpt>
      <trkpt lat="44.42581" lon="1.44175">
        <ele>129</ele>
        <time>2011-03-20T09:05:40</time>
      </trkpt>
      <trkpt lat="44.42575" lon="1.44181">
        <ele>129</ele>
        <time>2011-03-20T09:05:42</time>
      </trkpt>
      <trkpt lat="44.42567" lon="1.44184">
        <ele>129</ele>
        <time>2011-03-20T09:05:44</time>
      </trkpt>
      <trkpt lat="44.42559" lon="1.44188">
        <ele>129</ele>
        <time>2011-03-20T09:05:46</time>
      </trkpt>
      <trkpt lat="44.42556" lon="1.44192">
        <ele>129</ele>
        <time>2011-03-20T09:05:47</time>
      </trkpt>
      <trkpt lat="44.4255" lon="1.44199">
        <ele>129</ele>
        <time>2011-03-20T09:05:49</time>
      </trkpt>
      <trkpt lat="44.42547" lon="1.44203">
        <ele>129</ele>
        <time>2011-03-20T09:05:50</time>
      </trkpt>
      <trkpt lat="44.42542" lon="1.44211">
        <ele>139</ele>
        <time>2011-03-20T09:05:52</time>
      </trkpt>
      <trkpt lat="44.42537" lon="1.4422">
        <ele>134</ele>
        <time>2011-03-20T09:05:54</time>
      </trkpt>
      <trkpt lat="44.42535" lon="1.44224">
        <ele>134</ele>
        <time>2011-03-20T09:05:55</time>
      </trkpt>
      <trkpt lat="44.42531" lon="1.44233">
        <ele>134</ele>
        <time>2011-03-20T09:05:57</time>
      </trkpt>
      <trkpt lat="44.42526" lon="1.44242">
        <ele>134</ele>
        <time>2011-03-20T09:05:59</time>
      </trkpt>
      <trkpt lat="44.42522" lon="1.4425">
        <ele>134</ele>
        <time>2011-03-20T09:06:01</time>
      </trkpt>
      <trkpt lat="44.4252" lon="1.44255">
        <ele>134</ele>
        <time>2011-03-20T09:06:02</time>
      </trkpt>
      <trkpt lat="44.42516" lon="1.44264">
        <ele>134</ele>
        <time>2011-03-20T09:06:04</time>
      </trkpt>
      <trkpt lat="44.42513" lon="1.44273">
        <ele>134</ele>
        <time>2011-03-20T09:06:06</time>
      </trkpt>
      <trkpt lat="44.42511" lon="1.44277">
        <ele>134</ele>
        <time>2011-03-20T09:06:07</time>
      </trkpt>
      <trkpt lat="44.42507" lon="1.44286">
        <ele>134</ele>
        <time>2011-03-20T09:06:09</time>
      </trkpt>
      <trkpt lat="44.42506" lon="1.44291">
        <ele>134</ele>
        <time>2011-03-20T09:06:10</time>
      </trkpt>
      <trkpt lat="44.42504" lon="1.44301">
        <ele>142</ele>
        <time>2011-03-20T09:06:12</time>
      </trkpt>
      <trkpt lat="44.42502" lon="1.44305">
        <ele>142</ele>
        <time>2011-03-20T09:06:13</time>
      </trkpt>
      <trkpt lat="44.42501" lon="1.4431">
        <ele>142</ele>
        <time>2011-03-20T09:06:14</time>
      </trkpt>
      <trkpt lat="44.42499" lon="1.44319">
        <ele>142</ele>
        <time>2011-03-20T09:06:16</time>
      </trkpt>
      <trkpt lat="44.42497" lon="1.44323">
        <ele>142</ele>
        <time>2011-03-20T09:06:17</time>
      </trkpt>
      <trkpt lat="44.42496" lon="1.44328">
        <ele>142</ele>
        <time>2011-03-20T09:06:18</time>
      </trkpt>
      <trkpt lat="44.42494" lon="1.44337">
        <ele>142</ele>
        <time>2011-03-20T09:06:20</time>
      </trkpt>
      <trkpt lat="44.42493" lon="1.44341">
        <ele>142</ele>
        <time>2011-03-20T09:06:21</time>
      </trkpt>
      <trkpt lat="44.42491" lon="1.4435">
        <ele>142</ele>
        <time>2011-03-20T09:06:23</time>
      </trkpt>
      <trkpt lat="44.42489" lon="1.44354">
        <ele>142</ele>
        <time>2011-03-20T09:06:24</time>
      </trkpt>
      <trkpt lat="44.42487" lon="1.44358">
        <ele>142</ele>
        <time>2011-03-20T09:06:25</time>
      </trkpt>
      <trkpt lat="44.42483" lon="1.44367">
        <ele>142</ele>
        <time>2011-03-20T09:06:27</time>
      </trkpt>
      <trkpt lat="44.4248" lon="1.44372">
        <ele>142</ele>
        <time>2011-03-20T09:06:28</time>
      </trkpt>
      <trkpt lat="44.42476" lon="1.4438">
        <ele>155</ele>
        <time>2011-03-20T09:06:30</time>
      </trkpt>
      <trkpt lat="44.42473" lon="1.44389">
        <ele>155</ele>
        <time>2011-03-20T09:06:32</time>
      </trkpt>
      <trkpt lat="44.42471" lon="1.44396">
        <ele>155</ele>
        <time>2011-03-20T09:06:34</time>
      </trkpt>
      <trkpt lat="44.42467" lon="1.44401">
        <ele>155</ele>
        <time>2011-03-20T09:06:36</time>
      </trkpt>
      <trkpt lat="44.42462" lon="1.44407">
        <ele>155</ele>
        <time>2011-03-20T09:06:38</time>
      </trkpt>
      <trkpt lat="44.4246" lon="1.4441">
        <ele>155</ele>
        <time>2011-03-20T09:06:39</time>
      </trkpt>
      <trkpt lat="44.42456" lon="1.44416">
        <ele>142</ele>
        <time>2011-03-20T09:06:41</time>
      </trkpt>
      <trkpt lat="44.42451" lon="1.44422">
        <ele>142</ele>
        <time>2011-03-20T09:06:43</time>
      </trkpt>
      <trkpt lat="44.42445" lon="1.44429">
        <ele>142</ele>
        <time>2011-03-20T09:06:45</time>
      </trkpt>
      <trkpt lat="44.42442" lon="1.44432">
        <ele>142</ele>
        <time>2011-03-20T09:06:46</time>
      </trkpt>
      <trkpt lat="44.42437" lon="1.44438">
        <ele>142</ele>
        <time>2011-03-20T09:06:48</time>
      </trkpt>
      <trkpt lat="44.42434" lon="1.44442">
        <ele>142</ele>
        <time>2011-03-20T09:06:49</time>
      </trkpt>
      <trkpt lat="44.42429" lon="1.44448">
        <ele>142</ele>
        <time>2011-03-20T09:06:51</time>
      </trkpt>
      <trkpt lat="44.42423" lon="1.44454">
        <ele>142</ele>
        <time>2011-03-20T09:06:53</time>
      </trkpt>
      <trkpt lat="44.4242" lon="1.44456">
        <ele>142</ele>
        <time>2011-03-20T09:06:54</time>
      </trkpt>
      <trkpt lat="44.42414" lon="1.44462">
        <ele>154</ele>
        <time>2011-03-20T09:06:56</time>
      </trkpt>
      <trkpt lat="44.42408" lon="1.44467">
        <ele>154</ele>
        <time>2011-03-20T09:06:58</time>
      </trkpt>
      <trkpt lat="44.42405" lon="1.44471">
        <ele>154</ele>
        <time>2011-03-20T09:06:59</time>
      </trkpt>
      <trkpt lat="44.424" lon="1.44477">
        <ele>154</ele>
        <time>2011-03-20T09:07:01</time>
      </trkpt>
      <trkpt lat="44.42393" lon="1.44483">
        <ele>154</ele>
        <time>2011-03-20T09:07:03</time>
      </trkpt>
      <trkpt lat="44.4239" lon="1.44486">
        <ele>154</ele>
        <time>2011-03-20T09:07:04</time>
      </trkpt>
      <trkpt lat="44.42387" lon="1.44489">
        <ele>154</ele>
        <time>2011-03-20T09:07:05</time>
      </trkpt>
      <trkpt lat="44.42381" lon="1.44495">
        <ele>154</ele>
        <time>2011-03-20T09:07:07</time>
      </trkpt>
      <trkpt lat="44.42378" lon="1.44498">
        <ele>154</ele>
        <time>2011-03-20T09:07:08</time>
      </trkpt>
      <trkpt lat="44.42372" lon="1.44504">
        <ele>146</ele>
        <time>2011-03-20T09:07:10</time>
      </trkpt>
      <trkpt lat="44.42369" lon="1.44507">
        <ele>146</ele>
        <time>2011-03-20T09:07:11</time>
      </trkpt>
      <trkpt lat="44.42366" lon="1.44511">
        <ele>146</ele>
        <time>2011-03-20T09:07:12</time>
      </trkpt>
      <trkpt lat="44.4236" lon="1.44517">
        <ele>146</ele>
        <time>2011-03-20T09:07:14</time>
      </trkpt>
      <trkpt lat="44.42357" lon="1.44519">
        <ele>146</ele>
        <time>2011-03-20T09:07:15</time>
      </trkpt>
      <trkpt lat="44.42354" lon="1.44522">
        <ele>146</ele>
        <time>2011-03-20T09:07:16</time>
      </trkpt>
      <trkpt lat="44.42348" lon="1.44528">
        <ele>146</ele>
        <time>2011-03-20T09:07:18</time>
      </trkpt>
      <trkpt lat="44.42341" lon="1.44533">
        <ele>146</ele>
        <time>2011-03-20T09:07:20</time>
      </trkpt>
      <trkpt lat="44.42336" lon="1.44539">
        <ele>146</ele>
        <time>2011-03-20T09:07:22</time>
      </trkpt>
      <trkpt lat="44.42333" lon="1.44541">
        <ele>146</ele>
        <time>2011-03-20T09:07:23</time>
      </trkpt>
      <trkpt lat="44.42328" lon="1.44546">
        <ele>157</ele>
        <time>2011-03-20T09:07:25</time>
      </trkpt>
      <trkpt lat="44.42322" lon="1.44551">
        <ele>157</ele>
        <time>2011-03-20T09:07:27</time>
      </trkpt>
      <trkpt lat="44.42316" lon="1.44557">
        <ele>157</ele>
        <time>2011-03-20T09:07:29</time>
      </trkpt>
      <trkpt lat="44.42313" lon="1.4456">
        <ele>157</ele>
        <time>2011-03-20T09:07:30</time>
      </trkpt>
      <trkpt lat="44.42308" lon="1.44565">
        <ele>157</ele>
        <time>2011-03-20T09:07:32</time>
      </trkpt>
      <trkpt lat="44.42306" lon="1.44568">
        <ele>157</ele>
        <time>2011-03-20T09:07:33</time>
      </trkpt>
      <trkpt lat="44.423" lon="1.44573">
        <ele>157</ele>
        <time>2011-03-20T09:07:35</time>
      </trkpt>
      <trkpt lat="44.42294" lon="1.44577">
        <ele>157</ele>
        <time>2011-03-20T09:07:37</time>
      </trkpt>
      <trkpt lat="44.42291" lon="1.44579">
        <ele>148</ele>
        <time>2011-03-20T09:07:38</time>
      </trkpt>
      <trkpt lat="44.42288" lon="1.4458">
        <ele>148</ele>
        <time>2011-03-20T09:07:39</time>
      </trkpt>
      <trkpt lat="44.42281" lon="1.44583">
        <ele>148</ele>
        <time>2011-03-20T09:07:41</time>
      </trkpt>
      <trkpt lat="44.42277" lon="1.44585">
        <ele>148</ele>
        <time>2011-03-20T09:07:42</time>
      </trkpt>
      <trkpt lat="44.4227" lon="1.44589">
        <ele>148</ele>
        <time>2011-03-20T09:07:44</time>
      </trkpt>
      <trkpt lat="44.42266" lon="1.44591">
        <ele>148</ele>
        <time>2011-03-20T09:07:45</time>
      </trkpt>
      <trkpt lat="44.42259" lon="1.44595">
        <ele>148</ele>
        <time>2011-03-20T09:07:47</time>
      </trkpt>
      <trkpt lat="44.42255" lon="1.44598">
        <ele>148</ele>
        <time>2011-03-20T09:07:48</time>
      </trkpt>
      <trkpt lat="44.42251" lon="1.446">
        <ele>148</ele>
        <time>2011-03-20T09:07:49</time>
      </trkpt>
      <trkpt lat="44.42244" lon="1.44605">
        <ele>148</ele>
        <time>2011-03-20T09:07:51</time>
      </trkpt>
      <trkpt lat="44.42238" lon="1.44609">
        <ele>148</ele>
        <time>2011-03-20T09:07:53</time>
      </trkpt>
      <trkpt lat="44.42234" lon="1.44611">
        <ele>148</ele>
        <time>2011-03-20T09:07:54</time>
      </trkpt>
      <trkpt lat="44.42231" lon="1.44613">
        <ele>148</ele>
        <time>2011-03-20T09:07:55</time>
      </trkpt>
      <trkpt lat="44.42222" lon="1.44618">
        <ele>148</ele>
        <time>2011-03-20T09:07:57</time>
      </trkpt>
      <trkpt lat="44.42218" lon="1.4462">
        <ele>148</ele>
        <time>2011-03-20T09:07:58</time>
      </trkpt>
      <trkpt lat="44.4221" lon="1.44626">
        <ele>163</ele>
        <time>2011-03-20T09:08:00</time>
      </trkpt>
      <trkpt lat="44.42206" lon="1.44629">
        <ele>151</ele>
        <time>2011-03-20T09:08:01</time>
      </trkpt>
      <trkpt lat="44.42198" lon="1.44635">
        <ele>151</ele>
        <time>2011-03-20T09:08:03</time>
      </trkpt>
      <trkpt lat="44.4219" lon="1.44641">
        <ele>151</ele>
        <time>2011-03-20T09:08:05</time>
      </trkpt>
      <trkpt lat="44.42187" lon="1.44644">
        <ele>151</ele>
        <time>2011-03-20T09:08:06</time>
      </trkpt>
      <trkpt lat="44.4218" lon="1.44651">
        <ele>151</ele>
        <time>2011-03-20T09:08:08</time>
      </trkpt>
      <trkpt lat="44.42177" lon="1.44654">
        <ele>151</ele>
        <time>2011-03-20T09:08:09</time>
      </trkpt>
      <trkpt lat="44.4217" lon="1.4466">
        <ele>151</ele>
        <time>2011-03-20T09:08:11</time>
      </trkpt>
      <trkpt lat="44.42164" lon="1.44667">
        <ele>151</ele>
        <time>2011-03-20T09:08:13</time>
      </trkpt>
      <trkpt lat="44.42158" lon="1.44675">
        <ele>151</ele>
        <time>2011-03-20T09:08:15</time>
      </trkpt>
      <trkpt lat="44.42154" lon="1.44678">
        <ele>151</ele>
        <time>2011-03-20T09:08:16</time>
      </trkpt>
      <trkpt lat="44.42148" lon="1.44685">
        <ele>151</ele>
        <time>2011-03-20T09:08:18</time>
      </trkpt>
      <trkpt lat="44.42142" lon="1.44693">
        <ele>151</ele>
        <time>2011-03-20T09:08:20</time>
      </trkpt>
      <trkpt lat="44.42139" lon="1.44697">
        <ele>151</ele>
        <time>2011-03-20T09:08:21</time>
      </trkpt>
      <trkpt lat="44.42134" lon="1.44705">
        <ele>151</ele>
        <time>2011-03-20T09:08:23</time>
      </trkpt>
      <trkpt lat="44.42129" lon="1.44714">
        <ele>163</ele>
        <time>2011-03-20T09:08:25</time>
      </trkpt>
      <trkpt lat="44.42126" lon="1.44719">
        <ele>163</ele>
        <time>2011-03-20T09:08:26</time>
      </trkpt>
      <trkpt lat="44.42121" lon="1.44727">
        <ele>154</ele>
        <time>2011-03-20T09:08:28</time>
      </trkpt>
      <trkpt lat="44.42119" lon="1.44732">
        <ele>154</ele>
        <time>2011-03-20T09:08:29</time>
      </trkpt>
      <trkpt lat="44.42113" lon="1.44741">
        <ele>154</ele>
        <time>2011-03-20T09:08:31</time>
      </trkpt>
      <trkpt lat="44.42108" lon="1.4475">
        <ele>154</ele>
        <time>2011-03-20T09:08:33</time>
      </trkpt>
      <trkpt lat="44.42105" lon="1.44754">
        <ele>154</ele>
        <time>2011-03-20T09:08:34</time>
      </trkpt>
      <trkpt lat="44.42099" lon="1.44762">
        <ele>154</ele>
        <time>2011-03-20T09:08:36</time>
      </trkpt>
      <trkpt lat="44.42092" lon="1.4477">
        <ele>154</ele>
        <time>2011-03-20T09:08:38</time>
      </trkpt>
      <trkpt lat="44.42086" lon="1.44778">
        <ele>154</ele>
        <time>2011-03-20T09:08:40</time>
      </trkpt>
      <trkpt lat="44.42079" lon="1.44786">
        <ele>154</ele>
        <time>2011-03-20T09:08:42</time>
      </trkpt>
      <trkpt lat="44.42073" lon="1.44794">
        <ele>161</ele>
        <time>2011-03-20T09:08:44</time>
      </trkpt>
      <trkpt lat="44.42066" lon="1.44801">
        <ele>161</ele>
        <time>2011-03-20T09:08:46</time>
      </trkpt>
      <trkpt lat="44.42059" lon="1.44807">
        <ele>161</ele>
        <time>2011-03-20T09:08:48</time>
      </trkpt>
      <trkpt lat="44.42052" lon="1.44813">
        <ele>161</ele>
        <time>2011-03-20T09:08:50</time>
      </trkpt>
      <trkpt lat="44.42046" lon="1.4482">
        <ele>161</ele>
        <time>2011-03-20T09:08:52</time>
      </trkpt>
      <trkpt lat="44.42042" lon="1.44823">
        <ele>161</ele>
        <time>2011-03-20T09:08:53</time>
      </trkpt>
      <trkpt lat="44.42035" lon="1.44829">
        <ele>158</ele>
        <time>2011-03-20T09:08:55</time>
      </trkpt>
      <trkpt lat="44.42032" lon="1.44832">
        <ele>158</ele>
        <time>2011-03-20T09:08:56</time>
      </trkpt>
      <trkpt lat="44.42025" lon="1.44837">
        <ele>158</ele>
        <time>2011-03-20T09:08:58</time>
      </trkpt>
      <trkpt lat="44.42017" lon="1.44842">
        <ele>158</ele>
        <time>2011-03-20T09:09:00</time>
      </trkpt>
      <trkpt lat="44.4201" lon="1.44847">
        <ele>158</ele>
        <time>2011-03-20T09:09:02</time>
      </trkpt>
      <trkpt lat="44.42004" lon="1.44851">
        <ele>158</ele>
        <time>2011-03-20T09:09:04</time>
      </trkpt>
      <trkpt lat="44.42" lon="1.44853">
        <ele>158</ele>
        <time>2011-03-20T09:09:05</time>
      </trkpt>
      <trkpt lat="44.41993" lon="1.44858">
        <ele>158</ele>
        <time>2011-03-20T09:09:07</time>
      </trkpt>
      <trkpt lat="44.4199" lon="1.4486">
        <ele>158</ele>
        <time>2011-03-20T09:09:08</time>
      </trkpt>
      <trkpt lat="44.41983" lon="1.44865">
        <ele>158</ele>
        <time>2011-03-20T09:09:10</time>
      </trkpt>
      <trkpt lat="44.41976" lon="1.44871">
        <ele>158</ele>
        <time>2011-03-20T09:09:12</time>
      </trkpt>
      <trkpt lat="44.41968" lon="1.44875">
        <ele>164</ele>
        <time>2011-03-20T09:09:14</time>
      </trkpt>
      <trkpt lat="44.41965" lon="1.44878">
        <ele>164</ele>
        <time>2011-03-20T09:09:15</time>
      </trkpt>
      <trkpt lat="44.41962" lon="1.4488">
        <ele>164</ele>
        <time>2011-03-20T09:09:16</time>
      </trkpt>
      <trkpt lat="44.41955" lon="1.44885">
        <ele>160</ele>
        <time>2011-03-20T09:09:18</time>
      </trkpt>
      <trkpt lat="44.41951" lon="1.44887">
        <ele>160</ele>
        <time>2011-03-20T09:09:19</time>
      </trkpt>
      <trkpt lat="44.41945" lon="1.44891">
        <ele>160</ele>
        <time>2011-03-20T09:09:21</time>
      </trkpt>
      <trkpt lat="44.41942" lon="1.44893">
        <ele>160</ele>
        <time>2011-03-20T09:09:22</time>
      </trkpt>
      <trkpt lat="44.41935" lon="1.44897">
        <ele>160</ele>
        <time>2011-03-20T09:09:24</time>
      </trkpt>
      <trkpt lat="44.41927" lon="1.449">
        <ele>160</ele>
        <time>2011-03-20T09:09:26</time>
      </trkpt>
      <trkpt lat="44.4192" lon="1.44905">
        <ele>160</ele>
        <time>2011-03-20T09:09:28</time>
      </trkpt>
      <trkpt lat="44.41917" lon="1.44907">
        <ele>160</ele>
        <time>2011-03-20T09:09:29</time>
      </trkpt>
      <trkpt lat="44.41911" lon="1.44912">
        <ele>160</ele>
        <time>2011-03-20T09:09:31</time>
      </trkpt>
      <trkpt lat="44.41904" lon="1.44916">
        <ele>160</ele>
        <time>2011-03-20T09:09:33</time>
      </trkpt>
      <trkpt lat="44.41897" lon="1.44921">
        <ele>160</ele>
        <time>2011-03-20T09:09:35</time>
      </trkpt>
      <trkpt lat="44.41893" lon="1.44923">
        <ele>160</ele>
        <time>2011-03-20T09:09:36</time>
      </trkpt>
      <trkpt lat="44.41887" lon="1.44928">
        <ele>160</ele>
        <time>2011-03-20T09:09:38</time>
      </trkpt>
      <trkpt lat="44.4188" lon="1.44932">
        <ele>160</ele>
        <time>2011-03-20T09:09:40</time>
      </trkpt>
      <trkpt lat="44.41877" lon="1.44935">
        <ele>160</ele>
        <time>2011-03-20T09:09:41</time>
      </trkpt>
      <trkpt lat="44.4187" lon="1.44939">
        <ele>167</ele>
        <time>2011-03-20T09:09:43</time>
      </trkpt>
      <trkpt lat="44.41867" lon="1.44941">
        <ele>167</ele>
        <time>2011-03-20T09:09:44</time>
      </trkpt>
      <trkpt lat="44.41864" lon="1.44944">
        <ele>167</ele>
        <time>2011-03-20T09:09:45</time>
      </trkpt>
      <trkpt lat="44.41861" lon="1.44947">
        <ele>167</ele>
        <time>2011-03-20T09:09:46</time>
      </trkpt>
      <trkpt lat="44.41855" lon="1.44952">
        <ele>167</ele>
        <time>2011-03-20T09:09:48</time>
      </trkpt>
      <trkpt lat="44.41852" lon="1.44954">
        <ele>167</ele>
        <time>2011-03-20T09:09:49</time>
      </trkpt>
      <trkpt lat="44.41849" lon="1.44956">
        <ele>167</ele>
        <time>2011-03-20T09:09:50</time>
      </trkpt>
      <trkpt lat="44.41843" lon="1.4496">
        <ele>168</ele>
        <time>2011-03-20T09:09:52</time>
      </trkpt>
      <trkpt lat="44.4184" lon="1.44962">
        <ele>168</ele>
        <time>2011-03-20T09:09:53</time>
      </trkpt>
      <trkpt lat="44.41834" lon="1.44966">
        <ele>168</ele>
        <time>2011-03-20T09:09:55</time>
      </trkpt>
      <trkpt lat="44.41831" lon="1.44969">
        <ele>168</ele>
        <time>2011-03-20T09:09:56</time>
      </trkpt>
      <trkpt lat="44.41825" lon="1.44973">
        <ele>168</ele>
        <time>2011-03-20T09:09:58</time>
      </trkpt>
      <trkpt lat="44.41822" lon="1.44975">
        <ele>168</ele>
        <time>2011-03-20T09:09:59</time>
      </trkpt>
      <trkpt lat="44.41815" lon="1.44978">
        <ele>168</ele>
        <time>2011-03-20T09:10:01</time>
      </trkpt>
      <trkpt lat="44.41807" lon="1.44982">
        <ele>168</ele>
        <time>2011-03-20T09:10:03</time>
      </trkpt>
      <trkpt lat="44.418" lon="1.44986">
        <ele>168</ele>
        <time>2011-03-20T09:10:05</time>
      </trkpt>
      <trkpt lat="44.41796" lon="1.44989">
        <ele>168</ele>
        <time>2011-03-20T09:10:06</time>
      </trkpt>
      <trkpt lat="44.41789" lon="1.44993">
        <ele>163</ele>
        <time>2011-03-20T09:10:08</time>
      </trkpt>
      <trkpt lat="44.41786" lon="1.44995">
        <ele>163</ele>
        <time>2011-03-20T09:10:09</time>
      </trkpt>
      <trkpt lat="44.41782" lon="1.44998">
        <ele>163</ele>
        <time>2011-03-20T09:10:10</time>
      </trkpt>
      <trkpt lat="44.41776" lon="1.45002">
        <ele>163</ele>
        <time>2011-03-20T09:10:12</time>
      </trkpt>
      <trkpt lat="44.41769" lon="1.45007">
        <ele>163</ele>
        <time>2011-03-20T09:10:14</time>
      </trkpt>
      <trkpt lat="44.41762" lon="1.45011">
        <ele>163</ele>
        <time>2011-03-20T09:10:16</time>
      </trkpt>
      <trkpt lat="44.41759" lon="1.45013">
        <ele>163</ele>
        <time>2011-03-20T09:10:17</time>
      </trkpt>
      <trkpt lat="44.41756" lon="1.45015">
        <ele>163</ele>
        <time>2011-03-20T09:10:18</time>
      </trkpt>
      <trkpt lat="44.41753" lon="1.45016">
        <ele>163</ele>
        <time>2011-03-20T09:10:19</time>
      </trkpt>
      <trkpt lat="44.41746" lon="1.45019">
        <ele>163</ele>
        <time>2011-03-20T09:10:22</time>
      </trkpt>
      <trkpt lat="44.41741" lon="1.45021">
        <ele>163</ele>
        <time>2011-03-20T09:10:24</time>
      </trkpt>
      <trkpt lat="44.41735" lon="1.45023">
        <ele>163</ele>
        <time>2011-03-20T09:10:26</time>
      </trkpt>
      <trkpt lat="44.41728" lon="1.45024">
        <ele>163</ele>
        <time>2011-03-20T09:10:28</time>
      </trkpt>
      <trkpt lat="44.41721" lon="1.45025">
        <ele>163</ele>
        <time>2011-03-20T09:10:30</time>
      </trkpt>
      <trkpt lat="44.41717" lon="1.45026">
        <ele>163</ele>
        <time>2011-03-20T09:10:31</time>
      </trkpt>
      <trkpt lat="44.41714" lon="1.45026">
        <ele>163</ele>
        <time>2011-03-20T09:10:32</time>
      </trkpt>
      <trkpt lat="44.41707" lon="1.45027">
        <ele>166</ele>
        <time>2011-03-20T09:10:34</time>
      </trkpt>
      <trkpt lat="44.41704" lon="1.45028">
        <ele>166</ele>
        <time>2011-03-20T09:10:35</time>
      </trkpt>
      <trkpt lat="44.41698" lon="1.4503">
        <ele>166</ele>
        <time>2011-03-20T09:10:37</time>
      </trkpt>
      <trkpt lat="44.41691" lon="1.45032">
        <ele>166</ele>
        <time>2011-03-20T09:10:39</time>
      </trkpt>
      <trkpt lat="44.41688" lon="1.45034">
        <ele>166</ele>
        <time>2011-03-20T09:10:40</time>
      </trkpt>
      <trkpt lat="44.41681" lon="1.45037">
        <ele>166</ele>
        <time>2011-03-20T09:10:42</time>
      </trkpt>
      <trkpt lat="44.41675" lon="1.4504">
        <ele>166</ele>
        <time>2011-03-20T09:10:44</time>
      </trkpt>
      <trkpt lat="44.41669" lon="1.45044">
        <ele>170</ele>
        <time>2011-03-20T09:10:46</time>
      </trkpt>
      <trkpt lat="44.41663" lon="1.45047">
        <ele>170</ele>
        <time>2011-03-20T09:10:48</time>
      </trkpt>
      <trkpt lat="44.41656" lon="1.4505">
        <ele>170</ele>
        <time>2011-03-20T09:10:50</time>
      </trkpt>
      <trkpt lat="44.4165" lon="1.45054">
        <ele>170</ele>
        <time>2011-03-20T09:10:52</time>
      </trkpt>
      <trkpt lat="44.41647" lon="1.45056">
        <ele>170</ele>
        <time>2011-03-20T09:10:53</time>
      </trkpt>
      <trkpt lat="44.41641" lon="1.45061">
        <ele>170</ele>
        <time>2011-03-20T09:10:55</time>
      </trkpt>
      <trkpt lat="44.41638" lon="1.45063">
        <ele>170</ele>
        <time>2011-03-20T09:10:56</time>
      </trkpt>
      <trkpt lat="44.41633" lon="1.45069">
        <ele>170</ele>
        <time>2011-03-20T09:10:58</time>
      </trkpt>
      <trkpt lat="44.4163" lon="1.45072">
        <ele>170</ele>
        <time>2011-03-20T09:10:59</time>
      </trkpt>
      <trkpt lat="44.41627" lon="1.45074">
        <ele>170</ele>
        <time>2011-03-20T09:11:00</time>
      </trkpt>
      <trkpt lat="44.41622" lon="1.4508">
        <ele>174</ele>
        <time>2011-03-20T09:11:02</time>
      </trkpt>
      <trkpt lat="44.4162" lon="1.45083">
        <ele>174</ele>
        <time>2011-03-20T09:11:03</time>
      </trkpt>
      <trkpt lat="44.41615" lon="1.45089">
        <ele>174</ele>
        <time>2011-03-20T09:11:05</time>
      </trkpt>
      <trkpt lat="44.41609" lon="1.45095">
        <ele>174</ele>
        <time>2011-03-20T09:11:07</time>
      </trkpt>
      <trkpt lat="44.41604" lon="1.45101">
        <ele>174</ele>
        <time>2011-03-20T09:11:09</time>
      </trkpt>
      <trkpt lat="44.41602" lon="1.45104">
        <ele>174</ele>
        <time>2011-03-20T09:11:10</time>
      </trkpt>
      <trkpt lat="44.41599" lon="1.45107">
        <ele>174</ele>
        <time>2011-03-20T09:11:11</time>
      </trkpt>
      <trkpt lat="44.41594" lon="1.45114">
        <ele>174</ele>
        <time>2011-03-20T09:11:13</time>
      </trkpt>
      <trkpt lat="44.41592" lon="1.45117">
        <ele>174</ele>
        <time>2011-03-20T09:11:14</time>
      </trkpt>
      <trkpt lat="44.41587" lon="1.45124">
        <ele>174</ele>
        <time>2011-03-20T09:11:16</time>
      </trkpt>
      <trkpt lat="44.41584" lon="1.45127">
        <ele>174</ele>
        <time>2011-03-20T09:11:17</time>
      </trkpt>
      <trkpt lat="44.4158" lon="1.45134">
        <ele>174</ele>
        <time>2011-03-20T09:11:19</time>
      </trkpt>
      <trkpt lat="44.41575" lon="1.4514">
        <ele>174</ele>
        <time>2011-03-20T09:11:21</time>
      </trkpt>
      <trkpt lat="44.41571" lon="1.45147">
        <ele>174</ele>
        <time>2011-03-20T09:11:23</time>
      </trkpt>
      <trkpt lat="44.41569" lon="1.45151">
        <ele>174</ele>
        <time>2011-03-20T09:11:24</time>
      </trkpt>
      <trkpt lat="44.41565" lon="1.45158">
        <ele>174</ele>
        <time>2011-03-20T09:11:26</time>
      </trkpt>
      <trkpt lat="44.41563" lon="1.45161">
        <ele>174</ele>
        <time>2011-03-20T09:11:27</time>
      </trkpt>
      <trkpt lat="44.4156" lon="1.45168">
        <ele>174</ele>
        <time>2011-03-20T09:11:29</time>
      </trkpt>
      <trkpt lat="44.41557" lon="1.45175">
        <ele>174</ele>
        <time>2011-03-20T09:11:31</time>
      </trkpt>
      <trkpt lat="44.41555" lon="1.45179">
        <ele>174</ele>
        <time>2011-03-20T09:11:32</time>
      </trkpt>
      <trkpt lat="44.41552" lon="1.45186">
        <ele>174</ele>
        <time>2011-03-20T09:11:34</time>
      </trkpt>
      <trkpt lat="44.41548" lon="1.45194">
        <ele>174</ele>
        <time>2011-03-20T09:11:36</time>
      </trkpt>
      <trkpt lat="44.41546" lon="1.45198">
        <ele>174</ele>
        <time>2011-03-20T09:11:37</time>
      </trkpt>
      <trkpt lat="44.41543" lon="1.45205">
        <ele>174</ele>
        <time>2011-03-20T09:11:39</time>
      </trkpt>
      <trkpt lat="44.41539" lon="1.45212">
        <ele>182</ele>
        <time>2011-03-20T09:11:41</time>
      </trkpt>
      <trkpt lat="44.41536" lon="1.45219">
        <ele>182</ele>
        <time>2011-03-20T09:11:43</time>
      </trkpt>
      <trkpt lat="44.41534" lon="1.45222">
        <ele>182</ele>
        <time>2011-03-20T09:11:44</time>
      </trkpt>
      <trkpt lat="44.41531" lon="1.4523">
        <ele>182</ele>
        <time>2011-03-20T09:11:46</time>
      </trkpt>
      <trkpt lat="44.41528" lon="1.45237">
        <ele>182</ele>
        <time>2011-03-20T09:11:48</time>
      </trkpt>
      <trkpt lat="44.41527" lon="1.45241">
        <ele>182</ele>
        <time>2011-03-20T09:11:49</time>
      </trkpt>
      <trkpt lat="44.41525" lon="1.45245">
        <ele>182</ele>
        <time>2011-03-20T09:11:50</time>
      </trkpt>
      <trkpt lat="44.41522" lon="1.45254">
        <ele>182</ele>
        <time>2011-03-20T09:11:52</time>
      </trkpt>
      <trkpt lat="44.41519" lon="1.45263">
        <ele>182</ele>
        <time>2011-03-20T09:11:54</time>
      </trkpt>
      <trkpt lat="44.41516" lon="1.45272">
        <ele>182</ele>
        <time>2011-03-20T09:11:56</time>
      </trkpt>
      <trkpt lat="44.41515" lon="1.45277">
        <ele>182</ele>
        <time>2011-03-20T09:11:57</time>
      </trkpt>
      <trkpt lat="44.41512" lon="1.45285">
        <ele>182</ele>
        <time>2011-03-20T09:11:59</time>
      </trkpt>
      <trkpt lat="44.4151" lon="1.4529">
        <ele>182</ele>
        <time>2011-03-20T09:12:00</time>
      </trkpt>
      <trkpt lat="44.41508" lon="1.45299">
        <ele>181</ele>
        <time>2011-03-20T09:12:02</time>
      </trkpt>
      <trkpt lat="44.41507" lon="1.45304">
        <ele>181</ele>
        <time>2011-03-20T09:12:03</time>
      </trkpt>
      <trkpt lat="44.41506" lon="1.45309">
        <ele>181</ele>
        <time>2011-03-20T09:12:04</time>
      </trkpt>
      <trkpt lat="44.41504" lon="1.45318">
        <ele>181</ele>
        <time>2011-03-20T09:12:06</time>
      </trkpt>
      <trkpt lat="44.41503" lon="1.45323">
        <ele>181</ele>
        <time>2011-03-20T09:12:07</time>
      </trkpt>
      <trkpt lat="44.41501" lon="1.45333">
        <ele>181</ele>
        <time>2011-03-20T09:12:09</time>
      </trkpt>
      <trkpt lat="44.415" lon="1.45338">
        <ele>181</ele>
        <time>2011-03-20T09:12:10</time>
      </trkpt>
      <trkpt lat="44.41499" lon="1.45347">
        <ele>181</ele>
        <time>2011-03-20T09:12:12</time>
      </trkpt>
      <trkpt lat="44.41499" lon="1.45352">
        <ele>181</ele>
        <time>2011-03-20T09:12:13</time>
      </trkpt>
      <trkpt lat="44.41498" lon="1.45361">
        <ele>181</ele>
        <time>2011-03-20T09:12:15</time>
      </trkpt>
      <trkpt lat="44.41498" lon="1.45365">
        <ele>181</ele>
        <time>2011-03-20T09:12:16</time>
      </trkpt>
      <trkpt lat="44.41497" lon="1.4537">
        <ele>181</ele>
        <time>2011-03-20T09:12:17</time>
      </trkpt>
      <trkpt lat="44.41497" lon="1.45374">
        <ele>181</ele>
        <time>2011-03-20T09:12:18</time>
      </trkpt>
      <trkpt lat="44.41496" lon="1.45379">
        <ele>183</ele>
        <time>2011-03-20T09:12:19</time>
      </trkpt>
      <trkpt lat="44.41496" lon="1.45384">
        <ele>183</ele>
        <time>2011-03-20T09:12:20</time>
      </trkpt>
      <trkpt lat="44.41495" lon="1.45388">
        <ele>183</ele>
        <time>2011-03-20T09:12:21</time>
      </trkpt>
      <trkpt lat="44.41495" lon="1.45398">
        <ele>183</ele>
        <time>2011-03-20T09:12:23</time>
      </trkpt>
      <trkpt lat="44.41493" lon="1.45407">
        <ele>183</ele>
        <time>2011-03-20T09:12:25</time>
      </trkpt>
      <trkpt lat="44.41492" lon="1.45412">
        <ele>183</ele>
        <time>2011-03-20T09:12:26</time>
      </trkpt>
      <trkpt lat="44.41491" lon="1.45421">
        <ele>183</ele>
        <time>2011-03-20T09:12:28</time>
      </trkpt>
      <trkpt lat="44.4149" lon="1.4543">
        <ele>183</ele>
        <time>2011-03-20T09:12:30</time>
      </trkpt>
      <trkpt lat="44.4149" lon="1.45435">
        <ele>183</ele>
        <time>2011-03-20T09:12:31</time>
      </trkpt>
      <trkpt lat="44.41489" lon="1.45445">
        <ele>183</ele>
        <time>2011-03-20T09:12:33</time>
      </trkpt>
      <trkpt lat="44.41488" lon="1.4545">
        <ele>183</ele>
        <time>2011-03-20T09:12:34</time>
      </trkpt>
      <trkpt lat="44.41486" lon="1.45459">
        <ele>182</ele>
        <time>2011-03-20T09:12:36</time>
      </trkpt>
      <trkpt lat="44.41485" lon="1.45463">
        <ele>182</ele>
        <time>2011-03-20T09:12:37</time>
      </trkpt>
      <trkpt lat="44.41483" lon="1.45471">
        <ele>182</ele>
        <time>2011-03-20T09:12:39</time>
      </trkpt>
      <trkpt lat="44.41481" lon="1.45475">
        <ele>182</ele>
        <time>2011-03-20T09:12:40</time>
      </trkpt>
      <trkpt lat="44.41478" lon="1.45482">
        <ele>182</ele>
        <time>2011-03-20T09:12:42</time>
      </trkpt>
      <trkpt lat="44.41476" lon="1.45486">
        <ele>182</ele>
        <time>2011-03-20T09:12:43</time>
      </trkpt>
      <trkpt lat="44.41474" lon="1.45489">
        <ele>182</ele>
        <time>2011-03-20T09:12:44</time>
      </trkpt>
      <trkpt lat="44.41469" lon="1.45493">
        <ele>182</ele>
        <time>2011-03-20T09:12:46</time>
      </trkpt>
      <trkpt lat="44.41464" lon="1.45497">
        <ele>182</ele>
        <time>2011-03-20T09:12:48</time>
      </trkpt>
      <trkpt lat="44.41461" lon="1.45498">
        <ele>182</ele>
        <time>2011-03-20T09:12:49</time>
      </trkpt>
      <trkpt lat="44.41455" lon="1.45502">
        <ele>188</ele>
        <time>2011-03-20T09:12:51</time>
      </trkpt>
      <trkpt lat="44.41449" lon="1.45505">
        <ele>188</ele>
        <time>2011-03-20T09:12:53</time>
      </trkpt>
      <trkpt lat="44.41446" lon="1.45507">
        <ele>188</ele>
        <time>2011-03-20T09:12:54</time>
      </trkpt>
      <trkpt lat="44.4144" lon="1.45511">
        <ele>188</ele>
        <time>2011-03-20T09:12:56</time>
      </trkpt>
      <trkpt lat="44.41434" lon="1.45515">
        <ele>188</ele>
        <time>2011-03-20T09:12:58</time>
      </trkpt>
      <trkpt lat="44.41428" lon="1.45519">
        <ele>188</ele>
        <time>2011-03-20T09:13:00</time>
      </trkpt>
      <trkpt lat="44.41425" lon="1.45521">
        <ele>188</ele>
        <time>2011-03-20T09:13:01</time>
      </trkpt>
      <trkpt lat="44.4142" lon="1.45525">
        <ele>188</ele>
        <time>2011-03-20T09:13:03</time>
      </trkpt>
      <trkpt lat="44.41417" lon="1.45527">
        <ele>188</ele>
        <time>2011-03-20T09:13:04</time>
      </trkpt>
      <trkpt lat="44.41411" lon="1.45532">
        <ele>188</ele>
        <time>2011-03-20T09:13:06</time>
      </trkpt>
      <trkpt lat="44.41405" lon="1.45536">
        <ele>188</ele>
        <time>2011-03-20T09:13:08</time>
      </trkpt>
      <trkpt lat="44.41403" lon="1.45538">
        <ele>188</ele>
        <time>2011-03-20T09:13:09</time>
      </trkpt>
      <trkpt lat="44.41397" lon="1.45543">
        <ele>189</ele>
        <time>2011-03-20T09:13:11</time>
      </trkpt>
      <trkpt lat="44.41395" lon="1.45546">
        <ele>189</ele>
        <time>2011-03-20T09:13:12</time>
      </trkpt>
      <trkpt lat="44.4139" lon="1.4555">
        <ele>189</ele>
        <time>2011-03-20T09:13:14</time>
      </trkpt>
      <trkpt lat="44.41385" lon="1.45555">
        <ele>189</ele>
        <time>2011-03-20T09:13:16</time>
      </trkpt>
      <trkpt lat="44.4138" lon="1.45559">
        <ele>189</ele>
        <time>2011-03-20T09:13:18</time>
      </trkpt>
      <trkpt lat="44.41378" lon="1.45562">
        <ele>189</ele>
        <time>2011-03-20T09:13:19</time>
      </trkpt>
      <trkpt lat="44.41375" lon="1.45564">
        <ele>189</ele>
        <time>2011-03-20T09:13:20</time>
      </trkpt>
      <trkpt lat="44.41373" lon="1.45566">
        <ele>191</ele>
        <time>2011-03-20T09:13:21</time>
      </trkpt>
      <trkpt lat="44.4137" lon="1.45569">
        <ele>191</ele>
        <time>2011-03-20T09:13:22</time>
      </trkpt>
      <trkpt lat="44.41368" lon="1.45572">
        <ele>191</ele>
        <time>2011-03-20T09:13:23</time>
      </trkpt>
      <trkpt lat="44.41363" lon="1.45577">
        <ele>191</ele>
        <time>2011-03-20T09:13:25</time>
      </trkpt>
      <trkpt lat="44.41359" lon="1.45582">
        <ele>191</ele>
        <time>2011-03-20T09:13:27</time>
      </trkpt>
      <trkpt lat="44.41357" lon="1.45585">
        <ele>191</ele>
        <time>2011-03-20T09:13:29</time>
      </trkpt>
      <trkpt lat="44.41353" lon="1.4559">
        <ele>191</ele>
        <time>2011-03-20T09:13:31</time>
      </trkpt>
      <trkpt lat="44.41349" lon="1.45595">
        <ele>191</ele>
        <time>2011-03-20T09:13:33</time>
      </trkpt>
      <trkpt lat="44.41345" lon="1.456">
        <ele>191</ele>
        <time>2011-03-20T09:13:35</time>
      </trkpt>
      <trkpt lat="44.41343" lon="1.45602">
        <ele>191</ele>
        <time>2011-03-20T09:13:36</time>
      </trkpt>
      <trkpt lat="44.4134" lon="1.45605">
        <ele>191</ele>
        <time>2011-03-20T09:13:37</time>
      </trkpt>
      <trkpt lat="44.41335" lon="1.4561">
        <ele>191</ele>
        <time>2011-03-20T09:13:39</time>
      </trkpt>
      <trkpt lat="44.4133" lon="1.45615">
        <ele>191</ele>
        <time>2011-03-20T09:13:41</time>
      </trkpt>
      <trkpt lat="44.41325" lon="1.4562">
        <ele>191</ele>
        <time>2011-03-20T09:13:43</time>
      </trkpt>
      <trkpt lat="44.41322" lon="1.45623">
        <ele>191</ele>
        <time>2011-03-20T09:13:44</time>
      </trkpt>
      <trkpt lat="44.41318" lon="1.45628">
        <ele>196</ele>
        <time>2011-03-20T09:13:46</time>
      </trkpt>
      <trkpt lat="44.41315" lon="1.4563">
        <ele>196</ele>
        <time>2011-03-20T09:13:47</time>
      </trkpt>
      <trkpt lat="44.41313" lon="1.45633">
        <ele>196</ele>
        <time>2011-03-20T09:13:48</time>
      </trkpt>
      <trkpt lat="44.41308" lon="1.45638">
        <ele>196</ele>
        <time>2011-03-20T09:13:50</time>
      </trkpt>
      <trkpt lat="44.41305" lon="1.45641">
        <ele>196</ele>
        <time>2011-03-20T09:13:51</time>
      </trkpt>
      <trkpt lat="44.41301" lon="1.45646">
        <ele>196</ele>
        <time>2011-03-20T09:13:53</time>
      </trkpt>
      <trkpt lat="44.41299" lon="1.45649">
        <ele>196</ele>
        <time>2011-03-20T09:13:54</time>
      </trkpt>
      <trkpt lat="44.41296" lon="1.45652">
        <ele>196</ele>
        <time>2011-03-20T09:13:55</time>
      </trkpt>
      <trkpt lat="44.41292" lon="1.45657">
        <ele>196</ele>
        <time>2011-03-20T09:13:57</time>
      </trkpt>
      <trkpt lat="44.4129" lon="1.4566">
        <ele>199</ele>
        <time>2011-03-20T09:13:58</time>
      </trkpt>
      <trkpt lat="44.41286" lon="1.45665">
        <ele>199</ele>
        <time>2011-03-20T09:14:00</time>
      </trkpt>
      <trkpt lat="44.41281" lon="1.4567">
        <ele>199</ele>
        <time>2011-03-20T09:14:02</time>
      </trkpt>
      <trkpt lat="44.41279" lon="1.45672">
        <ele>199</ele>
        <time>2011-03-20T09:14:03</time>
      </trkpt>
      <trkpt lat="44.41277" lon="1.45675">
        <ele>199</ele>
        <time>2011-03-20T09:14:04</time>
      </trkpt>
      <trkpt lat="44.41272" lon="1.4568">
        <ele>199</ele>
        <time>2011-03-20T09:14:06</time>
      </trkpt>
      <trkpt lat="44.4127" lon="1.45683">
        <ele>199</ele>
        <time>2011-03-20T09:14:07</time>
      </trkpt>
      <trkpt lat="44.41266" lon="1.45688">
        <ele>199</ele>
        <time>2011-03-20T09:14:09</time>
      </trkpt>
      <trkpt lat="44.41264" lon="1.45691">
        <ele>199</ele>
        <time>2011-03-20T09:14:10</time>
      </trkpt>
      <trkpt lat="44.41259" lon="1.45697">
        <ele>199</ele>
        <time>2011-03-20T09:14:12</time>
      </trkpt>
      <trkpt lat="44.41255" lon="1.45702">
        <ele>199</ele>
        <time>2011-03-20T09:14:14</time>
      </trkpt>
      <trkpt lat="44.41253" lon="1.45705">
        <ele>199</ele>
        <time>2011-03-20T09:14:15</time>
      </trkpt>
      <trkpt lat="44.41249" lon="1.4571">
        <ele>197</ele>
        <time>2011-03-20T09:14:17</time>
      </trkpt>
      <trkpt lat="44.41245" lon="1.45715">
        <ele>197</ele>
        <time>2011-03-20T09:14:19</time>
      </trkpt>
      <trkpt lat="44.41243" lon="1.45717">
        <ele>197</ele>
        <time>2011-03-20T09:14:20</time>
      </trkpt>
      <trkpt lat="44.4124" lon="1.4572">
        <ele>197</ele>
        <time>2011-03-20T09:14:21</time>
      </trkpt>
      <trkpt lat="44.41236" lon="1.45725">
        <ele>197</ele>
        <time>2011-03-20T09:14:23</time>
      </trkpt>
      <trkpt lat="44.41234" lon="1.45728">
        <ele>197</ele>
        <time>2011-03-20T09:14:24</time>
      </trkpt>
      <trkpt lat="44.41229" lon="1.45733">
        <ele>197</ele>
        <time>2011-03-20T09:14:26</time>
      </trkpt>
      <trkpt lat="44.41227" lon="1.45736">
        <ele>197</ele>
        <time>2011-03-20T09:14:27</time>
      </trkpt>
      <trkpt lat="44.41224" lon="1.45738">
        <ele>197</ele>
        <time>2011-03-20T09:14:28</time>
      </trkpt>
      <trkpt lat="44.4122" lon="1.45744">
        <ele>197</ele>
        <time>2011-03-20T09:14:30</time>
      </trkpt>
      <trkpt lat="44.41215" lon="1.45749">
        <ele>197</ele>
        <time>2011-03-20T09:14:32</time>
      </trkpt>
      <trkpt lat="44.41213" lon="1.45752">
        <ele>197</ele>
        <time>2011-03-20T09:14:33</time>
      </trkpt>
      <trkpt lat="44.41209" lon="1.45758">
        <ele>197</ele>
        <time>2011-03-20T09:14:35</time>
      </trkpt>
      <trkpt lat="44.41207" lon="1.4576">
        <ele>206</ele>
        <time>2011-03-20T09:14:36</time>
      </trkpt>
      <trkpt lat="44.41202" lon="1.45766">
        <ele>206</ele>
        <time>2011-03-20T09:14:38</time>
      </trkpt>
      <trkpt lat="44.41198" lon="1.45771">
        <ele>206</ele>
        <time>2011-03-20T09:14:40</time>
      </trkpt>
      <trkpt lat="44.41196" lon="1.45774">
        <ele>206</ele>
        <time>2011-03-20T09:14:41</time>
      </trkpt>
      <trkpt lat="44.41192" lon="1.45779">
        <ele>206</ele>
        <time>2011-03-20T09:14:43</time>
      </trkpt>
      <trkpt lat="44.41189" lon="1.45782">
        <ele>206</ele>
        <time>2011-03-20T09:14:44</time>
      </trkpt>
      <trkpt lat="44.41185" lon="1.45787">
        <ele>206</ele>
        <time>2011-03-20T09:14:46</time>
      </trkpt>
      <trkpt lat="44.41182" lon="1.45792">
        <ele>203</ele>
        <time>2011-03-20T09:14:48</time>
      </trkpt>
      <trkpt lat="44.41178" lon="1.45797">
        <ele>203</ele>
        <time>2011-03-20T09:14:50</time>
      </trkpt>
      <trkpt lat="44.41176" lon="1.45799">
        <ele>203</ele>
        <time>2011-03-20T09:14:51</time>
      </trkpt>
      <trkpt lat="44.41172" lon="1.45804">
        <ele>203</ele>
        <time>2011-03-20T09:14:53</time>
      </trkpt>
      <trkpt lat="44.4117" lon="1.45806">
        <ele>203</ele>
        <time>2011-03-20T09:14:54</time>
      </trkpt>
      <trkpt lat="44.41167" lon="1.45812">
        <ele>203</ele>
        <time>2011-03-20T09:14:56</time>
      </trkpt>
      <trkpt lat="44.41165" lon="1.45814">
        <ele>203</ele>
        <time>2011-03-20T09:14:57</time>
      </trkpt>
      <trkpt lat="44.41164" lon="1.45817">
        <ele>203</ele>
        <time>2011-03-20T09:14:58</time>
      </trkpt>
      <trkpt lat="44.4116" lon="1.45821">
        <ele>203</ele>
        <time>2011-03-20T09:15:00</time>
      </trkpt>
      <trkpt lat="44.41158" lon="1.45824">
        <ele>203</ele>
        <time>2011-03-20T09:15:01</time>
      </trkpt>
      <trkpt lat="44.41154" lon="1.4583">
        <ele>203</ele>
        <time>2011-03-20T09:15:03</time>
      </trkpt>
      <trkpt lat="44.41152" lon="1.45833">
        <ele>203</ele>
        <time>2011-03-20T09:15:04</time>
      </trkpt>
      <trkpt lat="44.41149" lon="1.45838">
        <ele>203</ele>
        <time>2011-03-20T09:15:06</time>
      </trkpt>
      <trkpt lat="44.41147" lon="1.45841">
        <ele>203</ele>
        <time>2011-03-20T09:15:07</time>
      </trkpt>
      <trkpt lat="44.41143" lon="1.45847">
        <ele>203</ele>
        <time>2011-03-20T09:15:09</time>
      </trkpt>
      <trkpt lat="44.41141" lon="1.45849">
        <ele>203</ele>
        <time>2011-03-20T09:15:10</time>
      </trkpt>
      <trkpt lat="44.41139" lon="1.45852">
        <ele>203</ele>
        <time>2011-03-20T09:15:11</time>
      </trkpt>
      <trkpt lat="44.41135" lon="1.45858">
        <ele>203</ele>
        <time>2011-03-20T09:15:13</time>
      </trkpt>
      <trkpt lat="44.41133" lon="1.4586">
        <ele>203</ele>
        <time>2011-03-20T09:15:14</time>
      </trkpt>
      <trkpt lat="44.41129" lon="1.45866">
        <ele>203</ele>
        <time>2011-03-20T09:15:16</time>
      </trkpt>
      <trkpt lat="44.41127" lon="1.45868">
        <ele>203</ele>
        <time>2011-03-20T09:15:17</time>
      </trkpt>
      <trkpt lat="44.41125" lon="1.45871">
        <ele>203</ele>
        <time>2011-03-20T09:15:18</time>
      </trkpt>
      <trkpt lat="44.41121" lon="1.45877">
        <ele>205</ele>
        <time>2011-03-20T09:15:20</time>
      </trkpt>
      <trkpt lat="44.41119" lon="1.45879">
        <ele>205</ele>
        <time>2011-03-20T09:15:21</time>
      </trkpt>
      <trkpt lat="44.41115" lon="1.45884">
        <ele>205</ele>
        <time>2011-03-20T09:15:23</time>
      </trkpt>
      <trkpt lat="44.41113" lon="1.45886">
        <ele>205</ele>
        <time>2011-03-20T09:15:24</time>
      </trkpt>
      <trkpt lat="44.41109" lon="1.45891">
        <ele>205</ele>
        <time>2011-03-20T09:15:26</time>
      </trkpt>
      <trkpt lat="44.41104" lon="1.45895">
        <ele>205</ele>
        <time>2011-03-20T09:15:28</time>
      </trkpt>
      <trkpt lat="44.41101" lon="1.45897">
        <ele>205</ele>
        <time>2011-03-20T09:15:29</time>
      </trkpt>
      <trkpt lat="44.41099" lon="1.45899">
        <ele>205</ele>
        <time>2011-03-20T09:15:30</time>
      </trkpt>
      <trkpt lat="44.41094" lon="1.45903">
        <ele>205</ele>
        <time>2011-03-20T09:15:32</time>
      </trkpt>
      <trkpt lat="44.41092" lon="1.45905">
        <ele>205</ele>
        <time>2011-03-20T09:15:33</time>
      </trkpt>
      <trkpt lat="44.41087" lon="1.45908">
        <ele>205</ele>
        <time>2011-03-20T09:15:35</time>
      </trkpt>
      <trkpt lat="44.41081" lon="1.45912">
        <ele>205</ele>
        <time>2011-03-20T09:15:37</time>
      </trkpt>
      <trkpt lat="44.41079" lon="1.45913">
        <ele>205</ele>
        <time>2011-03-20T09:15:38</time>
      </trkpt>
      <trkpt lat="44.41073" lon="1.45917">
        <ele>205</ele>
        <time>2011-03-20T09:15:40</time>
      </trkpt>
      <trkpt lat="44.41067" lon="1.4592">
        <ele>205</ele>
        <time>2011-03-20T09:15:42</time>
      </trkpt>
      <trkpt lat="44.41064" lon="1.45922">
        <ele>205</ele>
        <time>2011-03-20T09:15:43</time>
      </trkpt>
      <trkpt lat="44.41058" lon="1.45925">
        <ele>205</ele>
        <time>2011-03-20T09:15:45</time>
      </trkpt>
      <trkpt lat="44.41055" lon="1.45927">
        <ele>205</ele>
        <time>2011-03-20T09:15:46</time>
      </trkpt>
      <trkpt lat="44.41052" lon="1.45929">
        <ele>205</ele>
        <time>2011-03-20T09:15:47</time>
      </trkpt>
      <trkpt lat="44.41049" lon="1.4593">
        <ele>205</ele>
        <time>2011-03-20T09:15:48</time>
      </trkpt>
      <trkpt lat="44.41043" lon="1.45933">
        <ele>205</ele>
        <time>2011-03-20T09:15:50</time>
      </trkpt>
      <trkpt lat="44.41036" lon="1.45936">
        <ele>214</ele>
        <time>2011-03-20T09:15:52</time>
      </trkpt>
      <trkpt lat="44.41033" lon="1.45938">
        <ele>214</ele>
        <time>2011-03-20T09:15:53</time>
      </trkpt>
      <trkpt lat="44.41027" lon="1.45942">
        <ele>214</ele>
        <time>2011-03-20T09:15:55</time>
      </trkpt>
      <trkpt lat="44.41021" lon="1.45945">
        <ele>214</ele>
        <time>2011-03-20T09:15:57</time>
      </trkpt>
      <trkpt lat="44.41018" lon="1.45947">
        <ele>214</ele>
        <time>2011-03-20T09:15:58</time>
      </trkpt>
      <trkpt lat="44.41016" lon="1.45948">
        <ele>214</ele>
        <time>2011-03-20T09:15:59</time>
      </trkpt>
      <trkpt lat="44.4101" lon="1.45952">
        <ele>214</ele>
        <time>2011-03-20T09:16:01</time>
      </trkpt>
      <trkpt lat="44.41007" lon="1.45953">
        <ele>214</ele>
        <time>2011-03-20T09:16:02</time>
      </trkpt>
      <trkpt lat="44.41001" lon="1.45957">
        <ele>214</ele>
        <time>2011-03-20T09:16:04</time>
      </trkpt>
      <trkpt lat="44.40999" lon="1.45958">
        <ele>213</ele>
        <time>2011-03-20T09:16:05</time>
      </trkpt>
      <trkpt lat="44.40993" lon="1.45962">
        <ele>213</ele>
        <time>2011-03-20T09:16:07</time>
      </trkpt>
      <trkpt lat="44.40988" lon="1.45964">
        <ele>213</ele>
        <time>2011-03-20T09:16:09</time>
      </trkpt>
      <trkpt lat="44.40983" lon="1.45967">
        <ele>213</ele>
        <time>2011-03-20T09:16:11</time>
      </trkpt>
      <trkpt lat="44.40981" lon="1.45968">
        <ele>213</ele>
        <time>2011-03-20T09:16:12</time>
      </trkpt>
      <trkpt lat="44.40976" lon="1.45971">
        <ele>213</ele>
        <time>2011-03-20T09:16:14</time>
      </trkpt>
      <trkpt lat="44.40973" lon="1.45973">
        <ele>213</ele>
        <time>2011-03-20T09:16:15</time>
      </trkpt>
      <trkpt lat="44.40971" lon="1.45974">
        <ele>213</ele>
        <time>2011-03-20T09:16:16</time>
      </trkpt>
      <trkpt lat="44.40966" lon="1.45977">
        <ele>213</ele>
        <time>2011-03-20T09:16:18</time>
      </trkpt>
      <trkpt lat="44.40963" lon="1.45978">
        <ele>213</ele>
        <time>2011-03-20T09:16:19</time>
      </trkpt>
      <trkpt lat="44.40958" lon="1.45981">
        <ele>216</ele>
        <time>2011-03-20T09:16:21</time>
      </trkpt>
      <trkpt lat="44.40956" lon="1.45983">
        <ele>216</ele>
        <time>2011-03-20T09:16:22</time>
      </trkpt>
      <trkpt lat="44.4095" lon="1.45985">
        <ele>216</ele>
        <time>2011-03-20T09:16:24</time>
      </trkpt>
      <trkpt lat="44.40948" lon="1.45987">
        <ele>216</ele>
        <time>2011-03-20T09:16:25</time>
      </trkpt>
      <trkpt lat="44.40943" lon="1.45988">
        <ele>216</ele>
        <time>2011-03-20T09:16:27</time>
      </trkpt>
      <trkpt lat="44.40941" lon="1.45989">
        <ele>216</ele>
        <time>2011-03-20T09:16:28</time>
      </trkpt>
      <trkpt lat="44.40936" lon="1.4599">
        <ele>216</ele>
        <time>2011-03-20T09:16:30</time>
      </trkpt>
      <trkpt lat="44.40933" lon="1.4599">
        <ele>216</ele>
        <time>2011-03-20T09:16:31</time>
      </trkpt>
      <trkpt lat="44.40931" lon="1.4599">
        <ele>216</ele>
        <time>2011-03-20T09:16:32</time>
      </trkpt>
      <trkpt lat="44.40926" lon="1.4599">
        <ele>216</ele>
        <time>2011-03-20T09:16:34</time>
      </trkpt>
      <trkpt lat="44.40923" lon="1.4599">
        <ele>216</ele>
        <time>2011-03-20T09:16:35</time>
      </trkpt>
      <trkpt lat="44.40921" lon="1.45991">
        <ele>216</ele>
        <time>2011-03-20T09:16:36</time>
      </trkpt>
      <trkpt lat="44.40916" lon="1.45991">
        <ele>216</ele>
        <time>2011-03-20T09:16:38</time>
      </trkpt>
      <trkpt lat="44.40911" lon="1.45991">
        <ele>216</ele>
        <time>2011-03-20T09:16:40</time>
      </trkpt>
      <trkpt lat="44.40906" lon="1.45991">
        <ele>216</ele>
        <time>2011-03-20T09:16:42</time>
      </trkpt>
      <trkpt lat="44.40904" lon="1.45991">
        <ele>216</ele>
        <time>2011-03-20T09:16:43</time>
      </trkpt>
      <trkpt lat="44.40901" lon="1.45991">
        <ele>216</ele>
        <time>2011-03-20T09:16:44</time>
      </trkpt>
      <trkpt lat="44.40897" lon="1.45991">
        <ele>216</ele>
        <time>2011-03-20T09:16:46</time>
      </trkpt>
      <trkpt lat="44.40895" lon="1.45991">
        <ele>216</ele>
        <time>2011-03-20T09:16:47</time>
      </trkpt>
      <trkpt lat="44.4089" lon="1.45991">
        <ele>216</ele>
        <time>2011-03-20T09:16:49</time>
      </trkpt>
      <trkpt lat="44.40885" lon="1.45992">
        <ele>216</ele>
        <time>2011-03-20T09:16:51</time>
      </trkpt>
      <trkpt lat="44.4088" lon="1.45993">
        <ele>216</ele>
        <time>2011-03-20T09:16:53</time>
      </trkpt>
      <trkpt lat="44.40876" lon="1.45994">
        <ele>216</ele>
        <time>2011-03-20T09:16:55</time>
      </trkpt>
      <trkpt lat="44.40873" lon="1.45994">
        <ele>224</ele>
        <time>2011-03-20T09:16:56</time>
      </trkpt>
      <trkpt lat="44.40868" lon="1.45995">
        <ele>224</ele>
        <time>2011-03-20T09:16:58</time>
      </trkpt>
      <trkpt lat="44.40863" lon="1.45996">
        <ele>224</ele>
        <time>2011-03-20T09:17:00</time>
      </trkpt>
      <trkpt lat="44.40859" lon="1.45997">
        <ele>224</ele>
        <time>2011-03-20T09:17:02</time>
      </trkpt>
      <trkpt lat="44.40855" lon="1.45998">
        <ele>224</ele>
        <time>2011-03-20T09:17:04</time>
      </trkpt>
      <trkpt lat="44.40848" lon="1.46001">
        <ele>224</ele>
        <time>2011-03-20T09:17:07</time>
      </trkpt>
      <trkpt lat="44.40846" lon="1.46001">
        <ele>224</ele>
        <time>2011-03-20T09:17:08</time>
      </trkpt>
      <trkpt lat="44.40842" lon="1.46003">
        <ele>224</ele>
        <time>2011-03-20T09:17:10</time>
      </trkpt>
      <trkpt lat="44.40837" lon="1.46006">
        <ele>224</ele>
        <time>2011-03-20T09:17:13</time>
      </trkpt>
      <trkpt lat="44.40834" lon="1.46008">
        <ele>224</ele>
        <time>2011-03-20T09:17:15</time>
      </trkpt>
      <trkpt lat="44.40831" lon="1.46011">
        <ele>224</ele>
        <time>2011-03-20T09:17:17</time>
      </trkpt>
      <trkpt lat="44.40827" lon="1.46013">
        <ele>224</ele>
        <time>2011-03-20T09:17:19</time>
      </trkpt>
      <trkpt lat="44.40824" lon="1.46015">
        <ele>224</ele>
        <time>2011-03-20T09:17:21</time>
      </trkpt>
      <trkpt lat="44.4082" lon="1.46016">
        <ele>224</ele>
        <time>2011-03-20T09:17:23</time>
      </trkpt>
      <trkpt lat="44.40817" lon="1.46018">
        <ele>224</ele>
        <time>2011-03-20T09:17:25</time>
      </trkpt>
      <trkpt lat="44.40813" lon="1.4602">
        <ele>224</ele>
        <time>2011-03-20T09:17:27</time>
      </trkpt>
      <trkpt lat="44.4081" lon="1.46023">
        <ele>224</ele>
        <time>2011-03-20T09:17:29</time>
      </trkpt>
      <trkpt lat="44.40806" lon="1.46025">
        <ele>224</ele>
        <time>2011-03-20T09:17:31</time>
      </trkpt>
      <trkpt lat="44.40803" lon="1.46028">
        <ele>224</ele>
        <time>2011-03-20T09:17:33</time>
      </trkpt>
      <trkpt lat="44.40799" lon="1.4603">
        <ele>224</ele>
        <time>2011-03-20T09:17:35</time>
      </trkpt>
      <trkpt lat="44.40796" lon="1.46032">
        <ele>224</ele>
        <time>2011-03-20T09:17:37</time>
      </trkpt>
      <trkpt lat="44.40792" lon="1.46035">
        <ele>224</ele>
        <time>2011-03-20T09:17:39</time>
      </trkpt>
      <trkpt lat="44.40789" lon="1.46037">
        <ele>235</ele>
        <time>2011-03-20T09:17:41</time>
      </trkpt>
      <trkpt lat="44.40786" lon="1.46039">
        <ele>235</ele>
        <time>2011-03-20T09:17:43</time>
      </trkpt>
      <trkpt lat="44.40783" lon="1.46042">
        <ele>232</ele>
        <time>2011-03-20T09:17:45</time>
      </trkpt>
      <trkpt lat="44.40779" lon="1.46044">
        <ele>232</ele>
        <time>2011-03-20T09:17:47</time>
      </trkpt>
      <trkpt lat="44.40776" lon="1.46046">
        <ele>232</ele>
        <time>2011-03-20T09:17:49</time>
      </trkpt>
      <trkpt lat="44.40772" lon="1.46049">
        <ele>232</ele>
        <time>2011-03-20T09:17:51</time>
      </trkpt>
      <trkpt lat="44.40768" lon="1.46051">
        <ele>232</ele>
        <time>2011-03-20T09:17:53</time>
      </trkpt>
      <trkpt lat="44.40764" lon="1.46053">
        <ele>232</ele>
        <time>2011-03-20T09:17:55</time>
      </trkpt>
      <trkpt lat="44.4076" lon="1.46054">
        <ele>232</ele>
        <time>2011-03-20T09:17:57</time>
      </trkpt>
      <trkpt lat="44.40757" lon="1.46056">
        <ele>232</ele>
        <time>2011-03-20T09:17:59</time>
      </trkpt>
      <trkpt lat="44.40753" lon="1.46058">
        <ele>232</ele>
        <time>2011-03-20T09:18:01</time>
      </trkpt>
      <trkpt lat="44.40749" lon="1.4606">
        <ele>232</ele>
        <time>2011-03-20T09:18:03</time>
      </trkpt>
      <trkpt lat="44.40746" lon="1.46062">
        <ele>232</ele>
        <time>2011-03-20T09:18:05</time>
      </trkpt>
      <trkpt lat="44.40743" lon="1.46064">
        <ele>232</ele>
        <time>2011-03-20T09:18:07</time>
      </trkpt>
      <trkpt lat="44.4074" lon="1.46065">
        <ele>232</ele>
        <time>2011-03-20T09:18:09</time>
      </trkpt>
      <trkpt lat="44.40736" lon="1.46067">
        <ele>232</ele>
        <time>2011-03-20T09:18:11</time>
      </trkpt>
      <trkpt lat="44.40733" lon="1.46068">
        <ele>232</ele>
        <time>2011-03-20T09:18:13</time>
      </trkpt>
      <trkpt lat="44.40729" lon="1.46069">
        <ele>232</ele>
        <time>2011-03-20T09:18:15</time>
      </trkpt>
      <trkpt lat="44.40726" lon="1.46071">
        <ele>232</ele>
        <time>2011-03-20T09:18:17</time>
      </trkpt>
      <trkpt lat="44.40723" lon="1.46072">
        <ele>232</ele>
        <time>2011-03-20T09:18:19</time>
      </trkpt>
      <trkpt lat="44.4072" lon="1.46074">
        <ele>232</ele>
        <time>2011-03-20T09:18:21</time>
      </trkpt>
      <trkpt lat="44.40717" lon="1.46075">
        <ele>232</ele>
        <time>2011-03-20T09:18:23</time>
      </trkpt>
      <trkpt lat="44.40713" lon="1.46076">
        <ele>232</ele>
        <time>2011-03-20T09:18:25</time>
      </trkpt>
      <trkpt lat="44.40709" lon="1.46078">
        <ele>232</ele>
        <time>2011-03-20T09:18:27</time>
      </trkpt>
      <trkpt lat="44.40705" lon="1.46079">
        <ele>235</ele>
        <time>2011-03-20T09:18:29</time>
      </trkpt>
      <trkpt lat="44.40702" lon="1.46081">
        <ele>235</ele>
        <time>2011-03-20T09:18:31</time>
      </trkpt>
      <trkpt lat="44.40698" lon="1.46083">
        <ele>235</ele>
        <time>2011-03-20T09:18:33</time>
      </trkpt>
      <trkpt lat="44.40694" lon="1.46085">
        <ele>235</ele>
        <time>2011-03-20T09:18:35</time>
      </trkpt>
      <trkpt lat="44.40691" lon="1.46088">
        <ele>235</ele>
        <time>2011-03-20T09:18:37</time>
      </trkpt>
      <trkpt lat="44.40688" lon="1.4609">
        <ele>235</ele>
        <time>2011-03-20T09:18:39</time>
      </trkpt>
      <trkpt lat="44.40685" lon="1.46092">
        <ele>235</ele>
        <time>2011-03-20T09:18:41</time>
      </trkpt>
      <trkpt lat="44.40682" lon="1.46094">
        <ele>235</ele>
        <time>2011-03-20T09:18:43</time>
      </trkpt>
      <trkpt lat="44.40679" lon="1.46097">
        <ele>235</ele>
        <time>2011-03-20T09:18:45</time>
      </trkpt>
      <trkpt lat="44.40677" lon="1.46098">
        <ele>235</ele>
        <time>2011-03-20T09:18:46</time>
      </trkpt>
      <trkpt lat="44.40674" lon="1.46101">
        <ele>235</ele>
        <time>2011-03-20T09:18:48</time>
      </trkpt>
      <trkpt lat="44.40671" lon="1.46104">
        <ele>235</ele>
        <time>2011-03-20T09:18:50</time>
      </trkpt>
      <trkpt lat="44.40667" lon="1.46106">
        <ele>235</ele>
        <time>2011-03-20T09:18:52</time>
      </trkpt>
      <trkpt lat="44.40664" lon="1.46109">
        <ele>235</ele>
        <time>2011-03-20T09:18:54</time>
      </trkpt>
      <trkpt lat="44.40661" lon="1.46112">
        <ele>235</ele>
        <time>2011-03-20T09:18:56</time>
      </trkpt>
      <trkpt lat="44.40658" lon="1.46115">
        <ele>235</ele>
        <time>2011-03-20T09:18:58</time>
      </trkpt>
      <trkpt lat="44.40655" lon="1.46118">
        <ele>235</ele>
        <time>2011-03-20T09:19:00</time>
      </trkpt>
      <trkpt lat="44.40652" lon="1.46122">
        <ele>235</ele>
        <time>2011-03-20T09:19:02</time>
      </trkpt>
      <trkpt lat="44.40649" lon="1.46125">
        <ele>241</ele>
        <time>2011-03-20T09:19:04</time>
      </trkpt>
      <trkpt lat="44.40647" lon="1.46129">
        <ele>241</ele>
        <time>2011-03-20T09:19:06</time>
      </trkpt>
      <trkpt lat="44.40644" lon="1.46132">
        <ele>241</ele>
        <time>2011-03-20T09:19:08</time>
      </trkpt>
      <trkpt lat="44.40641" lon="1.46135">
        <ele>241</ele>
        <time>2011-03-20T09:19:10</time>
      </trkpt>
      <trkpt lat="44.40639" lon="1.46137">
        <ele>241</ele>
        <time>2011-03-20T09:19:12</time>
      </trkpt>
      <trkpt lat="44.40636" lon="1.4614">
        <ele>241</ele>
        <time>2011-03-20T09:19:14</time>
      </trkpt>
      <trkpt lat="44.40634" lon="1.46143">
        <ele>241</ele>
        <time>2011-03-20T09:19:16</time>
      </trkpt>
      <trkpt lat="44.40632" lon="1.46146">
        <ele>241</ele>
        <time>2011-03-20T09:19:18</time>
      </trkpt>
      <trkpt lat="44.4063" lon="1.46149">
        <ele>241</ele>
        <time>2011-03-20T09:19:20</time>
      </trkpt>
      <trkpt lat="44.40628" lon="1.46153">
        <ele>241</ele>
        <time>2011-03-20T09:19:22</time>
      </trkpt>
      <trkpt lat="44.40625" lon="1.46156">
        <ele>246</ele>
        <time>2011-03-20T09:19:24</time>
      </trkpt>
      <trkpt lat="44.40622" lon="1.4616">
        <ele>246</ele>
        <time>2011-03-20T09:19:26</time>
      </trkpt>
      <trkpt lat="44.40619" lon="1.46163">
        <ele>246</ele>
        <time>2011-03-20T09:19:28</time>
      </trkpt>
      <trkpt lat="44.40617" lon="1.46166">
        <ele>246</ele>
        <time>2011-03-20T09:19:30</time>
      </trkpt>
      <trkpt lat="44.40614" lon="1.46169">
        <ele>246</ele>
        <time>2011-03-20T09:19:32</time>
      </trkpt>
      <trkpt lat="44.40612" lon="1.46173">
        <ele>246</ele>
        <time>2011-03-20T09:19:34</time>
      </trkpt>
      <trkpt lat="44.4061" lon="1.46177">
        <ele>246</ele>
        <time>2011-03-20T09:19:36</time>
      </trkpt>
      <trkpt lat="44.40608" lon="1.46181">
        <ele>246</ele>
        <time>2011-03-20T09:19:38</time>
      </trkpt>
      <trkpt lat="44.40605" lon="1.46184">
        <ele>246</ele>
        <time>2011-03-20T09:19:40</time>
      </trkpt>
      <trkpt lat="44.40603" lon="1.46188">
        <ele>246</ele>
        <time>2011-03-20T09:19:42</time>
      </trkpt>
      <trkpt lat="44.406" lon="1.46193">
        <ele>246</ele>
        <time>2011-03-20T09:19:44</time>
      </trkpt>
      <trkpt lat="44.40596" lon="1.46197">
        <ele>246</ele>
        <time>2011-03-20T09:19:46</time>
      </trkpt>
      <trkpt lat="44.40594" lon="1.46201">
        <ele>246</ele>
        <time>2011-03-20T09:19:48</time>
      </trkpt>
      <trkpt lat="44.40591" lon="1.46206">
        <ele>246</ele>
        <time>2011-03-20T09:19:50</time>
      </trkpt>
      <trkpt lat="44.40588" lon="1.4621">
        <ele>245</ele>
        <time>2011-03-20T09:19:52</time>
      </trkpt>
      <trkpt lat="44.40585" lon="1.46213">
        <ele>245</ele>
        <time>2011-03-20T09:19:54</time>
      </trkpt>
      <trkpt lat="44.40581" lon="1.46217">
        <ele>245</ele>
        <time>2011-03-20T09:19:56</time>
      </trkpt>
      <trkpt lat="44.40578" lon="1.4622">
        <ele>245</ele>
        <time>2011-03-20T09:19:58</time>
      </trkpt>
      <trkpt lat="44.40574" lon="1.46223">
        <ele>245</ele>
        <time>2011-03-20T09:20:00</time>
      </trkpt>
      <trkpt lat="44.4057" lon="1.46226">
        <ele>245</ele>
        <time>2011-03-20T09:20:02</time>
      </trkpt>
      <trkpt lat="44.40567" lon="1.4623">
        <ele>245</ele>
        <time>2011-03-20T09:20:04</time>
      </trkpt>
      <trkpt lat="44.40564" lon="1.46233">
        <ele>245</ele>
        <time>2011-03-20T09:20:06</time>
      </trkpt>
      <trkpt lat="44.4056" lon="1.46236">
        <ele>245</ele>
        <time>2011-03-20T09:20:08</time>
      </trkpt>
      <trkpt lat="44.40558" lon="1.46237">
        <ele>245</ele>
        <time>2011-03-20T09:20:10</time>
      </trkpt>
      <trkpt lat="44.40554" lon="1.46239">
        <ele>245</ele>
        <time>2011-03-20T09:20:12</time>
      </trkpt>
      <trkpt lat="44.40552" lon="1.46241">
        <ele>245</ele>
        <time>2011-03-20T09:20:14</time>
      </trkpt>
      <trkpt lat="44.40549" lon="1.46242">
        <ele>245</ele>
        <time>2011-03-20T09:20:16</time>
      </trkpt>
      <trkpt lat="44.40545" lon="1.46244">
        <ele>245</ele>
        <time>2011-03-20T09:20:18</time>
      </trkpt>
      <trkpt lat="44.40542" lon="1.46245">
        <ele>245</ele>
        <time>2011-03-20T09:20:20</time>
      </trkpt>
      <trkpt lat="44.40538" lon="1.46247">
        <ele>251</ele>
        <time>2011-03-20T09:20:22</time>
      </trkpt>
      <trkpt lat="44.40535" lon="1.46248">
        <ele>251</ele>
        <time>2011-03-20T09:20:24</time>
      </trkpt>
      <trkpt lat="44.40532" lon="1.4625">
        <ele>251</ele>
        <time>2011-03-20T09:20:26</time>
      </trkpt>
      <trkpt lat="44.40529" lon="1.46252">
        <ele>251</ele>
        <time>2011-03-20T09:20:28</time>
      </trkpt>
      <trkpt lat="44.40526" lon="1.46254">
        <ele>251</ele>
        <time>2011-03-20T09:20:30</time>
      </trkpt>
      <trkpt lat="44.40523" lon="1.46257">
        <ele>251</ele>
        <time>2011-03-20T09:20:32</time>
      </trkpt>
      <trkpt lat="44.4052" lon="1.46259">
        <ele>251</ele>
        <time>2011-03-20T09:20:34</time>
      </trkpt>
      <trkpt lat="44.40517" lon="1.46261">
        <ele>251</ele>
        <time>2011-03-20T09:20:36</time>
      </trkpt>
      <trkpt lat="44.40515" lon="1.46263">
        <ele>251</ele>
        <time>2011-03-20T09:20:38</time>
      </trkpt>
      <trkpt lat="44.40512" lon="1.46266">
        <ele>251</ele>
        <time>2011-03-20T09:20:40</time>
      </trkpt>
      <trkpt lat="44.4051" lon="1.46268">
        <ele>251</ele>
        <time>2011-03-20T09:20:42</time>
      </trkpt>
      <trkpt lat="44.40507" lon="1.4627">
        <ele>251</ele>
        <time>2011-03-20T09:20:44</time>
      </trkpt>
      <trkpt lat="44.40503" lon="1.46272">
        <ele>251</ele>
        <time>2011-03-20T09:20:46</time>
      </trkpt>
      <trkpt lat="44.405" lon="1.46274">
        <ele>251</ele>
        <time>2011-03-20T09:20:47</time>
      </trkpt>
      <trkpt lat="44.40497" lon="1.46276">
        <ele>251</ele>
        <time>2011-03-20T09:20:49</time>
      </trkpt>
      <trkpt lat="44.40494" lon="1.46278">
        <ele>251</ele>
        <time>2011-03-20T09:20:51</time>
      </trkpt>
      <trkpt lat="44.40491" lon="1.46278">
        <ele>251</ele>
        <time>2011-03-20T09:20:53</time>
      </trkpt>
      <trkpt lat="44.40489" lon="1.4628">
        <ele>251</ele>
        <time>2011-03-20T09:20:55</time>
      </trkpt>
      <trkpt lat="44.40486" lon="1.46282">
        <ele>251</ele>
        <time>2011-03-20T09:20:57</time>
      </trkpt>
      <trkpt lat="44.40484" lon="1.46284">
        <ele>251</ele>
        <time>2011-03-20T09:20:59</time>
      </trkpt>
      <trkpt lat="44.40481" lon="1.46286">
        <ele>251</ele>
        <time>2011-03-20T09:21:01</time>
      </trkpt>
      <trkpt lat="44.40479" lon="1.46288">
        <ele>251</ele>
        <time>2011-03-20T09:21:03</time>
      </trkpt>
      <trkpt lat="44.40476" lon="1.46291">
        <ele>251</ele>
        <time>2011-03-20T09:21:05</time>
      </trkpt>
      <trkpt lat="44.40473" lon="1.46293">
        <ele>251</ele>
        <time>2011-03-20T09:21:07</time>
      </trkpt>
      <trkpt lat="44.4047" lon="1.46296">
        <ele>251</ele>
        <time>2011-03-20T09:21:09</time>
      </trkpt>
      <trkpt lat="44.40467" lon="1.46298">
        <ele>251</ele>
        <time>2011-03-20T09:21:11</time>
      </trkpt>
      <trkpt lat="44.40464" lon="1.463">
        <ele>251</ele>
        <time>2011-03-20T09:21:13</time>
      </trkpt>
      <trkpt lat="44.40462" lon="1.46303">
        <ele>251</ele>
        <time>2011-03-20T09:21:15</time>
      </trkpt>
      <trkpt lat="44.4046" lon="1.46306">
        <ele>251</ele>
        <time>2011-03-20T09:21:17</time>
      </trkpt>
      <trkpt lat="44.40457" lon="1.46308">
        <ele>257</ele>
        <time>2011-03-20T09:21:19</time>
      </trkpt>
      <trkpt lat="44.40456" lon="1.46309">
        <ele>257</ele>
        <time>2011-03-20T09:21:20</time>
      </trkpt>
      <trkpt lat="44.40453" lon="1.4631">
        <ele>257</ele>
        <time>2011-03-20T09:21:22</time>
      </trkpt>
      <trkpt lat="44.40452" lon="1.46311">
        <ele>257</ele>
        <time>2011-03-20T09:21:23</time>
      </trkpt>
      <trkpt lat="44.40449" lon="1.46313">
        <ele>257</ele>
        <time>2011-03-20T09:21:25</time>
      </trkpt>
      <trkpt lat="44.40445" lon="1.46316">
        <ele>257</ele>
        <time>2011-03-20T09:21:27</time>
      </trkpt>
      <trkpt lat="44.40442" lon="1.46319">
        <ele>257</ele>
        <time>2011-03-20T09:21:29</time>
      </trkpt>
      <trkpt lat="44.40439" lon="1.46321">
        <ele>257</ele>
        <time>2011-03-20T09:21:31</time>
      </trkpt>
      <trkpt lat="44.40436" lon="1.46324">
        <ele>257</ele>
        <time>2011-03-20T09:21:33</time>
      </trkpt>
      <trkpt lat="44.40434" lon="1.46326">
        <ele>257</ele>
        <time>2011-03-20T09:21:35</time>
      </trkpt>
      <trkpt lat="44.40431" lon="1.46328">
        <ele>257</ele>
        <time>2011-03-20T09:21:37</time>
      </trkpt>
      <trkpt lat="44.40428" lon="1.4633">
        <ele>257</ele>
        <time>2011-03-20T09:21:39</time>
      </trkpt>
      <trkpt lat="44.40426" lon="1.46331">
        <ele>257</ele>
        <time>2011-03-20T09:21:41</time>
      </trkpt>
      <trkpt lat="44.40423" lon="1.46334">
        <ele>257</ele>
        <time>2011-03-20T09:21:44</time>
      </trkpt>
      <trkpt lat="44.40421" lon="1.46337">
        <ele>257</ele>
        <time>2011-03-20T09:21:46</time>
      </trkpt>
      <trkpt lat="44.40418" lon="1.4634">
        <ele>257</ele>
        <time>2011-03-20T09:21:48</time>
      </trkpt>
      <trkpt lat="44.40416" lon="1.46343">
        <ele>257</ele>
        <time>2011-03-20T09:21:50</time>
      </trkpt>
      <trkpt lat="44.40413" lon="1.46345">
        <ele>257</ele>
        <time>2011-03-20T09:21:53</time>
      </trkpt>
      <trkpt lat="44.40411" lon="1.46347">
        <ele>257</ele>
        <time>2011-03-20T09:21:55</time>
      </trkpt>
      <trkpt lat="44.40409" lon="1.46349">
        <ele>257</ele>
        <time>2011-03-20T09:21:57</time>
      </trkpt>
      <trkpt lat="44.40407" lon="1.46351">
        <ele>257</ele>
        <time>2011-03-20T09:21:59</time>
      </trkpt>
      <trkpt lat="44.40405" lon="1.46355">
        <ele>257</ele>
        <time>2011-03-20T09:22:01</time>
      </trkpt>
      <trkpt lat="44.40402" lon="1.46357">
        <ele>257</ele>
        <time>2011-03-20T09:22:03</time>
      </trkpt>
      <trkpt lat="44.40399" lon="1.4636">
        <ele>257</ele>
        <time>2011-03-20T09:22:05</time>
      </trkpt>
      <trkpt lat="44.40396" lon="1.46363">
        <ele>257</ele>
        <time>2011-03-20T09:22:07</time>
      </trkpt>
      <trkpt lat="44.40393" lon="1.46367">
        <ele>257</ele>
        <time>2011-03-20T09:22:09</time>
      </trkpt>
      <trkpt lat="44.4039" lon="1.46371">
        <ele>257</ele>
        <time>2011-03-20T09:22:11</time>
      </trkpt>
      <trkpt lat="44.40388" lon="1.46375">
        <ele>260</ele>
        <time>2011-03-20T09:22:13</time>
      </trkpt>
      <trkpt lat="44.40385" lon="1.46379">
        <ele>260</ele>
        <time>2011-03-20T09:22:15</time>
      </trkpt>
      <trkpt lat="44.40382" lon="1.46383">
        <ele>260</ele>
        <time>2011-03-20T09:22:17</time>
      </trkpt>
      <trkpt lat="44.4038" lon="1.46387">
        <ele>260</ele>
        <time>2011-03-20T09:22:19</time>
      </trkpt>
      <trkpt lat="44.40377" lon="1.4639">
        <ele>260</ele>
        <time>2011-03-20T09:22:21</time>
      </trkpt>
      <trkpt lat="44.40375" lon="1.46394">
        <ele>264</ele>
        <time>2011-03-20T09:22:23</time>
      </trkpt>
      <trkpt lat="44.40373" lon="1.46398">
        <ele>264</ele>
        <time>2011-03-20T09:22:25</time>
      </trkpt>
      <trkpt lat="44.4037" lon="1.46402">
        <ele>264</ele>
        <time>2011-03-20T09:22:27</time>
      </trkpt>
      <trkpt lat="44.40367" lon="1.46406">
        <ele>264</ele>
        <time>2011-03-20T09:22:29</time>
      </trkpt>
      <trkpt lat="44.40364" lon="1.46408">
        <ele>264</ele>
        <time>2011-03-20T09:22:31</time>
      </trkpt>
      <trkpt lat="44.4036" lon="1.46412">
        <ele>264</ele>
        <time>2011-03-20T09:22:33</time>
      </trkpt>
      <trkpt lat="44.40359" lon="1.46414">
        <ele>264</ele>
        <time>2011-03-20T09:22:34</time>
      </trkpt>
      <trkpt lat="44.40357" lon="1.46417">
        <ele>264</ele>
        <time>2011-03-20T09:22:36</time>
      </trkpt>
      <trkpt lat="44.40355" lon="1.4642">
        <ele>264</ele>
        <time>2011-03-20T09:22:38</time>
      </trkpt>
      <trkpt lat="44.40353" lon="1.46422">
        <ele>264</ele>
        <time>2011-03-20T09:22:40</time>
      </trkpt>
      <trkpt lat="44.4035" lon="1.46424">
        <ele>264</ele>
        <time>2011-03-20T09:22:42</time>
      </trkpt>
      <trkpt lat="44.40348" lon="1.46428">
        <ele>264</ele>
        <time>2011-03-20T09:22:44</time>
      </trkpt>
      <trkpt lat="44.40345" lon="1.46431">
        <ele>264</ele>
        <time>2011-03-20T09:22:46</time>
      </trkpt>
      <trkpt lat="44.40342" lon="1.46435">
        <ele>264</ele>
        <time>2011-03-20T09:22:48</time>
      </trkpt>
      <trkpt lat="44.4034" lon="1.46438">
        <ele>264</ele>
        <time>2011-03-20T09:22:50</time>
      </trkpt>
      <trkpt lat="44.40337" lon="1.46441">
        <ele>264</ele>
        <time>2011-03-20T09:22:52</time>
      </trkpt>
      <trkpt lat="44.40334" lon="1.46444">
        <ele>264</ele>
        <time>2011-03-20T09:22:54</time>
      </trkpt>
      <trkpt lat="44.40331" lon="1.46446">
        <ele>264</ele>
        <time>2011-03-20T09:22:56</time>
      </trkpt>
      <trkpt lat="44.40329" lon="1.46447">
        <ele>264</ele>
        <time>2011-03-20T09:22:57</time>
      </trkpt>
      <trkpt lat="44.40327" lon="1.46447">
        <ele>264</ele>
        <time>2011-03-20T09:22:59</time>
      </trkpt>
      <trkpt lat="44.40327" lon="1.46447">
        <ele>264</ele>
        <time>2011-03-20T09:23:18</time>
      </trkpt>
      <trkpt lat="44.40329" lon="1.4645">
        <ele>264</ele>
        <time>2011-03-20T09:25:20</time>
      </trkpt>
      <trkpt lat="44.4033" lon="1.46452">
        <ele>264</ele>
        <time>2011-03-20T09:25:21</time>
      </trkpt>
      <trkpt lat="44.4033" lon="1.46452">
        <ele>264</ele>
        <time>2011-03-20T09:25:22</time>
      </trkpt>
      <trkpt lat="44.40331" lon="1.46456">
        <ele>264</ele>
        <time>2011-03-20T09:25:23</time>
      </trkpt>
      <trkpt lat="44.40331" lon="1.46458">
        <ele>264</ele>
        <time>2011-03-20T09:25:24</time>
      </trkpt>
      <trkpt lat="44.40329" lon="1.4646">
        <ele>270</ele>
        <time>2011-03-20T09:25:26</time>
      </trkpt>
      <trkpt lat="44.40325" lon="1.46464">
        <ele>270</ele>
        <time>2011-03-20T09:25:29</time>
      </trkpt>
      <trkpt lat="44.40323" lon="1.46468">
        <ele>270</ele>
        <time>2011-03-20T09:25:31</time>
      </trkpt>
      <trkpt lat="44.40321" lon="1.46473">
        <ele>270</ele>
        <time>2011-03-20T09:25:33</time>
      </trkpt>
      <trkpt lat="44.4032" lon="1.46479">
        <ele>270</ele>
        <time>2011-03-20T09:25:35</time>
      </trkpt>
      <trkpt lat="44.4032" lon="1.46482">
        <ele>270</ele>
        <time>2011-03-20T09:25:36</time>
      </trkpt>
      <trkpt lat="44.40322" lon="1.46489">
        <ele>270</ele>
        <time>2011-03-20T09:25:38</time>
      </trkpt>
      <trkpt lat="44.40325" lon="1.46497">
        <ele>270</ele>
        <time>2011-03-20T09:25:41</time>
      </trkpt>
      <trkpt lat="44.40328" lon="1.46503">
        <ele>270</ele>
        <time>2011-03-20T09:25:43</time>
      </trkpt>
      <trkpt lat="44.40331" lon="1.46508">
        <ele>270</ele>
        <time>2011-03-20T09:25:45</time>
      </trkpt>
      <trkpt lat="44.40333" lon="1.4651">
        <ele>270</ele>
        <time>2011-03-20T09:25:46</time>
      </trkpt>
      <trkpt lat="44.40335" lon="1.46513">
        <ele>270</ele>
        <time>2011-03-20T09:25:47</time>
      </trkpt>
      <trkpt lat="44.40338" lon="1.46518">
        <ele>270</ele>
        <time>2011-03-20T09:25:49</time>
      </trkpt>
      <trkpt lat="44.4034" lon="1.46521">
        <ele>270</ele>
        <time>2011-03-20T09:25:50</time>
      </trkpt>
      <trkpt lat="44.40342" lon="1.46524">
        <ele>270</ele>
        <time>2011-03-20T09:25:51</time>
      </trkpt>
      <trkpt lat="44.40346" lon="1.4653">
        <ele>270</ele>
        <time>2011-03-20T09:25:53</time>
      </trkpt>
      <trkpt lat="44.4035" lon="1.46537">
        <ele>270</ele>
        <time>2011-03-20T09:25:55</time>
      </trkpt>
      <trkpt lat="44.40354" lon="1.46544">
        <ele>270</ele>
        <time>2011-03-20T09:25:57</time>
      </trkpt>
      <trkpt lat="44.40357" lon="1.46548">
        <ele>270</ele>
        <time>2011-03-20T09:25:58</time>
      </trkpt>
      <trkpt lat="44.40361" lon="1.46555">
        <ele>270</ele>
        <time>2011-03-20T09:26:00</time>
      </trkpt>
      <trkpt lat="44.40367" lon="1.46562">
        <ele>270</ele>
        <time>2011-03-20T09:26:02</time>
      </trkpt>
      <trkpt lat="44.4037" lon="1.46567">
        <ele>270</ele>
        <time>2011-03-20T09:26:03</time>
      </trkpt>
      <trkpt lat="44.40376" lon="1.46575">
        <ele>267</ele>
        <time>2011-03-20T09:26:05</time>
      </trkpt>
      <trkpt lat="44.4038" lon="1.46579">
        <ele>267</ele>
        <time>2011-03-20T09:26:06</time>
      </trkpt>
      <trkpt lat="44.40384" lon="1.46584">
        <ele>267</ele>
        <time>2011-03-20T09:26:07</time>
      </trkpt>
      <trkpt lat="44.4039" lon="1.46593">
        <ele>267</ele>
        <time>2011-03-20T09:26:09</time>
      </trkpt>
      <trkpt lat="44.40393" lon="1.46597">
        <ele>267</ele>
        <time>2011-03-20T09:26:10</time>
      </trkpt>
      <trkpt lat="44.40399" lon="1.46605">
        <ele>267</ele>
        <time>2011-03-20T09:26:12</time>
      </trkpt>
      <trkpt lat="44.40402" lon="1.46608">
        <ele>267</ele>
        <time>2011-03-20T09:26:13</time>
      </trkpt>
      <trkpt lat="44.40409" lon="1.46616">
        <ele>267</ele>
        <time>2011-03-20T09:26:15</time>
      </trkpt>
      <trkpt lat="44.40415" lon="1.46623">
        <ele>267</ele>
        <time>2011-03-20T09:26:17</time>
      </trkpt>
      <trkpt lat="44.40418" lon="1.46627">
        <ele>271</ele>
        <time>2011-03-20T09:26:18</time>
      </trkpt>
      <trkpt lat="44.40423" lon="1.46634">
        <ele>271</ele>
        <time>2011-03-20T09:26:20</time>
      </trkpt>
      <trkpt lat="44.40426" lon="1.46637">
        <ele>271</ele>
        <time>2011-03-20T09:26:21</time>
      </trkpt>
      <trkpt lat="44.40431" lon="1.46645">
        <ele>271</ele>
        <time>2011-03-20T09:26:23</time>
      </trkpt>
      <trkpt lat="44.40434" lon="1.46649">
        <ele>271</ele>
        <time>2011-03-20T09:26:24</time>
      </trkpt>
      <trkpt lat="44.40439" lon="1.46656">
        <ele>271</ele>
        <time>2011-03-20T09:26:26</time>
      </trkpt>
      <trkpt lat="44.40443" lon="1.46663">
        <ele>271</ele>
        <time>2011-03-20T09:26:28</time>
      </trkpt>
      <trkpt lat="44.40445" lon="1.46666">
        <ele>271</ele>
        <time>2011-03-20T09:26:29</time>
      </trkpt>
      <trkpt lat="44.4045" lon="1.46673">
        <ele>271</ele>
        <time>2011-03-20T09:26:31</time>
      </trkpt>
      <trkpt lat="44.40452" lon="1.46677">
        <ele>271</ele>
        <time>2011-03-20T09:26:32</time>
      </trkpt>
      <trkpt lat="44.40456" lon="1.46685">
        <ele>271</ele>
        <time>2011-03-20T09:26:34</time>
      </trkpt>
      <trkpt lat="44.40459" lon="1.46688">
        <ele>273</ele>
        <time>2011-03-20T09:26:35</time>
      </trkpt>
      <trkpt lat="44.40461" lon="1.46691">
        <ele>273</ele>
        <time>2011-03-20T09:26:36</time>
      </trkpt>
      <trkpt lat="44.40465" lon="1.46696">
        <ele>273</ele>
        <time>2011-03-20T09:26:38</time>
      </trkpt>
      <trkpt lat="44.40468" lon="1.46699">
        <ele>273</ele>
        <time>2011-03-20T09:26:39</time>
      </trkpt>
      <trkpt lat="44.40475" lon="1.46702">
        <ele>273</ele>
        <time>2011-03-20T09:26:41</time>
      </trkpt>
      <trkpt lat="44.40478" lon="1.46702">
        <ele>273</ele>
        <time>2011-03-20T09:26:42</time>
      </trkpt>
      <trkpt lat="44.40482" lon="1.46702">
        <ele>273</ele>
        <time>2011-03-20T09:26:43</time>
      </trkpt>
      <trkpt lat="44.40486" lon="1.46703">
        <ele>273</ele>
        <time>2011-03-20T09:26:44</time>
      </trkpt>
      <trkpt lat="44.40493" lon="1.46705">
        <ele>273</ele>
        <time>2011-03-20T09:26:46</time>
      </trkpt>
      <trkpt lat="44.40496" lon="1.46706">
        <ele>273</ele>
        <time>2011-03-20T09:26:47</time>
      </trkpt>
      <trkpt lat="44.40504" lon="1.46708">
        <ele>273</ele>
        <time>2011-03-20T09:26:49</time>
      </trkpt>
      <trkpt lat="44.40511" lon="1.46711">
        <ele>275</ele>
        <time>2011-03-20T09:26:51</time>
      </trkpt>
      <trkpt lat="44.40515" lon="1.46714">
        <ele>275</ele>
        <time>2011-03-20T09:26:52</time>
      </trkpt>
      <trkpt lat="44.40523" lon="1.46719">
        <ele>275</ele>
        <time>2011-03-20T09:26:54</time>
      </trkpt>
      <trkpt lat="44.40526" lon="1.46721">
        <ele>275</ele>
        <time>2011-03-20T09:26:55</time>
      </trkpt>
      <trkpt lat="44.4053" lon="1.46724">
        <ele>275</ele>
        <time>2011-03-20T09:26:56</time>
      </trkpt>
      <trkpt lat="44.40537" lon="1.4673">
        <ele>275</ele>
        <time>2011-03-20T09:26:58</time>
      </trkpt>
      <trkpt lat="44.40541" lon="1.46733">
        <ele>275</ele>
        <time>2011-03-20T09:26:59</time>
      </trkpt>
      <trkpt lat="44.40548" lon="1.4674">
        <ele>272</ele>
        <time>2011-03-20T09:27:01</time>
      </trkpt>
      <trkpt lat="44.40552" lon="1.46744">
        <ele>272</ele>
        <time>2011-03-20T09:27:02</time>
      </trkpt>
      <trkpt lat="44.4056" lon="1.46751">
        <ele>272</ele>
        <time>2011-03-20T09:27:04</time>
      </trkpt>
      <trkpt lat="44.40564" lon="1.46755">
        <ele>272</ele>
        <time>2011-03-20T09:27:05</time>
      </trkpt>
      <trkpt lat="44.40568" lon="1.46759">
        <ele>272</ele>
        <time>2011-03-20T09:27:06</time>
      </trkpt>
      <trkpt lat="44.40575" lon="1.46768">
        <ele>272</ele>
        <time>2011-03-20T09:27:08</time>
      </trkpt>
      <trkpt lat="44.40579" lon="1.46772">
        <ele>272</ele>
        <time>2011-03-20T09:27:09</time>
      </trkpt>
      <trkpt lat="44.40587" lon="1.4678">
        <ele>272</ele>
        <time>2011-03-20T09:27:11</time>
      </trkpt>
      <trkpt lat="44.40594" lon="1.46787">
        <ele>272</ele>
        <time>2011-03-20T09:27:13</time>
      </trkpt>
      <trkpt lat="44.40598" lon="1.46791">
        <ele>272</ele>
        <time>2011-03-20T09:27:14</time>
      </trkpt>
      <trkpt lat="44.40605" lon="1.46799">
        <ele>273</ele>
        <time>2011-03-20T09:27:16</time>
      </trkpt>
      <trkpt lat="44.40612" lon="1.46808">
        <ele>273</ele>
        <time>2011-03-20T09:27:18</time>
      </trkpt>
      <trkpt lat="44.4062" lon="1.46816">
        <ele>273</ele>
        <time>2011-03-20T09:27:20</time>
      </trkpt>
      <trkpt lat="44.40628" lon="1.46823">
        <ele>271</ele>
        <time>2011-03-20T09:27:22</time>
      </trkpt>
      <trkpt lat="44.40637" lon="1.46829">
        <ele>271</ele>
        <time>2011-03-20T09:27:24</time>
      </trkpt>
      <trkpt lat="44.40641" lon="1.46833">
        <ele>271</ele>
        <time>2011-03-20T09:27:25</time>
      </trkpt>
      <trkpt lat="44.40646" lon="1.46835">
        <ele>271</ele>
        <time>2011-03-20T09:27:26</time>
      </trkpt>
      <trkpt lat="44.40655" lon="1.4684">
        <ele>271</ele>
        <time>2011-03-20T09:27:28</time>
      </trkpt>
      <trkpt lat="44.40665" lon="1.46844">
        <ele>271</ele>
        <time>2011-03-20T09:27:30</time>
      </trkpt>
      <trkpt lat="44.4067" lon="1.46845">
        <ele>271</ele>
        <time>2011-03-20T09:27:31</time>
      </trkpt>
      <trkpt lat="44.40675" lon="1.46846">
        <ele>271</ele>
        <time>2011-03-20T09:27:32</time>
      </trkpt>
      <trkpt lat="44.40686" lon="1.46848">
        <ele>271</ele>
        <time>2011-03-20T09:27:34</time>
      </trkpt>
      <trkpt lat="44.40691" lon="1.46849">
        <ele>271</ele>
        <time>2011-03-20T09:27:35</time>
      </trkpt>
      <trkpt lat="44.40696" lon="1.46849">
        <ele>271</ele>
        <time>2011-03-20T09:27:36</time>
      </trkpt>
      <trkpt lat="44.40706" lon="1.4685">
        <ele>271</ele>
        <time>2011-03-20T09:27:38</time>
      </trkpt>
      <trkpt lat="44.40717" lon="1.4685">
        <ele>272</ele>
        <time>2011-03-20T09:27:40</time>
      </trkpt>
      <trkpt lat="44.40722" lon="1.4685">
        <ele>272</ele>
        <time>2011-03-20T09:27:41</time>
      </trkpt>
      <trkpt lat="44.40728" lon="1.4685">
        <ele>272</ele>
        <time>2011-03-20T09:27:42</time>
      </trkpt>
      <trkpt lat="44.40733" lon="1.4685">
        <ele>272</ele>
        <time>2011-03-20T09:27:43</time>
      </trkpt>
      <trkpt lat="44.40743" lon="1.4685">
        <ele>272</ele>
        <time>2011-03-20T09:27:45</time>
      </trkpt>
      <trkpt lat="44.40753" lon="1.46851">
        <ele>272</ele>
        <time>2011-03-20T09:27:47</time>
      </trkpt>
      <trkpt lat="44.40759" lon="1.46851">
        <ele>272</ele>
        <time>2011-03-20T09:27:48</time>
      </trkpt>
      <trkpt lat="44.40764" lon="1.46851">
        <ele>272</ele>
        <time>2011-03-20T09:27:49</time>
      </trkpt>
      <trkpt lat="44.40773" lon="1.46852">
        <ele>272</ele>
        <time>2011-03-20T09:27:51</time>
      </trkpt>
      <trkpt lat="44.40783" lon="1.46852">
        <ele>272</ele>
        <time>2011-03-20T09:27:53</time>
      </trkpt>
      <trkpt lat="44.40793" lon="1.46853">
        <ele>272</ele>
        <time>2011-03-20T09:27:55</time>
      </trkpt>
      <trkpt lat="44.40797" lon="1.46853">
        <ele>272</ele>
        <time>2011-03-20T09:27:56</time>
      </trkpt>
      <trkpt lat="44.40806" lon="1.46855">
        <ele>272</ele>
        <time>2011-03-20T09:27:58</time>
      </trkpt>
      <trkpt lat="44.4081" lon="1.46855">
        <ele>272</ele>
        <time>2011-03-20T09:27:59</time>
      </trkpt>
      <trkpt lat="44.40815" lon="1.46855">
        <ele>272</ele>
        <time>2011-03-20T09:28:00</time>
      </trkpt>
      <trkpt lat="44.40823" lon="1.46855">
        <ele>272</ele>
        <time>2011-03-20T09:28:02</time>
      </trkpt>
      <trkpt lat="44.40828" lon="1.46855">
        <ele>272</ele>
        <time>2011-03-20T09:28:03</time>
      </trkpt>
      <trkpt lat="44.40832" lon="1.46855">
        <ele>272</ele>
        <time>2011-03-20T09:28:04</time>
      </trkpt>
      <trkpt lat="44.40842" lon="1.46856">
        <ele>272</ele>
        <time>2011-03-20T09:28:06</time>
      </trkpt>
      <trkpt lat="44.40851" lon="1.46859">
        <ele>272</ele>
        <time>2011-03-20T09:28:08</time>
      </trkpt>
      <trkpt lat="44.4086" lon="1.46864">
        <ele>272</ele>
        <time>2011-03-20T09:28:10</time>
      </trkpt>
      <trkpt lat="44.40869" lon="1.4687">
        <ele>272</ele>
        <time>2011-03-20T09:28:12</time>
      </trkpt>
      <trkpt lat="44.40877" lon="1.46876">
        <ele>272</ele>
        <time>2011-03-20T09:28:14</time>
      </trkpt>
      <trkpt lat="44.40881" lon="1.46879">
        <ele>272</ele>
        <time>2011-03-20T09:28:15</time>
      </trkpt>
      <trkpt lat="44.40885" lon="1.46882">
        <ele>272</ele>
        <time>2011-03-20T09:28:16</time>
      </trkpt>
      <trkpt lat="44.40893" lon="1.46888">
        <ele>272</ele>
        <time>2011-03-20T09:28:18</time>
      </trkpt>
      <trkpt lat="44.40901" lon="1.46892">
        <ele>272</ele>
        <time>2011-03-20T09:28:20</time>
      </trkpt>
      <trkpt lat="44.40908" lon="1.46898">
        <ele>272</ele>
        <time>2011-03-20T09:28:22</time>
      </trkpt>
      <trkpt lat="44.40912" lon="1.46901">
        <ele>272</ele>
        <time>2011-03-20T09:28:23</time>
      </trkpt>
      <trkpt lat="44.40919" lon="1.46907">
        <ele>272</ele>
        <time>2011-03-20T09:28:25</time>
      </trkpt>
      <trkpt lat="44.40922" lon="1.4691">
        <ele>272</ele>
        <time>2011-03-20T09:28:26</time>
      </trkpt>
      <trkpt lat="44.40926" lon="1.46914">
        <ele>272</ele>
        <time>2011-03-20T09:28:27</time>
      </trkpt>
      <trkpt lat="44.40933" lon="1.4692">
        <ele>272</ele>
        <time>2011-03-20T09:28:29</time>
      </trkpt>
      <trkpt lat="44.40937" lon="1.46923">
        <ele>272</ele>
        <time>2011-03-20T09:28:30</time>
      </trkpt>
      <trkpt lat="44.40944" lon="1.46929">
        <ele>272</ele>
        <time>2011-03-20T09:28:32</time>
      </trkpt>
      <trkpt lat="44.40952" lon="1.46933">
        <ele>272</ele>
        <time>2011-03-20T09:28:34</time>
      </trkpt>
      <trkpt lat="44.40955" lon="1.46936">
        <ele>272</ele>
        <time>2011-03-20T09:28:35</time>
      </trkpt>
      <trkpt lat="44.40959" lon="1.46938">
        <ele>278</ele>
        <time>2011-03-20T09:28:36</time>
      </trkpt>
      <trkpt lat="44.40965" lon="1.46943">
        <ele>278</ele>
        <time>2011-03-20T09:28:38</time>
      </trkpt>
      <trkpt lat="44.40969" lon="1.46944">
        <ele>278</ele>
        <time>2011-03-20T09:28:39</time>
      </trkpt>
      <trkpt lat="44.40972" lon="1.46946">
        <ele>278</ele>
        <time>2011-03-20T09:28:40</time>
      </trkpt>
      <trkpt lat="44.4098" lon="1.46949">
        <ele>278</ele>
        <time>2011-03-20T09:28:42</time>
      </trkpt>
      <trkpt lat="44.40987" lon="1.46952">
        <ele>278</ele>
        <time>2011-03-20T09:28:44</time>
      </trkpt>
      <trkpt lat="44.40995" lon="1.46954">
        <ele>278</ele>
        <time>2011-03-20T09:28:46</time>
      </trkpt>
      <trkpt lat="44.40999" lon="1.46956">
        <ele>278</ele>
        <time>2011-03-20T09:28:47</time>
      </trkpt>
      <trkpt lat="44.41007" lon="1.46959">
        <ele>271</ele>
        <time>2011-03-20T09:28:49</time>
      </trkpt>
      <trkpt lat="44.41014" lon="1.46964">
        <ele>271</ele>
        <time>2011-03-20T09:28:51</time>
      </trkpt>
      <trkpt lat="44.41022" lon="1.46969">
        <ele>271</ele>
        <time>2011-03-20T09:28:53</time>
      </trkpt>
      <trkpt lat="44.41029" lon="1.46975">
        <ele>271</ele>
        <time>2011-03-20T09:28:55</time>
      </trkpt>
      <trkpt lat="44.41032" lon="1.46979">
        <ele>271</ele>
        <time>2011-03-20T09:28:56</time>
      </trkpt>
      <trkpt lat="44.41039" lon="1.46986">
        <ele>271</ele>
        <time>2011-03-20T09:28:58</time>
      </trkpt>
      <trkpt lat="44.41046" lon="1.46993">
        <ele>280</ele>
        <time>2011-03-20T09:29:00</time>
      </trkpt>
      <trkpt lat="44.4105" lon="1.46995">
        <ele>280</ele>
        <time>2011-03-20T09:29:01</time>
      </trkpt>
      <trkpt lat="44.41056" lon="1.47003">
        <ele>280</ele>
        <time>2011-03-20T09:29:03</time>
      </trkpt>
      <trkpt lat="44.41063" lon="1.47009">
        <ele>280</ele>
        <time>2011-03-20T09:29:05</time>
      </trkpt>
      <trkpt lat="44.41066" lon="1.47013">
        <ele>280</ele>
        <time>2011-03-20T09:29:06</time>
      </trkpt>
      <trkpt lat="44.41072" lon="1.4702">
        <ele>280</ele>
        <time>2011-03-20T09:29:08</time>
      </trkpt>
      <trkpt lat="44.41078" lon="1.47027">
        <ele>280</ele>
        <time>2011-03-20T09:29:10</time>
      </trkpt>
      <trkpt lat="44.41084" lon="1.47034">
        <ele>280</ele>
        <time>2011-03-20T09:29:12</time>
      </trkpt>
      <trkpt lat="44.41087" lon="1.47038">
        <ele>280</ele>
        <time>2011-03-20T09:29:13</time>
      </trkpt>
      <trkpt lat="44.4109" lon="1.47041">
        <ele>280</ele>
        <time>2011-03-20T09:29:14</time>
      </trkpt>
      <trkpt lat="44.41096" lon="1.47049">
        <ele>276</ele>
        <time>2011-03-20T09:29:16</time>
      </trkpt>
      <trkpt lat="44.41103" lon="1.47056">
        <ele>276</ele>
        <time>2011-03-20T09:29:18</time>
      </trkpt>
      <trkpt lat="44.41106" lon="1.47059">
        <ele>276</ele>
        <time>2011-03-20T09:29:19</time>
      </trkpt>
      <trkpt lat="44.41112" lon="1.47067">
        <ele>276</ele>
        <time>2011-03-20T09:29:21</time>
      </trkpt>
      <trkpt lat="44.41119" lon="1.47073">
        <ele>276</ele>
        <time>2011-03-20T09:29:23</time>
      </trkpt>
      <trkpt lat="44.41122" lon="1.47076">
        <ele>276</ele>
        <time>2011-03-20T09:29:24</time>
      </trkpt>
      <trkpt lat="44.41128" lon="1.47082">
        <ele>280</ele>
        <time>2011-03-20T09:29:26</time>
      </trkpt>
      <trkpt lat="44.41134" lon="1.4709">
        <ele>280</ele>
        <time>2011-03-20T09:29:28</time>
      </trkpt>
      <trkpt lat="44.41136" lon="1.47093">
        <ele>280</ele>
        <time>2011-03-20T09:29:29</time>
      </trkpt>
      <trkpt lat="44.41139" lon="1.47098">
        <ele>280</ele>
        <time>2011-03-20T09:29:30</time>
      </trkpt>
      <trkpt lat="44.41142" lon="1.47102">
        <ele>280</ele>
        <time>2011-03-20T09:29:31</time>
      </trkpt>
      <trkpt lat="44.41145" lon="1.47107">
        <ele>280</ele>
        <time>2011-03-20T09:29:32</time>
      </trkpt>
      <trkpt lat="44.4115" lon="1.47115">
        <ele>280</ele>
        <time>2011-03-20T09:29:34</time>
      </trkpt>
      <trkpt lat="44.41154" lon="1.47123">
        <ele>280</ele>
        <time>2011-03-20T09:29:36</time>
      </trkpt>
      <trkpt lat="44.41159" lon="1.47131">
        <ele>281</ele>
        <time>2011-03-20T09:29:38</time>
      </trkpt>
      <trkpt lat="44.41163" lon="1.47139">
        <ele>281</ele>
        <time>2011-03-20T09:29:40</time>
      </trkpt>
      <trkpt lat="44.41166" lon="1.47148">
        <ele>281</ele>
        <time>2011-03-20T09:29:42</time>
      </trkpt>
      <trkpt lat="44.41168" lon="1.47153">
        <ele>281</ele>
        <time>2011-03-20T09:29:43</time>
      </trkpt>
      <trkpt lat="44.41169" lon="1.47158">
        <ele>281</ele>
        <time>2011-03-20T09:29:44</time>
      </trkpt>
      <trkpt lat="44.41173" lon="1.47169">
        <ele>281</ele>
        <time>2011-03-20T09:29:46</time>
      </trkpt>
      <trkpt lat="44.41177" lon="1.47178">
        <ele>281</ele>
        <time>2011-03-20T09:29:48</time>
      </trkpt>
      <trkpt lat="44.41179" lon="1.4718">
        <ele>281</ele>
        <time>2011-03-20T09:29:49</time>
      </trkpt>
      <trkpt lat="44.41182" lon="1.47183">
        <ele>281</ele>
        <time>2011-03-20T09:29:50</time>
      </trkpt>
      <trkpt lat="44.41186" lon="1.47188">
        <ele>281</ele>
        <time>2011-03-20T09:29:52</time>
      </trkpt>
      <trkpt lat="44.41188" lon="1.47191">
        <ele>281</ele>
        <time>2011-03-20T09:29:53</time>
      </trkpt>
      <trkpt lat="44.41192" lon="1.47198">
        <ele>281</ele>
        <time>2011-03-20T09:29:56</time>
      </trkpt>
      <trkpt lat="44.41193" lon="1.47201">
        <ele>281</ele>
        <time>2011-03-20T09:29:57</time>
      </trkpt>
      <trkpt lat="44.41197" lon="1.47206">
        <ele>281</ele>
        <time>2011-03-20T09:29:59</time>
      </trkpt>
      <trkpt lat="44.412" lon="1.47211">
        <ele>283</ele>
        <time>2011-03-20T09:30:01</time>
      </trkpt>
      <trkpt lat="44.41203" lon="1.47217">
        <ele>283</ele>
        <time>2011-03-20T09:30:03</time>
      </trkpt>
      <trkpt lat="44.41205" lon="1.4722">
        <ele>283</ele>
        <time>2011-03-20T09:30:04</time>
      </trkpt>
      <trkpt lat="44.41208" lon="1.47226">
        <ele>284</ele>
        <time>2011-03-20T09:30:06</time>
      </trkpt>
      <trkpt lat="44.41212" lon="1.47233">
        <ele>284</ele>
        <time>2011-03-20T09:30:08</time>
      </trkpt>
      <trkpt lat="44.41214" lon="1.4724">
        <ele>284</ele>
        <time>2011-03-20T09:30:10</time>
      </trkpt>
      <trkpt lat="44.41217" lon="1.47248">
        <ele>284</ele>
        <time>2011-03-20T09:30:12</time>
      </trkpt>
      <trkpt lat="44.41221" lon="1.47255">
        <ele>284</ele>
        <time>2011-03-20T09:30:14</time>
      </trkpt>
      <trkpt lat="44.41224" lon="1.47262">
        <ele>284</ele>
        <time>2011-03-20T09:30:16</time>
      </trkpt>
      <trkpt lat="44.41227" lon="1.47268">
        <ele>284</ele>
        <time>2011-03-20T09:30:18</time>
      </trkpt>
      <trkpt lat="44.41228" lon="1.47272">
        <ele>284</ele>
        <time>2011-03-20T09:30:19</time>
      </trkpt>
      <trkpt lat="44.41231" lon="1.47278">
        <ele>284</ele>
        <time>2011-03-20T09:30:21</time>
      </trkpt>
      <trkpt lat="44.41234" lon="1.47285">
        <ele>284</ele>
        <time>2011-03-20T09:30:23</time>
      </trkpt>
      <trkpt lat="44.41237" lon="1.47292">
        <ele>288</ele>
        <time>2011-03-20T09:30:25</time>
      </trkpt>
      <trkpt lat="44.41239" lon="1.47296">
        <ele>288</ele>
        <time>2011-03-20T09:30:26</time>
      </trkpt>
      <trkpt lat="44.41241" lon="1.47304">
        <ele>288</ele>
        <time>2011-03-20T09:30:28</time>
      </trkpt>
      <trkpt lat="44.41243" lon="1.47308">
        <ele>288</ele>
        <time>2011-03-20T09:30:29</time>
      </trkpt>
      <trkpt lat="44.41244" lon="1.47312">
        <ele>288</ele>
        <time>2011-03-20T09:30:30</time>
      </trkpt>
      <trkpt lat="44.41246" lon="1.4732">
        <ele>288</ele>
        <time>2011-03-20T09:30:32</time>
      </trkpt>
      <trkpt lat="44.41247" lon="1.47323">
        <ele>288</ele>
        <time>2011-03-20T09:30:33</time>
      </trkpt>
      <trkpt lat="44.4125" lon="1.47329">
        <ele>288</ele>
        <time>2011-03-20T09:30:35</time>
      </trkpt>
      <trkpt lat="44.41251" lon="1.47336">
        <ele>288</ele>
        <time>2011-03-20T09:30:37</time>
      </trkpt>
      <trkpt lat="44.41253" lon="1.47341">
        <ele>288</ele>
        <time>2011-03-20T09:30:39</time>
      </trkpt>
      <trkpt lat="44.41254" lon="1.47344">
        <ele>288</ele>
        <time>2011-03-20T09:30:40</time>
      </trkpt>
      <trkpt lat="44.41256" lon="1.47351">
        <ele>288</ele>
        <time>2011-03-20T09:30:42</time>
      </trkpt>
      <trkpt lat="44.41257" lon="1.47354">
        <ele>288</ele>
        <time>2011-03-20T09:30:43</time>
      </trkpt>
      <trkpt lat="44.41258" lon="1.47358">
        <ele>288</ele>
        <time>2011-03-20T09:30:44</time>
      </trkpt>
      <trkpt lat="44.4126" lon="1.47367">
        <ele>288</ele>
        <time>2011-03-20T09:30:46</time>
      </trkpt>
      <trkpt lat="44.41261" lon="1.47371">
        <ele>288</ele>
        <time>2011-03-20T09:30:47</time>
      </trkpt>
      <trkpt lat="44.41263" lon="1.47381">
        <ele>291</ele>
        <time>2011-03-20T09:30:49</time>
      </trkpt>
      <trkpt lat="44.41264" lon="1.47386">
        <ele>291</ele>
        <time>2011-03-20T09:30:50</time>
      </trkpt>
      <trkpt lat="44.41265" lon="1.4739">
        <ele>291</ele>
        <time>2011-03-20T09:30:51</time>
      </trkpt>
      <trkpt lat="44.41267" lon="1.47395">
        <ele>291</ele>
        <time>2011-03-20T09:30:52</time>
      </trkpt>
      <trkpt lat="44.4127" lon="1.47404">
        <ele>291</ele>
        <time>2011-03-20T09:30:54</time>
      </trkpt>
      <trkpt lat="44.41271" lon="1.47409">
        <ele>291</ele>
        <time>2011-03-20T09:30:55</time>
      </trkpt>
      <trkpt lat="44.41273" lon="1.47413">
        <ele>291</ele>
        <time>2011-03-20T09:30:56</time>
      </trkpt>
      <trkpt lat="44.41276" lon="1.47422">
        <ele>291</ele>
        <time>2011-03-20T09:30:58</time>
      </trkpt>
      <trkpt lat="44.41279" lon="1.4743">
        <ele>291</ele>
        <time>2011-03-20T09:31:00</time>
      </trkpt>
      <trkpt lat="44.41282" lon="1.47439">
        <ele>291</ele>
        <time>2011-03-20T09:31:02</time>
      </trkpt>
      <trkpt lat="44.41286" lon="1.47447">
        <ele>291</ele>
        <time>2011-03-20T09:31:04</time>
      </trkpt>
      <trkpt lat="44.41288" lon="1.47451">
        <ele>291</ele>
        <time>2011-03-20T09:31:05</time>
      </trkpt>
      <trkpt lat="44.4129" lon="1.47455">
        <ele>291</ele>
        <time>2011-03-20T09:31:06</time>
      </trkpt>
      <trkpt lat="44.41294" lon="1.47463">
        <ele>290</ele>
        <time>2011-03-20T09:31:08</time>
      </trkpt>
      <trkpt lat="44.41297" lon="1.4747">
        <ele>290</ele>
        <time>2011-03-20T09:31:10</time>
      </trkpt>
      <trkpt lat="44.41299" lon="1.47474">
        <ele>290</ele>
        <time>2011-03-20T09:31:11</time>
      </trkpt>
      <trkpt lat="44.41303" lon="1.47482">
        <ele>290</ele>
        <time>2011-03-20T09:31:13</time>
      </trkpt>
      <trkpt lat="44.41306" lon="1.47489">
        <ele>290</ele>
        <time>2011-03-20T09:31:15</time>
      </trkpt>
      <trkpt lat="44.41308" lon="1.47492">
        <ele>290</ele>
        <time>2011-03-20T09:31:16</time>
      </trkpt>
      <trkpt lat="44.4131" lon="1.47496">
        <ele>290</ele>
        <time>2011-03-20T09:31:17</time>
      </trkpt>
      <trkpt lat="44.41315" lon="1.47505">
        <ele>290</ele>
        <time>2011-03-20T09:31:19</time>
      </trkpt>
      <trkpt lat="44.41318" lon="1.47509">
        <ele>290</ele>
        <time>2011-03-20T09:31:20</time>
      </trkpt>
      <trkpt lat="44.41323" lon="1.47518">
        <ele>290</ele>
        <time>2011-03-20T09:31:22</time>
      </trkpt>
      <trkpt lat="44.41328" lon="1.47527">
        <ele>290</ele>
        <time>2011-03-20T09:31:24</time>
      </trkpt>
      <trkpt lat="44.41334" lon="1.47536">
        <ele>290</ele>
        <time>2011-03-20T09:31:26</time>
      </trkpt>
      <trkpt lat="44.4134" lon="1.47546">
        <ele>284</ele>
        <time>2011-03-20T09:31:28</time>
      </trkpt>
      <trkpt lat="44.41343" lon="1.47551">
        <ele>284</ele>
        <time>2011-03-20T09:31:29</time>
      </trkpt>
      <trkpt lat="44.4135" lon="1.47561">
        <ele>284</ele>
        <time>2011-03-20T09:31:31</time>
      </trkpt>
      <trkpt lat="44.41353" lon="1.47567">
        <ele>284</ele>
        <time>2011-03-20T09:31:32</time>
      </trkpt>
      <trkpt lat="44.41358" lon="1.47577">
        <ele>284</ele>
        <time>2011-03-20T09:31:34</time>
      </trkpt>
      <trkpt lat="44.41362" lon="1.47583">
        <ele>284</ele>
        <time>2011-03-20T09:31:35</time>
      </trkpt>
      <trkpt lat="44.41369" lon="1.47596">
        <ele>284</ele>
        <time>2011-03-20T09:31:37</time>
      </trkpt>
      <trkpt lat="44.41373" lon="1.47602">
        <ele>284</ele>
        <time>2011-03-20T09:31:38</time>
      </trkpt>
      <trkpt lat="44.4138" lon="1.47614">
        <ele>289</ele>
        <time>2011-03-20T09:31:40</time>
      </trkpt>
      <trkpt lat="44.41383" lon="1.4762">
        <ele>289</ele>
        <time>2011-03-20T09:31:41</time>
      </trkpt>
      <trkpt lat="44.4139" lon="1.47631">
        <ele>285</ele>
        <time>2011-03-20T09:31:43</time>
      </trkpt>
      <trkpt lat="44.41397" lon="1.47642">
        <ele>285</ele>
        <time>2011-03-20T09:31:45</time>
      </trkpt>
      <trkpt lat="44.41404" lon="1.47653">
        <ele>285</ele>
        <time>2011-03-20T09:31:47</time>
      </trkpt>
      <trkpt lat="44.41408" lon="1.47659">
        <ele>285</ele>
        <time>2011-03-20T09:31:48</time>
      </trkpt>
      <trkpt lat="44.41411" lon="1.47664">
        <ele>285</ele>
        <time>2011-03-20T09:31:49</time>
      </trkpt>
      <trkpt lat="44.41418" lon="1.47675">
        <ele>285</ele>
        <time>2011-03-20T09:31:51</time>
      </trkpt>
      <trkpt lat="44.41425" lon="1.47687">
        <ele>285</ele>
        <time>2011-03-20T09:31:53</time>
      </trkpt>
      <trkpt lat="44.41431" lon="1.47699">
        <ele>285</ele>
        <time>2011-03-20T09:31:55</time>
      </trkpt>
      <trkpt lat="44.41434" lon="1.47705">
        <ele>285</ele>
        <time>2011-03-20T09:31:56</time>
      </trkpt>
      <trkpt lat="44.41441" lon="1.47719">
        <ele>280</ele>
        <time>2011-03-20T09:31:58</time>
      </trkpt>
      <trkpt lat="44.41448" lon="1.47734">
        <ele>280</ele>
        <time>2011-03-20T09:32:00</time>
      </trkpt>
      <trkpt lat="44.41455" lon="1.4775">
        <ele>280</ele>
        <time>2011-03-20T09:32:02</time>
      </trkpt>
      <trkpt lat="44.41462" lon="1.47766">
        <ele>279</ele>
        <time>2011-03-20T09:32:04</time>
      </trkpt>
      <trkpt lat="44.41466" lon="1.47775">
        <ele>279</ele>
        <time>2011-03-20T09:32:05</time>
      </trkpt>
      <trkpt lat="44.4147" lon="1.47784">
        <ele>279</ele>
        <time>2011-03-20T09:32:06</time>
      </trkpt>
      <trkpt lat="44.41477" lon="1.47802">
        <ele>278</ele>
        <time>2011-03-20T09:32:08</time>
      </trkpt>
      <trkpt lat="44.41481" lon="1.47811">
        <ele>278</ele>
        <time>2011-03-20T09:32:09</time>
      </trkpt>
      <trkpt lat="44.41489" lon="1.4783">
        <ele>278</ele>
        <time>2011-03-20T09:32:11</time>
      </trkpt>
      <trkpt lat="44.41497" lon="1.47848">
        <ele>278</ele>
        <time>2011-03-20T09:32:13</time>
      </trkpt>
      <trkpt lat="44.41504" lon="1.47865">
        <ele>278</ele>
        <time>2011-03-20T09:32:15</time>
      </trkpt>
      <trkpt lat="44.41507" lon="1.47873">
        <ele>278</ele>
        <time>2011-03-20T09:32:16</time>
      </trkpt>
      <trkpt lat="44.4151" lon="1.47881">
        <ele>277</ele>
        <time>2011-03-20T09:32:17</time>
      </trkpt>
      <trkpt lat="44.41514" lon="1.47893">
        <ele>277</ele>
        <time>2011-03-20T09:32:19</time>
      </trkpt>
      <trkpt lat="44.41521" lon="1.47901">
        <ele>277</ele>
        <time>2011-03-20T09:32:21</time>
      </trkpt>
      <trkpt lat="44.41528" lon="1.47906">
        <ele>277</ele>
        <time>2011-03-20T09:32:23</time>
      </trkpt>
      <trkpt lat="44.41536" lon="1.47913">
        <ele>277</ele>
        <time>2011-03-20T09:32:25</time>
      </trkpt>
      <trkpt lat="44.4154" lon="1.47917">
        <ele>277</ele>
        <time>2011-03-20T09:32:26</time>
      </trkpt>
      <trkpt lat="44.41548" lon="1.47924">
        <ele>274</ele>
        <time>2011-03-20T09:32:28</time>
      </trkpt>
      <trkpt lat="44.41556" lon="1.47932">
        <ele>274</ele>
        <time>2011-03-20T09:32:30</time>
      </trkpt>
      <trkpt lat="44.41564" lon="1.4794">
        <ele>274</ele>
        <time>2011-03-20T09:32:32</time>
      </trkpt>
      <trkpt lat="44.41568" lon="1.47945">
        <ele>274</ele>
        <time>2011-03-20T09:32:33</time>
      </trkpt>
      <trkpt lat="44.41576" lon="1.47954">
        <ele>274</ele>
        <time>2011-03-20T09:32:35</time>
      </trkpt>
      <trkpt lat="44.41581" lon="1.47959">
        <ele>277</ele>
        <time>2011-03-20T09:32:36</time>
      </trkpt>
      <trkpt lat="44.4159" lon="1.47969">
        <ele>277</ele>
        <time>2011-03-20T09:32:38</time>
      </trkpt>
      <trkpt lat="44.41594" lon="1.47973">
        <ele>277</ele>
        <time>2011-03-20T09:32:39</time>
      </trkpt>
      <trkpt lat="44.41599" lon="1.47977">
        <ele>277</ele>
        <time>2011-03-20T09:32:40</time>
      </trkpt>
      <trkpt lat="44.41604" lon="1.47981">
        <ele>277</ele>
        <time>2011-03-20T09:32:41</time>
      </trkpt>
      <trkpt lat="44.41614" lon="1.47987">
        <ele>277</ele>
        <time>2011-03-20T09:32:43</time>
      </trkpt>
      <trkpt lat="44.41626" lon="1.47992">
        <ele>277</ele>
        <time>2011-03-20T09:32:45</time>
      </trkpt>
      <trkpt lat="44.41631" lon="1.47995">
        <ele>277</ele>
        <time>2011-03-20T09:32:46</time>
      </trkpt>
      <trkpt lat="44.41637" lon="1.47997">
        <ele>277</ele>
        <time>2011-03-20T09:32:47</time>
      </trkpt>
      <trkpt lat="44.41648" lon="1.48001">
        <ele>277</ele>
        <time>2011-03-20T09:32:49</time>
      </trkpt>
      <trkpt lat="44.41654" lon="1.48003">
        <ele>277</ele>
        <time>2011-03-20T09:32:50</time>
      </trkpt>
      <trkpt lat="44.41659" lon="1.48005">
        <ele>277</ele>
        <time>2011-03-20T09:32:51</time>
      </trkpt>
      <trkpt lat="44.41669" lon="1.48009">
        <ele>277</ele>
        <time>2011-03-20T09:32:53</time>
      </trkpt>
      <trkpt lat="44.41675" lon="1.4801">
        <ele>277</ele>
        <time>2011-03-20T09:32:54</time>
      </trkpt>
      <trkpt lat="44.41685" lon="1.48014">
        <ele>277</ele>
        <time>2011-03-20T09:32:56</time>
      </trkpt>
      <trkpt lat="44.4169" lon="1.48016">
        <ele>277</ele>
        <time>2011-03-20T09:32:57</time>
      </trkpt>
      <trkpt lat="44.417" lon="1.48021">
        <ele>277</ele>
        <time>2011-03-20T09:32:59</time>
      </trkpt>
      <trkpt lat="44.41705" lon="1.48023">
        <ele>277</ele>
        <time>2011-03-20T09:33:00</time>
      </trkpt>
      <trkpt lat="44.41716" lon="1.48028">
        <ele>278</ele>
        <time>2011-03-20T09:33:02</time>
      </trkpt>
      <trkpt lat="44.41727" lon="1.48034">
        <ele>278</ele>
        <time>2011-03-20T09:33:04</time>
      </trkpt>
      <trkpt lat="44.41732" lon="1.48036">
        <ele>278</ele>
        <time>2011-03-20T09:33:05</time>
      </trkpt>
      <trkpt lat="44.41742" lon="1.48041">
        <ele>278</ele>
        <time>2011-03-20T09:33:07</time>
      </trkpt>
      <trkpt lat="44.41751" lon="1.48044">
        <ele>282</ele>
        <time>2011-03-20T09:33:09</time>
      </trkpt>
      <trkpt lat="44.41756" lon="1.48045">
        <ele>282</ele>
        <time>2011-03-20T09:33:10</time>
      </trkpt>
      <trkpt lat="44.4176" lon="1.48047">
        <ele>282</ele>
        <time>2011-03-20T09:33:11</time>
      </trkpt>
      <trkpt lat="44.4177" lon="1.48049">
        <ele>282</ele>
        <time>2011-03-20T09:33:13</time>
      </trkpt>
      <trkpt lat="44.41774" lon="1.48051">
        <ele>282</ele>
        <time>2011-03-20T09:33:14</time>
      </trkpt>
      <trkpt lat="44.41783" lon="1.48054">
        <ele>282</ele>
        <time>2011-03-20T09:33:16</time>
      </trkpt>
      <trkpt lat="44.41787" lon="1.48055">
        <ele>282</ele>
        <time>2011-03-20T09:33:17</time>
      </trkpt>
      <trkpt lat="44.41791" lon="1.48055">
        <ele>282</ele>
        <time>2011-03-20T09:33:18</time>
      </trkpt>
      <trkpt lat="44.41799" lon="1.48056">
        <ele>285</ele>
        <time>2011-03-20T09:33:20</time>
      </trkpt>
      <trkpt lat="44.41803" lon="1.48056">
        <ele>285</ele>
        <time>2011-03-20T09:33:21</time>
      </trkpt>
      <trkpt lat="44.41811" lon="1.48056">
        <ele>285</ele>
        <time>2011-03-20T09:33:23</time>
      </trkpt>
      <trkpt lat="44.41819" lon="1.48055">
        <ele>285</ele>
        <time>2011-03-20T09:33:25</time>
      </trkpt>
      <trkpt lat="44.41823" lon="1.48055">
        <ele>285</ele>
        <time>2011-03-20T09:33:26</time>
      </trkpt>
      <trkpt lat="44.41831" lon="1.48055">
        <ele>285</ele>
        <time>2011-03-20T09:33:28</time>
      </trkpt>
      <trkpt lat="44.41838" lon="1.48055">
        <ele>285</ele>
        <time>2011-03-20T09:33:30</time>
      </trkpt>
      <trkpt lat="44.41842" lon="1.48054">
        <ele>285</ele>
        <time>2011-03-20T09:33:31</time>
      </trkpt>
      <trkpt lat="44.4185" lon="1.48054">
        <ele>285</ele>
        <time>2011-03-20T09:33:33</time>
      </trkpt>
      <trkpt lat="44.41858" lon="1.48055">
        <ele>285</ele>
        <time>2011-03-20T09:33:35</time>
      </trkpt>
      <trkpt lat="44.41861" lon="1.48055">
        <ele>285</ele>
        <time>2011-03-20T09:33:36</time>
      </trkpt>
      <trkpt lat="44.41868" lon="1.48055">
        <ele>285</ele>
        <time>2011-03-20T09:33:38</time>
      </trkpt>
      <trkpt lat="44.41875" lon="1.48056">
        <ele>286</ele>
        <time>2011-03-20T09:33:40</time>
      </trkpt>
      <trkpt lat="44.41879" lon="1.48056">
        <ele>286</ele>
        <time>2011-03-20T09:33:41</time>
      </trkpt>
      <trkpt lat="44.41886" lon="1.48055">
        <ele>286</ele>
        <time>2011-03-20T09:33:43</time>
      </trkpt>
      <trkpt lat="44.41893" lon="1.48055">
        <ele>286</ele>
        <time>2011-03-20T09:33:45</time>
      </trkpt>
      <trkpt lat="44.41896" lon="1.48056">
        <ele>286</ele>
        <time>2011-03-20T09:33:46</time>
      </trkpt>
      <trkpt lat="44.41904" lon="1.48056">
        <ele>286</ele>
        <time>2011-03-20T09:33:48</time>
      </trkpt>
      <trkpt lat="44.41908" lon="1.48056">
        <ele>286</ele>
        <time>2011-03-20T09:33:49</time>
      </trkpt>
      <trkpt lat="44.41916" lon="1.48055">
        <ele>286</ele>
        <time>2011-03-20T09:33:51</time>
      </trkpt>
      <trkpt lat="44.4192" lon="1.48055">
        <ele>286</ele>
        <time>2011-03-20T09:33:52</time>
      </trkpt>
      <trkpt lat="44.41924" lon="1.48055">
        <ele>286</ele>
        <time>2011-03-20T09:33:53</time>
      </trkpt>
      <trkpt lat="44.41931" lon="1.48054">
        <ele>286</ele>
        <time>2011-03-20T09:33:55</time>
      </trkpt>
      <trkpt lat="44.41935" lon="1.48053">
        <ele>286</ele>
        <time>2011-03-20T09:33:56</time>
      </trkpt>
      <trkpt lat="44.41943" lon="1.48053">
        <ele>286</ele>
        <time>2011-03-20T09:33:58</time>
      </trkpt>
      <trkpt lat="44.41947" lon="1.48053">
        <ele>286</ele>
        <time>2011-03-20T09:33:59</time>
      </trkpt>
      <trkpt lat="44.41955" lon="1.48053">
        <ele>286</ele>
        <time>2011-03-20T09:34:01</time>
      </trkpt>
      <trkpt lat="44.41964" lon="1.48053">
        <ele>285</ele>
        <time>2011-03-20T09:34:03</time>
      </trkpt>
      <trkpt lat="44.41968" lon="1.48053">
        <ele>285</ele>
        <time>2011-03-20T09:34:04</time>
      </trkpt>
      <trkpt lat="44.41978" lon="1.48052">
        <ele>285</ele>
        <time>2011-03-20T09:34:06</time>
      </trkpt>
      <trkpt lat="44.41988" lon="1.48052">
        <ele>285</ele>
        <time>2011-03-20T09:34:08</time>
      </trkpt>
      <trkpt lat="44.41993" lon="1.48052">
        <ele>285</ele>
        <time>2011-03-20T09:34:09</time>
      </trkpt>
      <trkpt lat="44.41998" lon="1.48052">
        <ele>285</ele>
        <time>2011-03-20T09:34:10</time>
      </trkpt>
      <trkpt lat="44.42008" lon="1.48053">
        <ele>285</ele>
        <time>2011-03-20T09:34:12</time>
      </trkpt>
      <trkpt lat="44.42013" lon="1.48053">
        <ele>285</ele>
        <time>2011-03-20T09:34:13</time>
      </trkpt>
      <trkpt lat="44.42023" lon="1.48054">
        <ele>285</ele>
        <time>2011-03-20T09:34:15</time>
      </trkpt>
      <trkpt lat="44.42028" lon="1.48055">
        <ele>285</ele>
        <time>2011-03-20T09:34:16</time>
      </trkpt>
      <trkpt lat="44.42033" lon="1.48055">
        <ele>285</ele>
        <time>2011-03-20T09:34:17</time>
      </trkpt>
      <trkpt lat="44.42043" lon="1.48056">
        <ele>283</ele>
        <time>2011-03-20T09:34:19</time>
      </trkpt>
      <trkpt lat="44.42048" lon="1.48056">
        <ele>283</ele>
        <time>2011-03-20T09:34:20</time>
      </trkpt>
      <trkpt lat="44.42058" lon="1.48056">
        <ele>283</ele>
        <time>2011-03-20T09:34:22</time>
      </trkpt>
      <trkpt lat="44.42068" lon="1.48057">
        <ele>283</ele>
        <time>2011-03-20T09:34:24</time>
      </trkpt>
      <trkpt lat="44.42073" lon="1.48057">
        <ele>283</ele>
        <time>2011-03-20T09:34:25</time>
      </trkpt>
      <trkpt lat="44.42084" lon="1.48058">
        <ele>283</ele>
        <time>2011-03-20T09:34:27</time>
      </trkpt>
      <trkpt lat="44.42094" lon="1.4806">
        <ele>283</ele>
        <time>2011-03-20T09:34:29</time>
      </trkpt>
      <trkpt lat="44.42099" lon="1.48061">
        <ele>283</ele>
        <time>2011-03-20T09:34:30</time>
      </trkpt>
      <trkpt lat="44.42109" lon="1.48063">
        <ele>283</ele>
        <time>2011-03-20T09:34:32</time>
      </trkpt>
      <trkpt lat="44.42119" lon="1.48065">
        <ele>283</ele>
        <time>2011-03-20T09:34:34</time>
      </trkpt>
      <trkpt lat="44.42129" lon="1.48066">
        <ele>285</ele>
        <time>2011-03-20T09:34:36</time>
      </trkpt>
      <trkpt lat="44.42134" lon="1.48067">
        <ele>285</ele>
        <time>2011-03-20T09:34:37</time>
      </trkpt>
      <trkpt lat="44.42139" lon="1.48067">
        <ele>285</ele>
        <time>2011-03-20T09:34:38</time>
      </trkpt>
      <trkpt lat="44.42148" lon="1.48069">
        <ele>285</ele>
        <time>2011-03-20T09:34:40</time>
      </trkpt>
      <trkpt lat="44.42153" lon="1.4807">
        <ele>285</ele>
        <time>2011-03-20T09:34:41</time>
      </trkpt>
      <trkpt lat="44.42163" lon="1.48071">
        <ele>285</ele>
        <time>2011-03-20T09:34:43</time>
      </trkpt>
      <trkpt lat="44.42172" lon="1.48071">
        <ele>285</ele>
        <time>2011-03-20T09:34:45</time>
      </trkpt>
      <trkpt lat="44.42177" lon="1.48072">
        <ele>285</ele>
        <time>2011-03-20T09:34:46</time>
      </trkpt>
      <trkpt lat="44.42187" lon="1.48073">
        <ele>285</ele>
        <time>2011-03-20T09:34:48</time>
      </trkpt>
      <trkpt lat="44.42192" lon="1.48073">
        <ele>285</ele>
        <time>2011-03-20T09:34:49</time>
      </trkpt>
      <trkpt lat="44.42202" lon="1.48073">
        <ele>285</ele>
        <time>2011-03-20T09:34:51</time>
      </trkpt>
      <trkpt lat="44.42206" lon="1.48073">
        <ele>285</ele>
        <time>2011-03-20T09:34:52</time>
      </trkpt>
      <trkpt lat="44.42211" lon="1.48073">
        <ele>288</ele>
        <time>2011-03-20T09:34:53</time>
      </trkpt>
      <trkpt lat="44.42219" lon="1.48072">
        <ele>288</ele>
        <time>2011-03-20T09:34:55</time>
      </trkpt>
      <trkpt lat="44.42228" lon="1.48071">
        <ele>288</ele>
        <time>2011-03-20T09:34:57</time>
      </trkpt>
      <trkpt lat="44.42233" lon="1.4807">
        <ele>288</ele>
        <time>2011-03-20T09:34:58</time>
      </trkpt>
      <trkpt lat="44.42243" lon="1.48068">
        <ele>288</ele>
        <time>2011-03-20T09:35:00</time>
      </trkpt>
      <trkpt lat="44.42248" lon="1.48068">
        <ele>288</ele>
        <time>2011-03-20T09:35:01</time>
      </trkpt>
      <trkpt lat="44.42258" lon="1.48066">
        <ele>288</ele>
        <time>2011-03-20T09:35:03</time>
      </trkpt>
      <trkpt lat="44.42263" lon="1.48065">
        <ele>288</ele>
        <time>2011-03-20T09:35:04</time>
      </trkpt>
      <trkpt lat="44.42272" lon="1.48063">
        <ele>288</ele>
        <time>2011-03-20T09:35:06</time>
      </trkpt>
      <trkpt lat="44.42277" lon="1.48063">
        <ele>288</ele>
        <time>2011-03-20T09:35:07</time>
      </trkpt>
      <trkpt lat="44.42288" lon="1.48062">
        <ele>288</ele>
        <time>2011-03-20T09:35:09</time>
      </trkpt>
      <trkpt lat="44.42298" lon="1.48061">
        <ele>287</ele>
        <time>2011-03-20T09:35:11</time>
      </trkpt>
      <trkpt lat="44.42303" lon="1.4806">
        <ele>287</ele>
        <time>2011-03-20T09:35:12</time>
      </trkpt>
      <trkpt lat="44.42313" lon="1.48059">
        <ele>287</ele>
        <time>2011-03-20T09:35:14</time>
      </trkpt>
      <trkpt lat="44.42317" lon="1.48058">
        <ele>287</ele>
        <time>2011-03-20T09:35:15</time>
      </trkpt>
      <trkpt lat="44.42328" lon="1.48057">
        <ele>287</ele>
        <time>2011-03-20T09:35:17</time>
      </trkpt>
      <trkpt lat="44.42333" lon="1.48057">
        <ele>287</ele>
        <time>2011-03-20T09:35:18</time>
      </trkpt>
      <trkpt lat="44.42343" lon="1.48058">
        <ele>287</ele>
        <time>2011-03-20T09:35:20</time>
      </trkpt>
      <trkpt lat="44.42354" lon="1.4806">
        <ele>287</ele>
        <time>2011-03-20T09:35:22</time>
      </trkpt>
      <trkpt lat="44.42365" lon="1.48063">
        <ele>287</ele>
        <time>2011-03-20T09:35:24</time>
      </trkpt>
      <trkpt lat="44.42376" lon="1.48067">
        <ele>287</ele>
        <time>2011-03-20T09:35:26</time>
      </trkpt>
      <trkpt lat="44.42386" lon="1.48071">
        <ele>287</ele>
        <time>2011-03-20T09:35:28</time>
      </trkpt>
      <trkpt lat="44.42396" lon="1.48073">
        <ele>287</ele>
        <time>2011-03-20T09:35:30</time>
      </trkpt>
      <trkpt lat="44.42405" lon="1.48075">
        <ele>287</ele>
        <time>2011-03-20T09:35:32</time>
      </trkpt>
      <trkpt lat="44.42413" lon="1.48076">
        <ele>287</ele>
        <time>2011-03-20T09:35:34</time>
      </trkpt>
      <trkpt lat="44.42422" lon="1.48076">
        <ele>287</ele>
        <time>2011-03-20T09:35:36</time>
      </trkpt>
      <trkpt lat="44.42431" lon="1.48073">
        <ele>287</ele>
        <time>2011-03-20T09:35:38</time>
      </trkpt>
      <trkpt lat="44.4244" lon="1.48071">
        <ele>287</ele>
        <time>2011-03-20T09:35:40</time>
      </trkpt>
      <trkpt lat="44.42449" lon="1.48066">
        <ele>287</ele>
        <time>2011-03-20T09:35:42</time>
      </trkpt>
      <trkpt lat="44.42458" lon="1.48061">
        <ele>287</ele>
        <time>2011-03-20T09:35:44</time>
      </trkpt>
      <trkpt lat="44.42467" lon="1.48056">
        <ele>286</ele>
        <time>2011-03-20T09:35:46</time>
      </trkpt>
      <trkpt lat="44.42477" lon="1.4805">
        <ele>286</ele>
        <time>2011-03-20T09:35:48</time>
      </trkpt>
      <trkpt lat="44.42486" lon="1.48043">
        <ele>286</ele>
        <time>2011-03-20T09:35:50</time>
      </trkpt>
      <trkpt lat="44.42491" lon="1.48038">
        <ele>281</ele>
        <time>2011-03-20T09:35:51</time>
      </trkpt>
      <trkpt lat="44.425" lon="1.48029">
        <ele>281</ele>
        <time>2011-03-20T09:35:53</time>
      </trkpt>
      <trkpt lat="44.42504" lon="1.48024">
        <ele>281</ele>
        <time>2011-03-20T09:35:54</time>
      </trkpt>
      <trkpt lat="44.42512" lon="1.48016">
        <ele>281</ele>
        <time>2011-03-20T09:35:56</time>
      </trkpt>
      <trkpt lat="44.42519" lon="1.48007">
        <ele>281</ele>
        <time>2011-03-20T09:35:58</time>
      </trkpt>
      <trkpt lat="44.42523" lon="1.47994">
        <ele>281</ele>
        <time>2011-03-20T09:36:00</time>
      </trkpt>
      <trkpt lat="44.42525" lon="1.47988">
        <ele>281</ele>
        <time>2011-03-20T09:36:01</time>
      </trkpt>
      <trkpt lat="44.42529" lon="1.47974">
        <ele>281</ele>
        <time>2011-03-20T09:36:03</time>
      </trkpt>
      <trkpt lat="44.42531" lon="1.47966">
        <ele>281</ele>
        <time>2011-03-20T09:36:04</time>
      </trkpt>
      <trkpt lat="44.42534" lon="1.47951">
        <ele>274</ele>
        <time>2011-03-20T09:36:06</time>
      </trkpt>
      <trkpt lat="44.42538" lon="1.47936">
        <ele>274</ele>
        <time>2011-03-20T09:36:08</time>
      </trkpt>
      <trkpt lat="44.42539" lon="1.47929">
        <ele>274</ele>
        <time>2011-03-20T09:36:09</time>
      </trkpt>
      <trkpt lat="44.42543" lon="1.47915">
        <ele>274</ele>
        <time>2011-03-20T09:36:11</time>
      </trkpt>
      <trkpt lat="44.42544" lon="1.47909">
        <ele>274</ele>
        <time>2011-03-20T09:36:12</time>
      </trkpt>
      <trkpt lat="44.42548" lon="1.47896">
        <ele>274</ele>
        <time>2011-03-20T09:36:14</time>
      </trkpt>
      <trkpt lat="44.42554" lon="1.47884">
        <ele>274</ele>
        <time>2011-03-20T09:36:16</time>
      </trkpt>
      <trkpt lat="44.42557" lon="1.47878">
        <ele>274</ele>
        <time>2011-03-20T09:36:17</time>
      </trkpt>
      <trkpt lat="44.42564" lon="1.47866">
        <ele>277</ele>
        <time>2011-03-20T09:36:19</time>
      </trkpt>
      <trkpt lat="44.42567" lon="1.4786">
        <ele>277</ele>
        <time>2011-03-20T09:36:20</time>
      </trkpt>
      <trkpt lat="44.42571" lon="1.47854">
        <ele>277</ele>
        <time>2011-03-20T09:36:21</time>
      </trkpt>
      <trkpt lat="44.42577" lon="1.47841">
        <ele>277</ele>
        <time>2011-03-20T09:36:23</time>
      </trkpt>
      <trkpt lat="44.42581" lon="1.47835">
        <ele>277</ele>
        <time>2011-03-20T09:36:24</time>
      </trkpt>
      <trkpt lat="44.42586" lon="1.47823">
        <ele>277</ele>
        <time>2011-03-20T09:36:26</time>
      </trkpt>
      <trkpt lat="44.42589" lon="1.47816">
        <ele>277</ele>
        <time>2011-03-20T09:36:27</time>
      </trkpt>
      <trkpt lat="44.42592" lon="1.47802">
        <ele>277</ele>
        <time>2011-03-20T09:36:29</time>
      </trkpt>
      <trkpt lat="44.42596" lon="1.47788">
        <ele>275</ele>
        <time>2011-03-20T09:36:31</time>
      </trkpt>
      <trkpt lat="44.42599" lon="1.47773">
        <ele>275</ele>
        <time>2011-03-20T09:36:33</time>
      </trkpt>
      <trkpt lat="44.42603" lon="1.47757">
        <ele>275</ele>
        <time>2011-03-20T09:36:35</time>
      </trkpt>
      <trkpt lat="44.42605" lon="1.47749">
        <ele>275</ele>
        <time>2011-03-20T09:36:36</time>
      </trkpt>
      <trkpt lat="44.42609" lon="1.47735">
        <ele>275</ele>
        <time>2011-03-20T09:36:38</time>
      </trkpt>
      <trkpt lat="44.42611" lon="1.47727">
        <ele>275</ele>
        <time>2011-03-20T09:36:39</time>
      </trkpt>
      <trkpt lat="44.42615" lon="1.47712">
        <ele>275</ele>
        <time>2011-03-20T09:36:41</time>
      </trkpt>
      <trkpt lat="44.42618" lon="1.47705">
        <ele>269</ele>
        <time>2011-03-20T09:36:42</time>
      </trkpt>
      <trkpt lat="44.42623" lon="1.47691">
        <ele>269</ele>
        <time>2011-03-20T09:36:44</time>
      </trkpt>
      <trkpt lat="44.42628" lon="1.47678">
        <ele>275</ele>
        <time>2011-03-20T09:36:46</time>
      </trkpt>
      <trkpt lat="44.42633" lon="1.47665">
        <ele>275</ele>
        <time>2011-03-20T09:36:48</time>
      </trkpt>
      <trkpt lat="44.42638" lon="1.47652">
        <ele>275</ele>
        <time>2011-03-20T09:36:50</time>
      </trkpt>
      <trkpt lat="44.4264" lon="1.47646">
        <ele>275</ele>
        <time>2011-03-20T09:36:51</time>
      </trkpt>
      <trkpt lat="44.42646" lon="1.47633">
        <ele>275</ele>
        <time>2011-03-20T09:36:53</time>
      </trkpt>
      <trkpt lat="44.42649" lon="1.47626">
        <ele>275</ele>
        <time>2011-03-20T09:36:54</time>
      </trkpt>
      <trkpt lat="44.42656" lon="1.47615">
        <ele>277</ele>
        <time>2011-03-20T09:36:56</time>
      </trkpt>
      <trkpt lat="44.42665" lon="1.47606">
        <ele>277</ele>
        <time>2011-03-20T09:36:58</time>
      </trkpt>
      <trkpt lat="44.42669" lon="1.47602">
        <ele>277</ele>
        <time>2011-03-20T09:36:59</time>
      </trkpt>
      <trkpt lat="44.42679" lon="1.47594">
        <ele>277</ele>
        <time>2011-03-20T09:37:01</time>
      </trkpt>
      <trkpt lat="44.42689" lon="1.47588">
        <ele>277</ele>
        <time>2011-03-20T09:37:03</time>
      </trkpt>
      <trkpt lat="44.42699" lon="1.47581">
        <ele>277</ele>
        <time>2011-03-20T09:37:05</time>
      </trkpt>
      <trkpt lat="44.42709" lon="1.47575">
        <ele>277</ele>
        <time>2011-03-20T09:37:07</time>
      </trkpt>
      <trkpt lat="44.42719" lon="1.4757">
        <ele>277</ele>
        <time>2011-03-20T09:37:09</time>
      </trkpt>
      <trkpt lat="44.42729" lon="1.47566">
        <ele>277</ele>
        <time>2011-03-20T09:37:11</time>
      </trkpt>
      <trkpt lat="44.42739" lon="1.47563">
        <ele>277</ele>
        <time>2011-03-20T09:37:13</time>
      </trkpt>
      <trkpt lat="44.42749" lon="1.47561">
        <ele>277</ele>
        <time>2011-03-20T09:37:15</time>
      </trkpt>
      <trkpt lat="44.42755" lon="1.4756">
        <ele>277</ele>
        <time>2011-03-20T09:37:16</time>
      </trkpt>
      <trkpt lat="44.42765" lon="1.47558">
        <ele>277</ele>
        <time>2011-03-20T09:37:18</time>
      </trkpt>
      <trkpt lat="44.4277" lon="1.47558">
        <ele>277</ele>
        <time>2011-03-20T09:37:19</time>
      </trkpt>
      <trkpt lat="44.42775" lon="1.47557">
        <ele>277</ele>
        <time>2011-03-20T09:37:20</time>
      </trkpt>
      <trkpt lat="44.42785" lon="1.47555">
        <ele>277</ele>
        <time>2011-03-20T09:37:22</time>
      </trkpt>
      <trkpt lat="44.4279" lon="1.47555">
        <ele>277</ele>
        <time>2011-03-20T09:37:23</time>
      </trkpt>
      <trkpt lat="44.42801" lon="1.47553">
        <ele>276</ele>
        <time>2011-03-20T09:37:25</time>
      </trkpt>
      <trkpt lat="44.42811" lon="1.47551">
        <ele>276</ele>
        <time>2011-03-20T09:37:27</time>
      </trkpt>
      <trkpt lat="44.42817" lon="1.4755">
        <ele>276</ele>
        <time>2011-03-20T09:37:28</time>
      </trkpt>
      <trkpt lat="44.42827" lon="1.47548">
        <ele>276</ele>
        <time>2011-03-20T09:37:30</time>
      </trkpt>
      <trkpt lat="44.42832" lon="1.47547">
        <ele>276</ele>
        <time>2011-03-20T09:37:31</time>
      </trkpt>
      <trkpt lat="44.42842" lon="1.47545">
        <ele>276</ele>
        <time>2011-03-20T09:37:33</time>
      </trkpt>
      <trkpt lat="44.42852" lon="1.47544">
        <ele>276</ele>
        <time>2011-03-20T09:37:35</time>
      </trkpt>
      <trkpt lat="44.42863" lon="1.47543">
        <ele>276</ele>
        <time>2011-03-20T09:37:37</time>
      </trkpt>
      <trkpt lat="44.42873" lon="1.47544">
        <ele>276</ele>
        <time>2011-03-20T09:37:39</time>
      </trkpt>
      <trkpt lat="44.42884" lon="1.47546">
        <ele>277</ele>
        <time>2011-03-20T09:37:41</time>
      </trkpt>
      <trkpt lat="44.42889" lon="1.47547">
        <ele>277</ele>
        <time>2011-03-20T09:37:42</time>
      </trkpt>
      <trkpt lat="44.42899" lon="1.47552">
        <ele>277</ele>
        <time>2011-03-20T09:37:44</time>
      </trkpt>
      <trkpt lat="44.42909" lon="1.47557">
        <ele>277</ele>
        <time>2011-03-20T09:37:46</time>
      </trkpt>
      <trkpt lat="44.42915" lon="1.4756">
        <ele>277</ele>
        <time>2011-03-20T09:37:47</time>
      </trkpt>
      <trkpt lat="44.4292" lon="1.47563">
        <ele>277</ele>
        <time>2011-03-20T09:37:48</time>
      </trkpt>
      <trkpt lat="44.4293" lon="1.47569">
        <ele>277</ele>
        <time>2011-03-20T09:37:50</time>
      </trkpt>
      <trkpt lat="44.42935" lon="1.47573">
        <ele>277</ele>
        <time>2011-03-20T09:37:51</time>
      </trkpt>
      <trkpt lat="44.42945" lon="1.4758">
        <ele>277</ele>
        <time>2011-03-20T09:37:53</time>
      </trkpt>
      <trkpt lat="44.42954" lon="1.47587">
        <ele>277</ele>
        <time>2011-03-20T09:37:55</time>
      </trkpt>
      <trkpt lat="44.42959" lon="1.47591">
        <ele>277</ele>
        <time>2011-03-20T09:37:56</time>
      </trkpt>
      <trkpt lat="44.42969" lon="1.47598">
        <ele>277</ele>
        <time>2011-03-20T09:37:58</time>
      </trkpt>
      <trkpt lat="44.42974" lon="1.47601">
        <ele>277</ele>
        <time>2011-03-20T09:37:59</time>
      </trkpt>
      <trkpt lat="44.42985" lon="1.47603">
        <ele>277</ele>
        <time>2011-03-20T09:38:01</time>
      </trkpt>
      <trkpt lat="44.42995" lon="1.47603">
        <ele>277</ele>
        <time>2011-03-20T09:38:03</time>
      </trkpt>
      <trkpt lat="44.43005" lon="1.47602">
        <ele>277</ele>
        <time>2011-03-20T09:38:05</time>
      </trkpt>
      <trkpt lat="44.43016" lon="1.476">
        <ele>277</ele>
        <time>2011-03-20T09:38:07</time>
      </trkpt>
      <trkpt lat="44.43025" lon="1.47596">
        <ele>277</ele>
        <time>2011-03-20T09:38:09</time>
      </trkpt>
      <trkpt lat="44.4303" lon="1.47594">
        <ele>277</ele>
        <time>2011-03-20T09:38:10</time>
      </trkpt>
      <trkpt lat="44.43041" lon="1.47589">
        <ele>277</ele>
        <time>2011-03-20T09:38:12</time>
      </trkpt>
      <trkpt lat="44.43052" lon="1.47585">
        <ele>276</ele>
        <time>2011-03-20T09:38:14</time>
      </trkpt>
      <trkpt lat="44.43063" lon="1.47581">
        <ele>276</ele>
        <time>2011-03-20T09:38:16</time>
      </trkpt>
      <trkpt lat="44.43074" lon="1.47577">
        <ele>276</ele>
        <time>2011-03-20T09:38:18</time>
      </trkpt>
      <trkpt lat="44.4308" lon="1.47575">
        <ele>276</ele>
        <time>2011-03-20T09:38:19</time>
      </trkpt>
      <trkpt lat="44.43086" lon="1.47572">
        <ele>276</ele>
        <time>2011-03-20T09:38:20</time>
      </trkpt>
      <trkpt lat="44.43091" lon="1.47568">
        <ele>276</ele>
        <time>2011-03-20T09:38:21</time>
      </trkpt>
      <trkpt lat="44.43097" lon="1.47564">
        <ele>276</ele>
        <time>2011-03-20T09:38:22</time>
      </trkpt>
      <trkpt lat="44.43107" lon="1.47557">
        <ele>276</ele>
        <time>2011-03-20T09:38:24</time>
      </trkpt>
      <trkpt lat="44.43112" lon="1.47553">
        <ele>276</ele>
        <time>2011-03-20T09:38:25</time>
      </trkpt>
      <trkpt lat="44.43123" lon="1.47545">
        <ele>276</ele>
        <time>2011-03-20T09:38:27</time>
      </trkpt>
      <trkpt lat="44.43128" lon="1.47541">
        <ele>270</ele>
        <time>2011-03-20T09:38:28</time>
      </trkpt>
      <trkpt lat="44.43138" lon="1.47534">
        <ele>270</ele>
        <time>2011-03-20T09:38:30</time>
      </trkpt>
      <trkpt lat="44.43143" lon="1.4753">
        <ele>270</ele>
        <time>2011-03-20T09:38:31</time>
      </trkpt>
      <trkpt lat="44.43153" lon="1.47522">
        <ele>270</ele>
        <time>2011-03-20T09:38:33</time>
      </trkpt>
      <trkpt lat="44.43158" lon="1.47518">
        <ele>270</ele>
        <time>2011-03-20T09:38:34</time>
      </trkpt>
      <trkpt lat="44.43163" lon="1.47514">
        <ele>270</ele>
        <time>2011-03-20T09:38:35</time>
      </trkpt>
      <trkpt lat="44.43173" lon="1.47505">
        <ele>270</ele>
        <time>2011-03-20T09:38:37</time>
      </trkpt>
      <trkpt lat="44.43177" lon="1.475">
        <ele>270</ele>
        <time>2011-03-20T09:38:38</time>
      </trkpt>
      <trkpt lat="44.43186" lon="1.47488">
        <ele>270</ele>
        <time>2011-03-20T09:38:40</time>
      </trkpt>
      <trkpt lat="44.4319" lon="1.47482">
        <ele>270</ele>
        <time>2011-03-20T09:38:41</time>
      </trkpt>
      <trkpt lat="44.43193" lon="1.47476">
        <ele>270</ele>
        <time>2011-03-20T09:38:42</time>
      </trkpt>
      <trkpt lat="44.432" lon="1.47463">
        <ele>270</ele>
        <time>2011-03-20T09:38:44</time>
      </trkpt>
      <trkpt lat="44.43203" lon="1.47456">
        <ele>262</ele>
        <time>2011-03-20T09:38:45</time>
      </trkpt>
      <trkpt lat="44.43209" lon="1.47444">
        <ele>271</ele>
        <time>2011-03-20T09:38:47</time>
      </trkpt>
      <trkpt lat="44.43214" lon="1.47431">
        <ele>271</ele>
        <time>2011-03-20T09:38:49</time>
      </trkpt>
      <trkpt lat="44.43219" lon="1.47419">
        <ele>271</ele>
        <time>2011-03-20T09:38:51</time>
      </trkpt>
      <trkpt lat="44.43225" lon="1.47408">
        <ele>271</ele>
        <time>2011-03-20T09:38:53</time>
      </trkpt>
      <trkpt lat="44.43232" lon="1.47397">
        <ele>271</ele>
        <time>2011-03-20T09:38:55</time>
      </trkpt>
      <trkpt lat="44.43236" lon="1.47392">
        <ele>271</ele>
        <time>2011-03-20T09:38:56</time>
      </trkpt>
      <trkpt lat="44.43244" lon="1.47382">
        <ele>271</ele>
        <time>2011-03-20T09:38:58</time>
      </trkpt>
      <trkpt lat="44.43249" lon="1.47377">
        <ele>271</ele>
        <time>2011-03-20T09:38:59</time>
      </trkpt>
      <trkpt lat="44.43257" lon="1.47368">
        <ele>269</ele>
        <time>2011-03-20T09:39:01</time>
      </trkpt>
      <trkpt lat="44.43265" lon="1.4736">
        <ele>269</ele>
        <time>2011-03-20T09:39:03</time>
      </trkpt>
      <trkpt lat="44.4327" lon="1.47356">
        <ele>269</ele>
        <time>2011-03-20T09:39:04</time>
      </trkpt>
      <trkpt lat="44.43279" lon="1.47348">
        <ele>269</ele>
        <time>2011-03-20T09:39:06</time>
      </trkpt>
      <trkpt lat="44.43287" lon="1.47339">
        <ele>269</ele>
        <time>2011-03-20T09:39:08</time>
      </trkpt>
      <trkpt lat="44.43291" lon="1.47335">
        <ele>269</ele>
        <time>2011-03-20T09:39:09</time>
      </trkpt>
      <trkpt lat="44.433" lon="1.47328">
        <ele>273</ele>
        <time>2011-03-20T09:39:11</time>
      </trkpt>
      <trkpt lat="44.43304" lon="1.47324">
        <ele>273</ele>
        <time>2011-03-20T09:39:12</time>
      </trkpt>
      <trkpt lat="44.43312" lon="1.47317">
        <ele>273</ele>
        <time>2011-03-20T09:39:14</time>
      </trkpt>
      <trkpt lat="44.4332" lon="1.4731">
        <ele>273</ele>
        <time>2011-03-20T09:39:16</time>
      </trkpt>
      <trkpt lat="44.43324" lon="1.47307">
        <ele>273</ele>
        <time>2011-03-20T09:39:17</time>
      </trkpt>
      <trkpt lat="44.43331" lon="1.473">
        <ele>273</ele>
        <time>2011-03-20T09:39:19</time>
      </trkpt>
      <trkpt lat="44.43334" lon="1.47296">
        <ele>273</ele>
        <time>2011-03-20T09:39:20</time>
      </trkpt>
      <trkpt lat="44.43341" lon="1.47289">
        <ele>276</ele>
        <time>2011-03-20T09:39:22</time>
      </trkpt>
      <trkpt lat="44.43348" lon="1.47282">
        <ele>276</ele>
        <time>2011-03-20T09:39:24</time>
      </trkpt>
      <trkpt lat="44.43351" lon="1.47278">
        <ele>276</ele>
        <time>2011-03-20T09:39:25</time>
      </trkpt>
      <trkpt lat="44.43355" lon="1.47274">
        <ele>276</ele>
        <time>2011-03-20T09:39:26</time>
      </trkpt>
      <trkpt lat="44.43361" lon="1.47266">
        <ele>276</ele>
        <time>2011-03-20T09:39:28</time>
      </trkpt>
      <trkpt lat="44.43364" lon="1.47262">
        <ele>276</ele>
        <time>2011-03-20T09:39:29</time>
      </trkpt>
      <trkpt lat="44.4337" lon="1.47255">
        <ele>276</ele>
        <time>2011-03-20T09:39:31</time>
      </trkpt>
      <trkpt lat="44.43375" lon="1.47247">
        <ele>276</ele>
        <time>2011-03-20T09:39:33</time>
      </trkpt>
      <trkpt lat="44.4338" lon="1.4724">
        <ele>278</ele>
        <time>2011-03-20T09:39:35</time>
      </trkpt>
      <trkpt lat="44.43385" lon="1.47234">
        <ele>278</ele>
        <time>2011-03-20T09:39:37</time>
      </trkpt>
      <trkpt lat="44.43388" lon="1.47231">
        <ele>278</ele>
        <time>2011-03-20T09:39:38</time>
      </trkpt>
      <trkpt lat="44.43391" lon="1.47227">
        <ele>278</ele>
        <time>2011-03-20T09:39:39</time>
      </trkpt>
      <trkpt lat="44.43397" lon="1.47221">
        <ele>278</ele>
        <time>2011-03-20T09:39:41</time>
      </trkpt>
      <trkpt lat="44.43403" lon="1.47214">
        <ele>278</ele>
        <time>2011-03-20T09:39:43</time>
      </trkpt>
      <trkpt lat="44.43407" lon="1.4721">
        <ele>278</ele>
        <time>2011-03-20T09:39:44</time>
      </trkpt>
      <trkpt lat="44.4341" lon="1.47207">
        <ele>276</ele>
        <time>2011-03-20T09:39:45</time>
      </trkpt>
      <trkpt lat="44.43416" lon="1.472">
        <ele>276</ele>
        <time>2011-03-20T09:39:47</time>
      </trkpt>
      <trkpt lat="44.43423" lon="1.47194">
        <ele>276</ele>
        <time>2011-03-20T09:39:49</time>
      </trkpt>
      <trkpt lat="44.43427" lon="1.47191">
        <ele>276</ele>
        <time>2011-03-20T09:39:50</time>
      </trkpt>
      <trkpt lat="44.43434" lon="1.47185">
        <ele>276</ele>
        <time>2011-03-20T09:39:52</time>
      </trkpt>
      <trkpt lat="44.43438" lon="1.47183">
        <ele>276</ele>
        <time>2011-03-20T09:39:53</time>
      </trkpt>
      <trkpt lat="44.43446" lon="1.47177">
        <ele>276</ele>
        <time>2011-03-20T09:39:55</time>
      </trkpt>
      <trkpt lat="44.4345" lon="1.47175">
        <ele>276</ele>
        <time>2011-03-20T09:39:56</time>
      </trkpt>
      <trkpt lat="44.43458" lon="1.4717">
        <ele>276</ele>
        <time>2011-03-20T09:39:58</time>
      </trkpt>
      <trkpt lat="44.43465" lon="1.47166">
        <ele>281</ele>
        <time>2011-03-20T09:40:00</time>
      </trkpt>
      <trkpt lat="44.43473" lon="1.47162">
        <ele>281</ele>
        <time>2011-03-20T09:40:02</time>
      </trkpt>
      <trkpt lat="44.43476" lon="1.47159">
        <ele>281</ele>
        <time>2011-03-20T09:40:03</time>
      </trkpt>
      <trkpt lat="44.43483" lon="1.47156">
        <ele>281</ele>
        <time>2011-03-20T09:40:05</time>
      </trkpt>
      <trkpt lat="44.43487" lon="1.47154">
        <ele>281</ele>
        <time>2011-03-20T09:40:06</time>
      </trkpt>
      <trkpt lat="44.43495" lon="1.47149">
        <ele>281</ele>
        <time>2011-03-20T09:40:08</time>
      </trkpt>
      <trkpt lat="44.43502" lon="1.47145">
        <ele>281</ele>
        <time>2011-03-20T09:40:10</time>
      </trkpt>
      <trkpt lat="44.43506" lon="1.47143">
        <ele>281</ele>
        <time>2011-03-20T09:40:11</time>
      </trkpt>
      <trkpt lat="44.43514" lon="1.47139">
        <ele>281</ele>
        <time>2011-03-20T09:40:13</time>
      </trkpt>
      <trkpt lat="44.43522" lon="1.47135">
        <ele>281</ele>
        <time>2011-03-20T09:40:15</time>
      </trkpt>
      <trkpt lat="44.43526" lon="1.47133">
        <ele>281</ele>
        <time>2011-03-20T09:40:16</time>
      </trkpt>
      <trkpt lat="44.43535" lon="1.4713">
        <ele>281</ele>
        <time>2011-03-20T09:40:18</time>
      </trkpt>
      <trkpt lat="44.43539" lon="1.47128">
        <ele>281</ele>
        <time>2011-03-20T09:40:19</time>
      </trkpt>
      <trkpt lat="44.43544" lon="1.47127">
        <ele>282</ele>
        <time>2011-03-20T09:40:20</time>
      </trkpt>
      <trkpt lat="44.43549" lon="1.47126">
        <ele>282</ele>
        <time>2011-03-20T09:40:21</time>
      </trkpt>
      <trkpt lat="44.43558" lon="1.47122">
        <ele>278</ele>
        <time>2011-03-20T09:40:23</time>
      </trkpt>
      <trkpt lat="44.43563" lon="1.4712">
        <ele>278</ele>
        <time>2011-03-20T09:40:24</time>
      </trkpt>
      <trkpt lat="44.43572" lon="1.47115">
        <ele>278</ele>
        <time>2011-03-20T09:40:26</time>
      </trkpt>
      <trkpt lat="44.4358" lon="1.4711">
        <ele>278</ele>
        <time>2011-03-20T09:40:28</time>
      </trkpt>
      <trkpt lat="44.43584" lon="1.47107">
        <ele>278</ele>
        <time>2011-03-20T09:40:29</time>
      </trkpt>
      <trkpt lat="44.43588" lon="1.47105">
        <ele>278</ele>
        <time>2011-03-20T09:40:30</time>
      </trkpt>
      <trkpt lat="44.43592" lon="1.47102">
        <ele>278</ele>
        <time>2011-03-20T09:40:31</time>
      </trkpt>
      <trkpt lat="44.43599" lon="1.47096">
        <ele>278</ele>
        <time>2011-03-20T09:40:33</time>
      </trkpt>
      <trkpt lat="44.43603" lon="1.47093">
        <ele>278</ele>
        <time>2011-03-20T09:40:34</time>
      </trkpt>
      <trkpt lat="44.43606" lon="1.47091">
        <ele>278</ele>
        <time>2011-03-20T09:40:35</time>
      </trkpt>
      <trkpt lat="44.43613" lon="1.47085">
        <ele>278</ele>
        <time>2011-03-20T09:40:37</time>
      </trkpt>
      <trkpt lat="44.43616" lon="1.47082">
        <ele>278</ele>
        <time>2011-03-20T09:40:38</time>
      </trkpt>
      <trkpt lat="44.43621" lon="1.47075">
        <ele>278</ele>
        <time>2011-03-20T09:40:40</time>
      </trkpt>
      <trkpt lat="44.43623" lon="1.47071">
        <ele>278</ele>
        <time>2011-03-20T09:40:41</time>
      </trkpt>
      <trkpt lat="44.43628" lon="1.47064">
        <ele>279</ele>
        <time>2011-03-20T09:40:43</time>
      </trkpt>
      <trkpt lat="44.43633" lon="1.47058">
        <ele>279</ele>
        <time>2011-03-20T09:40:45</time>
      </trkpt>
      <trkpt lat="44.43635" lon="1.47054">
        <ele>279</ele>
        <time>2011-03-20T09:40:46</time>
      </trkpt>
      <trkpt lat="44.43638" lon="1.4705">
        <ele>279</ele>
        <time>2011-03-20T09:40:47</time>
      </trkpt>
      <trkpt lat="44.4364" lon="1.47046">
        <ele>279</ele>
        <time>2011-03-20T09:40:48</time>
      </trkpt>
      <trkpt lat="44.43646" lon="1.47038">
        <ele>282</ele>
        <time>2011-03-20T09:40:50</time>
      </trkpt>
      <trkpt lat="44.4365" lon="1.4703">
        <ele>282</ele>
        <time>2011-03-20T09:40:52</time>
      </trkpt>
      <trkpt lat="44.43655" lon="1.47024">
        <ele>282</ele>
        <time>2011-03-20T09:40:54</time>
      </trkpt>
      <trkpt lat="44.43659" lon="1.47015">
        <ele>282</ele>
        <time>2011-03-20T09:40:56</time>
      </trkpt>
      <trkpt lat="44.43662" lon="1.47009">
        <ele>282</ele>
        <time>2011-03-20T09:40:57</time>
      </trkpt>
      <trkpt lat="44.43665" lon="1.47003">
        <ele>282</ele>
        <time>2011-03-20T09:40:58</time>
      </trkpt>
      <trkpt lat="44.43668" lon="1.46991">
        <ele>282</ele>
        <time>2011-03-20T09:41:00</time>
      </trkpt>
      <trkpt lat="44.43669" lon="1.46985">
        <ele>282</ele>
        <time>2011-03-20T09:41:01</time>
      </trkpt>
      <trkpt lat="44.43674" lon="1.46974">
        <ele>282</ele>
        <time>2011-03-20T09:41:03</time>
      </trkpt>
      <trkpt lat="44.43677" lon="1.46969">
        <ele>282</ele>
        <time>2011-03-20T09:41:04</time>
      </trkpt>
      <trkpt lat="44.43681" lon="1.46963">
        <ele>282</ele>
        <time>2011-03-20T09:41:05</time>
      </trkpt>
      <trkpt lat="44.43684" lon="1.46958">
        <ele>279</ele>
        <time>2011-03-20T09:41:06</time>
      </trkpt>
      <trkpt lat="44.43692" lon="1.46948">
        <ele>279</ele>
        <time>2011-03-20T09:41:08</time>
      </trkpt>
      <trkpt lat="44.43696" lon="1.46943">
        <ele>279</ele>
        <time>2011-03-20T09:41:09</time>
      </trkpt>
      <trkpt lat="44.437" lon="1.46938">
        <ele>279</ele>
        <time>2011-03-20T09:41:10</time>
      </trkpt>
      <trkpt lat="44.43709" lon="1.46929">
        <ele>275</ele>
        <time>2011-03-20T09:41:12</time>
      </trkpt>
      <trkpt lat="44.43718" lon="1.46921">
        <ele>275</ele>
        <time>2011-03-20T09:41:14</time>
      </trkpt>
      <trkpt lat="44.43728" lon="1.46913">
        <ele>275</ele>
        <time>2011-03-20T09:41:16</time>
      </trkpt>
      <trkpt lat="44.43736" lon="1.46906">
        <ele>275</ele>
        <time>2011-03-20T09:41:18</time>
      </trkpt>
      <trkpt lat="44.4374" lon="1.46903">
        <ele>275</ele>
        <time>2011-03-20T09:41:19</time>
      </trkpt>
      <trkpt lat="44.43742" lon="1.469">
        <ele>275</ele>
        <time>2011-03-20T09:41:20</time>
      </trkpt>
      <trkpt lat="44.43747" lon="1.46896">
        <ele>275</ele>
        <time>2011-03-20T09:41:22</time>
      </trkpt>
      <trkpt lat="44.43753" lon="1.46892">
        <ele>275</ele>
        <time>2011-03-20T09:41:24</time>
      </trkpt>
      <trkpt lat="44.43757" lon="1.4689">
        <ele>275</ele>
        <time>2011-03-20T09:41:25</time>
      </trkpt>
      <trkpt lat="44.43764" lon="1.46885">
        <ele>275</ele>
        <time>2011-03-20T09:41:27</time>
      </trkpt>
      <trkpt lat="44.43771" lon="1.46881">
        <ele>275</ele>
        <time>2011-03-20T09:41:29</time>
      </trkpt>
      <trkpt lat="44.43775" lon="1.46879">
        <ele>275</ele>
        <time>2011-03-20T09:41:30</time>
      </trkpt>
      <trkpt lat="44.43783" lon="1.46876">
        <ele>275</ele>
        <time>2011-03-20T09:41:32</time>
      </trkpt>
      <trkpt lat="44.43786" lon="1.46875">
        <ele>266</ele>
        <time>2011-03-20T09:41:33</time>
      </trkpt>
      <trkpt lat="44.43793" lon="1.46872">
        <ele>273</ele>
        <time>2011-03-20T09:41:35</time>
      </trkpt>
      <trkpt lat="44.438" lon="1.46869">
        <ele>273</ele>
        <time>2011-03-20T09:41:37</time>
      </trkpt>
      <trkpt lat="44.43803" lon="1.46867">
        <ele>273</ele>
        <time>2011-03-20T09:41:38</time>
      </trkpt>
      <trkpt lat="44.4381" lon="1.46865">
        <ele>273</ele>
        <time>2011-03-20T09:41:40</time>
      </trkpt>
      <trkpt lat="44.43815" lon="1.46868">
        <ele>273</ele>
        <time>2011-03-20T09:41:42</time>
      </trkpt>
      <trkpt lat="44.4382" lon="1.46872">
        <ele>273</ele>
        <time>2011-03-20T09:41:44</time>
      </trkpt>
      <trkpt lat="44.43824" lon="1.46873">
        <ele>273</ele>
        <time>2011-03-20T09:41:45</time>
      </trkpt>
      <trkpt lat="44.43828" lon="1.46874">
        <ele>273</ele>
        <time>2011-03-20T09:41:46</time>
      </trkpt>
      <trkpt lat="44.43837" lon="1.46875">
        <ele>269</ele>
        <time>2011-03-20T09:41:48</time>
      </trkpt>
      <trkpt lat="44.43842" lon="1.46876">
        <ele>269</ele>
        <time>2011-03-20T09:41:49</time>
      </trkpt>
      <trkpt lat="44.43848" lon="1.46877">
        <ele>269</ele>
        <time>2011-03-20T09:41:50</time>
      </trkpt>
      <trkpt lat="44.43858" lon="1.46881">
        <ele>269</ele>
        <time>2011-03-20T09:41:52</time>
      </trkpt>
      <trkpt lat="44.43864" lon="1.46882">
        <ele>269</ele>
        <time>2011-03-20T09:41:53</time>
      </trkpt>
      <trkpt lat="44.43873" lon="1.46885">
        <ele>269</ele>
        <time>2011-03-20T09:41:55</time>
      </trkpt>
      <trkpt lat="44.43878" lon="1.46887">
        <ele>271</ele>
        <time>2011-03-20T09:41:56</time>
      </trkpt>
      <trkpt lat="44.43883" lon="1.46888">
        <ele>271</ele>
        <time>2011-03-20T09:41:57</time>
      </trkpt>
      <trkpt lat="44.43893" lon="1.46891">
        <ele>271</ele>
        <time>2011-03-20T09:41:59</time>
      </trkpt>
      <trkpt lat="44.43897" lon="1.46892">
        <ele>271</ele>
        <time>2011-03-20T09:42:00</time>
      </trkpt>
      <trkpt lat="44.43907" lon="1.46893">
        <ele>271</ele>
        <time>2011-03-20T09:42:02</time>
      </trkpt>
      <trkpt lat="44.43911" lon="1.46893">
        <ele>271</ele>
        <time>2011-03-20T09:42:03</time>
      </trkpt>
      <trkpt lat="44.43916" lon="1.46894">
        <ele>271</ele>
        <time>2011-03-20T09:42:04</time>
      </trkpt>
      <trkpt lat="44.43925" lon="1.46894">
        <ele>271</ele>
        <time>2011-03-20T09:42:06</time>
      </trkpt>
      <trkpt lat="44.4393" lon="1.46894">
        <ele>271</ele>
        <time>2011-03-20T09:42:07</time>
      </trkpt>
      <trkpt lat="44.4394" lon="1.46893">
        <ele>271</ele>
        <time>2011-03-20T09:42:09</time>
      </trkpt>
      <trkpt lat="44.43951" lon="1.46892">
        <ele>271</ele>
        <time>2011-03-20T09:42:11</time>
      </trkpt>
      <trkpt lat="44.43961" lon="1.46891">
        <ele>268</ele>
        <time>2011-03-20T09:42:13</time>
      </trkpt>
      <trkpt lat="44.43967" lon="1.4689">
        <ele>268</ele>
        <time>2011-03-20T09:42:14</time>
      </trkpt>
      <trkpt lat="44.43976" lon="1.46887">
        <ele>268</ele>
        <time>2011-03-20T09:42:16</time>
      </trkpt>
      <trkpt lat="44.43981" lon="1.46885">
        <ele>268</ele>
        <time>2011-03-20T09:42:17</time>
      </trkpt>
      <trkpt lat="44.43989" lon="1.46885">
        <ele>268</ele>
        <time>2011-03-20T09:42:19</time>
      </trkpt>
      <trkpt lat="44.43997" lon="1.46885">
        <ele>268</ele>
        <time>2011-03-20T09:42:21</time>
      </trkpt>
      <trkpt lat="44.44005" lon="1.46887">
        <ele>268</ele>
        <time>2011-03-20T09:42:23</time>
      </trkpt>
      <trkpt lat="44.4401" lon="1.46887">
        <ele>268</ele>
        <time>2011-03-20T09:42:24</time>
      </trkpt>
      <trkpt lat="44.44021" lon="1.46888">
        <ele>268</ele>
        <time>2011-03-20T09:42:26</time>
      </trkpt>
      <trkpt lat="44.44026" lon="1.46889">
        <ele>268</ele>
        <time>2011-03-20T09:42:27</time>
      </trkpt>
      <trkpt lat="44.44032" lon="1.4689">
        <ele>268</ele>
        <time>2011-03-20T09:42:28</time>
      </trkpt>
      <trkpt lat="44.44044" lon="1.46893">
        <ele>266</ele>
        <time>2011-03-20T09:42:30</time>
      </trkpt>
      <trkpt lat="44.44049" lon="1.46895">
        <ele>266</ele>
        <time>2011-03-20T09:42:31</time>
      </trkpt>
      <trkpt lat="44.44061" lon="1.46895">
        <ele>266</ele>
        <time>2011-03-20T09:42:33</time>
      </trkpt>
      <trkpt lat="44.44066" lon="1.46896">
        <ele>266</ele>
        <time>2011-03-20T09:42:34</time>
      </trkpt>
      <trkpt lat="44.44077" lon="1.46897">
        <ele>266</ele>
        <time>2011-03-20T09:42:36</time>
      </trkpt>
      <trkpt lat="44.44083" lon="1.46899">
        <ele>266</ele>
        <time>2011-03-20T09:42:37</time>
      </trkpt>
      <trkpt lat="44.44095" lon="1.46901">
        <ele>266</ele>
        <time>2011-03-20T09:42:39</time>
      </trkpt>
      <trkpt lat="44.44106" lon="1.46906">
        <ele>266</ele>
        <time>2011-03-20T09:42:41</time>
      </trkpt>
      <trkpt lat="44.44114" lon="1.46911">
        <ele>266</ele>
        <time>2011-03-20T09:42:43</time>
      </trkpt>
      <trkpt lat="44.44118" lon="1.46915">
        <ele>266</ele>
        <time>2011-03-20T09:42:44</time>
      </trkpt>
      <trkpt lat="44.44125" lon="1.46923">
        <ele>267</ele>
        <time>2011-03-20T09:42:46</time>
      </trkpt>
      <trkpt lat="44.44132" lon="1.4693">
        <ele>267</ele>
        <time>2011-03-20T09:42:48</time>
      </trkpt>
      <trkpt lat="44.44136" lon="1.46933">
        <ele>267</ele>
        <time>2011-03-20T09:42:49</time>
      </trkpt>
      <trkpt lat="44.44139" lon="1.46936">
        <ele>267</ele>
        <time>2011-03-20T09:42:50</time>
      </trkpt>
      <trkpt lat="44.44147" lon="1.46942">
        <ele>267</ele>
        <time>2011-03-20T09:42:52</time>
      </trkpt>
      <trkpt lat="44.44154" lon="1.46949">
        <ele>267</ele>
        <time>2011-03-20T09:42:54</time>
      </trkpt>
      <trkpt lat="44.44157" lon="1.46951">
        <ele>267</ele>
        <time>2011-03-20T09:42:55</time>
      </trkpt>
      <trkpt lat="44.44161" lon="1.46954">
        <ele>267</ele>
        <time>2011-03-20T09:42:56</time>
      </trkpt>
      <trkpt lat="44.44164" lon="1.46957">
        <ele>267</ele>
        <time>2011-03-20T09:42:57</time>
      </trkpt>
      <trkpt lat="44.44171" lon="1.46964">
        <ele>265</ele>
        <time>2011-03-20T09:42:59</time>
      </trkpt>
      <trkpt lat="44.44179" lon="1.46971">
        <ele>265</ele>
        <time>2011-03-20T09:43:01</time>
      </trkpt>
      <trkpt lat="44.44187" lon="1.46978">
        <ele>265</ele>
        <time>2011-03-20T09:43:03</time>
      </trkpt>
      <trkpt lat="44.44194" lon="1.46985">
        <ele>265</ele>
        <time>2011-03-20T09:43:05</time>
      </trkpt>
      <trkpt lat="44.44201" lon="1.46992">
        <ele>265</ele>
        <time>2011-03-20T09:43:07</time>
      </trkpt>
      <trkpt lat="44.44209" lon="1.46998">
        <ele>270</ele>
        <time>2011-03-20T09:43:09</time>
      </trkpt>
      <trkpt lat="44.44213" lon="1.47001">
        <ele>270</ele>
        <time>2011-03-20T09:43:10</time>
      </trkpt>
      <trkpt lat="44.44217" lon="1.47004">
        <ele>270</ele>
        <time>2011-03-20T09:43:11</time>
      </trkpt>
      <trkpt lat="44.44225" lon="1.4701">
        <ele>270</ele>
        <time>2011-03-20T09:43:13</time>
      </trkpt>
      <trkpt lat="44.44233" lon="1.47016">
        <ele>270</ele>
        <time>2011-03-20T09:43:15</time>
      </trkpt>
      <trkpt lat="44.44236" lon="1.4702">
        <ele>270</ele>
        <time>2011-03-20T09:43:16</time>
      </trkpt>
      <trkpt lat="44.44243" lon="1.47025">
        <ele>270</ele>
        <time>2011-03-20T09:43:18</time>
      </trkpt>
      <trkpt lat="44.44246" lon="1.47027">
        <ele>270</ele>
        <time>2011-03-20T09:43:19</time>
      </trkpt>
      <trkpt lat="44.44253" lon="1.47032">
        <ele>270</ele>
        <time>2011-03-20T09:43:21</time>
      </trkpt>
      <trkpt lat="44.44257" lon="1.47034">
        <ele>270</ele>
        <time>2011-03-20T09:43:22</time>
      </trkpt>
      <trkpt lat="44.44263" lon="1.4704">
        <ele>270</ele>
        <time>2011-03-20T09:43:24</time>
      </trkpt>
      <trkpt lat="44.44269" lon="1.47044">
        <ele>273</ele>
        <time>2011-03-20T09:43:26</time>
      </trkpt>
      <trkpt lat="44.44274" lon="1.47046">
        <ele>273</ele>
        <time>2011-03-20T09:43:28</time>
      </trkpt>
      <trkpt lat="44.4428" lon="1.47049">
        <ele>273</ele>
        <time>2011-03-20T09:43:30</time>
      </trkpt>
      <trkpt lat="44.44283" lon="1.47051">
        <ele>273</ele>
        <time>2011-03-20T09:43:31</time>
      </trkpt>
      <trkpt lat="44.44288" lon="1.47053">
        <ele>273</ele>
        <time>2011-03-20T09:43:33</time>
      </trkpt>
      <trkpt lat="44.44294" lon="1.47057">
        <ele>275</ele>
        <time>2011-03-20T09:43:35</time>
      </trkpt>
      <trkpt lat="44.44301" lon="1.4706">
        <ele>275</ele>
        <time>2011-03-20T09:43:37</time>
      </trkpt>
      <trkpt lat="44.44304" lon="1.47062">
        <ele>275</ele>
        <time>2011-03-20T09:43:38</time>
      </trkpt>
      <trkpt lat="44.4431" lon="1.47067">
        <ele>275</ele>
        <time>2011-03-20T09:43:40</time>
      </trkpt>
      <trkpt lat="44.44313" lon="1.47069">
        <ele>275</ele>
        <time>2011-03-20T09:43:41</time>
      </trkpt>
      <trkpt lat="44.44316" lon="1.47071">
        <ele>275</ele>
        <time>2011-03-20T09:43:42</time>
      </trkpt>
      <trkpt lat="44.4432" lon="1.47073">
        <ele>275</ele>
        <time>2011-03-20T09:43:43</time>
      </trkpt>
      <trkpt lat="44.44326" lon="1.47077">
        <ele>275</ele>
        <time>2011-03-20T09:43:45</time>
      </trkpt>
      <trkpt lat="44.44332" lon="1.47082">
        <ele>275</ele>
        <time>2011-03-20T09:43:47</time>
      </trkpt>
      <trkpt lat="44.44339" lon="1.47088">
        <ele>275</ele>
        <time>2011-03-20T09:43:49</time>
      </trkpt>
      <trkpt lat="44.44342" lon="1.47091">
        <ele>275</ele>
        <time>2011-03-20T09:43:50</time>
      </trkpt>
      <trkpt lat="44.44348" lon="1.47097">
        <ele>275</ele>
        <time>2011-03-20T09:43:52</time>
      </trkpt>
      <trkpt lat="44.44354" lon="1.47102">
        <ele>275</ele>
        <time>2011-03-20T09:43:54</time>
      </trkpt>
      <trkpt lat="44.44357" lon="1.47105">
        <ele>275</ele>
        <time>2011-03-20T09:43:55</time>
      </trkpt>
      <trkpt lat="44.44359" lon="1.47107">
        <ele>275</ele>
        <time>2011-03-20T09:43:56</time>
      </trkpt>
      <trkpt lat="44.44364" lon="1.47111">
        <ele>275</ele>
        <time>2011-03-20T09:43:58</time>
      </trkpt>
      <trkpt lat="44.44366" lon="1.47114">
        <ele>275</ele>
        <time>2011-03-20T09:43:59</time>
      </trkpt>
      <trkpt lat="44.44371" lon="1.47121">
        <ele>275</ele>
        <time>2011-03-20T09:44:01</time>
      </trkpt>
      <trkpt lat="44.44377" lon="1.47127">
        <ele>273</ele>
        <time>2011-03-20T09:44:03</time>
      </trkpt>
      <trkpt lat="44.4438" lon="1.47131">
        <ele>273</ele>
        <time>2011-03-20T09:44:04</time>
      </trkpt>
      <trkpt lat="44.44383" lon="1.47135">
        <ele>273</ele>
        <time>2011-03-20T09:44:05</time>
      </trkpt>
      <trkpt lat="44.4439" lon="1.47142">
        <ele>273</ele>
        <time>2011-03-20T09:44:07</time>
      </trkpt>
      <trkpt lat="44.44393" lon="1.47145">
        <ele>273</ele>
        <time>2011-03-20T09:44:08</time>
      </trkpt>
      <trkpt lat="44.44396" lon="1.47149">
        <ele>273</ele>
        <time>2011-03-20T09:44:09</time>
      </trkpt>
      <trkpt lat="44.44402" lon="1.47156">
        <ele>273</ele>
        <time>2011-03-20T09:44:11</time>
      </trkpt>
      <trkpt lat="44.44406" lon="1.4716">
        <ele>273</ele>
        <time>2011-03-20T09:44:12</time>
      </trkpt>
      <trkpt lat="44.44412" lon="1.47167">
        <ele>273</ele>
        <time>2011-03-20T09:44:14</time>
      </trkpt>
      <trkpt lat="44.44415" lon="1.47171">
        <ele>273</ele>
        <time>2011-03-20T09:44:15</time>
      </trkpt>
      <trkpt lat="44.44419" lon="1.47175">
        <ele>273</ele>
        <time>2011-03-20T09:44:16</time>
      </trkpt>
      <trkpt lat="44.44427" lon="1.47182">
        <ele>273</ele>
        <time>2011-03-20T09:44:18</time>
      </trkpt>
      <trkpt lat="44.44431" lon="1.47185">
        <ele>273</ele>
        <time>2011-03-20T09:44:19</time>
      </trkpt>
      <trkpt lat="44.4444" lon="1.47192">
        <ele>273</ele>
        <time>2011-03-20T09:44:21</time>
      </trkpt>
      <trkpt lat="44.44444" lon="1.47195">
        <ele>273</ele>
        <time>2011-03-20T09:44:22</time>
      </trkpt>
      <trkpt lat="44.44453" lon="1.47201">
        <ele>273</ele>
        <time>2011-03-20T09:44:24</time>
      </trkpt>
      <trkpt lat="44.44457" lon="1.47204">
        <ele>273</ele>
        <time>2011-03-20T09:44:25</time>
      </trkpt>
      <trkpt lat="44.44461" lon="1.47208">
        <ele>267</ele>
        <time>2011-03-20T09:44:26</time>
      </trkpt>
      <trkpt lat="44.4447" lon="1.47213">
        <ele>273</ele>
        <time>2011-03-20T09:44:28</time>
      </trkpt>
      <trkpt lat="44.44475" lon="1.47215">
        <ele>273</ele>
        <time>2011-03-20T09:44:29</time>
      </trkpt>
      <trkpt lat="44.44481" lon="1.47218">
        <ele>273</ele>
        <time>2011-03-20T09:44:30</time>
      </trkpt>
      <trkpt lat="44.44493" lon="1.4722">
        <ele>273</ele>
        <time>2011-03-20T09:44:32</time>
      </trkpt>
      <trkpt lat="44.44499" lon="1.47221">
        <ele>273</ele>
        <time>2011-03-20T09:44:33</time>
      </trkpt>
      <trkpt lat="44.4451" lon="1.47222">
        <ele>273</ele>
        <time>2011-03-20T09:44:35</time>
      </trkpt>
      <trkpt lat="44.44514" lon="1.47221">
        <ele>273</ele>
        <time>2011-03-20T09:44:36</time>
      </trkpt>
      <trkpt lat="44.44524" lon="1.4722">
        <ele>273</ele>
        <time>2011-03-20T09:44:38</time>
      </trkpt>
      <trkpt lat="44.4453" lon="1.47219">
        <ele>273</ele>
        <time>2011-03-20T09:44:39</time>
      </trkpt>
      <trkpt lat="44.44535" lon="1.47217">
        <ele>273</ele>
        <time>2011-03-20T09:44:40</time>
      </trkpt>
      <trkpt lat="44.44546" lon="1.47214">
        <ele>272</ele>
        <time>2011-03-20T09:44:42</time>
      </trkpt>
      <trkpt lat="44.44551" lon="1.47212">
        <ele>272</ele>
        <time>2011-03-20T09:44:43</time>
      </trkpt>
      <trkpt lat="44.44561" lon="1.4721">
        <ele>272</ele>
        <time>2011-03-20T09:44:45</time>
      </trkpt>
      <trkpt lat="44.44565" lon="1.47209">
        <ele>272</ele>
        <time>2011-03-20T09:44:46</time>
      </trkpt>
      <trkpt lat="44.44573" lon="1.47208">
        <ele>269</ele>
        <time>2011-03-20T09:44:48</time>
      </trkpt>
      <trkpt lat="44.44577" lon="1.47206">
        <ele>269</ele>
        <time>2011-03-20T09:44:49</time>
      </trkpt>
      <trkpt lat="44.4458" lon="1.47204">
        <ele>269</ele>
        <time>2011-03-20T09:44:50</time>
      </trkpt>
      <trkpt lat="44.44587" lon="1.47202">
        <ele>269</ele>
        <time>2011-03-20T09:44:52</time>
      </trkpt>
      <trkpt lat="44.44591" lon="1.47201">
        <ele>269</ele>
        <time>2011-03-20T09:44:53</time>
      </trkpt>
      <trkpt lat="44.44599" lon="1.47199">
        <ele>269</ele>
        <time>2011-03-20T09:44:55</time>
      </trkpt>
      <trkpt lat="44.44607" lon="1.47198">
        <ele>269</ele>
        <time>2011-03-20T09:44:57</time>
      </trkpt>
      <trkpt lat="44.44615" lon="1.47198">
        <ele>269</ele>
        <time>2011-03-20T09:44:59</time>
      </trkpt>
      <trkpt lat="44.44619" lon="1.47199">
        <ele>269</ele>
        <time>2011-03-20T09:45:00</time>
      </trkpt>
      <trkpt lat="44.44622" lon="1.472">
        <ele>269</ele>
        <time>2011-03-20T09:45:01</time>
      </trkpt>
      <trkpt lat="44.44629" lon="1.47205">
        <ele>269</ele>
        <time>2011-03-20T09:45:03</time>
      </trkpt>
      <trkpt lat="44.44633" lon="1.47207">
        <ele>269</ele>
        <time>2011-03-20T09:45:04</time>
      </trkpt>
      <trkpt lat="44.44636" lon="1.4721">
        <ele>266</ele>
        <time>2011-03-20T09:45:05</time>
      </trkpt>
      <trkpt lat="44.44644" lon="1.47215">
        <ele>266</ele>
        <time>2011-03-20T09:45:07</time>
      </trkpt>
      <trkpt lat="44.44648" lon="1.47219">
        <ele>266</ele>
        <time>2011-03-20T09:45:08</time>
      </trkpt>
      <trkpt lat="44.44656" lon="1.47227">
        <ele>266</ele>
        <time>2011-03-20T09:45:10</time>
      </trkpt>
      <trkpt lat="44.4466" lon="1.47231">
        <ele>266</ele>
        <time>2011-03-20T09:45:11</time>
      </trkpt>
      <trkpt lat="44.4467" lon="1.4724">
        <ele>266</ele>
        <time>2011-03-20T09:45:13</time>
      </trkpt>
      <trkpt lat="44.4468" lon="1.4725">
        <ele>266</ele>
        <time>2011-03-20T09:45:15</time>
      </trkpt>
      <trkpt lat="44.44687" lon="1.47256">
        <ele>266</ele>
        <time>2011-03-20T09:45:17</time>
      </trkpt>
      <trkpt lat="44.44693" lon="1.47261">
        <ele>266</ele>
        <time>2011-03-20T09:45:19</time>
      </trkpt>
      <trkpt lat="44.44694" lon="1.47265">
        <ele>266</ele>
        <time>2011-03-20T09:45:20</time>
      </trkpt>
      <trkpt lat="44.44694" lon="1.47268">
        <ele>266</ele>
        <time>2011-03-20T09:45:21</time>
      </trkpt>
      <trkpt lat="44.44695" lon="1.47276">
        <ele>266</ele>
        <time>2011-03-20T09:45:23</time>
      </trkpt>
      <trkpt lat="44.44692" lon="1.47283">
        <ele>266</ele>
        <time>2011-03-20T09:45:25</time>
      </trkpt>
      <trkpt lat="44.4469" lon="1.47291">
        <ele>266</ele>
        <time>2011-03-20T09:45:27</time>
      </trkpt>
      <trkpt lat="44.44691" lon="1.47297">
        <ele>256</ele>
        <time>2011-03-20T09:45:29</time>
      </trkpt>
      <trkpt lat="44.44693" lon="1.47303">
        <ele>256</ele>
        <time>2011-03-20T09:45:31</time>
      </trkpt>
      <trkpt lat="44.44695" lon="1.47309">
        <ele>256</ele>
        <time>2011-03-20T09:45:33</time>
      </trkpt>
      <trkpt lat="44.44697" lon="1.47312">
        <ele>256</ele>
        <time>2011-03-20T09:45:34</time>
      </trkpt>
      <trkpt lat="44.44701" lon="1.47319">
        <ele>256</ele>
        <time>2011-03-20T09:45:36</time>
      </trkpt>
      <trkpt lat="44.44702" lon="1.47324">
        <ele>256</ele>
        <time>2011-03-20T09:45:37</time>
      </trkpt>
      <trkpt lat="44.44705" lon="1.47334">
        <ele>256</ele>
        <time>2011-03-20T09:45:39</time>
      </trkpt>
      <trkpt lat="44.44708" lon="1.47343">
        <ele>256</ele>
        <time>2011-03-20T09:45:41</time>
      </trkpt>
      <trkpt lat="44.4471" lon="1.47348">
        <ele>266</ele>
        <time>2011-03-20T09:45:42</time>
      </trkpt>
      <trkpt lat="44.44714" lon="1.47359">
        <ele>266</ele>
        <time>2011-03-20T09:45:44</time>
      </trkpt>
      <trkpt lat="44.44717" lon="1.47363">
        <ele>266</ele>
        <time>2011-03-20T09:45:45</time>
      </trkpt>
      <trkpt lat="44.44719" lon="1.4737">
        <ele>266</ele>
        <time>2011-03-20T09:45:47</time>
      </trkpt>
      <trkpt lat="44.4472" lon="1.47375">
        <ele>258</ele>
        <time>2011-03-20T09:45:48</time>
      </trkpt>
      <trkpt lat="44.44723" lon="1.47386">
        <ele>258</ele>
        <time>2011-03-20T09:45:50</time>
      </trkpt>
      <trkpt lat="44.44725" lon="1.4739">
        <ele>258</ele>
        <time>2011-03-20T09:45:51</time>
      </trkpt>
      <trkpt lat="44.44729" lon="1.47398">
        <ele>258</ele>
        <time>2011-03-20T09:45:53</time>
      </trkpt>
      <trkpt lat="44.44729" lon="1.47402">
        <ele>258</ele>
        <time>2011-03-20T09:45:54</time>
      </trkpt>
      <trkpt lat="44.4473" lon="1.4741">
        <ele>258</ele>
        <time>2011-03-20T09:45:56</time>
      </trkpt>
      <trkpt lat="44.4473" lon="1.47419">
        <ele>258</ele>
        <time>2011-03-20T09:45:58</time>
      </trkpt>
      <trkpt lat="44.44732" lon="1.47424">
        <ele>258</ele>
        <time>2011-03-20T09:45:59</time>
      </trkpt>
      <trkpt lat="44.44735" lon="1.47433">
        <ele>258</ele>
        <time>2011-03-20T09:46:01</time>
      </trkpt>
      <trkpt lat="44.44735" lon="1.47436">
        <ele>258</ele>
        <time>2011-03-20T09:46:02</time>
      </trkpt>
      <trkpt lat="44.44736" lon="1.47445">
        <ele>258</ele>
        <time>2011-03-20T09:46:04</time>
      </trkpt>
      <trkpt lat="44.44738" lon="1.47456">
        <ele>258</ele>
        <time>2011-03-20T09:46:06</time>
      </trkpt>
      <trkpt lat="44.4474" lon="1.47465">
        <ele>244</ele>
        <time>2011-03-20T09:46:08</time>
      </trkpt>
      <trkpt lat="44.4474" lon="1.47471">
        <ele>244</ele>
        <time>2011-03-20T09:46:10</time>
      </trkpt>
      <trkpt lat="44.44742" lon="1.47481">
        <ele>244</ele>
        <time>2011-03-20T09:46:12</time>
      </trkpt>
      <trkpt lat="44.44744" lon="1.47492">
        <ele>244</ele>
        <time>2011-03-20T09:46:14</time>
      </trkpt>
      <trkpt lat="44.44746" lon="1.47502">
        <ele>244</ele>
        <time>2011-03-20T09:46:16</time>
      </trkpt>
      <trkpt lat="44.44748" lon="1.47507">
        <ele>244</ele>
        <time>2011-03-20T09:46:17</time>
      </trkpt>
      <trkpt lat="44.44748" lon="1.47515">
        <ele>244</ele>
        <time>2011-03-20T09:46:19</time>
      </trkpt>
      <trkpt lat="44.44749" lon="1.47521">
        <ele>244</ele>
        <time>2011-03-20T09:46:20</time>
      </trkpt>
      <trkpt lat="44.44752" lon="1.47535">
        <ele>244</ele>
        <time>2011-03-20T09:46:22</time>
      </trkpt>
      <trkpt lat="44.44755" lon="1.47545">
        <ele>232</ele>
        <time>2011-03-20T09:46:24</time>
      </trkpt>
      <trkpt lat="44.44756" lon="1.47557">
        <ele>232</ele>
        <time>2011-03-20T09:46:26</time>
      </trkpt>
      <trkpt lat="44.44758" lon="1.47574">
        <ele>232</ele>
        <time>2011-03-20T09:46:28</time>
      </trkpt>
      <trkpt lat="44.44759" lon="1.47581">
        <ele>232</ele>
        <time>2011-03-20T09:46:29</time>
      </trkpt>
      <trkpt lat="44.44764" lon="1.4759">
        <ele>232</ele>
        <time>2011-03-20T09:46:31</time>
      </trkpt>
      <trkpt lat="44.44765" lon="1.476">
        <ele>232</ele>
        <time>2011-03-20T09:46:34</time>
      </trkpt>
      <trkpt lat="44.44767" lon="1.47609">
        <ele>232</ele>
        <time>2011-03-20T09:46:36</time>
      </trkpt>
      <trkpt lat="44.44768" lon="1.47613">
        <ele>232</ele>
        <time>2011-03-20T09:46:37</time>
      </trkpt>
      <trkpt lat="44.44771" lon="1.47618">
        <ele>232</ele>
        <time>2011-03-20T09:46:40</time>
      </trkpt>
      <trkpt lat="44.44774" lon="1.47622">
        <ele>232</ele>
        <time>2011-03-20T09:46:44</time>
      </trkpt>
      <trkpt lat="44.44776" lon="1.47629">
        <ele>220</ele>
        <time>2011-03-20T09:46:46</time>
      </trkpt>
      <trkpt lat="44.44777" lon="1.47634">
        <ele>220</ele>
        <time>2011-03-20T09:46:47</time>
      </trkpt>
      <trkpt lat="44.44779" lon="1.47642">
        <ele>220</ele>
        <time>2011-03-20T09:46:49</time>
      </trkpt>
      <trkpt lat="44.44779" lon="1.47646">
        <ele>220</ele>
        <time>2011-03-20T09:46:50</time>
      </trkpt>
      <trkpt lat="44.4478" lon="1.47651">
        <ele>220</ele>
        <time>2011-03-20T09:46:51</time>
      </trkpt>
      <trkpt lat="44.44781" lon="1.47654">
        <ele>220</ele>
        <time>2011-03-20T09:46:52</time>
      </trkpt>
      <trkpt lat="44.44783" lon="1.47659">
        <ele>220</ele>
        <time>2011-03-20T09:46:54</time>
      </trkpt>
      <trkpt lat="44.44785" lon="1.47663">
        <ele>220</ele>
        <time>2011-03-20T09:46:56</time>
      </trkpt>
      <trkpt lat="44.44787" lon="1.47666">
        <ele>220</ele>
        <time>2011-03-20T09:46:57</time>
      </trkpt>
      <trkpt lat="44.44789" lon="1.4767">
        <ele>220</ele>
        <time>2011-03-20T09:46:58</time>
      </trkpt>
      <trkpt lat="44.4479" lon="1.47673">
        <ele>220</ele>
        <time>2011-03-20T09:46:59</time>
      </trkpt>
      <trkpt lat="44.44791" lon="1.47677">
        <ele>220</ele>
        <time>2011-03-20T09:47:00</time>
      </trkpt>
      <trkpt lat="44.44791" lon="1.47681">
        <ele>220</ele>
        <time>2011-03-20T09:47:01</time>
      </trkpt>
      <trkpt lat="44.44792" lon="1.47685">
        <ele>243</ele>
        <time>2011-03-20T09:47:02</time>
      </trkpt>
      <trkpt lat="44.44795" lon="1.47695">
        <ele>243</ele>
        <time>2011-03-20T09:47:04</time>
      </trkpt>
      <trkpt lat="44.44799" lon="1.47702">
        <ele>243</ele>
        <time>2011-03-20T09:47:06</time>
      </trkpt>
      <trkpt lat="44.44801" lon="1.47706">
        <ele>243</ele>
        <time>2011-03-20T09:47:07</time>
      </trkpt>
      <trkpt lat="44.44804" lon="1.47709">
        <ele>228</ele>
        <time>2011-03-20T09:47:08</time>
      </trkpt>
      <trkpt lat="44.44809" lon="1.47716">
        <ele>228</ele>
        <time>2011-03-20T09:47:10</time>
      </trkpt>
      <trkpt lat="44.44814" lon="1.47722">
        <ele>228</ele>
        <time>2011-03-20T09:47:12</time>
      </trkpt>
      <trkpt lat="44.44819" lon="1.47729">
        <ele>228</ele>
        <time>2011-03-20T09:47:14</time>
      </trkpt>
      <trkpt lat="44.44825" lon="1.47734">
        <ele>228</ele>
        <time>2011-03-20T09:47:16</time>
      </trkpt>
      <trkpt lat="44.44832" lon="1.47737">
        <ele>228</ele>
        <time>2011-03-20T09:47:18</time>
      </trkpt>
      <trkpt lat="44.44837" lon="1.47736">
        <ele>228</ele>
        <time>2011-03-20T09:47:19</time>
      </trkpt>
      <trkpt lat="44.44844" lon="1.47735">
        <ele>228</ele>
        <time>2011-03-20T09:47:21</time>
      </trkpt>
      <trkpt lat="44.4485" lon="1.47733">
        <ele>228</ele>
        <time>2011-03-20T09:47:23</time>
      </trkpt>
      <trkpt lat="44.44854" lon="1.47731">
        <ele>228</ele>
        <time>2011-03-20T09:47:24</time>
      </trkpt>
      <trkpt lat="44.44862" lon="1.47727">
        <ele>228</ele>
        <time>2011-03-20T09:47:26</time>
      </trkpt>
      <trkpt lat="44.4487" lon="1.47724">
        <ele>228</ele>
        <time>2011-03-20T09:47:28</time>
      </trkpt>
      <trkpt lat="44.44874" lon="1.47723">
        <ele>228</ele>
        <time>2011-03-20T09:47:29</time>
      </trkpt>
      <trkpt lat="44.44882" lon="1.47721">
        <ele>222</ele>
        <time>2011-03-20T09:47:31</time>
      </trkpt>
      <trkpt lat="44.44892" lon="1.47718">
        <ele>222</ele>
        <time>2011-03-20T09:47:33</time>
      </trkpt>
      <trkpt lat="44.449" lon="1.47714">
        <ele>222</ele>
        <time>2011-03-20T09:47:35</time>
      </trkpt>
      <trkpt lat="44.44905" lon="1.47713">
        <ele>222</ele>
        <time>2011-03-20T09:47:36</time>
      </trkpt>
      <trkpt lat="44.44914" lon="1.4771">
        <ele>222</ele>
        <time>2011-03-20T09:47:38</time>
      </trkpt>
      <trkpt lat="44.44923" lon="1.47706">
        <ele>239</ele>
        <time>2011-03-20T09:47:40</time>
      </trkpt>
      <trkpt lat="44.44933" lon="1.47703">
        <ele>239</ele>
        <time>2011-03-20T09:47:42</time>
      </trkpt>
      <trkpt lat="44.44937" lon="1.47701">
        <ele>239</ele>
        <time>2011-03-20T09:47:43</time>
      </trkpt>
      <trkpt lat="44.44944" lon="1.47699">
        <ele>239</ele>
        <time>2011-03-20T09:47:45</time>
      </trkpt>
      <trkpt lat="44.44946" lon="1.47698">
        <ele>239</ele>
        <time>2011-03-20T09:47:46</time>
      </trkpt>
      <trkpt lat="44.44949" lon="1.47698">
        <ele>239</ele>
        <time>2011-03-20T09:47:47</time>
      </trkpt>
      <trkpt lat="44.44955" lon="1.47697">
        <ele>239</ele>
        <time>2011-03-20T09:47:49</time>
      </trkpt>
      <trkpt lat="44.44958" lon="1.47697">
        <ele>239</ele>
        <time>2011-03-20T09:47:50</time>
      </trkpt>
      <trkpt lat="44.44962" lon="1.47698">
        <ele>213</ele>
        <time>2011-03-20T09:47:51</time>
      </trkpt>
      <trkpt lat="44.44966" lon="1.47695">
        <ele>213</ele>
        <time>2011-03-20T09:47:54</time>
      </trkpt>
      <trkpt lat="44.44972" lon="1.47695">
        <ele>213</ele>
        <time>2011-03-20T09:48:03</time>
      </trkpt>
      <trkpt lat="44.44974" lon="1.47692">
        <ele>213</ele>
        <time>2011-03-20T09:48:05</time>
      </trkpt>
      <trkpt lat="44.44978" lon="1.47687">
        <ele>213</ele>
        <time>2011-03-20T09:48:07</time>
      </trkpt>
      <trkpt lat="44.4498" lon="1.47683">
        <ele>213</ele>
        <time>2011-03-20T09:48:08</time>
      </trkpt>
      <trkpt lat="44.44985" lon="1.47676">
        <ele>213</ele>
        <time>2011-03-20T09:48:10</time>
      </trkpt>
      <trkpt lat="44.4499" lon="1.47672">
        <ele>213</ele>
        <time>2011-03-20T09:48:11</time>
      </trkpt>
      <trkpt lat="44.44999" lon="1.47658">
        <ele>213</ele>
        <time>2011-03-20T09:48:13</time>
      </trkpt>
      <trkpt lat="44.45003" lon="1.47651">
        <ele>213</ele>
        <time>2011-03-20T09:48:14</time>
      </trkpt>
      <trkpt lat="44.45011" lon="1.47636">
        <ele>213</ele>
        <time>2011-03-20T09:48:16</time>
      </trkpt>
      <trkpt lat="44.45019" lon="1.47619">
        <ele>224</ele>
        <time>2011-03-20T09:48:18</time>
      </trkpt>
      <trkpt lat="44.45023" lon="1.47611">
        <ele>224</ele>
        <time>2011-03-20T09:48:19</time>
      </trkpt>
      <trkpt lat="44.45026" lon="1.47603">
        <ele>224</ele>
        <time>2011-03-20T09:48:20</time>
      </trkpt>
      <trkpt lat="44.4503" lon="1.47595">
        <ele>224</ele>
        <time>2011-03-20T09:48:21</time>
      </trkpt>
      <trkpt lat="44.45037" lon="1.47579">
        <ele>224</ele>
        <time>2011-03-20T09:48:23</time>
      </trkpt>
      <trkpt lat="44.45041" lon="1.47573">
        <ele>224</ele>
        <time>2011-03-20T09:48:24</time>
      </trkpt>
      <trkpt lat="44.45048" lon="1.47561">
        <ele>195</ele>
        <time>2011-03-20T09:48:26</time>
      </trkpt>
      <trkpt lat="44.45057" lon="1.4755">
        <ele>195</ele>
        <time>2011-03-20T09:48:28</time>
      </trkpt>
      <trkpt lat="44.45065" lon="1.47539">
        <ele>206</ele>
        <time>2011-03-20T09:48:30</time>
      </trkpt>
      <trkpt lat="44.45074" lon="1.4753">
        <ele>206</ele>
        <time>2011-03-20T09:48:32</time>
      </trkpt>
      <trkpt lat="44.45079" lon="1.47526">
        <ele>206</ele>
        <time>2011-03-20T09:48:33</time>
      </trkpt>
      <trkpt lat="44.45091" lon="1.47524">
        <ele>206</ele>
        <time>2011-03-20T09:48:35</time>
      </trkpt>
      <trkpt lat="44.45097" lon="1.47522">
        <ele>206</ele>
        <time>2011-03-20T09:48:36</time>
      </trkpt>
      <trkpt lat="44.4511" lon="1.47517">
        <ele>206</ele>
        <time>2011-03-20T09:48:38</time>
      </trkpt>
      <trkpt lat="44.45116" lon="1.47514">
        <ele>206</ele>
        <time>2011-03-20T09:48:39</time>
      </trkpt>
      <trkpt lat="44.45121" lon="1.47511">
        <ele>206</ele>
        <time>2011-03-20T09:48:40</time>
      </trkpt>
      <trkpt lat="44.45127" lon="1.47505">
        <ele>186</ele>
        <time>2011-03-20T09:48:41</time>
      </trkpt>
      <trkpt lat="44.45141" lon="1.47495">
        <ele>186</ele>
        <time>2011-03-20T09:48:43</time>
      </trkpt>
      <trkpt lat="44.45156" lon="1.47486">
        <ele>186</ele>
        <time>2011-03-20T09:48:45</time>
      </trkpt>
      <trkpt lat="44.45169" lon="1.47479">
        <ele>186</ele>
        <time>2011-03-20T09:48:47</time>
      </trkpt>
      <trkpt lat="44.45182" lon="1.47471">
        <ele>186</ele>
        <time>2011-03-20T09:48:49</time>
      </trkpt>
      <trkpt lat="44.45187" lon="1.47465">
        <ele>186</ele>
        <time>2011-03-20T09:48:50</time>
      </trkpt>
      <trkpt lat="44.45192" lon="1.47459">
        <ele>186</ele>
        <time>2011-03-20T09:48:51</time>
      </trkpt>
      <trkpt lat="44.45201" lon="1.47448">
        <ele>199</ele>
        <time>2011-03-20T09:48:53</time>
      </trkpt>
      <trkpt lat="44.45205" lon="1.47443">
        <ele>199</ele>
        <time>2011-03-20T09:48:54</time>
      </trkpt>
      <trkpt lat="44.45213" lon="1.47433">
        <ele>185</ele>
        <time>2011-03-20T09:48:56</time>
      </trkpt>
      <trkpt lat="44.45216" lon="1.47429">
        <ele>185</ele>
        <time>2011-03-20T09:48:57</time>
      </trkpt>
      <trkpt lat="44.45222" lon="1.47421">
        <ele>185</ele>
        <time>2011-03-20T09:48:59</time>
      </trkpt>
      <trkpt lat="44.45225" lon="1.47417">
        <ele>185</ele>
        <time>2011-03-20T09:49:00</time>
      </trkpt>
      <trkpt lat="44.45228" lon="1.47414">
        <ele>185</ele>
        <time>2011-03-20T09:49:01</time>
      </trkpt>
      <trkpt lat="44.45233" lon="1.47409">
        <ele>185</ele>
        <time>2011-03-20T09:49:03</time>
      </trkpt>
      <trkpt lat="44.45237" lon="1.47404">
        <ele>185</ele>
        <time>2011-03-20T09:49:09</time>
      </trkpt>
      <trkpt lat="44.45239" lon="1.47402">
        <ele>185</ele>
        <time>2011-03-20T09:49:23</time>
      </trkpt>
      <trkpt lat="44.4524" lon="1.47401">
        <ele>185</ele>
        <time>2011-03-20T09:49:24</time>
      </trkpt>
      <trkpt lat="44.45244" lon="1.47396">
        <ele>185</ele>
        <time>2011-03-20T09:49:26</time>
      </trkpt>
      <trkpt lat="44.45247" lon="1.47392">
        <ele>185</ele>
        <time>2011-03-20T09:49:27</time>
      </trkpt>
      <trkpt lat="44.4525" lon="1.47389">
        <ele>185</ele>
        <time>2011-03-20T09:49:28</time>
      </trkpt>
      <trkpt lat="44.45256" lon="1.47382">
        <ele>185</ele>
        <time>2011-03-20T09:49:30</time>
      </trkpt>
      <trkpt lat="44.45261" lon="1.47376">
        <ele>185</ele>
        <time>2011-03-20T09:49:32</time>
      </trkpt>
      <trkpt lat="44.45267" lon="1.47371">
        <ele>201</ele>
        <time>2011-03-20T09:49:34</time>
      </trkpt>
      <trkpt lat="44.45273" lon="1.47364">
        <ele>201</ele>
        <time>2011-03-20T09:49:36</time>
      </trkpt>
      <trkpt lat="44.45276" lon="1.47361">
        <ele>201</ele>
        <time>2011-03-20T09:49:37</time>
      </trkpt>
      <trkpt lat="44.45279" lon="1.47358">
        <ele>201</ele>
        <time>2011-03-20T09:49:38</time>
      </trkpt>
      <trkpt lat="44.45282" lon="1.47355">
        <ele>201</ele>
        <time>2011-03-20T09:49:39</time>
      </trkpt>
      <trkpt lat="44.45289" lon="1.47348">
        <ele>201</ele>
        <time>2011-03-20T09:49:41</time>
      </trkpt>
      <trkpt lat="44.45293" lon="1.47345">
        <ele>186</ele>
        <time>2011-03-20T09:49:42</time>
      </trkpt>
      <trkpt lat="44.45299" lon="1.47338">
        <ele>186</ele>
        <time>2011-03-20T09:49:44</time>
      </trkpt>
      <trkpt lat="44.45306" lon="1.47331">
        <ele>186</ele>
        <time>2011-03-20T09:49:46</time>
      </trkpt>
      <trkpt lat="44.4531" lon="1.47327">
        <ele>186</ele>
        <time>2011-03-20T09:49:47</time>
      </trkpt>
      <trkpt lat="44.45318" lon="1.4732">
        <ele>186</ele>
        <time>2011-03-20T09:49:49</time>
      </trkpt>
      <trkpt lat="44.45322" lon="1.47317">
        <ele>186</ele>
        <time>2011-03-20T09:49:50</time>
      </trkpt>
      <trkpt lat="44.45327" lon="1.47314">
        <ele>186</ele>
        <time>2011-03-20T09:49:51</time>
      </trkpt>
      <trkpt lat="44.45336" lon="1.47307">
        <ele>186</ele>
        <time>2011-03-20T09:49:53</time>
      </trkpt>
      <trkpt lat="44.45346" lon="1.473">
        <ele>186</ele>
        <time>2011-03-20T09:49:55</time>
      </trkpt>
      <trkpt lat="44.45354" lon="1.47294">
        <ele>186</ele>
        <time>2011-03-20T09:49:57</time>
      </trkpt>
      <trkpt lat="44.45362" lon="1.47287">
        <ele>204</ele>
        <time>2011-03-20T09:49:59</time>
      </trkpt>
      <trkpt lat="44.45366" lon="1.47284">
        <ele>204</ele>
        <time>2011-03-20T09:50:00</time>
      </trkpt>
      <trkpt lat="44.45371" lon="1.47282">
        <ele>204</ele>
        <time>2011-03-20T09:50:01</time>
      </trkpt>
      <trkpt lat="44.4538" lon="1.47277">
        <ele>196</ele>
        <time>2011-03-20T09:50:03</time>
      </trkpt>
      <trkpt lat="44.45385" lon="1.47275">
        <ele>196</ele>
        <time>2011-03-20T09:50:04</time>
      </trkpt>
      <trkpt lat="44.45389" lon="1.47273">
        <ele>196</ele>
        <time>2011-03-20T09:50:05</time>
      </trkpt>
      <trkpt lat="44.45398" lon="1.47268">
        <ele>196</ele>
        <time>2011-03-20T09:50:07</time>
      </trkpt>
      <trkpt lat="44.45402" lon="1.47266">
        <ele>196</ele>
        <time>2011-03-20T09:50:08</time>
      </trkpt>
      <trkpt lat="44.45411" lon="1.47262">
        <ele>196</ele>
        <time>2011-03-20T09:50:10</time>
      </trkpt>
      <trkpt lat="44.45415" lon="1.47259">
        <ele>196</ele>
        <time>2011-03-20T09:50:11</time>
      </trkpt>
      <trkpt lat="44.45423" lon="1.47255">
        <ele>196</ele>
        <time>2011-03-20T09:50:13</time>
      </trkpt>
      <trkpt lat="44.45427" lon="1.47253">
        <ele>196</ele>
        <time>2011-03-20T09:50:14</time>
      </trkpt>
      <trkpt lat="44.45436" lon="1.47249">
        <ele>196</ele>
        <time>2011-03-20T09:50:16</time>
      </trkpt>
      <trkpt lat="44.45444" lon="1.47245">
        <ele>196</ele>
        <time>2011-03-20T09:50:18</time>
      </trkpt>
      <trkpt lat="44.45452" lon="1.47242">
        <ele>196</ele>
        <time>2011-03-20T09:50:20</time>
      </trkpt>
      <trkpt lat="44.45455" lon="1.4724">
        <ele>196</ele>
        <time>2011-03-20T09:50:21</time>
      </trkpt>
      <trkpt lat="44.45462" lon="1.47237">
        <ele>191</ele>
        <time>2011-03-20T09:50:23</time>
      </trkpt>
      <trkpt lat="44.45465" lon="1.47236">
        <ele>191</ele>
        <time>2011-03-20T09:50:24</time>
      </trkpt>
      <trkpt lat="44.45468" lon="1.47234">
        <ele>191</ele>
        <time>2011-03-20T09:50:25</time>
      </trkpt>
      <trkpt lat="44.45476" lon="1.47231">
        <ele>191</ele>
        <time>2011-03-20T09:50:27</time>
      </trkpt>
      <trkpt lat="44.4548" lon="1.47229">
        <ele>191</ele>
        <time>2011-03-20T09:50:28</time>
      </trkpt>
      <trkpt lat="44.45483" lon="1.47227">
        <ele>191</ele>
        <time>2011-03-20T09:50:29</time>
      </trkpt>
      <trkpt lat="44.45485" lon="1.47226">
        <ele>191</ele>
        <time>2011-03-20T09:50:30</time>
      </trkpt>
      <trkpt lat="44.45486" lon="1.47226">
        <ele>191</ele>
        <time>2011-03-20T09:50:41</time>
      </trkpt>
      <trkpt lat="44.45491" lon="1.47224">
        <ele>191</ele>
        <time>2011-03-20T09:50:43</time>
      </trkpt>
      <trkpt lat="44.45493" lon="1.47223">
        <ele>191</ele>
        <time>2011-03-20T09:50:44</time>
      </trkpt>
      <trkpt lat="44.45495" lon="1.47222">
        <ele>191</ele>
        <time>2011-03-20T09:50:45</time>
      </trkpt>
      <trkpt lat="44.455" lon="1.47218">
        <ele>191</ele>
        <time>2011-03-20T09:50:47</time>
      </trkpt>
      <trkpt lat="44.45503" lon="1.47217">
        <ele>191</ele>
        <time>2011-03-20T09:50:48</time>
      </trkpt>
      <trkpt lat="44.45509" lon="1.47213">
        <ele>191</ele>
        <time>2011-03-20T09:50:50</time>
      </trkpt>
      <trkpt lat="44.45513" lon="1.47212">
        <ele>191</ele>
        <time>2011-03-20T09:50:51</time>
      </trkpt>
      <trkpt lat="44.45521" lon="1.4721">
        <ele>191</ele>
        <time>2011-03-20T09:50:53</time>
      </trkpt>
      <trkpt lat="44.45525" lon="1.47209">
        <ele>191</ele>
        <time>2011-03-20T09:50:54</time>
      </trkpt>
      <trkpt lat="44.45533" lon="1.47209">
        <ele>191</ele>
        <time>2011-03-20T09:50:56</time>
      </trkpt>
      <trkpt lat="44.4554" lon="1.47208">
        <ele>207</ele>
        <time>2011-03-20T09:50:58</time>
      </trkpt>
      <trkpt lat="44.45544" lon="1.47208">
        <ele>199</ele>
        <time>2011-03-20T09:50:59</time>
      </trkpt>
      <trkpt lat="44.45552" lon="1.47207">
        <ele>199</ele>
        <time>2011-03-20T09:51:01</time>
      </trkpt>
      <trkpt lat="44.4556" lon="1.47207">
        <ele>199</ele>
        <time>2011-03-20T09:51:03</time>
      </trkpt>
      <trkpt lat="44.45569" lon="1.47206">
        <ele>199</ele>
        <time>2011-03-20T09:51:05</time>
      </trkpt>
      <trkpt lat="44.45574" lon="1.47206">
        <ele>199</ele>
        <time>2011-03-20T09:51:06</time>
      </trkpt>
      <trkpt lat="44.45582" lon="1.47204">
        <ele>199</ele>
        <time>2011-03-20T09:51:08</time>
      </trkpt>
      <trkpt lat="44.45592" lon="1.47203">
        <ele>199</ele>
        <time>2011-03-20T09:51:10</time>
      </trkpt>
      <trkpt lat="44.45596" lon="1.47202">
        <ele>199</ele>
        <time>2011-03-20T09:51:11</time>
      </trkpt>
      <trkpt lat="44.45601" lon="1.47202">
        <ele>199</ele>
        <time>2011-03-20T09:51:12</time>
      </trkpt>
      <trkpt lat="44.45611" lon="1.47201">
        <ele>199</ele>
        <time>2011-03-20T09:51:14</time>
      </trkpt>
      <trkpt lat="44.45621" lon="1.47204">
        <ele>199</ele>
        <time>2011-03-20T09:51:16</time>
      </trkpt>
      <trkpt lat="44.45627" lon="1.47206">
        <ele>194</ele>
        <time>2011-03-20T09:51:17</time>
      </trkpt>
      <trkpt lat="44.45631" lon="1.47207">
        <ele>194</ele>
        <time>2011-03-20T09:51:18</time>
      </trkpt>
      <trkpt lat="44.45636" lon="1.47208">
        <ele>194</ele>
        <time>2011-03-20T09:51:19</time>
      </trkpt>
      <trkpt lat="44.45645" lon="1.47209">
        <ele>177</ele>
        <time>2011-03-20T09:51:21</time>
      </trkpt>
      <trkpt lat="44.45649" lon="1.47209">
        <ele>177</ele>
        <time>2011-03-20T09:51:22</time>
      </trkpt>
      <trkpt lat="44.45657" lon="1.4721">
        <ele>177</ele>
        <time>2011-03-20T09:51:24</time>
      </trkpt>
      <trkpt lat="44.45661" lon="1.4721">
        <ele>177</ele>
        <time>2011-03-20T09:51:25</time>
      </trkpt>
      <trkpt lat="44.45665" lon="1.4721">
        <ele>177</ele>
        <time>2011-03-20T09:51:26</time>
      </trkpt>
      <trkpt lat="44.4567" lon="1.4721">
        <ele>177</ele>
        <time>2011-03-20T09:51:27</time>
      </trkpt>
      <trkpt lat="44.45679" lon="1.47212">
        <ele>177</ele>
        <time>2011-03-20T09:51:29</time>
      </trkpt>
      <trkpt lat="44.45688" lon="1.47213">
        <ele>177</ele>
        <time>2011-03-20T09:51:31</time>
      </trkpt>
      <trkpt lat="44.45698" lon="1.47215">
        <ele>177</ele>
        <time>2011-03-20T09:51:33</time>
      </trkpt>
      <trkpt lat="44.45704" lon="1.47215">
        <ele>177</ele>
        <time>2011-03-20T09:51:34</time>
      </trkpt>
      <trkpt lat="44.4571" lon="1.47216">
        <ele>173</ele>
        <time>2011-03-20T09:51:35</time>
      </trkpt>
      <trkpt lat="44.45716" lon="1.47216">
        <ele>173</ele>
        <time>2011-03-20T09:51:36</time>
      </trkpt>
      <trkpt lat="44.45728" lon="1.47217">
        <ele>173</ele>
        <time>2011-03-20T09:51:38</time>
      </trkpt>
      <trkpt lat="44.45735" lon="1.47217">
        <ele>173</ele>
        <time>2011-03-20T09:51:39</time>
      </trkpt>
      <trkpt lat="44.45748" lon="1.47219">
        <ele>173</ele>
        <time>2011-03-20T09:51:41</time>
      </trkpt>
      <trkpt lat="44.45756" lon="1.4722">
        <ele>173</ele>
        <time>2011-03-20T09:51:42</time>
      </trkpt>
      <trkpt lat="44.45762" lon="1.47221">
        <ele>173</ele>
        <time>2011-03-20T09:51:43</time>
      </trkpt>
      <trkpt lat="44.45777" lon="1.47224">
        <ele>173</ele>
        <time>2011-03-20T09:51:45</time>
      </trkpt>
      <trkpt lat="44.45791" lon="1.47227">
        <ele>173</ele>
        <time>2011-03-20T09:51:47</time>
      </trkpt>
      <trkpt lat="44.45805" lon="1.47231">
        <ele>168</ele>
        <time>2011-03-20T09:51:49</time>
      </trkpt>
      <trkpt lat="44.45816" lon="1.47234">
        <ele>168</ele>
        <time>2011-03-20T09:51:51</time>
      </trkpt>
      <trkpt lat="44.45822" lon="1.47234">
        <ele>168</ele>
        <time>2011-03-20T09:51:52</time>
      </trkpt>
      <trkpt lat="44.45828" lon="1.47235">
        <ele>168</ele>
        <time>2011-03-20T09:51:53</time>
      </trkpt>
      <trkpt lat="44.45841" lon="1.47234">
        <ele>168</ele>
        <time>2011-03-20T09:51:55</time>
      </trkpt>
      <trkpt lat="44.45847" lon="1.47234">
        <ele>168</ele>
        <time>2011-03-20T09:51:56</time>
      </trkpt>
      <trkpt lat="44.45859" lon="1.47236">
        <ele>168</ele>
        <time>2011-03-20T09:51:58</time>
      </trkpt>
      <trkpt lat="44.45865" lon="1.47236">
        <ele>168</ele>
        <time>2011-03-20T09:51:59</time>
      </trkpt>
      <trkpt lat="44.45872" lon="1.47236">
        <ele>168</ele>
        <time>2011-03-20T09:52:00</time>
      </trkpt>
      <trkpt lat="44.45885" lon="1.47243">
        <ele>165</ele>
        <time>2011-03-20T09:52:02</time>
      </trkpt>
      <trkpt lat="44.45898" lon="1.47251">
        <ele>165</ele>
        <time>2011-03-20T09:52:04</time>
      </trkpt>
      <trkpt lat="44.45903" lon="1.47254">
        <ele>165</ele>
        <time>2011-03-20T09:52:05</time>
      </trkpt>
      <trkpt lat="44.45917" lon="1.47257">
        <ele>165</ele>
        <time>2011-03-20T09:52:07</time>
      </trkpt>
      <trkpt lat="44.45931" lon="1.47257">
        <ele>165</ele>
        <time>2011-03-20T09:52:09</time>
      </trkpt>
      <trkpt lat="44.45936" lon="1.47256">
        <ele>165</ele>
        <time>2011-03-20T09:52:10</time>
      </trkpt>
      <trkpt lat="44.45947" lon="1.47262">
        <ele>165</ele>
        <time>2011-03-20T09:52:13</time>
      </trkpt>
      <trkpt lat="44.45953" lon="1.47266">
        <ele>165</ele>
        <time>2011-03-20T09:52:15</time>
      </trkpt>
      <trkpt lat="44.45959" lon="1.47273">
        <ele>159</ele>
        <time>2011-03-20T09:52:17</time>
      </trkpt>
      <trkpt lat="44.45961" lon="1.47278">
        <ele>159</ele>
        <time>2011-03-20T09:52:18</time>
      </trkpt>
      <trkpt lat="44.45963" lon="1.47284">
        <ele>159</ele>
        <time>2011-03-20T09:52:19</time>
      </trkpt>
      <trkpt lat="44.45967" lon="1.47298">
        <ele>157</ele>
        <time>2011-03-20T09:52:21</time>
      </trkpt>
      <trkpt lat="44.4597" lon="1.4731">
        <ele>157</ele>
        <time>2011-03-20T09:52:23</time>
      </trkpt>
      <trkpt lat="44.45974" lon="1.47324">
        <ele>157</ele>
        <time>2011-03-20T09:52:25</time>
      </trkpt>
      <trkpt lat="44.45976" lon="1.47331">
        <ele>157</ele>
        <time>2011-03-20T09:52:26</time>
      </trkpt>
      <trkpt lat="44.45979" lon="1.47343">
        <ele>157</ele>
        <time>2011-03-20T09:52:28</time>
      </trkpt>
      <trkpt lat="44.45981" lon="1.4735">
        <ele>157</ele>
        <time>2011-03-20T09:52:29</time>
      </trkpt>
      <trkpt lat="44.45983" lon="1.47363">
        <ele>157</ele>
        <time>2011-03-20T09:52:31</time>
      </trkpt>
      <trkpt lat="44.45984" lon="1.47371">
        <ele>157</ele>
        <time>2011-03-20T09:52:32</time>
      </trkpt>
      <trkpt lat="44.45984" lon="1.47378">
        <ele>156</ele>
        <time>2011-03-20T09:52:33</time>
      </trkpt>
      <trkpt lat="44.45983" lon="1.47391">
        <ele>156</ele>
        <time>2011-03-20T09:52:35</time>
      </trkpt>
      <trkpt lat="44.45982" lon="1.47398">
        <ele>156</ele>
        <time>2011-03-20T09:52:36</time>
      </trkpt>
      <trkpt lat="44.45982" lon="1.47405">
        <ele>156</ele>
        <time>2011-03-20T09:52:37</time>
      </trkpt>
      <trkpt lat="44.45983" lon="1.47418">
        <ele>156</ele>
        <time>2011-03-20T09:52:39</time>
      </trkpt>
      <trkpt lat="44.45984" lon="1.47424">
        <ele>156</ele>
        <time>2011-03-20T09:52:40</time>
      </trkpt>
      <trkpt lat="44.45984" lon="1.47429">
        <ele>156</ele>
        <time>2011-03-20T09:52:41</time>
      </trkpt>
      <trkpt lat="44.45981" lon="1.47436">
        <ele>156</ele>
        <time>2011-03-20T09:52:43</time>
      </trkpt>
      <trkpt lat="44.45974" lon="1.47439">
        <ele>156</ele>
        <time>2011-03-20T09:52:45</time>
      </trkpt>
      <trkpt lat="44.45971" lon="1.4744">
        <ele>156</ele>
        <time>2011-03-20T09:52:46</time>
      </trkpt>
      <trkpt lat="44.45963" lon="1.47443">
        <ele>156</ele>
        <time>2011-03-20T09:52:48</time>
      </trkpt>
      <trkpt lat="44.45959" lon="1.47444">
        <ele>156</ele>
        <time>2011-03-20T09:52:49</time>
      </trkpt>
      <trkpt lat="44.4595" lon="1.47448">
        <ele>158</ele>
        <time>2011-03-20T09:52:51</time>
      </trkpt>
      <trkpt lat="44.4594" lon="1.47451">
        <ele>158</ele>
        <time>2011-03-20T09:52:53</time>
      </trkpt>
      <trkpt lat="44.45936" lon="1.47452">
        <ele>158</ele>
        <time>2011-03-20T09:52:54</time>
      </trkpt>
      <trkpt lat="44.45926" lon="1.47455">
        <ele>158</ele>
        <time>2011-03-20T09:52:56</time>
      </trkpt>
      <trkpt lat="44.45921" lon="1.47456">
        <ele>158</ele>
        <time>2011-03-20T09:52:57</time>
      </trkpt>
      <trkpt lat="44.45911" lon="1.47459">
        <ele>159</ele>
        <time>2011-03-20T09:52:59</time>
      </trkpt>
      <trkpt lat="44.45901" lon="1.47462">
        <ele>159</ele>
        <time>2011-03-20T09:53:01</time>
      </trkpt>
      <trkpt lat="44.45897" lon="1.47464">
        <ele>159</ele>
        <time>2011-03-20T09:53:02</time>
      </trkpt>
      <trkpt lat="44.45888" lon="1.47468">
        <ele>159</ele>
        <time>2011-03-20T09:53:04</time>
      </trkpt>
      <trkpt lat="44.45884" lon="1.4747">
        <ele>159</ele>
        <time>2011-03-20T09:53:05</time>
      </trkpt>
      <trkpt lat="44.45879" lon="1.47471">
        <ele>159</ele>
        <time>2011-03-20T09:53:06</time>
      </trkpt>
      <trkpt lat="44.45875" lon="1.47472">
        <ele>160</ele>
        <time>2011-03-20T09:53:07</time>
      </trkpt>
      <trkpt lat="44.45867" lon="1.47475">
        <ele>160</ele>
        <time>2011-03-20T09:53:09</time>
      </trkpt>
      <trkpt lat="44.45858" lon="1.47479">
        <ele>160</ele>
        <time>2011-03-20T09:53:11</time>
      </trkpt>
      <trkpt lat="44.45854" lon="1.47482">
        <ele>160</ele>
        <time>2011-03-20T09:53:12</time>
      </trkpt>
      <trkpt lat="44.45847" lon="1.47487">
        <ele>160</ele>
        <time>2011-03-20T09:53:14</time>
      </trkpt>
      <trkpt lat="44.45844" lon="1.47491">
        <ele>160</ele>
        <time>2011-03-20T09:53:15</time>
      </trkpt>
      <trkpt lat="44.45838" lon="1.47497">
        <ele>160</ele>
        <time>2011-03-20T09:53:17</time>
      </trkpt>
      <trkpt lat="44.45835" lon="1.47501">
        <ele>160</ele>
        <time>2011-03-20T09:53:18</time>
      </trkpt>
      <trkpt lat="44.45832" lon="1.47504">
        <ele>160</ele>
        <time>2011-03-20T09:53:19</time>
      </trkpt>
      <trkpt lat="44.4583" lon="1.47508">
        <ele>160</ele>
        <time>2011-03-20T09:53:20</time>
      </trkpt>
      <trkpt lat="44.45825" lon="1.47515">
        <ele>160</ele>
        <time>2011-03-20T09:53:22</time>
      </trkpt>
      <trkpt lat="44.45821" lon="1.47521">
        <ele>160</ele>
        <time>2011-03-20T09:53:24</time>
      </trkpt>
      <trkpt lat="44.45819" lon="1.47524">
        <ele>160</ele>
        <time>2011-03-20T09:53:25</time>
      </trkpt>
      <trkpt lat="44.45816" lon="1.47532">
        <ele>160</ele>
        <time>2011-03-20T09:53:27</time>
      </trkpt>
      <trkpt lat="44.45814" lon="1.4754">
        <ele>160</ele>
        <time>2011-03-20T09:53:29</time>
      </trkpt>
      <trkpt lat="44.45813" lon="1.47548">
        <ele>165</ele>
        <time>2011-03-20T09:53:31</time>
      </trkpt>
      <trkpt lat="44.45813" lon="1.47551">
        <ele>165</ele>
        <time>2011-03-20T09:53:32</time>
      </trkpt>
      <trkpt lat="44.45812" lon="1.47558">
        <ele>165</ele>
        <time>2011-03-20T09:53:34</time>
      </trkpt>
      <trkpt lat="44.45812" lon="1.47561">
        <ele>165</ele>
        <time>2011-03-20T09:53:35</time>
      </trkpt>
      <trkpt lat="44.45811" lon="1.47567">
        <ele>165</ele>
        <time>2011-03-20T09:53:37</time>
      </trkpt>
      <trkpt lat="44.45808" lon="1.47572">
        <ele>165</ele>
        <time>2011-03-20T09:53:39</time>
      </trkpt>
      <trkpt lat="44.45803" lon="1.47575">
        <ele>165</ele>
        <time>2011-03-20T09:53:42</time>
      </trkpt>
      <trkpt lat="44.45799" lon="1.47577">
        <ele>165</ele>
        <time>2011-03-20T09:53:44</time>
      </trkpt>
      <trkpt lat="44.45795" lon="1.47577">
        <ele>165</ele>
        <time>2011-03-20T09:53:46</time>
      </trkpt>
      <trkpt lat="44.45791" lon="1.47578">
        <ele>165</ele>
        <time>2011-03-20T09:53:48</time>
      </trkpt>
      <trkpt lat="44.45786" lon="1.4758">
        <ele>165</ele>
        <time>2011-03-20T09:53:50</time>
      </trkpt>
      <trkpt lat="44.4578" lon="1.47581">
        <ele>165</ele>
        <time>2011-03-20T09:53:52</time>
      </trkpt>
      <trkpt lat="44.45778" lon="1.47582">
        <ele>165</ele>
        <time>2011-03-20T09:53:53</time>
      </trkpt>
      <trkpt lat="44.45772" lon="1.47583">
        <ele>165</ele>
        <time>2011-03-20T09:53:55</time>
      </trkpt>
      <trkpt lat="44.45766" lon="1.47584">
        <ele>165</ele>
        <time>2011-03-20T09:53:57</time>
      </trkpt>
      <trkpt lat="44.45762" lon="1.47584">
        <ele>165</ele>
        <time>2011-03-20T09:53:58</time>
      </trkpt>
      <trkpt lat="44.45759" lon="1.47584">
        <ele>165</ele>
        <time>2011-03-20T09:53:59</time>
      </trkpt>
      <trkpt lat="44.45755" lon="1.47584">
        <ele>165</ele>
        <time>2011-03-20T09:54:00</time>
      </trkpt>
      <trkpt lat="44.45749" lon="1.47585">
        <ele>165</ele>
        <time>2011-03-20T09:54:02</time>
      </trkpt>
      <trkpt lat="44.45746" lon="1.47586">
        <ele>165</ele>
        <time>2011-03-20T09:54:03</time>
      </trkpt>
      <trkpt lat="44.4574" lon="1.47588">
        <ele>165</ele>
        <time>2011-03-20T09:54:05</time>
      </trkpt>
      <trkpt lat="44.45737" lon="1.47589">
        <ele>165</ele>
        <time>2011-03-20T09:54:06</time>
      </trkpt>
      <trkpt lat="44.4573" lon="1.4759">
        <ele>165</ele>
        <time>2011-03-20T09:54:08</time>
      </trkpt>
      <trkpt lat="44.45722" lon="1.47591">
        <ele>165</ele>
        <time>2011-03-20T09:54:10</time>
      </trkpt>
      <trkpt lat="44.45715" lon="1.47591">
        <ele>165</ele>
        <time>2011-03-20T09:54:12</time>
      </trkpt>
      <trkpt lat="44.4571" lon="1.4759">
        <ele>165</ele>
        <time>2011-03-20T09:54:13</time>
      </trkpt>
      <trkpt lat="44.45706" lon="1.4759">
        <ele>163</ele>
        <time>2011-03-20T09:54:14</time>
      </trkpt>
      <trkpt lat="44.45697" lon="1.47589">
        <ele>163</ele>
        <time>2011-03-20T09:54:16</time>
      </trkpt>
      <trkpt lat="44.45693" lon="1.47588">
        <ele>163</ele>
        <time>2011-03-20T09:54:17</time>
      </trkpt>
      <trkpt lat="44.45686" lon="1.47587">
        <ele>163</ele>
        <time>2011-03-20T09:54:19</time>
      </trkpt>
      <trkpt lat="44.45682" lon="1.47586">
        <ele>163</ele>
        <time>2011-03-20T09:54:20</time>
      </trkpt>
      <trkpt lat="44.45679" lon="1.47584">
        <ele>163</ele>
        <time>2011-03-20T09:54:21</time>
      </trkpt>
      <trkpt lat="44.45672" lon="1.47579">
        <ele>163</ele>
        <time>2011-03-20T09:54:23</time>
      </trkpt>
      <trkpt lat="44.45668" lon="1.47577">
        <ele>163</ele>
        <time>2011-03-20T09:54:24</time>
      </trkpt>
      <trkpt lat="44.45665" lon="1.47574">
        <ele>163</ele>
        <time>2011-03-20T09:54:25</time>
      </trkpt>
      <trkpt lat="44.4566" lon="1.47565">
        <ele>163</ele>
        <time>2011-03-20T09:54:27</time>
      </trkpt>
      <trkpt lat="44.45657" lon="1.4756">
        <ele>163</ele>
        <time>2011-03-20T09:54:28</time>
      </trkpt>
      <trkpt lat="44.45655" lon="1.47554">
        <ele>163</ele>
        <time>2011-03-20T09:54:29</time>
      </trkpt>
      <trkpt lat="44.4565" lon="1.47543">
        <ele>163</ele>
        <time>2011-03-20T09:54:31</time>
      </trkpt>
      <trkpt lat="44.45646" lon="1.47531">
        <ele>161</ele>
        <time>2011-03-20T09:54:33</time>
      </trkpt>
      <trkpt lat="44.45644" lon="1.47524">
        <ele>161</ele>
        <time>2011-03-20T09:54:34</time>
      </trkpt>
      <trkpt lat="44.45642" lon="1.47518">
        <ele>161</ele>
        <time>2011-03-20T09:54:35</time>
      </trkpt>
      <trkpt lat="44.45638" lon="1.47505">
        <ele>161</ele>
        <time>2011-03-20T09:54:37</time>
      </trkpt>
      <trkpt lat="44.45636" lon="1.47498">
        <ele>161</ele>
        <time>2011-03-20T09:54:38</time>
      </trkpt>
      <trkpt lat="44.45633" lon="1.47487">
        <ele>161</ele>
        <time>2011-03-20T09:54:40</time>
      </trkpt>
      <trkpt lat="44.45632" lon="1.47483">
        <ele>161</ele>
        <time>2011-03-20T09:54:41</time>
      </trkpt>
      <trkpt lat="44.45628" lon="1.47475">
        <ele>161</ele>
        <time>2011-03-20T09:54:43</time>
      </trkpt>
      <trkpt lat="44.45626" lon="1.47473">
        <ele>161</ele>
        <time>2011-03-20T09:54:44</time>
      </trkpt>
      <trkpt lat="44.45621" lon="1.47471">
        <ele>164</ele>
        <time>2011-03-20T09:54:46</time>
      </trkpt>
      <trkpt lat="44.45618" lon="1.47471">
        <ele>164</ele>
        <time>2011-03-20T09:54:47</time>
      </trkpt>
      <trkpt lat="44.45616" lon="1.47472">
        <ele>164</ele>
        <time>2011-03-20T09:54:48</time>
      </trkpt>
      <trkpt lat="44.4561" lon="1.47475">
        <ele>164</ele>
        <time>2011-03-20T09:54:50</time>
      </trkpt>
      <trkpt lat="44.45607" lon="1.47477">
        <ele>164</ele>
        <time>2011-03-20T09:54:51</time>
      </trkpt>
      <trkpt lat="44.456" lon="1.47482">
        <ele>164</ele>
        <time>2011-03-20T09:54:53</time>
      </trkpt>
      <trkpt lat="44.45597" lon="1.47484">
        <ele>164</ele>
        <time>2011-03-20T09:54:54</time>
      </trkpt>
      <trkpt lat="44.45593" lon="1.47486">
        <ele>164</ele>
        <time>2011-03-20T09:54:55</time>
      </trkpt>
      <trkpt lat="44.45585" lon="1.4749">
        <ele>164</ele>
        <time>2011-03-20T09:54:57</time>
      </trkpt>
      <trkpt lat="44.45581" lon="1.47492">
        <ele>164</ele>
        <time>2011-03-20T09:54:58</time>
      </trkpt>
      <trkpt lat="44.45578" lon="1.47494">
        <ele>164</ele>
        <time>2011-03-20T09:54:59</time>
      </trkpt>
      <trkpt lat="44.4557" lon="1.47497">
        <ele>164</ele>
        <time>2011-03-20T09:55:01</time>
      </trkpt>
      <trkpt lat="44.45563" lon="1.47501">
        <ele>164</ele>
        <time>2011-03-20T09:55:03</time>
      </trkpt>
      <trkpt lat="44.4556" lon="1.47503">
        <ele>164</ele>
        <time>2011-03-20T09:55:04</time>
      </trkpt>
      <trkpt lat="44.45553" lon="1.47507">
        <ele>164</ele>
        <time>2011-03-20T09:55:06</time>
      </trkpt>
      <trkpt lat="44.4555" lon="1.47509">
        <ele>164</ele>
        <time>2011-03-20T09:55:07</time>
      </trkpt>
      <trkpt lat="44.45546" lon="1.47511">
        <ele>164</ele>
        <time>2011-03-20T09:55:08</time>
      </trkpt>
      <trkpt lat="44.45543" lon="1.47513">
        <ele>164</ele>
        <time>2011-03-20T09:55:09</time>
      </trkpt>
      <trkpt lat="44.45536" lon="1.47516">
        <ele>166</ele>
        <time>2011-03-20T09:55:11</time>
      </trkpt>
      <trkpt lat="44.45533" lon="1.47518">
        <ele>166</ele>
        <time>2011-03-20T09:55:12</time>
      </trkpt>
      <trkpt lat="44.45526" lon="1.47522">
        <ele>166</ele>
        <time>2011-03-20T09:55:14</time>
      </trkpt>
      <trkpt lat="44.45523" lon="1.47523">
        <ele>166</ele>
        <time>2011-03-20T09:55:15</time>
      </trkpt>
      <trkpt lat="44.45517" lon="1.47527">
        <ele>166</ele>
        <time>2011-03-20T09:55:17</time>
      </trkpt>
      <trkpt lat="44.45513" lon="1.47529">
        <ele>166</ele>
        <time>2011-03-20T09:55:18</time>
      </trkpt>
      <trkpt lat="44.4551" lon="1.47531">
        <ele>166</ele>
        <time>2011-03-20T09:55:19</time>
      </trkpt>
      <trkpt lat="44.45507" lon="1.47533">
        <ele>166</ele>
        <time>2011-03-20T09:55:20</time>
      </trkpt>
      <trkpt lat="44.455" lon="1.47537">
        <ele>166</ele>
        <time>2011-03-20T09:55:22</time>
      </trkpt>
      <trkpt lat="44.45492" lon="1.47542">
        <ele>166</ele>
        <time>2011-03-20T09:55:24</time>
      </trkpt>
      <trkpt lat="44.45485" lon="1.47546">
        <ele>165</ele>
        <time>2011-03-20T09:55:26</time>
      </trkpt>
      <trkpt lat="44.45478" lon="1.47551">
        <ele>165</ele>
        <time>2011-03-20T09:55:28</time>
      </trkpt>
      <trkpt lat="44.45474" lon="1.47553">
        <ele>165</ele>
        <time>2011-03-20T09:55:29</time>
      </trkpt>
      <trkpt lat="44.4547" lon="1.47555">
        <ele>165</ele>
        <time>2011-03-20T09:55:30</time>
      </trkpt>
      <trkpt lat="44.45467" lon="1.47556">
        <ele>165</ele>
        <time>2011-03-20T09:55:31</time>
      </trkpt>
      <trkpt lat="44.45463" lon="1.47558">
        <ele>165</ele>
        <time>2011-03-20T09:55:32</time>
      </trkpt>
      <trkpt lat="44.45456" lon="1.4756">
        <ele>166</ele>
        <time>2011-03-20T09:55:34</time>
      </trkpt>
      <trkpt lat="44.45449" lon="1.47562">
        <ele>166</ele>
        <time>2011-03-20T09:55:36</time>
      </trkpt>
      <trkpt lat="44.45442" lon="1.47565">
        <ele>166</ele>
        <time>2011-03-20T09:55:38</time>
      </trkpt>
      <trkpt lat="44.45438" lon="1.47566">
        <ele>166</ele>
        <time>2011-03-20T09:55:39</time>
      </trkpt>
      <trkpt lat="44.45431" lon="1.47568">
        <ele>166</ele>
        <time>2011-03-20T09:55:41</time>
      </trkpt>
      <trkpt lat="44.45423" lon="1.4757">
        <ele>166</ele>
        <time>2011-03-20T09:55:43</time>
      </trkpt>
      <trkpt lat="44.45415" lon="1.47571">
        <ele>166</ele>
        <time>2011-03-20T09:55:45</time>
      </trkpt>
      <trkpt lat="44.45407" lon="1.47572">
        <ele>166</ele>
        <time>2011-03-20T09:55:47</time>
      </trkpt>
      <trkpt lat="44.45403" lon="1.47572">
        <ele>166</ele>
        <time>2011-03-20T09:55:48</time>
      </trkpt>
      <trkpt lat="44.45395" lon="1.47573">
        <ele>166</ele>
        <time>2011-03-20T09:55:50</time>
      </trkpt>
      <trkpt lat="44.45387" lon="1.47574">
        <ele>166</ele>
        <time>2011-03-20T09:55:52</time>
      </trkpt>
      <trkpt lat="44.45379" lon="1.47576">
        <ele>166</ele>
        <time>2011-03-20T09:55:54</time>
      </trkpt>
      <trkpt lat="44.45376" lon="1.47576">
        <ele>166</ele>
        <time>2011-03-20T09:55:55</time>
      </trkpt>
      <trkpt lat="44.45368" lon="1.47577">
        <ele>168</ele>
        <time>2011-03-20T09:55:57</time>
      </trkpt>
      <trkpt lat="44.45364" lon="1.47578">
        <ele>168</ele>
        <time>2011-03-20T09:55:58</time>
      </trkpt>
      <trkpt lat="44.45357" lon="1.47579">
        <ele>168</ele>
        <time>2011-03-20T09:56:00</time>
      </trkpt>
      <trkpt lat="44.45353" lon="1.47579">
        <ele>168</ele>
        <time>2011-03-20T09:56:01</time>
      </trkpt>
      <trkpt lat="44.45346" lon="1.4758">
        <ele>168</ele>
        <time>2011-03-20T09:56:03</time>
      </trkpt>
      <trkpt lat="44.45341" lon="1.4758">
        <ele>168</ele>
        <time>2011-03-20T09:56:04</time>
      </trkpt>
      <trkpt lat="44.45337" lon="1.4758">
        <ele>168</ele>
        <time>2011-03-20T09:56:05</time>
      </trkpt>
      <trkpt lat="44.45327" lon="1.4758">
        <ele>168</ele>
        <time>2011-03-20T09:56:07</time>
      </trkpt>
      <trkpt lat="44.45321" lon="1.4758">
        <ele>168</ele>
        <time>2011-03-20T09:56:08</time>
      </trkpt>
      <trkpt lat="44.45316" lon="1.4758">
        <ele>168</ele>
        <time>2011-03-20T09:56:09</time>
      </trkpt>
      <trkpt lat="44.45305" lon="1.4758">
        <ele>168</ele>
        <time>2011-03-20T09:56:11</time>
      </trkpt>
      <trkpt lat="44.45294" lon="1.47582">
        <ele>168</ele>
        <time>2011-03-20T09:56:13</time>
      </trkpt>
      <trkpt lat="44.45284" lon="1.47585">
        <ele>172</ele>
        <time>2011-03-20T09:56:15</time>
      </trkpt>
      <trkpt lat="44.4528" lon="1.47586">
        <ele>172</ele>
        <time>2011-03-20T09:56:16</time>
      </trkpt>
      <trkpt lat="44.45272" lon="1.47589">
        <ele>172</ele>
        <time>2011-03-20T09:56:18</time>
      </trkpt>
      <trkpt lat="44.45266" lon="1.47593">
        <ele>172</ele>
        <time>2011-03-20T09:56:20</time>
      </trkpt>
      <trkpt lat="44.45263" lon="1.47595">
        <ele>172</ele>
        <time>2011-03-20T09:56:21</time>
      </trkpt>
      <trkpt lat="44.4526" lon="1.47596">
        <ele>172</ele>
        <time>2011-03-20T09:56:22</time>
      </trkpt>
      <trkpt lat="44.45256" lon="1.47598">
        <ele>172</ele>
        <time>2011-03-20T09:56:24</time>
      </trkpt>
      <trkpt lat="44.45254" lon="1.47599">
        <ele>172</ele>
        <time>2011-03-20T09:56:25</time>
      </trkpt>
      <trkpt lat="44.45251" lon="1.476">
        <ele>172</ele>
        <time>2011-03-20T09:56:26</time>
      </trkpt>
      <trkpt lat="44.45248" lon="1.47601">
        <ele>172</ele>
        <time>2011-03-20T09:56:28</time>
      </trkpt>
      <trkpt lat="44.45245" lon="1.47604">
        <ele>172</ele>
        <time>2011-03-20T09:56:30</time>
      </trkpt>
      <trkpt lat="44.45243" lon="1.47607">
        <ele>172</ele>
        <time>2011-03-20T09:56:32</time>
      </trkpt>
      <trkpt lat="44.4524" lon="1.47611">
        <ele>172</ele>
        <time>2011-03-20T09:56:34</time>
      </trkpt>
      <trkpt lat="44.45238" lon="1.47614">
        <ele>172</ele>
        <time>2011-03-20T09:56:36</time>
      </trkpt>
      <trkpt lat="44.45235" lon="1.47617">
        <ele>172</ele>
        <time>2011-03-20T09:56:38</time>
      </trkpt>
      <trkpt lat="44.45231" lon="1.47621">
        <ele>172</ele>
        <time>2011-03-20T09:56:40</time>
      </trkpt>
      <trkpt lat="44.45229" lon="1.47622">
        <ele>172</ele>
        <time>2011-03-20T09:56:41</time>
      </trkpt>
      <trkpt lat="44.45224" lon="1.47625">
        <ele>174</ele>
        <time>2011-03-20T09:56:43</time>
      </trkpt>
      <trkpt lat="44.4522" lon="1.47628">
        <ele>174</ele>
        <time>2011-03-20T09:56:45</time>
      </trkpt>
      <trkpt lat="44.45216" lon="1.4763">
        <ele>174</ele>
        <time>2011-03-20T09:56:47</time>
      </trkpt>
      <trkpt lat="44.4521" lon="1.47632">
        <ele>174</ele>
        <time>2011-03-20T09:56:49</time>
      </trkpt>
      <trkpt lat="44.45202" lon="1.47636">
        <ele>173</ele>
        <time>2011-03-20T09:56:51</time>
      </trkpt>
      <trkpt lat="44.45193" lon="1.47642">
        <ele>173</ele>
        <time>2011-03-20T09:56:53</time>
      </trkpt>
      <trkpt lat="44.45183" lon="1.47649">
        <ele>173</ele>
        <time>2011-03-20T09:56:55</time>
      </trkpt>
      <trkpt lat="44.45173" lon="1.47658">
        <ele>173</ele>
        <time>2011-03-20T09:56:57</time>
      </trkpt>
      <trkpt lat="44.45168" lon="1.47664">
        <ele>173</ele>
        <time>2011-03-20T09:56:58</time>
      </trkpt>
      <trkpt lat="44.45158" lon="1.47678">
        <ele>173</ele>
        <time>2011-03-20T09:57:00</time>
      </trkpt>
      <trkpt lat="44.4515" lon="1.47694">
        <ele>173</ele>
        <time>2011-03-20T09:57:02</time>
      </trkpt>
      <trkpt lat="44.45146" lon="1.47701">
        <ele>173</ele>
        <time>2011-03-20T09:57:03</time>
      </trkpt>
      <trkpt lat="44.4514" lon="1.47715">
        <ele>169</ele>
        <time>2011-03-20T09:57:05</time>
      </trkpt>
      <trkpt lat="44.45138" lon="1.47721">
        <ele>169</ele>
        <time>2011-03-20T09:57:06</time>
      </trkpt>
      <trkpt lat="44.45136" lon="1.47727">
        <ele>169</ele>
        <time>2011-03-20T09:57:07</time>
      </trkpt>
      <trkpt lat="44.45133" lon="1.47743">
        <ele>169</ele>
        <time>2011-03-20T09:57:09</time>
      </trkpt>
      <trkpt lat="44.4513" lon="1.47758">
        <ele>169</ele>
        <time>2011-03-20T09:57:11</time>
      </trkpt>
      <trkpt lat="44.45128" lon="1.47764">
        <ele>169</ele>
        <time>2011-03-20T09:57:12</time>
      </trkpt>
      <trkpt lat="44.45124" lon="1.47775">
        <ele>179</ele>
        <time>2011-03-20T09:57:14</time>
      </trkpt>
      <trkpt lat="44.45123" lon="1.47781">
        <ele>179</ele>
        <time>2011-03-20T09:57:15</time>
      </trkpt>
      <trkpt lat="44.45119" lon="1.47792">
        <ele>175</ele>
        <time>2011-03-20T09:57:17</time>
      </trkpt>
      <trkpt lat="44.45117" lon="1.47801">
        <ele>175</ele>
        <time>2011-03-20T09:57:19</time>
      </trkpt>
      <trkpt lat="44.45116" lon="1.47806">
        <ele>175</ele>
        <time>2011-03-20T09:57:20</time>
      </trkpt>
      <trkpt lat="44.45114" lon="1.47812">
        <ele>175</ele>
        <time>2011-03-20T09:57:22</time>
      </trkpt>
      <trkpt lat="44.45113" lon="1.47815">
        <ele>175</ele>
        <time>2011-03-20T09:57:23</time>
      </trkpt>
      <trkpt lat="44.45112" lon="1.47818">
        <ele>175</ele>
        <time>2011-03-20T09:57:24</time>
      </trkpt>
      <trkpt lat="44.45111" lon="1.47824">
        <ele>175</ele>
        <time>2011-03-20T09:57:26</time>
      </trkpt>
      <trkpt lat="44.45109" lon="1.47827">
        <ele>175</ele>
        <time>2011-03-20T09:57:27</time>
      </trkpt>
      <trkpt lat="44.45106" lon="1.47831">
        <ele>175</ele>
        <time>2011-03-20T09:57:29</time>
      </trkpt>
      <trkpt lat="44.45103" lon="1.47835">
        <ele>175</ele>
        <time>2011-03-20T09:57:31</time>
      </trkpt>
      <trkpt lat="44.45099" lon="1.47838">
        <ele>175</ele>
        <time>2011-03-20T09:57:33</time>
      </trkpt>
      <trkpt lat="44.45096" lon="1.47841">
        <ele>175</ele>
        <time>2011-03-20T09:57:35</time>
      </trkpt>
      <trkpt lat="44.45091" lon="1.47845">
        <ele>175</ele>
        <time>2011-03-20T09:57:37</time>
      </trkpt>
      <trkpt lat="44.45088" lon="1.47848">
        <ele>175</ele>
        <time>2011-03-20T09:57:38</time>
      </trkpt>
      <trkpt lat="44.45084" lon="1.47852">
        <ele>175</ele>
        <time>2011-03-20T09:57:40</time>
      </trkpt>
      <trkpt lat="44.45081" lon="1.47855">
        <ele>175</ele>
        <time>2011-03-20T09:57:41</time>
      </trkpt>
      <trkpt lat="44.45077" lon="1.4786">
        <ele>175</ele>
        <time>2011-03-20T09:57:43</time>
      </trkpt>
      <trkpt lat="44.45074" lon="1.47862">
        <ele>175</ele>
        <time>2011-03-20T09:57:44</time>
      </trkpt>
      <trkpt lat="44.4507" lon="1.47866">
        <ele>175</ele>
        <time>2011-03-20T09:57:46</time>
      </trkpt>
      <trkpt lat="44.45068" lon="1.47868">
        <ele>175</ele>
        <time>2011-03-20T09:57:47</time>
      </trkpt>
      <trkpt lat="44.45066" lon="1.4787">
        <ele>175</ele>
        <time>2011-03-20T09:57:48</time>
      </trkpt>
      <trkpt lat="44.45062" lon="1.47874">
        <ele>175</ele>
        <time>2011-03-20T09:57:50</time>
      </trkpt>
      <trkpt lat="44.45059" lon="1.47877">
        <ele>167</ele>
        <time>2011-03-20T09:57:52</time>
      </trkpt>
      <trkpt lat="44.45056" lon="1.4788">
        <ele>167</ele>
        <time>2011-03-20T09:57:54</time>
      </trkpt>
      <trkpt lat="44.45054" lon="1.47882">
        <ele>167</ele>
        <time>2011-03-20T09:58:04</time>
      </trkpt>
      <trkpt lat="44.4505" lon="1.47886">
        <ele>167</ele>
        <time>2011-03-20T09:58:06</time>
      </trkpt>
      <trkpt lat="44.45045" lon="1.47892">
        <ele>167</ele>
        <time>2011-03-20T09:58:09</time>
      </trkpt>
      <trkpt lat="44.45043" lon="1.47893">
        <ele>167</ele>
        <time>2011-03-20T09:58:10</time>
      </trkpt>
      <trkpt lat="44.45038" lon="1.47896">
        <ele>172</ele>
        <time>2011-03-20T09:58:12</time>
      </trkpt>
      <trkpt lat="44.45033" lon="1.479">
        <ele>172</ele>
        <time>2011-03-20T09:58:15</time>
      </trkpt>
      <trkpt lat="44.45031" lon="1.47902">
        <ele>172</ele>
        <time>2011-03-20T09:58:17</time>
      </trkpt>
      <trkpt lat="44.45029" lon="1.47902">
        <ele>172</ele>
        <time>2011-03-20T09:58:18</time>
      </trkpt>
      <trkpt lat="44.45025" lon="1.47906">
        <ele>172</ele>
        <time>2011-03-20T09:58:20</time>
      </trkpt>
      <trkpt lat="44.45023" lon="1.47907">
        <ele>172</ele>
        <time>2011-03-20T09:58:21</time>
      </trkpt>
      <trkpt lat="44.45021" lon="1.47909">
        <ele>172</ele>
        <time>2011-03-20T09:58:22</time>
      </trkpt>
      <trkpt lat="44.45014" lon="1.47914">
        <ele>172</ele>
        <time>2011-03-20T09:58:24</time>
      </trkpt>
      <trkpt lat="44.45011" lon="1.47917">
        <ele>172</ele>
        <time>2011-03-20T09:58:25</time>
      </trkpt>
      <trkpt lat="44.45007" lon="1.47919">
        <ele>172</ele>
        <time>2011-03-20T09:58:26</time>
      </trkpt>
      <trkpt lat="44.44998" lon="1.47926">
        <ele>172</ele>
        <time>2011-03-20T09:58:28</time>
      </trkpt>
      <trkpt lat="44.44988" lon="1.47933">
        <ele>172</ele>
        <time>2011-03-20T09:58:30</time>
      </trkpt>
      <trkpt lat="44.44982" lon="1.47938">
        <ele>172</ele>
        <time>2011-03-20T09:58:31</time>
      </trkpt>
      <trkpt lat="44.44969" lon="1.4795">
        <ele>172</ele>
        <time>2011-03-20T09:58:33</time>
      </trkpt>
      <trkpt lat="44.44953" lon="1.47963">
        <ele>158</ele>
        <time>2011-03-20T09:58:35</time>
      </trkpt>
      <trkpt lat="44.44936" lon="1.47978">
        <ele>158</ele>
        <time>2011-03-20T09:58:37</time>
      </trkpt>
      <trkpt lat="44.44927" lon="1.47986">
        <ele>158</ele>
        <time>2011-03-20T09:58:38</time>
      </trkpt>
      <trkpt lat="44.44908" lon="1.48001">
        <ele>158</ele>
        <time>2011-03-20T09:58:40</time>
      </trkpt>
      <trkpt lat="44.44888" lon="1.48014">
        <ele>158</ele>
        <time>2011-03-20T09:58:42</time>
      </trkpt>
      <trkpt lat="44.44868" lon="1.48026">
        <ele>166</ele>
        <time>2011-03-20T09:58:44</time>
      </trkpt>
      <trkpt lat="44.44859" lon="1.48032">
        <ele>166</ele>
        <time>2011-03-20T09:58:45</time>
      </trkpt>
      <trkpt lat="44.4485" lon="1.48039">
        <ele>166</ele>
        <time>2011-03-20T09:58:46</time>
      </trkpt>
      <trkpt lat="44.44833" lon="1.48051">
        <ele>156</ele>
        <time>2011-03-20T09:58:48</time>
      </trkpt>
      <trkpt lat="44.44817" lon="1.48063">
        <ele>156</ele>
        <time>2011-03-20T09:58:50</time>
      </trkpt>
      <trkpt lat="44.44803" lon="1.48074">
        <ele>156</ele>
        <time>2011-03-20T09:58:52</time>
      </trkpt>
      <trkpt lat="44.44791" lon="1.48083">
        <ele>159</ele>
        <time>2011-03-20T09:58:54</time>
      </trkpt>
      <trkpt lat="44.44786" lon="1.48087">
        <ele>159</ele>
        <time>2011-03-20T09:58:55</time>
      </trkpt>
      <trkpt lat="44.44776" lon="1.48094">
        <ele>159</ele>
        <time>2011-03-20T09:58:57</time>
      </trkpt>
      <trkpt lat="44.44772" lon="1.48096">
        <ele>159</ele>
        <time>2011-03-20T09:58:58</time>
      </trkpt>
      <trkpt lat="44.44764" lon="1.48101">
        <ele>159</ele>
        <time>2011-03-20T09:59:00</time>
      </trkpt>
      <trkpt lat="44.44761" lon="1.48102">
        <ele>159</ele>
        <time>2011-03-20T09:59:01</time>
      </trkpt>
      <trkpt lat="44.44755" lon="1.48105">
        <ele>159</ele>
        <time>2011-03-20T09:59:03</time>
      </trkpt>
      <trkpt lat="44.44751" lon="1.48109">
        <ele>159</ele>
        <time>2011-03-20T09:59:05</time>
      </trkpt>
      <trkpt lat="44.44747" lon="1.48111">
        <ele>159</ele>
        <time>2011-03-20T09:59:07</time>
      </trkpt>
      <trkpt lat="44.44743" lon="1.48111">
        <ele>159</ele>
        <time>2011-03-20T09:59:09</time>
      </trkpt>
      <trkpt lat="44.44741" lon="1.48111">
        <ele>159</ele>
        <time>2011-03-20T09:59:10</time>
      </trkpt>
      <trkpt lat="44.44737" lon="1.48109">
        <ele>159</ele>
        <time>2011-03-20T09:59:12</time>
      </trkpt>
      <trkpt lat="44.44733" lon="1.48106">
        <ele>159</ele>
        <time>2011-03-20T09:59:14</time>
      </trkpt>
      <trkpt lat="44.44731" lon="1.48105">
        <ele>159</ele>
        <time>2011-03-20T09:59:15</time>
      </trkpt>
      <trkpt lat="44.44727" lon="1.48103">
        <ele>159</ele>
        <time>2011-03-20T09:59:17</time>
      </trkpt>
      <trkpt lat="44.44723" lon="1.48102">
        <ele>159</ele>
        <time>2011-03-20T09:59:19</time>
      </trkpt>
      <trkpt lat="44.44718" lon="1.481">
        <ele>159</ele>
        <time>2011-03-20T09:59:21</time>
      </trkpt>
      <trkpt lat="44.44713" lon="1.48098">
        <ele>159</ele>
        <time>2011-03-20T09:59:23</time>
      </trkpt>
      <trkpt lat="44.44711" lon="1.48097">
        <ele>159</ele>
        <time>2011-03-20T09:59:24</time>
      </trkpt>
      <trkpt lat="44.44706" lon="1.48096">
        <ele>161</ele>
        <time>2011-03-20T09:59:26</time>
      </trkpt>
      <trkpt lat="44.44701" lon="1.48093">
        <ele>161</ele>
        <time>2011-03-20T09:59:28</time>
      </trkpt>
      <trkpt lat="44.44695" lon="1.48091">
        <ele>161</ele>
        <time>2011-03-20T09:59:30</time>
      </trkpt>
      <trkpt lat="44.4469" lon="1.48087">
        <ele>161</ele>
        <time>2011-03-20T09:59:32</time>
      </trkpt>
      <trkpt lat="44.44684" lon="1.48083">
        <ele>161</ele>
        <time>2011-03-20T09:59:34</time>
      </trkpt>
      <trkpt lat="44.44681" lon="1.48081">
        <ele>161</ele>
        <time>2011-03-20T09:59:35</time>
      </trkpt>
      <trkpt lat="44.44679" lon="1.48078">
        <ele>161</ele>
        <time>2011-03-20T09:59:36</time>
      </trkpt>
      <trkpt lat="44.44673" lon="1.48074">
        <ele>161</ele>
        <time>2011-03-20T09:59:38</time>
      </trkpt>
      <trkpt lat="44.44671" lon="1.48072">
        <ele>161</ele>
        <time>2011-03-20T09:59:39</time>
      </trkpt>
      <trkpt lat="44.44666" lon="1.48067">
        <ele>161</ele>
        <time>2011-03-20T09:59:41</time>
      </trkpt>
      <trkpt lat="44.44664" lon="1.48065">
        <ele>161</ele>
        <time>2011-03-20T09:59:42</time>
      </trkpt>
      <trkpt lat="44.44661" lon="1.48063">
        <ele>161</ele>
        <time>2011-03-20T09:59:43</time>
      </trkpt>
      <trkpt lat="44.44656" lon="1.4806">
        <ele>161</ele>
        <time>2011-03-20T09:59:45</time>
      </trkpt>
      <trkpt lat="44.44654" lon="1.48058">
        <ele>161</ele>
        <time>2011-03-20T09:59:46</time>
      </trkpt>
      <trkpt lat="44.44649" lon="1.48056">
        <ele>161</ele>
        <time>2011-03-20T09:59:48</time>
      </trkpt>
      <trkpt lat="44.44646" lon="1.48054">
        <ele>161</ele>
        <time>2011-03-20T09:59:49</time>
      </trkpt>
      <trkpt lat="44.44641" lon="1.48052">
        <ele>161</ele>
        <time>2011-03-20T09:59:51</time>
      </trkpt>
      <trkpt lat="44.44638" lon="1.4805">
        <ele>161</ele>
        <time>2011-03-20T09:59:52</time>
      </trkpt>
      <trkpt lat="44.44635" lon="1.48049">
        <ele>161</ele>
        <time>2011-03-20T09:59:53</time>
      </trkpt>
      <trkpt lat="44.4463" lon="1.48046">
        <ele>161</ele>
        <time>2011-03-20T09:59:55</time>
      </trkpt>
      <trkpt lat="44.44628" lon="1.48045">
        <ele>161</ele>
        <time>2011-03-20T09:59:56</time>
      </trkpt>
      <trkpt lat="44.44625" lon="1.48043">
        <ele>161</ele>
        <time>2011-03-20T09:59:57</time>
      </trkpt>
      <trkpt lat="44.4462" lon="1.48041">
        <ele>165</ele>
        <time>2011-03-20T09:59:59</time>
      </trkpt>
      <trkpt lat="44.44615" lon="1.48037">
        <ele>165</ele>
        <time>2011-03-20T10:00:01</time>
      </trkpt>
      <trkpt lat="44.4461" lon="1.48033">
        <ele>165</ele>
        <time>2011-03-20T10:00:03</time>
      </trkpt>
      <trkpt lat="44.44609" lon="1.48031">
        <ele>165</ele>
        <time>2011-03-20T10:00:04</time>
      </trkpt>
      <trkpt lat="44.44605" lon="1.48027">
        <ele>165</ele>
        <time>2011-03-20T10:00:06</time>
      </trkpt>
      <trkpt lat="44.44602" lon="1.48023">
        <ele>165</ele>
        <time>2011-03-20T10:00:08</time>
      </trkpt>
      <trkpt lat="44.446" lon="1.48022">
        <ele>165</ele>
        <time>2011-03-20T10:00:09</time>
      </trkpt>
      <trkpt lat="44.44598" lon="1.4802">
        <ele>165</ele>
        <time>2011-03-20T10:00:10</time>
      </trkpt>
      <trkpt lat="44.44594" lon="1.48018">
        <ele>165</ele>
        <time>2011-03-20T10:00:12</time>
      </trkpt>
      <trkpt lat="44.4459" lon="1.48015">
        <ele>165</ele>
        <time>2011-03-20T10:00:14</time>
      </trkpt>
      <trkpt lat="44.44584" lon="1.48013">
        <ele>165</ele>
        <time>2011-03-20T10:00:16</time>
      </trkpt>
      <trkpt lat="44.44578" lon="1.4801">
        <ele>165</ele>
        <time>2011-03-20T10:00:18</time>
      </trkpt>
      <trkpt lat="44.44576" lon="1.48008">
        <ele>165</ele>
        <time>2011-03-20T10:00:19</time>
      </trkpt>
      <trkpt lat="44.44571" lon="1.48005">
        <ele>165</ele>
        <time>2011-03-20T10:00:21</time>
      </trkpt>
      <trkpt lat="44.44568" lon="1.48003">
        <ele>165</ele>
        <time>2011-03-20T10:00:22</time>
      </trkpt>
      <trkpt lat="44.44562" lon="1.48003">
        <ele>165</ele>
        <time>2011-03-20T10:00:24</time>
      </trkpt>
      <trkpt lat="44.44559" lon="1.48003">
        <ele>165</ele>
        <time>2011-03-20T10:00:25</time>
      </trkpt>
      <trkpt lat="44.44553" lon="1.48003">
        <ele>165</ele>
        <time>2011-03-20T10:00:27</time>
      </trkpt>
      <trkpt lat="44.4455" lon="1.48003">
        <ele>165</ele>
        <time>2011-03-20T10:00:28</time>
      </trkpt>
      <trkpt lat="44.44547" lon="1.48002">
        <ele>165</ele>
        <time>2011-03-20T10:00:29</time>
      </trkpt>
      <trkpt lat="44.44542" lon="1.48002">
        <ele>165</ele>
        <time>2011-03-20T10:00:31</time>
      </trkpt>
      <trkpt lat="44.44537" lon="1.48001">
        <ele>167</ele>
        <time>2011-03-20T10:00:33</time>
      </trkpt>
      <trkpt lat="44.44534" lon="1.48001">
        <ele>167</ele>
        <time>2011-03-20T10:00:34</time>
      </trkpt>
      <trkpt lat="44.44532" lon="1.47999">
        <ele>167</ele>
        <time>2011-03-20T10:00:35</time>
      </trkpt>
      <trkpt lat="44.44529" lon="1.47997">
        <ele>167</ele>
        <time>2011-03-20T10:00:36</time>
      </trkpt>
      <trkpt lat="44.44524" lon="1.47994">
        <ele>167</ele>
        <time>2011-03-20T10:00:38</time>
      </trkpt>
      <trkpt lat="44.44522" lon="1.47993">
        <ele>167</ele>
        <time>2011-03-20T10:00:39</time>
      </trkpt>
      <trkpt lat="44.44519" lon="1.47992">
        <ele>167</ele>
        <time>2011-03-20T10:00:40</time>
      </trkpt>
      <trkpt lat="44.44513" lon="1.4799">
        <ele>167</ele>
        <time>2011-03-20T10:00:42</time>
      </trkpt>
      <trkpt lat="44.4451" lon="1.4799">
        <ele>167</ele>
        <time>2011-03-20T10:00:43</time>
      </trkpt>
      <trkpt lat="44.44505" lon="1.47988">
        <ele>167</ele>
        <time>2011-03-20T10:00:45</time>
      </trkpt>
      <trkpt lat="44.44503" lon="1.47988">
        <ele>167</ele>
        <time>2011-03-20T10:00:46</time>
      </trkpt>
      <trkpt lat="44.44497" lon="1.47987">
        <ele>167</ele>
        <time>2011-03-20T10:00:48</time>
      </trkpt>
      <trkpt lat="44.44492" lon="1.47987">
        <ele>167</ele>
        <time>2011-03-20T10:00:50</time>
      </trkpt>
      <trkpt lat="44.44486" lon="1.47987">
        <ele>167</ele>
        <time>2011-03-20T10:00:52</time>
      </trkpt>
      <trkpt lat="44.44483" lon="1.47987">
        <ele>167</ele>
        <time>2011-03-20T10:00:53</time>
      </trkpt>
      <trkpt lat="44.44478" lon="1.47987">
        <ele>167</ele>
        <time>2011-03-20T10:00:55</time>
      </trkpt>
      <trkpt lat="44.44476" lon="1.47987">
        <ele>167</ele>
        <time>2011-03-20T10:00:56</time>
      </trkpt>
      <trkpt lat="44.44471" lon="1.47987">
        <ele>167</ele>
        <time>2011-03-20T10:00:58</time>
      </trkpt>
      <trkpt lat="44.44466" lon="1.47988">
        <ele>167</ele>
        <time>2011-03-20T10:01:00</time>
      </trkpt>
      <trkpt lat="44.44461" lon="1.47989">
        <ele>167</ele>
        <time>2011-03-20T10:01:02</time>
      </trkpt>
      <trkpt lat="44.44456" lon="1.47991">
        <ele>167</ele>
        <time>2011-03-20T10:01:04</time>
      </trkpt>
      <trkpt lat="44.44453" lon="1.47991">
        <ele>167</ele>
        <time>2011-03-20T10:01:05</time>
      </trkpt>
      <trkpt lat="44.44448" lon="1.47992">
        <ele>167</ele>
        <time>2011-03-20T10:01:07</time>
      </trkpt>
      <trkpt lat="44.44446" lon="1.47993">
        <ele>167</ele>
        <time>2011-03-20T10:01:08</time>
      </trkpt>
      <trkpt lat="44.44444" lon="1.47994">
        <ele>167</ele>
        <time>2011-03-20T10:01:09</time>
      </trkpt>
      <trkpt lat="44.44439" lon="1.47996">
        <ele>167</ele>
        <time>2011-03-20T10:01:11</time>
      </trkpt>
      <trkpt lat="44.44436" lon="1.47998">
        <ele>167</ele>
        <time>2011-03-20T10:01:12</time>
      </trkpt>
      <trkpt lat="44.44431" lon="1.48001">
        <ele>167</ele>
        <time>2011-03-20T10:01:14</time>
      </trkpt>
      <trkpt lat="44.44428" lon="1.48002">
        <ele>167</ele>
        <time>2011-03-20T10:01:15</time>
      </trkpt>
      <trkpt lat="44.44422" lon="1.48006">
        <ele>167</ele>
        <time>2011-03-20T10:01:17</time>
      </trkpt>
      <trkpt lat="44.4442" lon="1.48009">
        <ele>167</ele>
        <time>2011-03-20T10:01:18</time>
      </trkpt>
      <trkpt lat="44.44417" lon="1.48011">
        <ele>167</ele>
        <time>2011-03-20T10:01:19</time>
      </trkpt>
      <trkpt lat="44.44415" lon="1.48013">
        <ele>167</ele>
        <time>2011-03-20T10:01:20</time>
      </trkpt>
      <trkpt lat="44.44411" lon="1.48017">
        <ele>167</ele>
        <time>2011-03-20T10:01:22</time>
      </trkpt>
      <trkpt lat="44.44407" lon="1.48021">
        <ele>167</ele>
        <time>2011-03-20T10:01:24</time>
      </trkpt>
      <trkpt lat="44.44404" lon="1.48024">
        <ele>167</ele>
        <time>2011-03-20T10:01:25</time>
      </trkpt>
      <trkpt lat="44.44401" lon="1.4803">
        <ele>167</ele>
        <time>2011-03-20T10:01:27</time>
      </trkpt>
      <trkpt lat="44.444" lon="1.48033">
        <ele>167</ele>
        <time>2011-03-20T10:01:28</time>
      </trkpt>
      <trkpt lat="44.44399" lon="1.48036">
        <ele>167</ele>
        <time>2011-03-20T10:01:29</time>
      </trkpt>
      <trkpt lat="44.44395" lon="1.4804">
        <ele>167</ele>
        <time>2011-03-20T10:01:31</time>
      </trkpt>
      <trkpt lat="44.44393" lon="1.48043">
        <ele>172</ele>
        <time>2011-03-20T10:01:32</time>
      </trkpt>
      <trkpt lat="44.44391" lon="1.48046">
        <ele>172</ele>
        <time>2011-03-20T10:01:33</time>
      </trkpt>
      <trkpt lat="44.44389" lon="1.48049">
        <ele>172</ele>
        <time>2011-03-20T10:01:34</time>
      </trkpt>
      <trkpt lat="44.44387" lon="1.48056">
        <ele>172</ele>
        <time>2011-03-20T10:01:36</time>
      </trkpt>
      <trkpt lat="44.44386" lon="1.4806">
        <ele>172</ele>
        <time>2011-03-20T10:01:37</time>
      </trkpt>
      <trkpt lat="44.44384" lon="1.48068">
        <ele>172</ele>
        <time>2011-03-20T10:01:39</time>
      </trkpt>
      <trkpt lat="44.44382" lon="1.48076">
        <ele>172</ele>
        <time>2011-03-20T10:01:41</time>
      </trkpt>
      <trkpt lat="44.44381" lon="1.48079">
        <ele>172</ele>
        <time>2011-03-20T10:01:42</time>
      </trkpt>
      <trkpt lat="44.4438" lon="1.48085">
        <ele>172</ele>
        <time>2011-03-20T10:01:44</time>
      </trkpt>
      <trkpt lat="44.44379" lon="1.48088">
        <ele>172</ele>
        <time>2011-03-20T10:01:45</time>
      </trkpt>
      <trkpt lat="44.44376" lon="1.48094">
        <ele>172</ele>
        <time>2011-03-20T10:01:47</time>
      </trkpt>
      <trkpt lat="44.44375" lon="1.48097">
        <ele>171</ele>
        <time>2011-03-20T10:01:48</time>
      </trkpt>
      <trkpt lat="44.44373" lon="1.48102">
        <ele>171</ele>
        <time>2011-03-20T10:01:55</time>
      </trkpt>
      <trkpt lat="44.44371" lon="1.48105">
        <ele>171</ele>
        <time>2011-03-20T10:01:57</time>
      </trkpt>
      <trkpt lat="44.44369" lon="1.48111">
        <ele>171</ele>
        <time>2011-03-20T10:02:02</time>
      </trkpt>
      <trkpt lat="44.44368" lon="1.48115">
        <ele>171</ele>
        <time>2011-03-20T10:02:04</time>
      </trkpt>
      <trkpt lat="44.44366" lon="1.48122">
        <ele>171</ele>
        <time>2011-03-20T10:02:16</time>
      </trkpt>
      <trkpt lat="44.44367" lon="1.48126">
        <ele>178</ele>
        <time>2011-03-20T10:02:21</time>
      </trkpt>
      <trkpt lat="44.4437" lon="1.48131">
        <ele>178</ele>
        <time>2011-03-20T10:02:36</time>
      </trkpt>
      <trkpt lat="44.4437" lon="1.48131">
        <ele>178</ele>
        <time>2011-03-20T10:02:37</time>
      </trkpt>
      <trkpt lat="44.44372" lon="1.48129">
        <ele>178</ele>
        <time>2011-03-20T10:02:44</time>
      </trkpt>
      <trkpt lat="44.44369" lon="1.48126">
        <ele>178</ele>
        <time>2011-03-20T10:02:54</time>
      </trkpt>
      <trkpt lat="44.44367" lon="1.48125">
        <ele>178</ele>
        <time>2011-03-20T10:02:55</time>
      </trkpt>
      <trkpt lat="44.44367" lon="1.48125">
        <ele>178</ele>
        <time>2011-03-20T10:02:56</time>
      </trkpt>
      <trkpt lat="44.44364" lon="1.48124">
        <ele>171</ele>
        <time>2011-03-20T10:02:57</time>
      </trkpt>
      <trkpt lat="44.44361" lon="1.48122">
        <ele>171</ele>
        <time>2011-03-20T10:02:59</time>
      </trkpt>
      <trkpt lat="44.44357" lon="1.48119">
        <ele>171</ele>
        <time>2011-03-20T10:03:01</time>
      </trkpt>
      <trkpt lat="44.44354" lon="1.48118">
        <ele>171</ele>
        <time>2011-03-20T10:03:03</time>
      </trkpt>
      <trkpt lat="44.44353" lon="1.48116">
        <ele>171</ele>
        <time>2011-03-20T10:03:04</time>
      </trkpt>
      <trkpt lat="44.44351" lon="1.48112">
        <ele>171</ele>
        <time>2011-03-20T10:03:06</time>
      </trkpt>
      <trkpt lat="44.4435" lon="1.4811">
        <ele>171</ele>
        <time>2011-03-20T10:03:08</time>
      </trkpt>
      <trkpt lat="44.44348" lon="1.48107">
        <ele>171</ele>
        <time>2011-03-20T10:03:10</time>
      </trkpt>
      <trkpt lat="44.44345" lon="1.48107">
        <ele>171</ele>
        <time>2011-03-20T10:03:13</time>
      </trkpt>
      <trkpt lat="44.44343" lon="1.48108">
        <ele>171</ele>
        <time>2011-03-20T10:03:16</time>
      </trkpt>
      <trkpt lat="44.44341" lon="1.48108">
        <ele>171</ele>
        <time>2011-03-20T10:03:19</time>
      </trkpt>
      <trkpt lat="44.44338" lon="1.4811">
        <ele>171</ele>
        <time>2011-03-20T10:03:21</time>
      </trkpt>
      <trkpt lat="44.44335" lon="1.48109">
        <ele>171</ele>
        <time>2011-03-20T10:03:24</time>
      </trkpt>
      <trkpt lat="44.44333" lon="1.4811">
        <ele>171</ele>
        <time>2011-03-20T10:03:26</time>
      </trkpt>
      <trkpt lat="44.4433" lon="1.48112">
        <ele>171</ele>
        <time>2011-03-20T10:03:30</time>
      </trkpt>
      <trkpt lat="44.44328" lon="1.48113">
        <ele>171</ele>
        <time>2011-03-20T10:03:33</time>
      </trkpt>
      <trkpt lat="44.44325" lon="1.48114">
        <ele>171</ele>
        <time>2011-03-20T10:03:36</time>
      </trkpt>
      <trkpt lat="44.44322" lon="1.48115">
        <ele>171</ele>
        <time>2011-03-20T10:03:40</time>
      </trkpt>
      <trkpt lat="44.44319" lon="1.48115">
        <ele>171</ele>
        <time>2011-03-20T10:03:44</time>
      </trkpt>
      <trkpt lat="44.44316" lon="1.48115">
        <ele>171</ele>
        <time>2011-03-20T10:03:47</time>
      </trkpt>
      <trkpt lat="44.44313" lon="1.48115">
        <ele>171</ele>
        <time>2011-03-20T10:03:50</time>
      </trkpt>
      <trkpt lat="44.44311" lon="1.48115">
        <ele>171</ele>
        <time>2011-03-20T10:03:53</time>
      </trkpt>
      <trkpt lat="44.44308" lon="1.48114">
        <ele>171</ele>
        <time>2011-03-20T10:03:56</time>
      </trkpt>
      <trkpt lat="44.44306" lon="1.48115">
        <ele>171</ele>
        <time>2011-03-20T10:03:59</time>
      </trkpt>
      <trkpt lat="44.44304" lon="1.48115">
        <ele>171</ele>
        <time>2011-03-20T10:04:02</time>
      </trkpt>
      <trkpt lat="44.44301" lon="1.48116">
        <ele>171</ele>
        <time>2011-03-20T10:04:05</time>
      </trkpt>
      <trkpt lat="44.443" lon="1.48117">
        <ele>171</ele>
        <time>2011-03-20T10:04:07</time>
      </trkpt>
      <trkpt lat="44.44297" lon="1.48118">
        <ele>171</ele>
        <time>2011-03-20T10:04:10</time>
      </trkpt>
      <trkpt lat="44.44294" lon="1.48118">
        <ele>171</ele>
        <time>2011-03-20T10:04:13</time>
      </trkpt>
      <trkpt lat="44.44291" lon="1.4812">
        <ele>184</ele>
        <time>2011-03-20T10:04:16</time>
      </trkpt>
      <trkpt lat="44.44289" lon="1.48121">
        <ele>184</ele>
        <time>2011-03-20T10:04:19</time>
      </trkpt>
      <trkpt lat="44.44286" lon="1.48123">
        <ele>184</ele>
        <time>2011-03-20T10:04:22</time>
      </trkpt>
      <trkpt lat="44.44284" lon="1.48123">
        <ele>184</ele>
        <time>2011-03-20T10:04:24</time>
      </trkpt>
      <trkpt lat="44.44281" lon="1.48124">
        <ele>184</ele>
        <time>2011-03-20T10:04:27</time>
      </trkpt>
      <trkpt lat="44.4428" lon="1.48124">
        <ele>184</ele>
        <time>2011-03-20T10:04:28</time>
      </trkpt>
      <trkpt lat="44.44278" lon="1.48126">
        <ele>191</ele>
        <time>2011-03-20T10:04:31</time>
      </trkpt>
      <trkpt lat="44.44275" lon="1.48127">
        <ele>191</ele>
        <time>2011-03-20T10:04:34</time>
      </trkpt>
      <trkpt lat="44.44272" lon="1.48129">
        <ele>191</ele>
        <time>2011-03-20T10:04:37</time>
      </trkpt>
      <trkpt lat="44.4427" lon="1.4813">
        <ele>191</ele>
        <time>2011-03-20T10:04:40</time>
      </trkpt>
      <trkpt lat="44.44267" lon="1.48131">
        <ele>191</ele>
        <time>2011-03-20T10:04:43</time>
      </trkpt>
      <trkpt lat="44.44265" lon="1.48131">
        <ele>191</ele>
        <time>2011-03-20T10:04:45</time>
      </trkpt>
      <trkpt lat="44.44263" lon="1.48132">
        <ele>191</ele>
        <time>2011-03-20T10:04:47</time>
      </trkpt>
      <trkpt lat="44.4426" lon="1.48134">
        <ele>191</ele>
        <time>2011-03-20T10:04:50</time>
      </trkpt>
      <trkpt lat="44.44258" lon="1.48134">
        <ele>191</ele>
        <time>2011-03-20T10:04:51</time>
      </trkpt>
      <trkpt lat="44.44256" lon="1.48133">
        <ele>191</ele>
        <time>2011-03-20T10:04:53</time>
      </trkpt>
      <trkpt lat="44.44252" lon="1.48135">
        <ele>191</ele>
        <time>2011-03-20T10:05:09</time>
      </trkpt>
      <trkpt lat="44.4425" lon="1.48134">
        <ele>191</ele>
        <time>2011-03-20T10:05:11</time>
      </trkpt>
      <trkpt lat="44.44247" lon="1.48131">
        <ele>191</ele>
        <time>2011-03-20T10:05:14</time>
      </trkpt>
      <trkpt lat="44.44245" lon="1.4813">
        <ele>191</ele>
        <time>2011-03-20T10:05:16</time>
      </trkpt>
      <trkpt lat="44.44243" lon="1.48127">
        <ele>191</ele>
        <time>2011-03-20T10:05:18</time>
      </trkpt>
      <trkpt lat="44.44242" lon="1.48125">
        <ele>184</ele>
        <time>2011-03-20T10:05:20</time>
      </trkpt>
      <trkpt lat="44.44239" lon="1.48125">
        <ele>184</ele>
        <time>2011-03-20T10:05:23</time>
      </trkpt>
      <trkpt lat="44.44236" lon="1.48126">
        <ele>191</ele>
        <time>2011-03-20T10:05:25</time>
      </trkpt>
      <trkpt lat="44.44233" lon="1.48126">
        <ele>191</ele>
        <time>2011-03-20T10:05:27</time>
      </trkpt>
      <trkpt lat="44.4423" lon="1.48126">
        <ele>191</ele>
        <time>2011-03-20T10:05:29</time>
      </trkpt>
      <trkpt lat="44.44228" lon="1.48125">
        <ele>191</ele>
        <time>2011-03-20T10:05:31</time>
      </trkpt>
      <trkpt lat="44.44225" lon="1.48125">
        <ele>184</ele>
        <time>2011-03-20T10:05:33</time>
      </trkpt>
      <trkpt lat="44.44223" lon="1.48124">
        <ele>184</ele>
        <time>2011-03-20T10:05:35</time>
      </trkpt>
      <trkpt lat="44.4422" lon="1.48124">
        <ele>184</ele>
        <time>2011-03-20T10:05:38</time>
      </trkpt>
      <trkpt lat="44.44217" lon="1.48124">
        <ele>184</ele>
        <time>2011-03-20T10:05:41</time>
      </trkpt>
      <trkpt lat="44.44215" lon="1.48126">
        <ele>191</ele>
        <time>2011-03-20T10:05:43</time>
      </trkpt>
      <trkpt lat="44.44212" lon="1.48127">
        <ele>191</ele>
        <time>2011-03-20T10:05:45</time>
      </trkpt>
      <trkpt lat="44.4421" lon="1.48128">
        <ele>191</ele>
        <time>2011-03-20T10:05:47</time>
      </trkpt>
      <trkpt lat="44.44207" lon="1.4813">
        <ele>206</ele>
        <time>2011-03-20T10:05:49</time>
      </trkpt>
      <trkpt lat="44.44204" lon="1.4813">
        <ele>206</ele>
        <time>2011-03-20T10:05:52</time>
      </trkpt>
      <trkpt lat="44.44202" lon="1.48131">
        <ele>206</ele>
        <time>2011-03-20T10:05:56</time>
      </trkpt>
      <trkpt lat="44.44199" lon="1.48133">
        <ele>206</ele>
        <time>2011-03-20T10:05:58</time>
      </trkpt>
      <trkpt lat="44.44197" lon="1.48134">
        <ele>206</ele>
        <time>2011-03-20T10:06:01</time>
      </trkpt>
      <trkpt lat="44.44195" lon="1.48136">
        <ele>206</ele>
        <time>2011-03-20T10:06:04</time>
      </trkpt>
      <trkpt lat="44.44195" lon="1.48138">
        <ele>206</ele>
        <time>2011-03-20T10:06:06</time>
      </trkpt>
      <trkpt lat="44.44192" lon="1.48137">
        <ele>206</ele>
        <time>2011-03-20T10:06:08</time>
      </trkpt>
      <trkpt lat="44.4419" lon="1.48136">
        <ele>206</ele>
        <time>2011-03-20T10:06:11</time>
      </trkpt>
      <trkpt lat="44.44187" lon="1.48136">
        <ele>206</ele>
        <time>2011-03-20T10:06:15</time>
      </trkpt>
      <trkpt lat="44.44184" lon="1.48136">
        <ele>206</ele>
        <time>2011-03-20T10:06:18</time>
      </trkpt>
      <trkpt lat="44.44182" lon="1.48137">
        <ele>206</ele>
        <time>2011-03-20T10:06:20</time>
      </trkpt>
      <trkpt lat="44.44178" lon="1.4814">
        <ele>206</ele>
        <time>2011-03-20T10:06:24</time>
      </trkpt>
      <trkpt lat="44.44176" lon="1.48141">
        <ele>206</ele>
        <time>2011-03-20T10:06:26</time>
      </trkpt>
      <trkpt lat="44.44173" lon="1.48142">
        <ele>206</ele>
        <time>2011-03-20T10:06:28</time>
      </trkpt>
      <trkpt lat="44.44169" lon="1.48142">
        <ele>206</ele>
        <time>2011-03-20T10:06:30</time>
      </trkpt>
      <trkpt lat="44.44166" lon="1.48144">
        <ele>206</ele>
        <time>2011-03-20T10:06:32</time>
      </trkpt>
      <trkpt lat="44.44163" lon="1.48146">
        <ele>206</ele>
        <time>2011-03-20T10:06:34</time>
      </trkpt>
      <trkpt lat="44.44161" lon="1.48149">
        <ele>206</ele>
        <time>2011-03-20T10:06:36</time>
      </trkpt>
      <trkpt lat="44.44158" lon="1.48152">
        <ele>206</ele>
        <time>2011-03-20T10:06:38</time>
      </trkpt>
      <trkpt lat="44.44155" lon="1.48154">
        <ele>206</ele>
        <time>2011-03-20T10:06:40</time>
      </trkpt>
      <trkpt lat="44.44152" lon="1.48155">
        <ele>206</ele>
        <time>2011-03-20T10:06:42</time>
      </trkpt>
      <trkpt lat="44.4415" lon="1.48157">
        <ele>206</ele>
        <time>2011-03-20T10:06:44</time>
      </trkpt>
      <trkpt lat="44.44147" lon="1.48159">
        <ele>206</ele>
        <time>2011-03-20T10:06:46</time>
      </trkpt>
      <trkpt lat="44.44145" lon="1.48161">
        <ele>206</ele>
        <time>2011-03-20T10:06:48</time>
      </trkpt>
      <trkpt lat="44.44144" lon="1.48165">
        <ele>206</ele>
        <time>2011-03-20T10:06:56</time>
      </trkpt>
      <trkpt lat="44.44142" lon="1.48167">
        <ele>206</ele>
        <time>2011-03-20T10:06:59</time>
      </trkpt>
      <trkpt lat="44.44141" lon="1.48169">
        <ele>206</ele>
        <time>2011-03-20T10:07:06</time>
      </trkpt>
      <trkpt lat="44.4414" lon="1.4817">
        <ele>206</ele>
        <time>2011-03-20T10:07:07</time>
      </trkpt>
      <trkpt lat="44.44138" lon="1.48172">
        <ele>206</ele>
        <time>2011-03-20T10:07:10</time>
      </trkpt>
      <trkpt lat="44.44134" lon="1.48171">
        <ele>206</ele>
        <time>2011-03-20T10:07:13</time>
      </trkpt>
      <trkpt lat="44.44132" lon="1.48171">
        <ele>206</ele>
        <time>2011-03-20T10:07:15</time>
      </trkpt>
      <trkpt lat="44.4413" lon="1.48171">
        <ele>206</ele>
        <time>2011-03-20T10:07:17</time>
      </trkpt>
      <trkpt lat="44.44127" lon="1.48171">
        <ele>206</ele>
        <time>2011-03-20T10:07:20</time>
      </trkpt>
      <trkpt lat="44.44125" lon="1.48172">
        <ele>206</ele>
        <time>2011-03-20T10:07:22</time>
      </trkpt>
      <trkpt lat="44.44123" lon="1.48174">
        <ele>215</ele>
        <time>2011-03-20T10:07:26</time>
      </trkpt>
      <trkpt lat="44.44121" lon="1.48176">
        <ele>215</ele>
        <time>2011-03-20T10:07:29</time>
      </trkpt>
      <trkpt lat="44.44119" lon="1.48178">
        <ele>215</ele>
        <time>2011-03-20T10:07:35</time>
      </trkpt>
      <trkpt lat="44.44117" lon="1.4818">
        <ele>215</ele>
        <time>2011-03-20T10:07:39</time>
      </trkpt>
      <trkpt lat="44.44115" lon="1.48184">
        <ele>215</ele>
        <time>2011-03-20T10:07:43</time>
      </trkpt>
      <trkpt lat="44.44114" lon="1.48185">
        <ele>215</ele>
        <time>2011-03-20T10:07:45</time>
      </trkpt>
      <trkpt lat="44.44112" lon="1.48187">
        <ele>215</ele>
        <time>2011-03-20T10:07:48</time>
      </trkpt>
      <trkpt lat="44.4411" lon="1.4819">
        <ele>215</ele>
        <time>2011-03-20T10:07:50</time>
      </trkpt>
      <trkpt lat="44.44109" lon="1.48193">
        <ele>215</ele>
        <time>2011-03-20T10:07:52</time>
      </trkpt>
      <trkpt lat="44.44108" lon="1.48195">
        <ele>215</ele>
        <time>2011-03-20T10:07:54</time>
      </trkpt>
      <trkpt lat="44.44105" lon="1.48198">
        <ele>215</ele>
        <time>2011-03-20T10:07:57</time>
      </trkpt>
      <trkpt lat="44.44102" lon="1.482">
        <ele>215</ele>
        <time>2011-03-20T10:07:59</time>
      </trkpt>
      <trkpt lat="44.44099" lon="1.482">
        <ele>215</ele>
        <time>2011-03-20T10:08:01</time>
      </trkpt>
      <trkpt lat="44.44096" lon="1.48201">
        <ele>215</ele>
        <time>2011-03-20T10:08:04</time>
      </trkpt>
      <trkpt lat="44.44094" lon="1.48203">
        <ele>215</ele>
        <time>2011-03-20T10:08:07</time>
      </trkpt>
      <trkpt lat="44.44092" lon="1.48206">
        <ele>215</ele>
        <time>2011-03-20T10:08:10</time>
      </trkpt>
      <trkpt lat="44.44093" lon="1.48208">
        <ele>215</ele>
        <time>2011-03-20T10:08:22</time>
      </trkpt>
      <trkpt lat="44.44093" lon="1.48208">
        <ele>215</ele>
        <time>2011-03-20T10:08:29</time>
      </trkpt>
      <trkpt lat="44.44092" lon="1.48212">
        <ele>224</ele>
        <time>2011-03-20T10:08:33</time>
      </trkpt>
      <trkpt lat="44.44092" lon="1.4821">
        <ele>224</ele>
        <time>2011-03-20T10:08:41</time>
      </trkpt>
      <trkpt lat="44.44093" lon="1.48205">
        <ele>215</ele>
        <time>2011-03-20T10:09:14</time>
      </trkpt>
      <trkpt lat="44.44093" lon="1.48209">
        <ele>224</ele>
        <time>2011-03-20T10:09:20</time>
      </trkpt>
      <trkpt lat="44.44093" lon="1.48209">
        <ele>224</ele>
        <time>2011-03-20T10:09:21</time>
      </trkpt>
      <trkpt lat="44.44093" lon="1.48209">
        <ele>224</ele>
        <time>2011-03-20T10:09:36</time>
      </trkpt>
      <trkpt lat="44.44092" lon="1.48202">
        <ele>215</ele>
        <time>2011-03-20T10:09:39</time>
      </trkpt>
      <trkpt lat="44.44094" lon="1.48208">
        <ele>215</ele>
        <time>2011-03-20T10:09:49</time>
      </trkpt>
      <trkpt lat="44.44092" lon="1.4821">
        <ele>224</ele>
        <time>2011-03-20T10:09:53</time>
      </trkpt>
      <trkpt lat="44.44092" lon="1.4821">
        <ele>224</ele>
        <time>2011-03-20T10:09:54</time>
      </trkpt>
      <trkpt lat="44.4409" lon="1.48211">
        <ele>224</ele>
        <time>2011-03-20T10:09:55</time>
      </trkpt>
      <trkpt lat="44.44088" lon="1.48213">
        <ele>224</ele>
        <time>2011-03-20T10:09:57</time>
      </trkpt>
      <trkpt lat="44.44087" lon="1.48217">
        <ele>224</ele>
        <time>2011-03-20T10:10:00</time>
      </trkpt>
      <trkpt lat="44.44085" lon="1.4822">
        <ele>224</ele>
        <time>2011-03-20T10:10:02</time>
      </trkpt>
      <trkpt lat="44.44084" lon="1.48223">
        <ele>224</ele>
        <time>2011-03-20T10:10:04</time>
      </trkpt>
      <trkpt lat="44.44082" lon="1.48226">
        <ele>224</ele>
        <time>2011-03-20T10:10:06</time>
      </trkpt>
      <trkpt lat="44.4408" lon="1.48229">
        <ele>224</ele>
        <time>2011-03-20T10:10:08</time>
      </trkpt>
      <trkpt lat="44.44078" lon="1.48232">
        <ele>224</ele>
        <time>2011-03-20T10:10:10</time>
      </trkpt>
      <trkpt lat="44.44077" lon="1.48234">
        <ele>224</ele>
        <time>2011-03-20T10:10:12</time>
      </trkpt>
      <trkpt lat="44.44075" lon="1.48237">
        <ele>224</ele>
        <time>2011-03-20T10:10:14</time>
      </trkpt>
      <trkpt lat="44.44074" lon="1.48239">
        <ele>224</ele>
        <time>2011-03-20T10:10:26</time>
      </trkpt>
      <trkpt lat="44.44072" lon="1.48241">
        <ele>224</ele>
        <time>2011-03-20T10:10:28</time>
      </trkpt>
      <trkpt lat="44.4407" lon="1.48243">
        <ele>224</ele>
        <time>2011-03-20T10:10:30</time>
      </trkpt>
      <trkpt lat="44.44068" lon="1.48245">
        <ele>224</ele>
        <time>2011-03-20T10:10:32</time>
      </trkpt>
      <trkpt lat="44.44065" lon="1.48246">
        <ele>224</ele>
        <time>2011-03-20T10:10:34</time>
      </trkpt>
      <trkpt lat="44.44064" lon="1.48247">
        <ele>224</ele>
        <time>2011-03-20T10:10:35</time>
      </trkpt>
      <trkpt lat="44.4406" lon="1.48249">
        <ele>224</ele>
        <time>2011-03-20T10:10:37</time>
      </trkpt>
      <trkpt lat="44.44056" lon="1.48251">
        <ele>224</ele>
        <time>2011-03-20T10:10:39</time>
      </trkpt>
      <trkpt lat="44.44053" lon="1.48252">
        <ele>224</ele>
        <time>2011-03-20T10:10:41</time>
      </trkpt>
      <trkpt lat="44.4405" lon="1.48255">
        <ele>224</ele>
        <time>2011-03-20T10:10:43</time>
      </trkpt>
      <trkpt lat="44.44048" lon="1.48258">
        <ele>224</ele>
        <time>2011-03-20T10:10:45</time>
      </trkpt>
      <trkpt lat="44.44046" lon="1.48261">
        <ele>224</ele>
        <time>2011-03-20T10:10:48</time>
      </trkpt>
      <trkpt lat="44.44044" lon="1.48264">
        <ele>224</ele>
        <time>2011-03-20T10:10:51</time>
      </trkpt>
      <trkpt lat="44.44042" lon="1.48266">
        <ele>224</ele>
        <time>2011-03-20T10:10:54</time>
      </trkpt>
      <trkpt lat="44.44039" lon="1.48268">
        <ele>229</ele>
        <time>2011-03-20T10:10:57</time>
      </trkpt>
      <trkpt lat="44.44037" lon="1.4827">
        <ele>229</ele>
        <time>2011-03-20T10:11:00</time>
      </trkpt>
      <trkpt lat="44.44034" lon="1.48273">
        <ele>229</ele>
        <time>2011-03-20T10:11:03</time>
      </trkpt>
      <trkpt lat="44.44033" lon="1.48276">
        <ele>229</ele>
        <time>2011-03-20T10:11:06</time>
      </trkpt>
      <trkpt lat="44.44031" lon="1.48278">
        <ele>229</ele>
        <time>2011-03-20T10:11:09</time>
      </trkpt>
      <trkpt lat="44.44029" lon="1.48281">
        <ele>229</ele>
        <time>2011-03-20T10:11:12</time>
      </trkpt>
      <trkpt lat="44.44028" lon="1.48283">
        <ele>229</ele>
        <time>2011-03-20T10:11:14</time>
      </trkpt>
      <trkpt lat="44.44026" lon="1.48285">
        <ele>229</ele>
        <time>2011-03-20T10:11:16</time>
      </trkpt>
      <trkpt lat="44.44024" lon="1.48287">
        <ele>229</ele>
        <time>2011-03-20T10:11:18</time>
      </trkpt>
      <trkpt lat="44.44022" lon="1.4829">
        <ele>229</ele>
        <time>2011-03-20T10:11:20</time>
      </trkpt>
      <trkpt lat="44.4402" lon="1.48292">
        <ele>229</ele>
        <time>2011-03-20T10:11:22</time>
      </trkpt>
      <trkpt lat="44.44018" lon="1.48295">
        <ele>240</ele>
        <time>2011-03-20T10:11:25</time>
      </trkpt>
      <trkpt lat="44.44016" lon="1.48298">
        <ele>240</ele>
        <time>2011-03-20T10:11:28</time>
      </trkpt>
      <trkpt lat="44.44014" lon="1.48302">
        <ele>240</ele>
        <time>2011-03-20T10:11:32</time>
      </trkpt>
      <trkpt lat="44.44012" lon="1.48304">
        <ele>240</ele>
        <time>2011-03-20T10:11:36</time>
      </trkpt>
      <trkpt lat="44.44012" lon="1.48306">
        <ele>240</ele>
        <time>2011-03-20T10:11:37</time>
      </trkpt>
      <trkpt lat="44.44009" lon="1.48307">
        <ele>240</ele>
        <time>2011-03-20T10:11:40</time>
      </trkpt>
      <trkpt lat="44.44007" lon="1.48309">
        <ele>240</ele>
        <time>2011-03-20T10:11:43</time>
      </trkpt>
      <trkpt lat="44.44005" lon="1.48312">
        <ele>240</ele>
        <time>2011-03-20T10:11:45</time>
      </trkpt>
      <trkpt lat="44.44003" lon="1.48317">
        <ele>240</ele>
        <time>2011-03-20T10:11:49</time>
      </trkpt>
      <trkpt lat="44.44001" lon="1.4832">
        <ele>240</ele>
        <time>2011-03-20T10:11:51</time>
      </trkpt>
      <trkpt lat="44.44" lon="1.48322">
        <ele>240</ele>
        <time>2011-03-20T10:11:53</time>
      </trkpt>
      <trkpt lat="44.43999" lon="1.48327">
        <ele>240</ele>
        <time>2011-03-20T10:11:56</time>
      </trkpt>
      <trkpt lat="44.43997" lon="1.48329">
        <ele>240</ele>
        <time>2011-03-20T10:11:58</time>
      </trkpt>
      <trkpt lat="44.43993" lon="1.48331">
        <ele>240</ele>
        <time>2011-03-20T10:12:00</time>
      </trkpt>
      <trkpt lat="44.43991" lon="1.48333">
        <ele>240</ele>
        <time>2011-03-20T10:12:02</time>
      </trkpt>
      <trkpt lat="44.43988" lon="1.48335">
        <ele>240</ele>
        <time>2011-03-20T10:12:04</time>
      </trkpt>
      <trkpt lat="44.43986" lon="1.48338">
        <ele>240</ele>
        <time>2011-03-20T10:12:06</time>
      </trkpt>
      <trkpt lat="44.43983" lon="1.48339">
        <ele>240</ele>
        <time>2011-03-20T10:12:08</time>
      </trkpt>
      <trkpt lat="44.4398" lon="1.48341">
        <ele>240</ele>
        <time>2011-03-20T10:12:10</time>
      </trkpt>
      <trkpt lat="44.43979" lon="1.48343">
        <ele>240</ele>
        <time>2011-03-20T10:12:12</time>
      </trkpt>
      <trkpt lat="44.43977" lon="1.48346">
        <ele>240</ele>
        <time>2011-03-20T10:12:14</time>
      </trkpt>
      <trkpt lat="44.43974" lon="1.48348">
        <ele>240</ele>
        <time>2011-03-20T10:12:16</time>
      </trkpt>
      <trkpt lat="44.43972" lon="1.48351">
        <ele>240</ele>
        <time>2011-03-20T10:12:18</time>
      </trkpt>
      <trkpt lat="44.4397" lon="1.48353">
        <ele>240</ele>
        <time>2011-03-20T10:12:20</time>
      </trkpt>
      <trkpt lat="44.43968" lon="1.48355">
        <ele>240</ele>
        <time>2011-03-20T10:12:22</time>
      </trkpt>
      <trkpt lat="44.43965" lon="1.48358">
        <ele>240</ele>
        <time>2011-03-20T10:12:25</time>
      </trkpt>
      <trkpt lat="44.43963" lon="1.4836">
        <ele>240</ele>
        <time>2011-03-20T10:12:27</time>
      </trkpt>
      <trkpt lat="44.43962" lon="1.48363">
        <ele>240</ele>
        <time>2011-03-20T10:12:29</time>
      </trkpt>
      <trkpt lat="44.4396" lon="1.48366">
        <ele>240</ele>
        <time>2011-03-20T10:12:31</time>
      </trkpt>
      <trkpt lat="44.43959" lon="1.48369">
        <ele>240</ele>
        <time>2011-03-20T10:12:33</time>
      </trkpt>
      <trkpt lat="44.43957" lon="1.48373">
        <ele>236</ele>
        <time>2011-03-20T10:12:35</time>
      </trkpt>
      <trkpt lat="44.43956" lon="1.48375">
        <ele>248</ele>
        <time>2011-03-20T10:12:37</time>
      </trkpt>
      <trkpt lat="44.43953" lon="1.48377">
        <ele>248</ele>
        <time>2011-03-20T10:12:39</time>
      </trkpt>
      <trkpt lat="44.43951" lon="1.4838">
        <ele>248</ele>
        <time>2011-03-20T10:12:41</time>
      </trkpt>
      <trkpt lat="44.4395" lon="1.48383">
        <ele>248</ele>
        <time>2011-03-20T10:12:43</time>
      </trkpt>
      <trkpt lat="44.43948" lon="1.48386">
        <ele>248</ele>
        <time>2011-03-20T10:12:45</time>
      </trkpt>
      <trkpt lat="44.43946" lon="1.48388">
        <ele>248</ele>
        <time>2011-03-20T10:12:47</time>
      </trkpt>
      <trkpt lat="44.43943" lon="1.48391">
        <ele>248</ele>
        <time>2011-03-20T10:12:49</time>
      </trkpt>
      <trkpt lat="44.43941" lon="1.48393">
        <ele>248</ele>
        <time>2011-03-20T10:12:51</time>
      </trkpt>
      <trkpt lat="44.43939" lon="1.48395">
        <ele>248</ele>
        <time>2011-03-20T10:12:53</time>
      </trkpt>
      <trkpt lat="44.43937" lon="1.48398">
        <ele>248</ele>
        <time>2011-03-20T10:12:55</time>
      </trkpt>
      <trkpt lat="44.43935" lon="1.484">
        <ele>248</ele>
        <time>2011-03-20T10:12:57</time>
      </trkpt>
      <trkpt lat="44.43933" lon="1.48402">
        <ele>248</ele>
        <time>2011-03-20T10:12:59</time>
      </trkpt>
      <trkpt lat="44.43931" lon="1.48405">
        <ele>248</ele>
        <time>2011-03-20T10:13:01</time>
      </trkpt>
      <trkpt lat="44.43928" lon="1.48408">
        <ele>248</ele>
        <time>2011-03-20T10:13:03</time>
      </trkpt>
      <trkpt lat="44.43926" lon="1.48411">
        <ele>248</ele>
        <time>2011-03-20T10:13:05</time>
      </trkpt>
      <trkpt lat="44.43924" lon="1.48414">
        <ele>248</ele>
        <time>2011-03-20T10:13:07</time>
      </trkpt>
      <trkpt lat="44.43922" lon="1.48416">
        <ele>248</ele>
        <time>2011-03-20T10:13:09</time>
      </trkpt>
      <trkpt lat="44.4392" lon="1.4842">
        <ele>248</ele>
        <time>2011-03-20T10:13:11</time>
      </trkpt>
      <trkpt lat="44.4392" lon="1.48424">
        <ele>248</ele>
        <time>2011-03-20T10:13:13</time>
      </trkpt>
      <trkpt lat="44.43919" lon="1.48427">
        <ele>248</ele>
        <time>2011-03-20T10:13:16</time>
      </trkpt>
      <trkpt lat="44.43918" lon="1.48431">
        <ele>248</ele>
        <time>2011-03-20T10:13:19</time>
      </trkpt>
      <trkpt lat="44.43916" lon="1.48434">
        <ele>248</ele>
        <time>2011-03-20T10:13:21</time>
      </trkpt>
      <trkpt lat="44.43914" lon="1.48438">
        <ele>248</ele>
        <time>2011-03-20T10:13:23</time>
      </trkpt>
      <trkpt lat="44.43913" lon="1.48441">
        <ele>248</ele>
        <time>2011-03-20T10:13:25</time>
      </trkpt>
      <trkpt lat="44.43912" lon="1.48444">
        <ele>248</ele>
        <time>2011-03-20T10:13:27</time>
      </trkpt>
      <trkpt lat="44.43912" lon="1.48448">
        <ele>248</ele>
        <time>2011-03-20T10:13:30</time>
      </trkpt>
      <trkpt lat="44.43912" lon="1.48447">
        <ele>248</ele>
        <time>2011-03-20T10:13:32</time>
      </trkpt>
      <trkpt lat="44.43912" lon="1.48451">
        <ele>248</ele>
        <time>2011-03-20T10:13:39</time>
      </trkpt>
      <trkpt lat="44.43911" lon="1.48454">
        <ele>248</ele>
        <time>2011-03-20T10:13:41</time>
      </trkpt>
      <trkpt lat="44.4391" lon="1.48457">
        <ele>248</ele>
        <time>2011-03-20T10:13:43</time>
      </trkpt>
      <trkpt lat="44.4391" lon="1.48461">
        <ele>256</ele>
        <time>2011-03-20T10:13:45</time>
      </trkpt>
      <trkpt lat="44.43909" lon="1.48464">
        <ele>256</ele>
        <time>2011-03-20T10:13:47</time>
      </trkpt>
      <trkpt lat="44.43909" lon="1.48469">
        <ele>256</ele>
        <time>2011-03-20T10:13:50</time>
      </trkpt>
      <trkpt lat="44.43908" lon="1.48475">
        <ele>256</ele>
        <time>2011-03-20T10:13:52</time>
      </trkpt>
      <trkpt lat="44.43909" lon="1.4848">
        <ele>256</ele>
        <time>2011-03-20T10:13:54</time>
      </trkpt>
      <trkpt lat="44.43909" lon="1.48484">
        <ele>256</ele>
        <time>2011-03-20T10:13:56</time>
      </trkpt>
      <trkpt lat="44.43909" lon="1.48488">
        <ele>256</ele>
        <time>2011-03-20T10:13:58</time>
      </trkpt>
      <trkpt lat="44.43909" lon="1.48491">
        <ele>256</ele>
        <time>2011-03-20T10:14:00</time>
      </trkpt>
      <trkpt lat="44.43908" lon="1.48496">
        <ele>256</ele>
        <time>2011-03-20T10:14:03</time>
      </trkpt>
      <trkpt lat="44.43906" lon="1.48498">
        <ele>256</ele>
        <time>2011-03-20T10:14:05</time>
      </trkpt>
      <trkpt lat="44.43905" lon="1.48501">
        <ele>256</ele>
        <time>2011-03-20T10:14:07</time>
      </trkpt>
      <trkpt lat="44.43903" lon="1.48504">
        <ele>256</ele>
        <time>2011-03-20T10:14:09</time>
      </trkpt>
      <trkpt lat="44.43903" lon="1.48509">
        <ele>256</ele>
        <time>2011-03-20T10:14:11</time>
      </trkpt>
      <trkpt lat="44.43901" lon="1.48514">
        <ele>256</ele>
        <time>2011-03-20T10:14:13</time>
      </trkpt>
      <trkpt lat="44.43901" lon="1.48519">
        <ele>256</ele>
        <time>2011-03-20T10:14:15</time>
      </trkpt>
      <trkpt lat="44.439" lon="1.48524">
        <ele>256</ele>
        <time>2011-03-20T10:14:17</time>
      </trkpt>
      <trkpt lat="44.43899" lon="1.48528">
        <ele>256</ele>
        <time>2011-03-20T10:14:19</time>
      </trkpt>
      <trkpt lat="44.43898" lon="1.48531">
        <ele>256</ele>
        <time>2011-03-20T10:14:21</time>
      </trkpt>
      <trkpt lat="44.43895" lon="1.48533">
        <ele>256</ele>
        <time>2011-03-20T10:14:23</time>
      </trkpt>
      <trkpt lat="44.43893" lon="1.48537">
        <ele>256</ele>
        <time>2011-03-20T10:14:25</time>
      </trkpt>
      <trkpt lat="44.43892" lon="1.48541">
        <ele>256</ele>
        <time>2011-03-20T10:14:27</time>
      </trkpt>
      <trkpt lat="44.43891" lon="1.48545">
        <ele>259</ele>
        <time>2011-03-20T10:14:29</time>
      </trkpt>
      <trkpt lat="44.4389" lon="1.4855">
        <ele>259</ele>
        <time>2011-03-20T10:14:31</time>
      </trkpt>
      <trkpt lat="44.43889" lon="1.48554">
        <ele>259</ele>
        <time>2011-03-20T10:14:33</time>
      </trkpt>
      <trkpt lat="44.43889" lon="1.48559">
        <ele>259</ele>
        <time>2011-03-20T10:14:35</time>
      </trkpt>
      <trkpt lat="44.43888" lon="1.48564">
        <ele>259</ele>
        <time>2011-03-20T10:14:37</time>
      </trkpt>
      <trkpt lat="44.43887" lon="1.48568">
        <ele>259</ele>
        <time>2011-03-20T10:14:39</time>
      </trkpt>
      <trkpt lat="44.43886" lon="1.48572">
        <ele>259</ele>
        <time>2011-03-20T10:14:41</time>
      </trkpt>
      <trkpt lat="44.43886" lon="1.48576">
        <ele>259</ele>
        <time>2011-03-20T10:14:43</time>
      </trkpt>
      <trkpt lat="44.43886" lon="1.4858">
        <ele>259</ele>
        <time>2011-03-20T10:14:45</time>
      </trkpt>
      <trkpt lat="44.43886" lon="1.48585">
        <ele>259</ele>
        <time>2011-03-20T10:14:47</time>
      </trkpt>
      <trkpt lat="44.43886" lon="1.48589">
        <ele>259</ele>
        <time>2011-03-20T10:14:49</time>
      </trkpt>
      <trkpt lat="44.43885" lon="1.48593">
        <ele>259</ele>
        <time>2011-03-20T10:14:51</time>
      </trkpt>
      <trkpt lat="44.43884" lon="1.48597">
        <ele>259</ele>
        <time>2011-03-20T10:14:53</time>
      </trkpt>
      <trkpt lat="44.43884" lon="1.48602">
        <ele>259</ele>
        <time>2011-03-20T10:14:55</time>
      </trkpt>
      <trkpt lat="44.43884" lon="1.48607">
        <ele>259</ele>
        <time>2011-03-20T10:14:57</time>
      </trkpt>
      <trkpt lat="44.43883" lon="1.48611">
        <ele>259</ele>
        <time>2011-03-20T10:14:59</time>
      </trkpt>
      <trkpt lat="44.43883" lon="1.48615">
        <ele>259</ele>
        <time>2011-03-20T10:15:01</time>
      </trkpt>
      <trkpt lat="44.43885" lon="1.48618">
        <ele>259</ele>
        <time>2011-03-20T10:15:13</time>
      </trkpt>
      <trkpt lat="44.43885" lon="1.4862">
        <ele>259</ele>
        <time>2011-03-20T10:15:14</time>
      </trkpt>
      <trkpt lat="44.43885" lon="1.48624">
        <ele>259</ele>
        <time>2011-03-20T10:15:17</time>
      </trkpt>
      <trkpt lat="44.43884" lon="1.48627">
        <ele>263</ele>
        <time>2011-03-20T10:15:20</time>
      </trkpt>
      <trkpt lat="44.43883" lon="1.4863">
        <ele>263</ele>
        <time>2011-03-20T10:15:22</time>
      </trkpt>
      <trkpt lat="44.43882" lon="1.48633">
        <ele>263</ele>
        <time>2011-03-20T10:15:24</time>
      </trkpt>
      <trkpt lat="44.43881" lon="1.48636">
        <ele>263</ele>
        <time>2011-03-20T10:15:26</time>
      </trkpt>
      <trkpt lat="44.43881" lon="1.4864">
        <ele>263</ele>
        <time>2011-03-20T10:15:28</time>
      </trkpt>
      <trkpt lat="44.4388" lon="1.48644">
        <ele>263</ele>
        <time>2011-03-20T10:15:30</time>
      </trkpt>
      <trkpt lat="44.43879" lon="1.48647">
        <ele>263</ele>
        <time>2011-03-20T10:15:32</time>
      </trkpt>
      <trkpt lat="44.43878" lon="1.48651">
        <ele>263</ele>
        <time>2011-03-20T10:15:34</time>
      </trkpt>
      <trkpt lat="44.43878" lon="1.48655">
        <ele>263</ele>
        <time>2011-03-20T10:15:36</time>
      </trkpt>
      <trkpt lat="44.43878" lon="1.48658">
        <ele>263</ele>
        <time>2011-03-20T10:15:38</time>
      </trkpt>
      <trkpt lat="44.43878" lon="1.48662">
        <ele>263</ele>
        <time>2011-03-20T10:15:40</time>
      </trkpt>
      <trkpt lat="44.43877" lon="1.48665">
        <ele>263</ele>
        <time>2011-03-20T10:15:42</time>
      </trkpt>
      <trkpt lat="44.43877" lon="1.48669">
        <ele>263</ele>
        <time>2011-03-20T10:15:45</time>
      </trkpt>
      <trkpt lat="44.43877" lon="1.48673">
        <ele>263</ele>
        <time>2011-03-20T10:15:47</time>
      </trkpt>
      <trkpt lat="44.43876" lon="1.48676">
        <ele>263</ele>
        <time>2011-03-20T10:15:49</time>
      </trkpt>
      <trkpt lat="44.43876" lon="1.4868">
        <ele>263</ele>
        <time>2011-03-20T10:15:51</time>
      </trkpt>
      <trkpt lat="44.43876" lon="1.48683">
        <ele>263</ele>
        <time>2011-03-20T10:15:53</time>
      </trkpt>
      <trkpt lat="44.43876" lon="1.48687">
        <ele>263</ele>
        <time>2011-03-20T10:15:55</time>
      </trkpt>
      <trkpt lat="44.43875" lon="1.48691">
        <ele>256</ele>
        <time>2011-03-20T10:15:57</time>
      </trkpt>
      <trkpt lat="44.43874" lon="1.48695">
        <ele>256</ele>
        <time>2011-03-20T10:15:59</time>
      </trkpt>
      <trkpt lat="44.43874" lon="1.48698">
        <ele>256</ele>
        <time>2011-03-20T10:16:01</time>
      </trkpt>
      <trkpt lat="44.43873" lon="1.48702">
        <ele>256</ele>
        <time>2011-03-20T10:16:04</time>
      </trkpt>
      <trkpt lat="44.43873" lon="1.48707">
        <ele>256</ele>
        <time>2011-03-20T10:16:06</time>
      </trkpt>
      <trkpt lat="44.43873" lon="1.4871">
        <ele>265</ele>
        <time>2011-03-20T10:16:08</time>
      </trkpt>
      <trkpt lat="44.43874" lon="1.48714">
        <ele>265</ele>
        <time>2011-03-20T10:16:11</time>
      </trkpt>
      <trkpt lat="44.43874" lon="1.48717">
        <ele>265</ele>
        <time>2011-03-20T10:16:13</time>
      </trkpt>
      <trkpt lat="44.43875" lon="1.48721">
        <ele>265</ele>
        <time>2011-03-20T10:16:15</time>
      </trkpt>
      <trkpt lat="44.43875" lon="1.48724">
        <ele>267</ele>
        <time>2011-03-20T10:16:17</time>
      </trkpt>
      <trkpt lat="44.43874" lon="1.48728">
        <ele>265</ele>
        <time>2011-03-20T10:16:19</time>
      </trkpt>
      <trkpt lat="44.43873" lon="1.48731">
        <ele>265</ele>
        <time>2011-03-20T10:16:21</time>
      </trkpt>
      <trkpt lat="44.43872" lon="1.48735">
        <ele>265</ele>
        <time>2011-03-20T10:16:23</time>
      </trkpt>
      <trkpt lat="44.4387" lon="1.48739">
        <ele>265</ele>
        <time>2011-03-20T10:16:25</time>
      </trkpt>
      <trkpt lat="44.43868" lon="1.48742">
        <ele>265</ele>
        <time>2011-03-20T10:16:27</time>
      </trkpt>
      <trkpt lat="44.43867" lon="1.48746">
        <ele>265</ele>
        <time>2011-03-20T10:16:29</time>
      </trkpt>
      <trkpt lat="44.43866" lon="1.4875">
        <ele>265</ele>
        <time>2011-03-20T10:16:31</time>
      </trkpt>
      <trkpt lat="44.43865" lon="1.48754">
        <ele>265</ele>
        <time>2011-03-20T10:16:33</time>
      </trkpt>
      <trkpt lat="44.43864" lon="1.48758">
        <ele>265</ele>
        <time>2011-03-20T10:16:35</time>
      </trkpt>
      <trkpt lat="44.43861" lon="1.48765">
        <ele>265</ele>
        <time>2011-03-20T10:16:38</time>
      </trkpt>
      <trkpt lat="44.43858" lon="1.48773">
        <ele>265</ele>
        <time>2011-03-20T10:16:41</time>
      </trkpt>
      <trkpt lat="44.43857" lon="1.48778">
        <ele>265</ele>
        <time>2011-03-20T10:16:43</time>
      </trkpt>
      <trkpt lat="44.43854" lon="1.4878">
        <ele>265</ele>
        <time>2011-03-20T10:16:46</time>
      </trkpt>
      <trkpt lat="44.43852" lon="1.48782">
        <ele>265</ele>
        <time>2011-03-20T10:16:48</time>
      </trkpt>
      <trkpt lat="44.43849" lon="1.48783">
        <ele>265</ele>
        <time>2011-03-20T10:16:50</time>
      </trkpt>
      <trkpt lat="44.43847" lon="1.48784">
        <ele>265</ele>
        <time>2011-03-20T10:16:52</time>
      </trkpt>
      <trkpt lat="44.43844" lon="1.48785">
        <ele>265</ele>
        <time>2011-03-20T10:16:55</time>
      </trkpt>
      <trkpt lat="44.43841" lon="1.48787">
        <ele>265</ele>
        <time>2011-03-20T10:16:57</time>
      </trkpt>
      <trkpt lat="44.43839" lon="1.48788">
        <ele>265</ele>
        <time>2011-03-20T10:16:58</time>
      </trkpt>
      <trkpt lat="44.43834" lon="1.48791">
        <ele>265</ele>
        <time>2011-03-20T10:17:00</time>
      </trkpt>
      <trkpt lat="44.43828" lon="1.48795">
        <ele>270</ele>
        <time>2011-03-20T10:17:02</time>
      </trkpt>
      <trkpt lat="44.43822" lon="1.48801">
        <ele>270</ele>
        <time>2011-03-20T10:17:04</time>
      </trkpt>
      <trkpt lat="44.43815" lon="1.48806">
        <ele>270</ele>
        <time>2011-03-20T10:17:06</time>
      </trkpt>
      <trkpt lat="44.43812" lon="1.48809">
        <ele>270</ele>
        <time>2011-03-20T10:17:07</time>
      </trkpt>
      <trkpt lat="44.43809" lon="1.48812">
        <ele>270</ele>
        <time>2011-03-20T10:17:08</time>
      </trkpt>
      <trkpt lat="44.43802" lon="1.48819">
        <ele>270</ele>
        <time>2011-03-20T10:17:10</time>
      </trkpt>
      <trkpt lat="44.43797" lon="1.48824">
        <ele>270</ele>
        <time>2011-03-20T10:17:12</time>
      </trkpt>
      <trkpt lat="44.43793" lon="1.48827">
        <ele>270</ele>
        <time>2011-03-20T10:17:13</time>
      </trkpt>
      <trkpt lat="44.43785" lon="1.48831">
        <ele>261</ele>
        <time>2011-03-20T10:17:15</time>
      </trkpt>
      <trkpt lat="44.43781" lon="1.48834">
        <ele>261</ele>
        <time>2011-03-20T10:17:16</time>
      </trkpt>
      <trkpt lat="44.43776" lon="1.48837">
        <ele>261</ele>
        <time>2011-03-20T10:17:17</time>
      </trkpt>
      <trkpt lat="44.43767" lon="1.48846">
        <ele>261</ele>
        <time>2011-03-20T10:17:19</time>
      </trkpt>
      <trkpt lat="44.43762" lon="1.4885">
        <ele>261</ele>
        <time>2011-03-20T10:17:20</time>
      </trkpt>
      <trkpt lat="44.4375" lon="1.48858">
        <ele>261</ele>
        <time>2011-03-20T10:17:22</time>
      </trkpt>
      <trkpt lat="44.43744" lon="1.48862">
        <ele>261</ele>
        <time>2011-03-20T10:17:23</time>
      </trkpt>
      <trkpt lat="44.43738" lon="1.48864">
        <ele>261</ele>
        <time>2011-03-20T10:17:24</time>
      </trkpt>
      <trkpt lat="44.43731" lon="1.48865">
        <ele>261</ele>
        <time>2011-03-20T10:17:25</time>
      </trkpt>
      <trkpt lat="44.43718" lon="1.48867">
        <ele>261</ele>
        <time>2011-03-20T10:17:27</time>
      </trkpt>
      <trkpt lat="44.43706" lon="1.48868">
        <ele>256</ele>
        <time>2011-03-20T10:17:29</time>
      </trkpt>
      <trkpt lat="44.43701" lon="1.48871">
        <ele>256</ele>
        <time>2011-03-20T10:17:30</time>
      </trkpt>
      <trkpt lat="44.43696" lon="1.48874">
        <ele>256</ele>
        <time>2011-03-20T10:17:31</time>
      </trkpt>
      <trkpt lat="44.43692" lon="1.48878">
        <ele>255</ele>
        <time>2011-03-20T10:17:32</time>
      </trkpt>
      <trkpt lat="44.43684" lon="1.48881">
        <ele>255</ele>
        <time>2011-03-20T10:17:34</time>
      </trkpt>
      <trkpt lat="44.43675" lon="1.48883">
        <ele>255</ele>
        <time>2011-03-20T10:17:36</time>
      </trkpt>
      <trkpt lat="44.43667" lon="1.48883">
        <ele>255</ele>
        <time>2011-03-20T10:17:38</time>
      </trkpt>
      <trkpt lat="44.43659" lon="1.48884">
        <ele>255</ele>
        <time>2011-03-20T10:17:40</time>
      </trkpt>
      <trkpt lat="44.43655" lon="1.48885">
        <ele>255</ele>
        <time>2011-03-20T10:17:41</time>
      </trkpt>
      <trkpt lat="44.43647" lon="1.48886">
        <ele>255</ele>
        <time>2011-03-20T10:17:43</time>
      </trkpt>
      <trkpt lat="44.4364" lon="1.48887">
        <ele>255</ele>
        <time>2011-03-20T10:17:45</time>
      </trkpt>
      <trkpt lat="44.43633" lon="1.48889">
        <ele>255</ele>
        <time>2011-03-20T10:17:47</time>
      </trkpt>
      <trkpt lat="44.4363" lon="1.48891">
        <ele>255</ele>
        <time>2011-03-20T10:17:48</time>
      </trkpt>
      <trkpt lat="44.43623" lon="1.48895">
        <ele>267</ele>
        <time>2011-03-20T10:17:50</time>
      </trkpt>
      <trkpt lat="44.4362" lon="1.48897">
        <ele>267</ele>
        <time>2011-03-20T10:17:51</time>
      </trkpt>
      <trkpt lat="44.43614" lon="1.48902">
        <ele>267</ele>
        <time>2011-03-20T10:17:53</time>
      </trkpt>
      <trkpt lat="44.43609" lon="1.48909">
        <ele>267</ele>
        <time>2011-03-20T10:17:55</time>
      </trkpt>
      <trkpt lat="44.43604" lon="1.48916">
        <ele>267</ele>
        <time>2011-03-20T10:17:57</time>
      </trkpt>
      <trkpt lat="44.43602" lon="1.48926">
        <ele>267</ele>
        <time>2011-03-20T10:17:59</time>
      </trkpt>
      <trkpt lat="44.43602" lon="1.48932">
        <ele>267</ele>
        <time>2011-03-20T10:18:00</time>
      </trkpt>
      <trkpt lat="44.43602" lon="1.48944">
        <ele>267</ele>
        <time>2011-03-20T10:18:02</time>
      </trkpt>
      <trkpt lat="44.43602" lon="1.4895">
        <ele>267</ele>
        <time>2011-03-20T10:18:03</time>
      </trkpt>
      <trkpt lat="44.43603" lon="1.48955">
        <ele>267</ele>
        <time>2011-03-20T10:18:04</time>
      </trkpt>
      <trkpt lat="44.43604" lon="1.48966">
        <ele>266</ele>
        <time>2011-03-20T10:18:06</time>
      </trkpt>
      <trkpt lat="44.43606" lon="1.48977">
        <ele>266</ele>
        <time>2011-03-20T10:18:08</time>
      </trkpt>
      <trkpt lat="44.43607" lon="1.48988">
        <ele>266</ele>
        <time>2011-03-20T10:18:10</time>
      </trkpt>
      <trkpt lat="44.43607" lon="1.48998">
        <ele>266</ele>
        <time>2011-03-20T10:18:12</time>
      </trkpt>
      <trkpt lat="44.43607" lon="1.49003">
        <ele>266</ele>
        <time>2011-03-20T10:18:13</time>
      </trkpt>
      <trkpt lat="44.43607" lon="1.49007">
        <ele>266</ele>
        <time>2011-03-20T10:18:14</time>
      </trkpt>
      <trkpt lat="44.43606" lon="1.49016">
        <ele>266</ele>
        <time>2011-03-20T10:18:16</time>
      </trkpt>
      <trkpt lat="44.43606" lon="1.49021">
        <ele>266</ele>
        <time>2011-03-20T10:18:17</time>
      </trkpt>
      <trkpt lat="44.43606" lon="1.4903">
        <ele>266</ele>
        <time>2011-03-20T10:18:19</time>
      </trkpt>
      <trkpt lat="44.43606" lon="1.49035">
        <ele>266</ele>
        <time>2011-03-20T10:18:20</time>
      </trkpt>
      <trkpt lat="44.43606" lon="1.4904">
        <ele>266</ele>
        <time>2011-03-20T10:18:21</time>
      </trkpt>
      <trkpt lat="44.43605" lon="1.49051">
        <ele>266</ele>
        <time>2011-03-20T10:18:23</time>
      </trkpt>
      <trkpt lat="44.43605" lon="1.49056">
        <ele>266</ele>
        <time>2011-03-20T10:18:24</time>
      </trkpt>
      <trkpt lat="44.43604" lon="1.49061">
        <ele>266</ele>
        <time>2011-03-20T10:18:25</time>
      </trkpt>
      <trkpt lat="44.43603" lon="1.49066">
        <ele>266</ele>
        <time>2011-03-20T10:18:26</time>
      </trkpt>
      <trkpt lat="44.43602" lon="1.49077">
        <ele>266</ele>
        <time>2011-03-20T10:18:28</time>
      </trkpt>
      <trkpt lat="44.43601" lon="1.49088">
        <ele>266</ele>
        <time>2011-03-20T10:18:30</time>
      </trkpt>
      <trkpt lat="44.436" lon="1.49094">
        <ele>266</ele>
        <time>2011-03-20T10:18:31</time>
      </trkpt>
      <trkpt lat="44.43599" lon="1.49105">
        <ele>266</ele>
        <time>2011-03-20T10:18:33</time>
      </trkpt>
      <trkpt lat="44.43599" lon="1.4911">
        <ele>266</ele>
        <time>2011-03-20T10:18:34</time>
      </trkpt>
      <trkpt lat="44.43597" lon="1.49122">
        <ele>266</ele>
        <time>2011-03-20T10:18:36</time>
      </trkpt>
      <trkpt lat="44.43597" lon="1.49128">
        <ele>265</ele>
        <time>2011-03-20T10:18:37</time>
      </trkpt>
      <trkpt lat="44.43596" lon="1.49134">
        <ele>265</ele>
        <time>2011-03-20T10:18:38</time>
      </trkpt>
      <trkpt lat="44.43594" lon="1.49146">
        <ele>265</ele>
        <time>2011-03-20T10:18:40</time>
      </trkpt>
      <trkpt lat="44.43594" lon="1.49152">
        <ele>265</ele>
        <time>2011-03-20T10:18:41</time>
      </trkpt>
      <trkpt lat="44.43592" lon="1.49163">
        <ele>265</ele>
        <time>2011-03-20T10:18:43</time>
      </trkpt>
      <trkpt lat="44.4359" lon="1.49174">
        <ele>265</ele>
        <time>2011-03-20T10:18:45</time>
      </trkpt>
      <trkpt lat="44.43589" lon="1.4918">
        <ele>265</ele>
        <time>2011-03-20T10:18:46</time>
      </trkpt>
      <trkpt lat="44.43588" lon="1.49191">
        <ele>265</ele>
        <time>2011-03-20T10:18:48</time>
      </trkpt>
      <trkpt lat="44.43587" lon="1.49196">
        <ele>265</ele>
        <time>2011-03-20T10:18:49</time>
      </trkpt>
      <trkpt lat="44.43586" lon="1.49202">
        <ele>265</ele>
        <time>2011-03-20T10:18:50</time>
      </trkpt>
      <trkpt lat="44.43585" lon="1.49207">
        <ele>265</ele>
        <time>2011-03-20T10:18:51</time>
      </trkpt>
      <trkpt lat="44.43583" lon="1.49217">
        <ele>263</ele>
        <time>2011-03-20T10:18:53</time>
      </trkpt>
      <trkpt lat="44.43583" lon="1.49223">
        <ele>263</ele>
        <time>2011-03-20T10:18:54</time>
      </trkpt>
      <trkpt lat="44.43581" lon="1.49232">
        <ele>263</ele>
        <time>2011-03-20T10:18:56</time>
      </trkpt>
      <trkpt lat="44.4358" lon="1.49241">
        <ele>263</ele>
        <time>2011-03-20T10:18:58</time>
      </trkpt>
      <trkpt lat="44.43578" lon="1.4925">
        <ele>263</ele>
        <time>2011-03-20T10:19:00</time>
      </trkpt>
      <trkpt lat="44.43577" lon="1.4926">
        <ele>263</ele>
        <time>2011-03-20T10:19:02</time>
      </trkpt>
      <trkpt lat="44.43576" lon="1.49265">
        <ele>263</ele>
        <time>2011-03-20T10:19:03</time>
      </trkpt>
      <trkpt lat="44.43576" lon="1.49271">
        <ele>263</ele>
        <time>2011-03-20T10:19:04</time>
      </trkpt>
      <trkpt lat="44.43576" lon="1.49281">
        <ele>263</ele>
        <time>2011-03-20T10:19:06</time>
      </trkpt>
      <trkpt lat="44.43576" lon="1.49292">
        <ele>260</ele>
        <time>2011-03-20T10:19:08</time>
      </trkpt>
      <trkpt lat="44.43576" lon="1.49297">
        <ele>260</ele>
        <time>2011-03-20T10:19:09</time>
      </trkpt>
      <trkpt lat="44.43576" lon="1.49302">
        <ele>260</ele>
        <time>2011-03-20T10:19:10</time>
      </trkpt>
      <trkpt lat="44.43576" lon="1.49307">
        <ele>260</ele>
        <time>2011-03-20T10:19:11</time>
      </trkpt>
      <trkpt lat="44.43575" lon="1.49316">
        <ele>260</ele>
        <time>2011-03-20T10:19:13</time>
      </trkpt>
      <trkpt lat="44.43572" lon="1.49325">
        <ele>260</ele>
        <time>2011-03-20T10:19:15</time>
      </trkpt>
      <trkpt lat="44.43571" lon="1.49328">
        <ele>260</ele>
        <time>2011-03-20T10:19:16</time>
      </trkpt>
      <trkpt lat="44.43566" lon="1.49335">
        <ele>260</ele>
        <time>2011-03-20T10:19:18</time>
      </trkpt>
      <trkpt lat="44.43561" lon="1.49341">
        <ele>260</ele>
        <time>2011-03-20T10:19:20</time>
      </trkpt>
      <trkpt lat="44.43556" lon="1.49348">
        <ele>260</ele>
        <time>2011-03-20T10:19:22</time>
      </trkpt>
      <trkpt lat="44.4355" lon="1.49355">
        <ele>260</ele>
        <time>2011-03-20T10:19:24</time>
      </trkpt>
      <trkpt lat="44.43545" lon="1.49358">
        <ele>260</ele>
        <time>2011-03-20T10:19:26</time>
      </trkpt>
      <trkpt lat="44.43543" lon="1.49357">
        <ele>260</ele>
        <time>2011-03-20T10:19:27</time>
      </trkpt>
      <trkpt lat="44.43539" lon="1.49353">
        <ele>266</ele>
        <time>2011-03-20T10:19:29</time>
      </trkpt>
      <trkpt lat="44.43536" lon="1.49347">
        <ele>266</ele>
        <time>2011-03-20T10:19:32</time>
      </trkpt>
      <trkpt lat="44.43533" lon="1.49342">
        <ele>266</ele>
        <time>2011-03-20T10:19:34</time>
      </trkpt>
      <trkpt lat="44.43527" lon="1.49337">
        <ele>266</ele>
        <time>2011-03-20T10:19:37</time>
      </trkpt>
      <trkpt lat="44.43524" lon="1.49335">
        <ele>266</ele>
        <time>2011-03-20T10:19:39</time>
      </trkpt>
      <trkpt lat="44.43521" lon="1.49333">
        <ele>266</ele>
        <time>2011-03-20T10:19:41</time>
      </trkpt>
      <trkpt lat="44.43518" lon="1.49332">
        <ele>266</ele>
        <time>2011-03-20T10:19:43</time>
      </trkpt>
      <trkpt lat="44.43516" lon="1.4933">
        <ele>266</ele>
        <time>2011-03-20T10:19:45</time>
      </trkpt>
      <trkpt lat="44.43513" lon="1.49329">
        <ele>266</ele>
        <time>2011-03-20T10:19:47</time>
      </trkpt>
      <trkpt lat="44.4351" lon="1.49328">
        <ele>266</ele>
        <time>2011-03-20T10:19:49</time>
      </trkpt>
      <trkpt lat="44.43506" lon="1.49327">
        <ele>266</ele>
        <time>2011-03-20T10:19:51</time>
      </trkpt>
      <trkpt lat="44.43504" lon="1.49326">
        <ele>266</ele>
        <time>2011-03-20T10:19:53</time>
      </trkpt>
      <trkpt lat="44.43501" lon="1.49325">
        <ele>266</ele>
        <time>2011-03-20T10:19:55</time>
      </trkpt>
      <trkpt lat="44.43499" lon="1.49325">
        <ele>266</ele>
        <time>2011-03-20T10:19:57</time>
      </trkpt>
      <trkpt lat="44.43495" lon="1.49324">
        <ele>266</ele>
        <time>2011-03-20T10:19:59</time>
      </trkpt>
      <trkpt lat="44.43492" lon="1.49323">
        <ele>266</ele>
        <time>2011-03-20T10:20:01</time>
      </trkpt>
      <trkpt lat="44.43489" lon="1.49322">
        <ele>266</ele>
        <time>2011-03-20T10:20:03</time>
      </trkpt>
      <trkpt lat="44.43486" lon="1.49322">
        <ele>266</ele>
        <time>2011-03-20T10:20:05</time>
      </trkpt>
      <trkpt lat="44.43482" lon="1.49322">
        <ele>266</ele>
        <time>2011-03-20T10:20:07</time>
      </trkpt>
      <trkpt lat="44.43478" lon="1.49321">
        <ele>266</ele>
        <time>2011-03-20T10:20:09</time>
      </trkpt>
      <trkpt lat="44.43474" lon="1.4932">
        <ele>266</ele>
        <time>2011-03-20T10:20:11</time>
      </trkpt>
      <trkpt lat="44.43473" lon="1.4932">
        <ele>266</ele>
        <time>2011-03-20T10:20:12</time>
      </trkpt>
      <trkpt lat="44.43469" lon="1.49319">
        <ele>266</ele>
        <time>2011-03-20T10:20:14</time>
      </trkpt>
      <trkpt lat="44.43466" lon="1.49319">
        <ele>266</ele>
        <time>2011-03-20T10:20:16</time>
      </trkpt>
      <trkpt lat="44.43465" lon="1.49319">
        <ele>266</ele>
        <time>2011-03-20T10:20:17</time>
      </trkpt>
      <trkpt lat="44.43462" lon="1.49319">
        <ele>266</ele>
        <time>2011-03-20T10:20:19</time>
      </trkpt>
      <trkpt lat="44.4346" lon="1.49319">
        <ele>266</ele>
        <time>2011-03-20T10:20:20</time>
      </trkpt>
      <trkpt lat="44.43457" lon="1.49319">
        <ele>270</ele>
        <time>2011-03-20T10:20:22</time>
      </trkpt>
      <trkpt lat="44.43453" lon="1.49318">
        <ele>270</ele>
        <time>2011-03-20T10:20:24</time>
      </trkpt>
      <trkpt lat="44.43449" lon="1.49317">
        <ele>270</ele>
        <time>2011-03-20T10:20:26</time>
      </trkpt>
      <trkpt lat="44.43445" lon="1.49315">
        <ele>270</ele>
        <time>2011-03-20T10:20:28</time>
      </trkpt>
      <trkpt lat="44.43441" lon="1.49314">
        <ele>270</ele>
        <time>2011-03-20T10:20:30</time>
      </trkpt>
      <trkpt lat="44.43433" lon="1.49313">
        <ele>270</ele>
        <time>2011-03-20T10:20:33</time>
      </trkpt>
      <trkpt lat="44.43431" lon="1.49312">
        <ele>270</ele>
        <time>2011-03-20T10:20:34</time>
      </trkpt>
      <trkpt lat="44.43426" lon="1.4931">
        <ele>270</ele>
        <time>2011-03-20T10:20:36</time>
      </trkpt>
      <trkpt lat="44.43422" lon="1.49308">
        <ele>270</ele>
        <time>2011-03-20T10:20:38</time>
      </trkpt>
      <trkpt lat="44.43418" lon="1.49306">
        <ele>270</ele>
        <time>2011-03-20T10:20:40</time>
      </trkpt>
      <trkpt lat="44.43412" lon="1.49305">
        <ele>270</ele>
        <time>2011-03-20T10:20:43</time>
      </trkpt>
      <trkpt lat="44.43409" lon="1.49305">
        <ele>270</ele>
        <time>2011-03-20T10:20:45</time>
      </trkpt>
      <trkpt lat="44.43405" lon="1.49303">
        <ele>270</ele>
        <time>2011-03-20T10:20:47</time>
      </trkpt>
      <trkpt lat="44.43402" lon="1.493">
        <ele>270</ele>
        <time>2011-03-20T10:20:49</time>
      </trkpt>
      <trkpt lat="44.43399" lon="1.49299">
        <ele>270</ele>
        <time>2011-03-20T10:20:51</time>
      </trkpt>
      <trkpt lat="44.43397" lon="1.49297">
        <ele>270</ele>
        <time>2011-03-20T10:20:53</time>
      </trkpt>
      <trkpt lat="44.43395" lon="1.49295">
        <ele>270</ele>
        <time>2011-03-20T10:20:55</time>
      </trkpt>
      <trkpt lat="44.43392" lon="1.49293">
        <ele>270</ele>
        <time>2011-03-20T10:20:58</time>
      </trkpt>
      <trkpt lat="44.43391" lon="1.49291">
        <ele>278</ele>
        <time>2011-03-20T10:21:01</time>
      </trkpt>
      <trkpt lat="44.43389" lon="1.49289">
        <ele>278</ele>
        <time>2011-03-20T10:21:05</time>
      </trkpt>
      <trkpt lat="44.43387" lon="1.49285">
        <ele>278</ele>
        <time>2011-03-20T10:21:09</time>
      </trkpt>
      <trkpt lat="44.43385" lon="1.49283">
        <ele>278</ele>
        <time>2011-03-20T10:21:11</time>
      </trkpt>
      <trkpt lat="44.43383" lon="1.4928">
        <ele>278</ele>
        <time>2011-03-20T10:21:13</time>
      </trkpt>
      <trkpt lat="44.4338" lon="1.49277">
        <ele>278</ele>
        <time>2011-03-20T10:21:15</time>
      </trkpt>
      <trkpt lat="44.43377" lon="1.49272">
        <ele>278</ele>
        <time>2011-03-20T10:21:17</time>
      </trkpt>
      <trkpt lat="44.43374" lon="1.49268">
        <ele>271</ele>
        <time>2011-03-20T10:21:19</time>
      </trkpt>
      <trkpt lat="44.43372" lon="1.49263">
        <ele>271</ele>
        <time>2011-03-20T10:21:21</time>
      </trkpt>
      <trkpt lat="44.4337" lon="1.4926">
        <ele>271</ele>
        <time>2011-03-20T10:21:22</time>
      </trkpt>
      <trkpt lat="44.43368" lon="1.49254">
        <ele>271</ele>
        <time>2011-03-20T10:21:24</time>
      </trkpt>
      <trkpt lat="44.43367" lon="1.49248">
        <ele>271</ele>
        <time>2011-03-20T10:21:26</time>
      </trkpt>
      <trkpt lat="44.43365" lon="1.49241">
        <ele>271</ele>
        <time>2011-03-20T10:21:28</time>
      </trkpt>
      <trkpt lat="44.43363" lon="1.49235">
        <ele>271</ele>
        <time>2011-03-20T10:21:30</time>
      </trkpt>
      <trkpt lat="44.43361" lon="1.49228">
        <ele>271</ele>
        <time>2011-03-20T10:21:32</time>
      </trkpt>
      <trkpt lat="44.4336" lon="1.49221">
        <ele>271</ele>
        <time>2011-03-20T10:21:34</time>
      </trkpt>
      <trkpt lat="44.4336" lon="1.49218">
        <ele>271</ele>
        <time>2011-03-20T10:21:35</time>
      </trkpt>
      <trkpt lat="44.43358" lon="1.49211">
        <ele>271</ele>
        <time>2011-03-20T10:21:37</time>
      </trkpt>
      <trkpt lat="44.43356" lon="1.49205">
        <ele>277</ele>
        <time>2011-03-20T10:21:39</time>
      </trkpt>
      <trkpt lat="44.43355" lon="1.49202">
        <ele>277</ele>
        <time>2011-03-20T10:21:40</time>
      </trkpt>
      <trkpt lat="44.43354" lon="1.49195">
        <ele>277</ele>
        <time>2011-03-20T10:21:42</time>
      </trkpt>
      <trkpt lat="44.43353" lon="1.49191">
        <ele>277</ele>
        <time>2011-03-20T10:21:43</time>
      </trkpt>
      <trkpt lat="44.43353" lon="1.49188">
        <ele>277</ele>
        <time>2011-03-20T10:21:44</time>
      </trkpt>
      <trkpt lat="44.43353" lon="1.49184">
        <ele>277</ele>
        <time>2011-03-20T10:21:45</time>
      </trkpt>
      <trkpt lat="44.43352" lon="1.49177">
        <ele>277</ele>
        <time>2011-03-20T10:21:47</time>
      </trkpt>
      <trkpt lat="44.43352" lon="1.4917">
        <ele>277</ele>
        <time>2011-03-20T10:21:49</time>
      </trkpt>
      <trkpt lat="44.43352" lon="1.49167">
        <ele>277</ele>
        <time>2011-03-20T10:21:50</time>
      </trkpt>
      <trkpt lat="44.43351" lon="1.49163">
        <ele>277</ele>
        <time>2011-03-20T10:21:51</time>
      </trkpt>
      <trkpt lat="44.4335" lon="1.49156">
        <ele>277</ele>
        <time>2011-03-20T10:21:53</time>
      </trkpt>
      <trkpt lat="44.43349" lon="1.49148">
        <ele>277</ele>
        <time>2011-03-20T10:21:55</time>
      </trkpt>
      <trkpt lat="44.43348" lon="1.49141">
        <ele>277</ele>
        <time>2011-03-20T10:21:57</time>
      </trkpt>
      <trkpt lat="44.43348" lon="1.49137">
        <ele>277</ele>
        <time>2011-03-20T10:21:58</time>
      </trkpt>
      <trkpt lat="44.43348" lon="1.4913">
        <ele>277</ele>
        <time>2011-03-20T10:22:00</time>
      </trkpt>
      <trkpt lat="44.43348" lon="1.49127">
        <ele>277</ele>
        <time>2011-03-20T10:22:01</time>
      </trkpt>
      <trkpt lat="44.43348" lon="1.49119">
        <ele>277</ele>
        <time>2011-03-20T10:22:03</time>
      </trkpt>
      <trkpt lat="44.43348" lon="1.49115">
        <ele>277</ele>
        <time>2011-03-20T10:22:04</time>
      </trkpt>
      <trkpt lat="44.43347" lon="1.49106">
        <ele>277</ele>
        <time>2011-03-20T10:22:06</time>
      </trkpt>
      <trkpt lat="44.43347" lon="1.49098">
        <ele>277</ele>
        <time>2011-03-20T10:22:08</time>
      </trkpt>
      <trkpt lat="44.43347" lon="1.49094">
        <ele>277</ele>
        <time>2011-03-20T10:22:09</time>
      </trkpt>
      <trkpt lat="44.43346" lon="1.4909">
        <ele>277</ele>
        <time>2011-03-20T10:22:10</time>
      </trkpt>
      <trkpt lat="44.43346" lon="1.49086">
        <ele>277</ele>
        <time>2011-03-20T10:22:11</time>
      </trkpt>
      <trkpt lat="44.43345" lon="1.49076">
        <ele>277</ele>
        <time>2011-03-20T10:22:13</time>
      </trkpt>
      <trkpt lat="44.43343" lon="1.49068">
        <ele>277</ele>
        <time>2011-03-20T10:22:15</time>
      </trkpt>
      <trkpt lat="44.43342" lon="1.4906">
        <ele>277</ele>
        <time>2011-03-20T10:22:17</time>
      </trkpt>
      <trkpt lat="44.4334" lon="1.49052">
        <ele>277</ele>
        <time>2011-03-20T10:22:19</time>
      </trkpt>
      <trkpt lat="44.43338" lon="1.49043">
        <ele>277</ele>
        <time>2011-03-20T10:22:21</time>
      </trkpt>
      <trkpt lat="44.43338" lon="1.49039">
        <ele>276</ele>
        <time>2011-03-20T10:22:22</time>
      </trkpt>
      <trkpt lat="44.43337" lon="1.49034">
        <ele>276</ele>
        <time>2011-03-20T10:22:23</time>
      </trkpt>
      <trkpt lat="44.43336" lon="1.4903">
        <ele>276</ele>
        <time>2011-03-20T10:22:24</time>
      </trkpt>
      <trkpt lat="44.43335" lon="1.49025">
        <ele>276</ele>
        <time>2011-03-20T10:22:25</time>
      </trkpt>
      <trkpt lat="44.43334" lon="1.49021">
        <ele>276</ele>
        <time>2011-03-20T10:22:26</time>
      </trkpt>
      <trkpt lat="44.43332" lon="1.49017">
        <ele>276</ele>
        <time>2011-03-20T10:22:27</time>
      </trkpt>
      <trkpt lat="44.4333" lon="1.49006">
        <ele>276</ele>
        <time>2011-03-20T10:22:29</time>
      </trkpt>
      <trkpt lat="44.43329" lon="1.49001">
        <ele>276</ele>
        <time>2011-03-20T10:22:30</time>
      </trkpt>
      <trkpt lat="44.43327" lon="1.48989">
        <ele>276</ele>
        <time>2011-03-20T10:22:32</time>
      </trkpt>
      <trkpt lat="44.43325" lon="1.48983">
        <ele>276</ele>
        <time>2011-03-20T10:22:33</time>
      </trkpt>
      <trkpt lat="44.43323" lon="1.48977">
        <ele>276</ele>
        <time>2011-03-20T10:22:34</time>
      </trkpt>
      <trkpt lat="44.43319" lon="1.48965">
        <ele>276</ele>
        <time>2011-03-20T10:22:36</time>
      </trkpt>
      <trkpt lat="44.43317" lon="1.48959">
        <ele>276</ele>
        <time>2011-03-20T10:22:37</time>
      </trkpt>
      <trkpt lat="44.43315" lon="1.48953">
        <ele>279</ele>
        <time>2011-03-20T10:22:38</time>
      </trkpt>
      <trkpt lat="44.43311" lon="1.48941">
        <ele>279</ele>
        <time>2011-03-20T10:22:40</time>
      </trkpt>
      <trkpt lat="44.43306" lon="1.4893">
        <ele>279</ele>
        <time>2011-03-20T10:22:42</time>
      </trkpt>
      <trkpt lat="44.43301" lon="1.48918">
        <ele>279</ele>
        <time>2011-03-20T10:22:44</time>
      </trkpt>
      <trkpt lat="44.43299" lon="1.48912">
        <ele>279</ele>
        <time>2011-03-20T10:22:45</time>
      </trkpt>
      <trkpt lat="44.43294" lon="1.48899">
        <ele>279</ele>
        <time>2011-03-20T10:22:47</time>
      </trkpt>
      <trkpt lat="44.43289" lon="1.48887">
        <ele>263</ele>
        <time>2011-03-20T10:22:49</time>
      </trkpt>
      <trkpt lat="44.43286" lon="1.48881">
        <ele>263</ele>
        <time>2011-03-20T10:22:50</time>
      </trkpt>
      <trkpt lat="44.43281" lon="1.48868">
        <ele>269</ele>
        <time>2011-03-20T10:22:52</time>
      </trkpt>
      <trkpt lat="44.43276" lon="1.48857">
        <ele>269</ele>
        <time>2011-03-20T10:22:54</time>
      </trkpt>
      <trkpt lat="44.43271" lon="1.48843">
        <ele>269</ele>
        <time>2011-03-20T10:22:56</time>
      </trkpt>
      <trkpt lat="44.43267" lon="1.4883">
        <ele>269</ele>
        <time>2011-03-20T10:22:58</time>
      </trkpt>
      <trkpt lat="44.43264" lon="1.48824">
        <ele>269</ele>
        <time>2011-03-20T10:22:59</time>
      </trkpt>
      <trkpt lat="44.43259" lon="1.48811">
        <ele>269</ele>
        <time>2011-03-20T10:23:01</time>
      </trkpt>
      <trkpt lat="44.43254" lon="1.48798">
        <ele>269</ele>
        <time>2011-03-20T10:23:03</time>
      </trkpt>
      <trkpt lat="44.43249" lon="1.48785">
        <ele>272</ele>
        <time>2011-03-20T10:23:05</time>
      </trkpt>
      <trkpt lat="44.43247" lon="1.48779">
        <ele>272</ele>
        <time>2011-03-20T10:23:06</time>
      </trkpt>
      <trkpt lat="44.43242" lon="1.48764">
        <ele>272</ele>
        <time>2011-03-20T10:23:08</time>
      </trkpt>
      <trkpt lat="44.43237" lon="1.48749">
        <ele>272</ele>
        <time>2011-03-20T10:23:10</time>
      </trkpt>
      <trkpt lat="44.43232" lon="1.48735">
        <ele>272</ele>
        <time>2011-03-20T10:23:12</time>
      </trkpt>
      <trkpt lat="44.43228" lon="1.48728">
        <ele>272</ele>
        <time>2011-03-20T10:23:13</time>
      </trkpt>
      <trkpt lat="44.43219" lon="1.48715">
        <ele>272</ele>
        <time>2011-03-20T10:23:15</time>
      </trkpt>
      <trkpt lat="44.43209" lon="1.48705">
        <ele>271</ele>
        <time>2011-03-20T10:23:17</time>
      </trkpt>
      <trkpt lat="44.43198" lon="1.48695">
        <ele>265</ele>
        <time>2011-03-20T10:23:19</time>
      </trkpt>
      <trkpt lat="44.43185" lon="1.48687">
        <ele>265</ele>
        <time>2011-03-20T10:23:21</time>
      </trkpt>
      <trkpt lat="44.43172" lon="1.48681">
        <ele>265</ele>
        <time>2011-03-20T10:23:23</time>
      </trkpt>
      <trkpt lat="44.43165" lon="1.48678">
        <ele>265</ele>
        <time>2011-03-20T10:23:24</time>
      </trkpt>
      <trkpt lat="44.43152" lon="1.48672">
        <ele>265</ele>
        <time>2011-03-20T10:23:26</time>
      </trkpt>
      <trkpt lat="44.43139" lon="1.48668">
        <ele>265</ele>
        <time>2011-03-20T10:23:28</time>
      </trkpt>
      <trkpt lat="44.43126" lon="1.48666">
        <ele>265</ele>
        <time>2011-03-20T10:23:30</time>
      </trkpt>
      <trkpt lat="44.4312" lon="1.48664">
        <ele>267</ele>
        <time>2011-03-20T10:23:31</time>
      </trkpt>
      <trkpt lat="44.43107" lon="1.48662">
        <ele>267</ele>
        <time>2011-03-20T10:23:33</time>
      </trkpt>
      <trkpt lat="44.43095" lon="1.48659">
        <ele>267</ele>
        <time>2011-03-20T10:23:35</time>
      </trkpt>
      <trkpt lat="44.43084" lon="1.48655">
        <ele>267</ele>
        <time>2011-03-20T10:23:37</time>
      </trkpt>
      <trkpt lat="44.43078" lon="1.48653">
        <ele>267</ele>
        <time>2011-03-20T10:23:38</time>
      </trkpt>
      <trkpt lat="44.43069" lon="1.48645">
        <ele>267</ele>
        <time>2011-03-20T10:23:40</time>
      </trkpt>
      <trkpt lat="44.43065" lon="1.48641">
        <ele>267</ele>
        <time>2011-03-20T10:23:41</time>
      </trkpt>
      <trkpt lat="44.43057" lon="1.48632">
        <ele>267</ele>
        <time>2011-03-20T10:23:43</time>
      </trkpt>
      <trkpt lat="44.43049" lon="1.48624">
        <ele>266</ele>
        <time>2011-03-20T10:23:45</time>
      </trkpt>
      <trkpt lat="44.43045" lon="1.48621">
        <ele>266</ele>
        <time>2011-03-20T10:23:46</time>
      </trkpt>
      <trkpt lat="44.43037" lon="1.48613">
        <ele>268</ele>
        <time>2011-03-20T10:23:48</time>
      </trkpt>
      <trkpt lat="44.43033" lon="1.48609">
        <ele>268</ele>
        <time>2011-03-20T10:23:49</time>
      </trkpt>
      <trkpt lat="44.4303" lon="1.48605">
        <ele>268</ele>
        <time>2011-03-20T10:23:50</time>
      </trkpt>
      <trkpt lat="44.43026" lon="1.48602">
        <ele>268</ele>
        <time>2011-03-20T10:23:51</time>
      </trkpt>
      <trkpt lat="44.43018" lon="1.48596">
        <ele>268</ele>
        <time>2011-03-20T10:23:53</time>
      </trkpt>
      <trkpt lat="44.43011" lon="1.48589">
        <ele>268</ele>
        <time>2011-03-20T10:23:55</time>
      </trkpt>
      <trkpt lat="44.43008" lon="1.48586">
        <ele>268</ele>
        <time>2011-03-20T10:23:56</time>
      </trkpt>
      <trkpt lat="44.43001" lon="1.4858">
        <ele>268</ele>
        <time>2011-03-20T10:23:58</time>
      </trkpt>
      <trkpt lat="44.42995" lon="1.48573">
        <ele>268</ele>
        <time>2011-03-20T10:24:00</time>
      </trkpt>
      <trkpt lat="44.42988" lon="1.48567">
        <ele>268</ele>
        <time>2011-03-20T10:24:02</time>
      </trkpt>
      <trkpt lat="44.42985" lon="1.48564">
        <ele>268</ele>
        <time>2011-03-20T10:24:03</time>
      </trkpt>
      <trkpt lat="44.42983" lon="1.48561">
        <ele>268</ele>
        <time>2011-03-20T10:24:04</time>
      </trkpt>
      <trkpt lat="44.42977" lon="1.48555">
        <ele>268</ele>
        <time>2011-03-20T10:24:06</time>
      </trkpt>
      <trkpt lat="44.42971" lon="1.48549">
        <ele>268</ele>
        <time>2011-03-20T10:24:08</time>
      </trkpt>
      <trkpt lat="44.42965" lon="1.48544">
        <ele>268</ele>
        <time>2011-03-20T10:24:10</time>
      </trkpt>
      <trkpt lat="44.42959" lon="1.4854">
        <ele>265</ele>
        <time>2011-03-20T10:24:12</time>
      </trkpt>
      <trkpt lat="44.42956" lon="1.48537">
        <ele>271</ele>
        <time>2011-03-20T10:24:13</time>
      </trkpt>
      <trkpt lat="44.4295" lon="1.48532">
        <ele>271</ele>
        <time>2011-03-20T10:24:15</time>
      </trkpt>
      <trkpt lat="44.42947" lon="1.4853">
        <ele>271</ele>
        <time>2011-03-20T10:24:16</time>
      </trkpt>
      <trkpt lat="44.42941" lon="1.48524">
        <ele>271</ele>
        <time>2011-03-20T10:24:18</time>
      </trkpt>
      <trkpt lat="44.42937" lon="1.48521">
        <ele>271</ele>
        <time>2011-03-20T10:24:19</time>
      </trkpt>
      <trkpt lat="44.42931" lon="1.48515">
        <ele>271</ele>
        <time>2011-03-20T10:24:21</time>
      </trkpt>
      <trkpt lat="44.42926" lon="1.48509">
        <ele>271</ele>
        <time>2011-03-20T10:24:23</time>
      </trkpt>
      <trkpt lat="44.4292" lon="1.48502">
        <ele>271</ele>
        <time>2011-03-20T10:24:25</time>
      </trkpt>
      <trkpt lat="44.42914" lon="1.48496">
        <ele>271</ele>
        <time>2011-03-20T10:24:27</time>
      </trkpt>
      <trkpt lat="44.42909" lon="1.48489">
        <ele>271</ele>
        <time>2011-03-20T10:24:29</time>
      </trkpt>
      <trkpt lat="44.42903" lon="1.48483">
        <ele>271</ele>
        <time>2011-03-20T10:24:31</time>
      </trkpt>
      <trkpt lat="44.42901" lon="1.4848">
        <ele>271</ele>
        <time>2011-03-20T10:24:32</time>
      </trkpt>
      <trkpt lat="44.42896" lon="1.48474">
        <ele>271</ele>
        <time>2011-03-20T10:24:34</time>
      </trkpt>
      <trkpt lat="44.42891" lon="1.48468">
        <ele>271</ele>
        <time>2011-03-20T10:24:36</time>
      </trkpt>
      <trkpt lat="44.42886" lon="1.48463">
        <ele>271</ele>
        <time>2011-03-20T10:24:38</time>
      </trkpt>
      <trkpt lat="44.42882" lon="1.48457">
        <ele>272</ele>
        <time>2011-03-20T10:24:40</time>
      </trkpt>
      <trkpt lat="44.42878" lon="1.48452">
        <ele>272</ele>
        <time>2011-03-20T10:24:42</time>
      </trkpt>
      <trkpt lat="44.42875" lon="1.48447">
        <ele>272</ele>
        <time>2011-03-20T10:24:44</time>
      </trkpt>
      <trkpt lat="44.42874" lon="1.48446">
        <ele>271</ele>
        <time>2011-03-20T10:24:45</time>
      </trkpt>
      <trkpt lat="44.42873" lon="1.48442">
        <ele>271</ele>
        <time>2011-03-20T10:24:47</time>
      </trkpt>
      <trkpt lat="44.42871" lon="1.48438">
        <ele>271</ele>
        <time>2011-03-20T10:24:50</time>
      </trkpt>
      <trkpt lat="44.42867" lon="1.48433">
        <ele>271</ele>
        <time>2011-03-20T10:24:53</time>
      </trkpt>
      <trkpt lat="44.42865" lon="1.48428">
        <ele>271</ele>
        <time>2011-03-20T10:24:55</time>
      </trkpt>
      <trkpt lat="44.42862" lon="1.48424">
        <ele>271</ele>
        <time>2011-03-20T10:24:57</time>
      </trkpt>
      <trkpt lat="44.4286" lon="1.4842">
        <ele>271</ele>
        <time>2011-03-20T10:24:59</time>
      </trkpt>
      <trkpt lat="44.42857" lon="1.48416">
        <ele>271</ele>
        <time>2011-03-20T10:25:01</time>
      </trkpt>
      <trkpt lat="44.42854" lon="1.48412">
        <ele>271</ele>
        <time>2011-03-20T10:25:03</time>
      </trkpt>
      <trkpt lat="44.4285" lon="1.48407">
        <ele>271</ele>
        <time>2011-03-20T10:25:05</time>
      </trkpt>
      <trkpt lat="44.42846" lon="1.48403">
        <ele>271</ele>
        <time>2011-03-20T10:25:07</time>
      </trkpt>
      <trkpt lat="44.42844" lon="1.484">
        <ele>271</ele>
        <time>2011-03-20T10:25:08</time>
      </trkpt>
      <trkpt lat="44.42841" lon="1.48395">
        <ele>271</ele>
        <time>2011-03-20T10:25:10</time>
      </trkpt>
      <trkpt lat="44.42837" lon="1.48389">
        <ele>271</ele>
        <time>2011-03-20T10:25:12</time>
      </trkpt>
      <trkpt lat="44.42835" lon="1.48387">
        <ele>271</ele>
        <time>2011-03-20T10:25:13</time>
      </trkpt>
      <trkpt lat="44.42833" lon="1.48384">
        <ele>271</ele>
        <time>2011-03-20T10:25:14</time>
      </trkpt>
      <trkpt lat="44.42829" lon="1.48379">
        <ele>271</ele>
        <time>2011-03-20T10:25:16</time>
      </trkpt>
      <trkpt lat="44.42824" lon="1.48375">
        <ele>271</ele>
        <time>2011-03-20T10:25:18</time>
      </trkpt>
      <trkpt lat="44.42822" lon="1.48373">
        <ele>279</ele>
        <time>2011-03-20T10:25:19</time>
      </trkpt>
      <trkpt lat="44.4282" lon="1.48371">
        <ele>279</ele>
        <time>2011-03-20T10:25:20</time>
      </trkpt>
      <trkpt lat="44.42817" lon="1.48367">
        <ele>279</ele>
        <time>2011-03-20T10:25:22</time>
      </trkpt>
      <trkpt lat="44.42815" lon="1.48365">
        <ele>279</ele>
        <time>2011-03-20T10:25:23</time>
      </trkpt>
      <trkpt lat="44.42813" lon="1.48363">
        <ele>279</ele>
        <time>2011-03-20T10:25:24</time>
      </trkpt>
      <trkpt lat="44.42808" lon="1.4836">
        <ele>279</ele>
        <time>2011-03-20T10:25:26</time>
      </trkpt>
      <trkpt lat="44.42806" lon="1.48358">
        <ele>279</ele>
        <time>2011-03-20T10:25:27</time>
      </trkpt>
      <trkpt lat="44.42801" lon="1.48354">
        <ele>279</ele>
        <time>2011-03-20T10:25:29</time>
      </trkpt>
      <trkpt lat="44.42797" lon="1.4835">
        <ele>279</ele>
        <time>2011-03-20T10:25:31</time>
      </trkpt>
      <trkpt lat="44.42794" lon="1.48347">
        <ele>279</ele>
        <time>2011-03-20T10:25:33</time>
      </trkpt>
      <trkpt lat="44.42791" lon="1.48344">
        <ele>279</ele>
        <time>2011-03-20T10:25:35</time>
      </trkpt>
      <trkpt lat="44.42786" lon="1.48341">
        <ele>279</ele>
        <time>2011-03-20T10:25:37</time>
      </trkpt>
      <trkpt lat="44.42784" lon="1.4834">
        <ele>279</ele>
        <time>2011-03-20T10:25:38</time>
      </trkpt>
      <trkpt lat="44.42782" lon="1.48338">
        <ele>279</ele>
        <time>2011-03-20T10:25:39</time>
      </trkpt>
      <trkpt lat="44.42777" lon="1.48335">
        <ele>279</ele>
        <time>2011-03-20T10:25:41</time>
      </trkpt>
      <trkpt lat="44.42775" lon="1.48333">
        <ele>279</ele>
        <time>2011-03-20T10:25:42</time>
      </trkpt>
      <trkpt lat="44.4277" lon="1.48331">
        <ele>279</ele>
        <time>2011-03-20T10:25:44</time>
      </trkpt>
      <trkpt lat="44.42767" lon="1.48329">
        <ele>279</ele>
        <time>2011-03-20T10:25:46</time>
      </trkpt>
      <trkpt lat="44.42762" lon="1.48326">
        <ele>279</ele>
        <time>2011-03-20T10:25:48</time>
      </trkpt>
      <trkpt lat="44.4276" lon="1.48325">
        <ele>279</ele>
        <time>2011-03-20T10:25:49</time>
      </trkpt>
      <trkpt lat="44.42754" lon="1.48322">
        <ele>279</ele>
        <time>2011-03-20T10:25:51</time>
      </trkpt>
      <trkpt lat="44.42748" lon="1.48318">
        <ele>279</ele>
        <time>2011-03-20T10:25:53</time>
      </trkpt>
      <trkpt lat="44.42742" lon="1.48315">
        <ele>279</ele>
        <time>2011-03-20T10:25:55</time>
      </trkpt>
      <trkpt lat="44.42736" lon="1.48313">
        <ele>279</ele>
        <time>2011-03-20T10:25:57</time>
      </trkpt>
      <trkpt lat="44.4273" lon="1.48311">
        <ele>279</ele>
        <time>2011-03-20T10:25:59</time>
      </trkpt>
      <trkpt lat="44.42724" lon="1.4831">
        <ele>279</ele>
        <time>2011-03-20T10:26:01</time>
      </trkpt>
      <trkpt lat="44.42721" lon="1.48309">
        <ele>279</ele>
        <time>2011-03-20T10:26:02</time>
      </trkpt>
      <trkpt lat="44.42715" lon="1.48309">
        <ele>279</ele>
        <time>2011-03-20T10:26:04</time>
      </trkpt>
      <trkpt lat="44.42709" lon="1.4831">
        <ele>279</ele>
        <time>2011-03-20T10:26:06</time>
      </trkpt>
      <trkpt lat="44.42704" lon="1.48311">
        <ele>285</ele>
        <time>2011-03-20T10:26:08</time>
      </trkpt>
      <trkpt lat="44.42697" lon="1.48312">
        <ele>285</ele>
        <time>2011-03-20T10:26:11</time>
      </trkpt>
      <trkpt lat="44.42695" lon="1.48313">
        <ele>285</ele>
        <time>2011-03-20T10:26:12</time>
      </trkpt>
      <trkpt lat="44.4269" lon="1.48314">
        <ele>285</ele>
        <time>2011-03-20T10:26:14</time>
      </trkpt>
      <trkpt lat="44.42685" lon="1.48316">
        <ele>285</ele>
        <time>2011-03-20T10:26:16</time>
      </trkpt>
      <trkpt lat="44.42682" lon="1.48316">
        <ele>285</ele>
        <time>2011-03-20T10:26:17</time>
      </trkpt>
      <trkpt lat="44.42677" lon="1.48318">
        <ele>285</ele>
        <time>2011-03-20T10:26:19</time>
      </trkpt>
      <trkpt lat="44.42674" lon="1.48319">
        <ele>285</ele>
        <time>2011-03-20T10:26:20</time>
      </trkpt>
      <trkpt lat="44.42669" lon="1.4832">
        <ele>285</ele>
        <time>2011-03-20T10:26:22</time>
      </trkpt>
      <trkpt lat="44.42665" lon="1.48322">
        <ele>285</ele>
        <time>2011-03-20T10:26:24</time>
      </trkpt>
      <trkpt lat="44.42661" lon="1.48323">
        <ele>285</ele>
        <time>2011-03-20T10:26:26</time>
      </trkpt>
      <trkpt lat="44.42658" lon="1.48324">
        <ele>285</ele>
        <time>2011-03-20T10:26:28</time>
      </trkpt>
      <trkpt lat="44.42655" lon="1.48325">
        <ele>285</ele>
        <time>2011-03-20T10:26:30</time>
      </trkpt>
      <trkpt lat="44.42651" lon="1.48326">
        <ele>285</ele>
        <time>2011-03-20T10:26:32</time>
      </trkpt>
      <trkpt lat="44.42646" lon="1.48326">
        <ele>285</ele>
        <time>2011-03-20T10:26:34</time>
      </trkpt>
      <trkpt lat="44.42642" lon="1.48327">
        <ele>285</ele>
        <time>2011-03-20T10:26:36</time>
      </trkpt>
      <trkpt lat="44.42637" lon="1.48327">
        <ele>285</ele>
        <time>2011-03-20T10:26:38</time>
      </trkpt>
      <trkpt lat="44.42633" lon="1.48327">
        <ele>285</ele>
        <time>2011-03-20T10:26:40</time>
      </trkpt>
      <trkpt lat="44.42626" lon="1.48324">
        <ele>285</ele>
        <time>2011-03-20T10:26:43</time>
      </trkpt>
      <trkpt lat="44.42622" lon="1.4832">
        <ele>290</ele>
        <time>2011-03-20T10:26:45</time>
      </trkpt>
      <trkpt lat="44.42619" lon="1.48316">
        <ele>290</ele>
        <time>2011-03-20T10:26:47</time>
      </trkpt>
      <trkpt lat="44.42615" lon="1.48312">
        <ele>290</ele>
        <time>2011-03-20T10:26:49</time>
      </trkpt>
      <trkpt lat="44.42613" lon="1.4831">
        <ele>290</ele>
        <time>2011-03-20T10:26:50</time>
      </trkpt>
      <trkpt lat="44.42611" lon="1.48308">
        <ele>290</ele>
        <time>2011-03-20T10:26:51</time>
      </trkpt>
      <trkpt lat="44.42605" lon="1.48304">
        <ele>290</ele>
        <time>2011-03-20T10:26:54</time>
      </trkpt>
      <trkpt lat="44.42604" lon="1.48301">
        <ele>290</ele>
        <time>2011-03-20T10:26:55</time>
      </trkpt>
      <trkpt lat="44.42602" lon="1.48297">
        <ele>290</ele>
        <time>2011-03-20T10:26:57</time>
      </trkpt>
      <trkpt lat="44.426" lon="1.48294">
        <ele>290</ele>
        <time>2011-03-20T10:26:58</time>
      </trkpt>
      <trkpt lat="44.42599" lon="1.48291">
        <ele>290</ele>
        <time>2011-03-20T10:26:59</time>
      </trkpt>
      <trkpt lat="44.42596" lon="1.48287">
        <ele>290</ele>
        <time>2011-03-20T10:27:01</time>
      </trkpt>
      <trkpt lat="44.42593" lon="1.48283">
        <ele>290</ele>
        <time>2011-03-20T10:27:03</time>
      </trkpt>
      <trkpt lat="44.4259" lon="1.4828">
        <ele>290</ele>
        <time>2011-03-20T10:27:05</time>
      </trkpt>
      <trkpt lat="44.42587" lon="1.48276">
        <ele>290</ele>
        <time>2011-03-20T10:27:07</time>
      </trkpt>
      <trkpt lat="44.42585" lon="1.48273">
        <ele>290</ele>
        <time>2011-03-20T10:27:09</time>
      </trkpt>
      <trkpt lat="44.42583" lon="1.48268">
        <ele>290</ele>
        <time>2011-03-20T10:27:11</time>
      </trkpt>
      <trkpt lat="44.4258" lon="1.48267">
        <ele>290</ele>
        <time>2011-03-20T10:27:13</time>
      </trkpt>
      <trkpt lat="44.42577" lon="1.48265">
        <ele>290</ele>
        <time>2011-03-20T10:27:15</time>
      </trkpt>
      <trkpt lat="44.42575" lon="1.48264">
        <ele>290</ele>
        <time>2011-03-20T10:27:17</time>
      </trkpt>
      <trkpt lat="44.42572" lon="1.48264">
        <ele>290</ele>
        <time>2011-03-20T10:27:19</time>
      </trkpt>
      <trkpt lat="44.42569" lon="1.48264">
        <ele>290</ele>
        <time>2011-03-20T10:27:21</time>
      </trkpt>
      <trkpt lat="44.42566" lon="1.48263">
        <ele>290</ele>
        <time>2011-03-20T10:27:23</time>
      </trkpt>
      <trkpt lat="44.42563" lon="1.48261">
        <ele>290</ele>
        <time>2011-03-20T10:27:25</time>
      </trkpt>
      <trkpt lat="44.42561" lon="1.48259">
        <ele>290</ele>
        <time>2011-03-20T10:27:26</time>
      </trkpt>
      <trkpt lat="44.42554" lon="1.48255">
        <ele>290</ele>
        <time>2011-03-20T10:27:28</time>
      </trkpt>
      <trkpt lat="44.42547" lon="1.4825">
        <ele>290</ele>
        <time>2011-03-20T10:27:30</time>
      </trkpt>
      <trkpt lat="44.42543" lon="1.48248">
        <ele>290</ele>
        <time>2011-03-20T10:27:31</time>
      </trkpt>
      <trkpt lat="44.42536" lon="1.48242">
        <ele>292</ele>
        <time>2011-03-20T10:27:33</time>
      </trkpt>
      <trkpt lat="44.42528" lon="1.48236">
        <ele>292</ele>
        <time>2011-03-20T10:27:35</time>
      </trkpt>
      <trkpt lat="44.42521" lon="1.4823">
        <ele>292</ele>
        <time>2011-03-20T10:27:37</time>
      </trkpt>
      <trkpt lat="44.42514" lon="1.48221">
        <ele>292</ele>
        <time>2011-03-20T10:27:39</time>
      </trkpt>
      <trkpt lat="44.4251" lon="1.48216">
        <ele>292</ele>
        <time>2011-03-20T10:27:40</time>
      </trkpt>
      <trkpt lat="44.42507" lon="1.48211">
        <ele>292</ele>
        <time>2011-03-20T10:27:41</time>
      </trkpt>
      <trkpt lat="44.42505" lon="1.48206">
        <ele>289</ele>
        <time>2011-03-20T10:27:42</time>
      </trkpt>
      <trkpt lat="44.425" lon="1.48195">
        <ele>289</ele>
        <time>2011-03-20T10:27:44</time>
      </trkpt>
      <trkpt lat="44.42498" lon="1.48189">
        <ele>289</ele>
        <time>2011-03-20T10:27:45</time>
      </trkpt>
      <trkpt lat="44.42495" lon="1.48176">
        <ele>289</ele>
        <time>2011-03-20T10:27:47</time>
      </trkpt>
      <trkpt lat="44.42494" lon="1.4817">
        <ele>289</ele>
        <time>2011-03-20T10:27:48</time>
      </trkpt>
      <trkpt lat="44.42494" lon="1.48156">
        <ele>289</ele>
        <time>2011-03-20T10:27:50</time>
      </trkpt>
      <trkpt lat="44.42494" lon="1.48142">
        <ele>289</ele>
        <time>2011-03-20T10:27:52</time>
      </trkpt>
      <trkpt lat="44.42496" lon="1.48135">
        <ele>289</ele>
        <time>2011-03-20T10:27:53</time>
      </trkpt>
      <trkpt lat="44.42497" lon="1.48128">
        <ele>289</ele>
        <time>2011-03-20T10:27:54</time>
      </trkpt>
      <trkpt lat="44.425" lon="1.48113">
        <ele>286</ele>
        <time>2011-03-20T10:27:56</time>
      </trkpt>
      <trkpt lat="44.42501" lon="1.48106">
        <ele>286</ele>
        <time>2011-03-20T10:27:57</time>
      </trkpt>
      <trkpt lat="44.42505" lon="1.48091">
        <ele>286</ele>
        <time>2011-03-20T10:27:59</time>
      </trkpt>
      <trkpt lat="44.42506" lon="1.48085">
        <ele>286</ele>
        <time>2011-03-20T10:28:00</time>
      </trkpt>
      <trkpt lat="44.42508" lon="1.48078">
        <ele>286</ele>
        <time>2011-03-20T10:28:01</time>
      </trkpt>
      <trkpt lat="44.4251" lon="1.48068">
        <ele>286</ele>
        <time>2011-03-20T10:28:03</time>
      </trkpt>
      <trkpt lat="44.42511" lon="1.48062">
        <ele>286</ele>
        <time>2011-03-20T10:28:04</time>
      </trkpt>
      <trkpt lat="44.42514" lon="1.48048">
        <ele>286</ele>
        <time>2011-03-20T10:28:06</time>
      </trkpt>
      <trkpt lat="44.42516" lon="1.4804">
        <ele>281</ele>
        <time>2011-03-20T10:28:07</time>
      </trkpt>
      <trkpt lat="44.4252" lon="1.48022">
        <ele>281</ele>
        <time>2011-03-20T10:28:09</time>
      </trkpt>
      <trkpt lat="44.42522" lon="1.48013">
        <ele>281</ele>
        <time>2011-03-20T10:28:10</time>
      </trkpt>
      <trkpt lat="44.42524" lon="1.48004">
        <ele>281</ele>
        <time>2011-03-20T10:28:11</time>
      </trkpt>
      <trkpt lat="44.42527" lon="1.47986">
        <ele>281</ele>
        <time>2011-03-20T10:28:13</time>
      </trkpt>
      <trkpt lat="44.42531" lon="1.47967">
        <ele>281</ele>
        <time>2011-03-20T10:28:15</time>
      </trkpt>
      <trkpt lat="44.42534" lon="1.47949">
        <ele>274</ele>
        <time>2011-03-20T10:28:17</time>
      </trkpt>
      <trkpt lat="44.42538" lon="1.47932">
        <ele>274</ele>
        <time>2011-03-20T10:28:19</time>
      </trkpt>
      <trkpt lat="44.4254" lon="1.47924">
        <ele>274</ele>
        <time>2011-03-20T10:28:20</time>
      </trkpt>
      <trkpt lat="44.42544" lon="1.47908">
        <ele>274</ele>
        <time>2011-03-20T10:28:22</time>
      </trkpt>
      <trkpt lat="44.42546" lon="1.47901">
        <ele>274</ele>
        <time>2011-03-20T10:28:23</time>
      </trkpt>
      <trkpt lat="44.42548" lon="1.47894">
        <ele>274</ele>
        <time>2011-03-20T10:28:24</time>
      </trkpt>
      <trkpt lat="44.42554" lon="1.4788">
        <ele>274</ele>
        <time>2011-03-20T10:28:26</time>
      </trkpt>
      <trkpt lat="44.4256" lon="1.47867">
        <ele>277</ele>
        <time>2011-03-20T10:28:28</time>
      </trkpt>
      <trkpt lat="44.42564" lon="1.47861">
        <ele>277</ele>
        <time>2011-03-20T10:28:29</time>
      </trkpt>
      <trkpt lat="44.4257" lon="1.47849">
        <ele>277</ele>
        <time>2011-03-20T10:28:31</time>
      </trkpt>
      <trkpt lat="44.42577" lon="1.47836">
        <ele>277</ele>
        <time>2011-03-20T10:28:33</time>
      </trkpt>
      <trkpt lat="44.4258" lon="1.4783">
        <ele>277</ele>
        <time>2011-03-20T10:28:34</time>
      </trkpt>
      <trkpt lat="44.42585" lon="1.47816">
        <ele>277</ele>
        <time>2011-03-20T10:28:36</time>
      </trkpt>
      <trkpt lat="44.42589" lon="1.47803">
        <ele>277</ele>
        <time>2011-03-20T10:28:38</time>
      </trkpt>
      <trkpt lat="44.42593" lon="1.47788">
        <ele>275</ele>
        <time>2011-03-20T10:28:40</time>
      </trkpt>
      <trkpt lat="44.42595" lon="1.47781">
        <ele>275</ele>
        <time>2011-03-20T10:28:41</time>
      </trkpt>
      <trkpt lat="44.42599" lon="1.47766">
        <ele>275</ele>
        <time>2011-03-20T10:28:43</time>
      </trkpt>
      <trkpt lat="44.42602" lon="1.47751">
        <ele>275</ele>
        <time>2011-03-20T10:28:45</time>
      </trkpt>
      <trkpt lat="44.42604" lon="1.47744">
        <ele>275</ele>
        <time>2011-03-20T10:28:46</time>
      </trkpt>
      <trkpt lat="44.42607" lon="1.47731">
        <ele>275</ele>
        <time>2011-03-20T10:28:48</time>
      </trkpt>
      <trkpt lat="44.4261" lon="1.47717">
        <ele>275</ele>
        <time>2011-03-20T10:28:50</time>
      </trkpt>
      <trkpt lat="44.42613" lon="1.47704">
        <ele>269</ele>
        <time>2011-03-20T10:28:52</time>
      </trkpt>
      <trkpt lat="44.42617" lon="1.47692">
        <ele>269</ele>
        <time>2011-03-20T10:28:54</time>
      </trkpt>
      <trkpt lat="44.42621" lon="1.4768">
        <ele>269</ele>
        <time>2011-03-20T10:28:56</time>
      </trkpt>
      <trkpt lat="44.42626" lon="1.47668">
        <ele>275</ele>
        <time>2011-03-20T10:28:58</time>
      </trkpt>
      <trkpt lat="44.42628" lon="1.47662">
        <ele>275</ele>
        <time>2011-03-20T10:28:59</time>
      </trkpt>
      <trkpt lat="44.42632" lon="1.47652">
        <ele>275</ele>
        <time>2011-03-20T10:29:01</time>
      </trkpt>
      <trkpt lat="44.42636" lon="1.47642">
        <ele>275</ele>
        <time>2011-03-20T10:29:03</time>
      </trkpt>
      <trkpt lat="44.42638" lon="1.47637">
        <ele>275</ele>
        <time>2011-03-20T10:29:04</time>
      </trkpt>
      <trkpt lat="44.4264" lon="1.47633">
        <ele>275</ele>
        <time>2011-03-20T10:29:05</time>
      </trkpt>
      <trkpt lat="44.42647" lon="1.47622">
        <ele>277</ele>
        <time>2011-03-20T10:29:07</time>
      </trkpt>
      <trkpt lat="44.4265" lon="1.47618">
        <ele>277</ele>
        <time>2011-03-20T10:29:08</time>
      </trkpt>
      <trkpt lat="44.42656" lon="1.4761">
        <ele>277</ele>
        <time>2011-03-20T10:29:10</time>
      </trkpt>
      <trkpt lat="44.4266" lon="1.47607">
        <ele>277</ele>
        <time>2011-03-20T10:29:11</time>
      </trkpt>
      <trkpt lat="44.42664" lon="1.47604">
        <ele>277</ele>
        <time>2011-03-20T10:29:12</time>
      </trkpt>
      <trkpt lat="44.42672" lon="1.47598">
        <ele>277</ele>
        <time>2011-03-20T10:29:14</time>
      </trkpt>
      <trkpt lat="44.4268" lon="1.47591">
        <ele>277</ele>
        <time>2011-03-20T10:29:16</time>
      </trkpt>
      <trkpt lat="44.42689" lon="1.47585">
        <ele>277</ele>
        <time>2011-03-20T10:29:18</time>
      </trkpt>
      <trkpt lat="44.42693" lon="1.47583">
        <ele>277</ele>
        <time>2011-03-20T10:29:19</time>
      </trkpt>
      <trkpt lat="44.42698" lon="1.4758">
        <ele>277</ele>
        <time>2011-03-20T10:29:20</time>
      </trkpt>
      <trkpt lat="44.42703" lon="1.47578">
        <ele>277</ele>
        <time>2011-03-20T10:29:21</time>
      </trkpt>
      <trkpt lat="44.42708" lon="1.47576">
        <ele>277</ele>
        <time>2011-03-20T10:29:22</time>
      </trkpt>
      <trkpt lat="44.42717" lon="1.47572">
        <ele>277</ele>
        <time>2011-03-20T10:29:24</time>
      </trkpt>
      <trkpt lat="44.42727" lon="1.4757">
        <ele>277</ele>
        <time>2011-03-20T10:29:26</time>
      </trkpt>
      <trkpt lat="44.42736" lon="1.47567">
        <ele>277</ele>
        <time>2011-03-20T10:29:28</time>
      </trkpt>
      <trkpt lat="44.42746" lon="1.47565">
        <ele>277</ele>
        <time>2011-03-20T10:29:30</time>
      </trkpt>
      <trkpt lat="44.42755" lon="1.47564">
        <ele>277</ele>
        <time>2011-03-20T10:29:32</time>
      </trkpt>
      <trkpt lat="44.4276" lon="1.47564">
        <ele>277</ele>
        <time>2011-03-20T10:29:33</time>
      </trkpt>
      <trkpt lat="44.42764" lon="1.47563">
        <ele>277</ele>
        <time>2011-03-20T10:29:34</time>
      </trkpt>
      <trkpt lat="44.42773" lon="1.47562">
        <ele>277</ele>
        <time>2011-03-20T10:29:36</time>
      </trkpt>
      <trkpt lat="44.42778" lon="1.47561">
        <ele>277</ele>
        <time>2011-03-20T10:29:37</time>
      </trkpt>
      <trkpt lat="44.42786" lon="1.4756">
        <ele>277</ele>
        <time>2011-03-20T10:29:39</time>
      </trkpt>
      <trkpt lat="44.42795" lon="1.47559">
        <ele>276</ele>
        <time>2011-03-20T10:29:41</time>
      </trkpt>
      <trkpt lat="44.428" lon="1.47558">
        <ele>276</ele>
        <time>2011-03-20T10:29:42</time>
      </trkpt>
      <trkpt lat="44.42809" lon="1.47556">
        <ele>276</ele>
        <time>2011-03-20T10:29:44</time>
      </trkpt>
      <trkpt lat="44.42813" lon="1.47556">
        <ele>276</ele>
        <time>2011-03-20T10:29:45</time>
      </trkpt>
      <trkpt lat="44.42818" lon="1.47555">
        <ele>276</ele>
        <time>2011-03-20T10:29:46</time>
      </trkpt>
      <trkpt lat="44.42827" lon="1.47553">
        <ele>276</ele>
        <time>2011-03-20T10:29:48</time>
      </trkpt>
      <trkpt lat="44.42838" lon="1.47552">
        <ele>276</ele>
        <time>2011-03-20T10:29:50</time>
      </trkpt>
      <trkpt lat="44.42847" lon="1.47551">
        <ele>276</ele>
        <time>2011-03-20T10:29:52</time>
      </trkpt>
      <trkpt lat="44.42858" lon="1.4755">
        <ele>276</ele>
        <time>2011-03-20T10:29:54</time>
      </trkpt>
      <trkpt lat="44.42863" lon="1.4755">
        <ele>276</ele>
        <time>2011-03-20T10:29:55</time>
      </trkpt>
      <trkpt lat="44.42867" lon="1.4755">
        <ele>276</ele>
        <time>2011-03-20T10:29:56</time>
      </trkpt>
      <trkpt lat="44.42875" lon="1.4755">
        <ele>276</ele>
        <time>2011-03-20T10:29:58</time>
      </trkpt>
      <trkpt lat="44.42883" lon="1.47552">
        <ele>277</ele>
        <time>2011-03-20T10:30:00</time>
      </trkpt>
      <trkpt lat="44.4289" lon="1.47556">
        <ele>277</ele>
        <time>2011-03-20T10:30:02</time>
      </trkpt>
      <trkpt lat="44.42898" lon="1.4756">
        <ele>277</ele>
        <time>2011-03-20T10:30:04</time>
      </trkpt>
      <trkpt lat="44.42901" lon="1.47562">
        <ele>277</ele>
        <time>2011-03-20T10:30:05</time>
      </trkpt>
      <trkpt lat="44.42905" lon="1.47564">
        <ele>277</ele>
        <time>2011-03-20T10:30:06</time>
      </trkpt>
      <trkpt lat="44.42912" lon="1.47568">
        <ele>277</ele>
        <time>2011-03-20T10:30:08</time>
      </trkpt>
      <trkpt lat="44.42915" lon="1.4757">
        <ele>277</ele>
        <time>2011-03-20T10:30:09</time>
      </trkpt>
      <trkpt lat="44.42924" lon="1.47575">
        <ele>277</ele>
        <time>2011-03-20T10:30:11</time>
      </trkpt>
      <trkpt lat="44.42928" lon="1.47578">
        <ele>277</ele>
        <time>2011-03-20T10:30:12</time>
      </trkpt>
      <trkpt lat="44.42932" lon="1.4758">
        <ele>277</ele>
        <time>2011-03-20T10:30:13</time>
      </trkpt>
      <trkpt lat="44.4294" lon="1.47586">
        <ele>277</ele>
        <time>2011-03-20T10:30:15</time>
      </trkpt>
      <trkpt lat="44.42943" lon="1.47589">
        <ele>277</ele>
        <time>2011-03-20T10:30:16</time>
      </trkpt>
      <trkpt lat="44.4295" lon="1.47594">
        <ele>277</ele>
        <time>2011-03-20T10:30:18</time>
      </trkpt>
      <trkpt lat="44.42953" lon="1.47597">
        <ele>277</ele>
        <time>2011-03-20T10:30:19</time>
      </trkpt>
      <trkpt lat="44.4296" lon="1.47601">
        <ele>277</ele>
        <time>2011-03-20T10:30:21</time>
      </trkpt>
      <trkpt lat="44.42964" lon="1.47603">
        <ele>277</ele>
        <time>2011-03-20T10:30:22</time>
      </trkpt>
      <trkpt lat="44.42972" lon="1.47607">
        <ele>277</ele>
        <time>2011-03-20T10:30:24</time>
      </trkpt>
      <trkpt lat="44.42975" lon="1.47608">
        <ele>277</ele>
        <time>2011-03-20T10:30:25</time>
      </trkpt>
      <trkpt lat="44.42979" lon="1.4761">
        <ele>277</ele>
        <time>2011-03-20T10:30:33</time>
      </trkpt>
      <trkpt lat="44.42986" lon="1.47612">
        <ele>277</ele>
        <time>2011-03-20T10:30:43</time>
      </trkpt>
      <trkpt lat="44.42986" lon="1.47612">
        <ele>277</ele>
        <time>2011-03-20T10:30:44</time>
      </trkpt>
      <trkpt lat="44.42981" lon="1.4761">
        <ele>277</ele>
        <time>2011-03-20T10:31:49</time>
      </trkpt>
      <trkpt lat="44.42985" lon="1.47606">
        <ele>277</ele>
        <time>2011-03-20T10:32:17</time>
      </trkpt>
      <trkpt lat="44.42988" lon="1.47606">
        <ele>277</ele>
        <time>2011-03-20T10:32:21</time>
      </trkpt>
      <trkpt lat="44.42988" lon="1.47606">
        <ele>277</ele>
        <time>2011-03-20T10:32:22</time>
      </trkpt>
      <trkpt lat="44.42991" lon="1.47606">
        <ele>277</ele>
        <time>2011-03-20T10:32:22</time>
      </trkpt>
      <trkpt lat="44.42997" lon="1.47606">
        <ele>277</ele>
        <time>2011-03-20T10:32:24</time>
      </trkpt>
      <trkpt lat="44.43" lon="1.47606">
        <ele>277</ele>
        <time>2011-03-20T10:32:25</time>
      </trkpt>
      <trkpt lat="44.43007" lon="1.47608">
        <ele>277</ele>
        <time>2011-03-20T10:32:27</time>
      </trkpt>
      <trkpt lat="44.43011" lon="1.47609">
        <ele>277</ele>
        <time>2011-03-20T10:32:28</time>
      </trkpt>
      <trkpt lat="44.43016" lon="1.47613">
        <ele>277</ele>
        <time>2011-03-20T10:32:30</time>
      </trkpt>
      <trkpt lat="44.43019" lon="1.47615">
        <ele>277</ele>
        <time>2011-03-20T10:32:31</time>
      </trkpt>
      <trkpt lat="44.43025" lon="1.47619">
        <ele>277</ele>
        <time>2011-03-20T10:32:33</time>
      </trkpt>
      <trkpt lat="44.43028" lon="1.47621">
        <ele>277</ele>
        <time>2011-03-20T10:32:34</time>
      </trkpt>
      <trkpt lat="44.43034" lon="1.47625">
        <ele>272</ele>
        <time>2011-03-20T10:32:36</time>
      </trkpt>
      <trkpt lat="44.43037" lon="1.47627">
        <ele>272</ele>
        <time>2011-03-20T10:32:37</time>
      </trkpt>
      <trkpt lat="44.4304" lon="1.47628">
        <ele>272</ele>
        <time>2011-03-20T10:32:38</time>
      </trkpt>
      <trkpt lat="44.43047" lon="1.47631">
        <ele>278</ele>
        <time>2011-03-20T10:32:40</time>
      </trkpt>
      <trkpt lat="44.43051" lon="1.47632">
        <ele>278</ele>
        <time>2011-03-20T10:32:41</time>
      </trkpt>
      <trkpt lat="44.43058" lon="1.47633">
        <ele>278</ele>
        <time>2011-03-20T10:32:43</time>
      </trkpt>
      <trkpt lat="44.43062" lon="1.47634">
        <ele>278</ele>
        <time>2011-03-20T10:32:44</time>
      </trkpt>
      <trkpt lat="44.43069" lon="1.47637">
        <ele>278</ele>
        <time>2011-03-20T10:32:46</time>
      </trkpt>
      <trkpt lat="44.43072" lon="1.47638">
        <ele>278</ele>
        <time>2011-03-20T10:32:47</time>
      </trkpt>
      <trkpt lat="44.43078" lon="1.47641">
        <ele>278</ele>
        <time>2011-03-20T10:32:49</time>
      </trkpt>
      <trkpt lat="44.43082" lon="1.47642">
        <ele>278</ele>
        <time>2011-03-20T10:32:51</time>
      </trkpt>
      <trkpt lat="44.43085" lon="1.47643">
        <ele>278</ele>
        <time>2011-03-20T10:32:52</time>
      </trkpt>
      <trkpt lat="44.43088" lon="1.47644">
        <ele>278</ele>
        <time>2011-03-20T10:32:53</time>
      </trkpt>
      <trkpt lat="44.43094" lon="1.47647">
        <ele>278</ele>
        <time>2011-03-20T10:32:55</time>
      </trkpt>
      <trkpt lat="44.43097" lon="1.47649">
        <ele>278</ele>
        <time>2011-03-20T10:32:56</time>
      </trkpt>
      <trkpt lat="44.431" lon="1.4765">
        <ele>278</ele>
        <time>2011-03-20T10:32:57</time>
      </trkpt>
      <trkpt lat="44.43103" lon="1.47652">
        <ele>278</ele>
        <time>2011-03-20T10:32:58</time>
      </trkpt>
      <trkpt lat="44.4311" lon="1.47654">
        <ele>278</ele>
        <time>2011-03-20T10:33:00</time>
      </trkpt>
      <trkpt lat="44.43114" lon="1.47655">
        <ele>278</ele>
        <time>2011-03-20T10:33:01</time>
      </trkpt>
      <trkpt lat="44.43121" lon="1.47656">
        <ele>278</ele>
        <time>2011-03-20T10:33:03</time>
      </trkpt>
      <trkpt lat="44.43128" lon="1.47657">
        <ele>272</ele>
        <time>2011-03-20T10:33:05</time>
      </trkpt>
      <trkpt lat="44.43131" lon="1.47656">
        <ele>272</ele>
        <time>2011-03-20T10:33:06</time>
      </trkpt>
      <trkpt lat="44.43137" lon="1.47654">
        <ele>272</ele>
        <time>2011-03-20T10:33:08</time>
      </trkpt>
      <trkpt lat="44.43142" lon="1.47652">
        <ele>272</ele>
        <time>2011-03-20T10:33:10</time>
      </trkpt>
      <trkpt lat="44.43145" lon="1.4765">
        <ele>272</ele>
        <time>2011-03-20T10:33:11</time>
      </trkpt>
      <trkpt lat="44.43148" lon="1.47648">
        <ele>272</ele>
        <time>2011-03-20T10:33:12</time>
      </trkpt>
      <trkpt lat="44.4315" lon="1.47645">
        <ele>272</ele>
        <time>2011-03-20T10:33:13</time>
      </trkpt>
      <trkpt lat="44.43155" lon="1.47639">
        <ele>272</ele>
        <time>2011-03-20T10:33:15</time>
      </trkpt>
      <trkpt lat="44.43158" lon="1.47636">
        <ele>272</ele>
        <time>2011-03-20T10:33:16</time>
      </trkpt>
      <trkpt lat="44.43162" lon="1.47631">
        <ele>272</ele>
        <time>2011-03-20T10:33:18</time>
      </trkpt>
      <trkpt lat="44.43167" lon="1.47627">
        <ele>272</ele>
        <time>2011-03-20T10:33:20</time>
      </trkpt>
      <trkpt lat="44.43169" lon="1.47626">
        <ele>272</ele>
        <time>2011-03-20T10:33:22</time>
      </trkpt>
      <trkpt lat="44.4317" lon="1.47626">
        <ele>272</ele>
        <time>2011-03-20T10:33:24</time>
      </trkpt>
      <trkpt lat="44.43172" lon="1.47624">
        <ele>273</ele>
        <time>2011-03-20T10:33:36</time>
      </trkpt>
      <trkpt lat="44.43176" lon="1.47623">
        <ele>273</ele>
        <time>2011-03-20T10:33:38</time>
      </trkpt>
      <trkpt lat="44.43181" lon="1.47623">
        <ele>273</ele>
        <time>2011-03-20T10:33:40</time>
      </trkpt>
      <trkpt lat="44.43185" lon="1.47621">
        <ele>273</ele>
        <time>2011-03-20T10:33:42</time>
      </trkpt>
      <trkpt lat="44.43187" lon="1.47619">
        <ele>273</ele>
        <time>2011-03-20T10:33:43</time>
      </trkpt>
      <trkpt lat="44.43191" lon="1.47617">
        <ele>273</ele>
        <time>2011-03-20T10:33:45</time>
      </trkpt>
      <trkpt lat="44.43195" lon="1.47614">
        <ele>273</ele>
        <time>2011-03-20T10:33:47</time>
      </trkpt>
      <trkpt lat="44.43199" lon="1.4761">
        <ele>273</ele>
        <time>2011-03-20T10:33:49</time>
      </trkpt>
      <trkpt lat="44.43202" lon="1.47607">
        <ele>273</ele>
        <time>2011-03-20T10:33:51</time>
      </trkpt>
      <trkpt lat="44.43205" lon="1.47605">
        <ele>273</ele>
        <time>2011-03-20T10:33:53</time>
      </trkpt>
      <trkpt lat="44.43208" lon="1.47601">
        <ele>273</ele>
        <time>2011-03-20T10:33:55</time>
      </trkpt>
      <trkpt lat="44.43211" lon="1.47596">
        <ele>255</ele>
        <time>2011-03-20T10:33:57</time>
      </trkpt>
      <trkpt lat="44.43212" lon="1.47594">
        <ele>255</ele>
        <time>2011-03-20T10:33:58</time>
      </trkpt>
      <trkpt lat="44.43214" lon="1.47589">
        <ele>255</ele>
        <time>2011-03-20T10:34:00</time>
      </trkpt>
      <trkpt lat="44.43215" lon="1.47582">
        <ele>255</ele>
        <time>2011-03-20T10:34:02</time>
      </trkpt>
      <trkpt lat="44.43214" lon="1.47578">
        <ele>255</ele>
        <time>2011-03-20T10:34:03</time>
      </trkpt>
      <trkpt lat="44.43214" lon="1.47572">
        <ele>255</ele>
        <time>2011-03-20T10:34:05</time>
      </trkpt>
      <trkpt lat="44.43214" lon="1.47568">
        <ele>255</ele>
        <time>2011-03-20T10:34:06</time>
      </trkpt>
      <trkpt lat="44.43213" lon="1.47565">
        <ele>255</ele>
        <time>2011-03-20T10:34:07</time>
      </trkpt>
      <trkpt lat="44.43213" lon="1.47561">
        <ele>255</ele>
        <time>2011-03-20T10:34:08</time>
      </trkpt>
      <trkpt lat="44.43213" lon="1.47554">
        <ele>255</ele>
        <time>2011-03-20T10:34:10</time>
      </trkpt>
      <trkpt lat="44.43213" lon="1.47551">
        <ele>255</ele>
        <time>2011-03-20T10:34:11</time>
      </trkpt>
      <trkpt lat="44.43214" lon="1.47545">
        <ele>255</ele>
        <time>2011-03-20T10:34:13</time>
      </trkpt>
      <trkpt lat="44.43214" lon="1.4754">
        <ele>260</ele>
        <time>2011-03-20T10:34:15</time>
      </trkpt>
      <trkpt lat="44.43215" lon="1.47536">
        <ele>260</ele>
        <time>2011-03-20T10:34:17</time>
      </trkpt>
      <trkpt lat="44.43218" lon="1.47534">
        <ele>260</ele>
        <time>2011-03-20T10:34:20</time>
      </trkpt>
      <trkpt lat="44.4322" lon="1.47531">
        <ele>260</ele>
        <time>2011-03-20T10:34:22</time>
      </trkpt>
      <trkpt lat="44.43224" lon="1.47527">
        <ele>260</ele>
        <time>2011-03-20T10:34:24</time>
      </trkpt>
      <trkpt lat="44.43226" lon="1.47524">
        <ele>260</ele>
        <time>2011-03-20T10:34:25</time>
      </trkpt>
      <trkpt lat="44.43231" lon="1.47519">
        <ele>260</ele>
        <time>2011-03-20T10:34:27</time>
      </trkpt>
      <trkpt lat="44.43234" lon="1.47516">
        <ele>260</ele>
        <time>2011-03-20T10:34:28</time>
      </trkpt>
      <trkpt lat="44.43237" lon="1.47513">
        <ele>260</ele>
        <time>2011-03-20T10:34:29</time>
      </trkpt>
      <trkpt lat="44.43245" lon="1.47506">
        <ele>260</ele>
        <time>2011-03-20T10:34:31</time>
      </trkpt>
      <trkpt lat="44.43253" lon="1.47499">
        <ele>260</ele>
        <time>2011-03-20T10:34:33</time>
      </trkpt>
      <trkpt lat="44.43262" lon="1.47495">
        <ele>260</ele>
        <time>2011-03-20T10:34:35</time>
      </trkpt>
      <trkpt lat="44.43273" lon="1.47493">
        <ele>260</ele>
        <time>2011-03-20T10:34:37</time>
      </trkpt>
      <trkpt lat="44.43278" lon="1.47492">
        <ele>260</ele>
        <time>2011-03-20T10:34:38</time>
      </trkpt>
      <trkpt lat="44.43283" lon="1.47491">
        <ele>260</ele>
        <time>2011-03-20T10:34:39</time>
      </trkpt>
      <trkpt lat="44.43295" lon="1.47489">
        <ele>241</ele>
        <time>2011-03-20T10:34:41</time>
      </trkpt>
      <trkpt lat="44.43301" lon="1.47488">
        <ele>241</ele>
        <time>2011-03-20T10:34:42</time>
      </trkpt>
      <trkpt lat="44.43306" lon="1.47488">
        <ele>241</ele>
        <time>2011-03-20T10:34:43</time>
      </trkpt>
      <trkpt lat="44.43312" lon="1.47488">
        <ele>241</ele>
        <time>2011-03-20T10:34:44</time>
      </trkpt>
      <trkpt lat="44.43323" lon="1.47489">
        <ele>241</ele>
        <time>2011-03-20T10:34:46</time>
      </trkpt>
      <trkpt lat="44.43329" lon="1.4749">
        <ele>241</ele>
        <time>2011-03-20T10:34:47</time>
      </trkpt>
      <trkpt lat="44.43334" lon="1.47491">
        <ele>241</ele>
        <time>2011-03-20T10:34:48</time>
      </trkpt>
      <trkpt lat="44.43341" lon="1.47495">
        <ele>241</ele>
        <time>2011-03-20T10:34:50</time>
      </trkpt>
      <trkpt lat="44.43345" lon="1.47501">
        <ele>241</ele>
        <time>2011-03-20T10:34:52</time>
      </trkpt>
      <trkpt lat="44.43346" lon="1.47504">
        <ele>241</ele>
        <time>2011-03-20T10:34:53</time>
      </trkpt>
      <trkpt lat="44.43349" lon="1.47507">
        <ele>241</ele>
        <time>2011-03-20T10:34:55</time>
      </trkpt>
      <trkpt lat="44.43352" lon="1.47509">
        <ele>241</ele>
        <time>2011-03-20T10:34:57</time>
      </trkpt>
      <trkpt lat="44.43357" lon="1.47512">
        <ele>241</ele>
        <time>2011-03-20T10:34:59</time>
      </trkpt>
      <trkpt lat="44.4336" lon="1.47513">
        <ele>241</ele>
        <time>2011-03-20T10:35:00</time>
      </trkpt>
      <trkpt lat="44.43364" lon="1.47517">
        <ele>241</ele>
        <time>2011-03-20T10:35:02</time>
      </trkpt>
      <trkpt lat="44.43366" lon="1.47519">
        <ele>241</ele>
        <time>2011-03-20T10:35:03</time>
      </trkpt>
      <trkpt lat="44.43371" lon="1.47524">
        <ele>241</ele>
        <time>2011-03-20T10:35:05</time>
      </trkpt>
      <trkpt lat="44.43373" lon="1.47526">
        <ele>241</ele>
        <time>2011-03-20T10:35:06</time>
      </trkpt>
      <trkpt lat="44.43375" lon="1.47525">
        <ele>240</ele>
        <time>2011-03-20T10:35:07</time>
      </trkpt>
      <trkpt lat="44.43378" lon="1.47525">
        <ele>240</ele>
        <time>2011-03-20T10:35:08</time>
      </trkpt>
      <trkpt lat="44.43381" lon="1.47522">
        <ele>240</ele>
        <time>2011-03-20T10:35:10</time>
      </trkpt>
      <trkpt lat="44.43385" lon="1.4752">
        <ele>240</ele>
        <time>2011-03-20T10:35:12</time>
      </trkpt>
      <trkpt lat="44.43387" lon="1.47519">
        <ele>240</ele>
        <time>2011-03-20T10:35:13</time>
      </trkpt>
      <trkpt lat="44.43391" lon="1.47518">
        <ele>240</ele>
        <time>2011-03-20T10:35:15</time>
      </trkpt>
      <trkpt lat="44.43394" lon="1.47517">
        <ele>240</ele>
        <time>2011-03-20T10:35:17</time>
      </trkpt>
      <trkpt lat="44.43398" lon="1.47516">
        <ele>240</ele>
        <time>2011-03-20T10:35:19</time>
      </trkpt>
      <trkpt lat="44.43402" lon="1.47516">
        <ele>240</ele>
        <time>2011-03-20T10:35:21</time>
      </trkpt>
      <trkpt lat="44.43406" lon="1.47516">
        <ele>240</ele>
        <time>2011-03-20T10:35:23</time>
      </trkpt>
      <trkpt lat="44.43408" lon="1.47516">
        <ele>240</ele>
        <time>2011-03-20T10:35:24</time>
      </trkpt>
      <trkpt lat="44.43412" lon="1.47517">
        <ele>240</ele>
        <time>2011-03-20T10:35:26</time>
      </trkpt>
      <trkpt lat="44.43416" lon="1.47518">
        <ele>240</ele>
        <time>2011-03-20T10:35:28</time>
      </trkpt>
      <trkpt lat="44.43421" lon="1.47521">
        <ele>240</ele>
        <time>2011-03-20T10:35:30</time>
      </trkpt>
      <trkpt lat="44.43427" lon="1.47524">
        <ele>240</ele>
        <time>2011-03-20T10:35:33</time>
      </trkpt>
      <trkpt lat="44.43431" lon="1.47526">
        <ele>240</ele>
        <time>2011-03-20T10:35:35</time>
      </trkpt>
      <trkpt lat="44.43436" lon="1.47529">
        <ele>240</ele>
        <time>2011-03-20T10:35:37</time>
      </trkpt>
      <trkpt lat="44.43438" lon="1.47531">
        <ele>240</ele>
        <time>2011-03-20T10:35:38</time>
      </trkpt>
      <trkpt lat="44.4344" lon="1.47534">
        <ele>240</ele>
        <time>2011-03-20T10:35:39</time>
      </trkpt>
      <trkpt lat="44.43445" lon="1.47538">
        <ele>240</ele>
        <time>2011-03-20T10:35:41</time>
      </trkpt>
      <trkpt lat="44.4345" lon="1.47546">
        <ele>232</ele>
        <time>2011-03-20T10:35:43</time>
      </trkpt>
      <trkpt lat="44.43453" lon="1.47552">
        <ele>232</ele>
        <time>2011-03-20T10:35:44</time>
      </trkpt>
      <trkpt lat="44.4346" lon="1.47566">
        <ele>241</ele>
        <time>2011-03-20T10:35:46</time>
      </trkpt>
      <trkpt lat="44.43464" lon="1.47573">
        <ele>241</ele>
        <time>2011-03-20T10:35:47</time>
      </trkpt>
      <trkpt lat="44.43473" lon="1.47589">
        <ele>241</ele>
        <time>2011-03-20T10:35:49</time>
      </trkpt>
      <trkpt lat="44.43478" lon="1.47598">
        <ele>241</ele>
        <time>2011-03-20T10:35:50</time>
      </trkpt>
      <trkpt lat="44.43486" lon="1.47615">
        <ele>241</ele>
        <time>2011-03-20T10:35:52</time>
      </trkpt>
      <trkpt lat="44.4349" lon="1.47622">
        <ele>241</ele>
        <time>2011-03-20T10:35:53</time>
      </trkpt>
      <trkpt lat="44.43494" lon="1.47628">
        <ele>228</ele>
        <time>2011-03-20T10:35:54</time>
      </trkpt>
      <trkpt lat="44.43498" lon="1.47634">
        <ele>228</ele>
        <time>2011-03-20T10:35:55</time>
      </trkpt>
      <trkpt lat="44.43502" lon="1.47639">
        <ele>228</ele>
        <time>2011-03-20T10:35:56</time>
      </trkpt>
      <trkpt lat="44.43508" lon="1.47651">
        <ele>228</ele>
        <time>2011-03-20T10:35:58</time>
      </trkpt>
      <trkpt lat="44.43515" lon="1.47659">
        <ele>228</ele>
        <time>2011-03-20T10:36:00</time>
      </trkpt>
      <trkpt lat="44.43518" lon="1.47663">
        <ele>228</ele>
        <time>2011-03-20T10:36:01</time>
      </trkpt>
      <trkpt lat="44.43521" lon="1.47667">
        <ele>228</ele>
        <time>2011-03-20T10:36:02</time>
      </trkpt>
      <trkpt lat="44.43524" lon="1.47671">
        <ele>228</ele>
        <time>2011-03-20T10:36:03</time>
      </trkpt>
      <trkpt lat="44.43528" lon="1.47678">
        <ele>228</ele>
        <time>2011-03-20T10:36:05</time>
      </trkpt>
      <trkpt lat="44.4353" lon="1.47682">
        <ele>228</ele>
        <time>2011-03-20T10:36:06</time>
      </trkpt>
      <trkpt lat="44.43533" lon="1.47694">
        <ele>228</ele>
        <time>2011-03-20T10:36:08</time>
      </trkpt>
      <trkpt lat="44.43535" lon="1.47701">
        <ele>228</ele>
        <time>2011-03-20T10:36:09</time>
      </trkpt>
      <trkpt lat="44.43537" lon="1.47708">
        <ele>228</ele>
        <time>2011-03-20T10:36:10</time>
      </trkpt>
      <trkpt lat="44.4354" lon="1.47714">
        <ele>223</ele>
        <time>2011-03-20T10:36:11</time>
      </trkpt>
      <trkpt lat="44.43542" lon="1.47724">
        <ele>229</ele>
        <time>2011-03-20T10:36:13</time>
      </trkpt>
      <trkpt lat="44.43543" lon="1.4773">
        <ele>229</ele>
        <time>2011-03-20T10:36:14</time>
      </trkpt>
      <trkpt lat="44.43545" lon="1.47742">
        <ele>229</ele>
        <time>2011-03-20T10:36:16</time>
      </trkpt>
      <trkpt lat="44.43546" lon="1.47748">
        <ele>229</ele>
        <time>2011-03-20T10:36:17</time>
      </trkpt>
      <trkpt lat="44.43548" lon="1.47755">
        <ele>229</ele>
        <time>2011-03-20T10:36:18</time>
      </trkpt>
      <trkpt lat="44.43555" lon="1.47764">
        <ele>229</ele>
        <time>2011-03-20T10:36:20</time>
      </trkpt>
      <trkpt lat="44.43557" lon="1.47769">
        <ele>229</ele>
        <time>2011-03-20T10:36:21</time>
      </trkpt>
      <trkpt lat="44.43562" lon="1.4778">
        <ele>229</ele>
        <time>2011-03-20T10:36:23</time>
      </trkpt>
      <trkpt lat="44.43565" lon="1.47786">
        <ele>229</ele>
        <time>2011-03-20T10:36:24</time>
      </trkpt>
      <trkpt lat="44.43568" lon="1.47794">
        <ele>212</ele>
        <time>2011-03-20T10:36:25</time>
      </trkpt>
      <trkpt lat="44.43575" lon="1.47806">
        <ele>212</ele>
        <time>2011-03-20T10:36:27</time>
      </trkpt>
      <trkpt lat="44.43578" lon="1.47813">
        <ele>212</ele>
        <time>2011-03-20T10:36:28</time>
      </trkpt>
      <trkpt lat="44.43584" lon="1.47824">
        <ele>212</ele>
        <time>2011-03-20T10:36:30</time>
      </trkpt>
      <trkpt lat="44.43592" lon="1.47833">
        <ele>212</ele>
        <time>2011-03-20T10:36:32</time>
      </trkpt>
      <trkpt lat="44.436" lon="1.47844">
        <ele>212</ele>
        <time>2011-03-20T10:36:34</time>
      </trkpt>
      <trkpt lat="44.43604" lon="1.47853">
        <ele>212</ele>
        <time>2011-03-20T10:36:36</time>
      </trkpt>
      <trkpt lat="44.43606" lon="1.47857">
        <ele>212</ele>
        <time>2011-03-20T10:36:37</time>
      </trkpt>
      <trkpt lat="44.43612" lon="1.47863">
        <ele>212</ele>
        <time>2011-03-20T10:36:39</time>
      </trkpt>
      <trkpt lat="44.43616" lon="1.47866">
        <ele>212</ele>
        <time>2011-03-20T10:36:40</time>
      </trkpt>
      <trkpt lat="44.43618" lon="1.47871">
        <ele>212</ele>
        <time>2011-03-20T10:36:41</time>
      </trkpt>
      <trkpt lat="44.43625" lon="1.47886">
        <ele>211</ele>
        <time>2011-03-20T10:36:43</time>
      </trkpt>
      <trkpt lat="44.4363" lon="1.47892">
        <ele>211</ele>
        <time>2011-03-20T10:36:44</time>
      </trkpt>
      <trkpt lat="44.43635" lon="1.47899">
        <ele>211</ele>
        <time>2011-03-20T10:36:45</time>
      </trkpt>
      <trkpt lat="44.43643" lon="1.47906">
        <ele>211</ele>
        <time>2011-03-20T10:36:47</time>
      </trkpt>
      <trkpt lat="44.43645" lon="1.47913">
        <ele>211</ele>
        <time>2011-03-20T10:36:48</time>
      </trkpt>
      <trkpt lat="44.4365" lon="1.47926">
        <ele>211</ele>
        <time>2011-03-20T10:36:50</time>
      </trkpt>
      <trkpt lat="44.43652" lon="1.47932">
        <ele>211</ele>
        <time>2011-03-20T10:36:51</time>
      </trkpt>
      <trkpt lat="44.43659" lon="1.47943">
        <ele>211</ele>
        <time>2011-03-20T10:36:53</time>
      </trkpt>
      <trkpt lat="44.43667" lon="1.47952">
        <ele>211</ele>
        <time>2011-03-20T10:36:55</time>
      </trkpt>
      <trkpt lat="44.43668" lon="1.47956">
        <ele>211</ele>
        <time>2011-03-20T10:36:56</time>
      </trkpt>
      <trkpt lat="44.43668" lon="1.47966">
        <ele>200</ele>
        <time>2011-03-20T10:36:58</time>
      </trkpt>
      <trkpt lat="44.43669" lon="1.47973">
        <ele>200</ele>
        <time>2011-03-20T10:36:59</time>
      </trkpt>
      <trkpt lat="44.43672" lon="1.4798">
        <ele>200</ele>
        <time>2011-03-20T10:37:00</time>
      </trkpt>
      <trkpt lat="44.43681" lon="1.47992">
        <ele>200</ele>
        <time>2011-03-20T10:37:02</time>
      </trkpt>
      <trkpt lat="44.43685" lon="1.47998">
        <ele>200</ele>
        <time>2011-03-20T10:37:03</time>
      </trkpt>
      <trkpt lat="44.43694" lon="1.48011">
        <ele>200</ele>
        <time>2011-03-20T10:37:05</time>
      </trkpt>
      <trkpt lat="44.43698" lon="1.48018">
        <ele>200</ele>
        <time>2011-03-20T10:37:06</time>
      </trkpt>
      <trkpt lat="44.43705" lon="1.48032">
        <ele>200</ele>
        <time>2011-03-20T10:37:08</time>
      </trkpt>
      <trkpt lat="44.43714" lon="1.48043">
        <ele>191</ele>
        <time>2011-03-20T10:37:10</time>
      </trkpt>
      <trkpt lat="44.43723" lon="1.48055">
        <ele>191</ele>
        <time>2011-03-20T10:37:12</time>
      </trkpt>
      <trkpt lat="44.4373" lon="1.48069">
        <ele>191</ele>
        <time>2011-03-20T10:37:14</time>
      </trkpt>
      <trkpt lat="44.43734" lon="1.48079">
        <ele>191</ele>
        <time>2011-03-20T10:37:16</time>
      </trkpt>
      <trkpt lat="44.43735" lon="1.48083">
        <ele>191</ele>
        <time>2011-03-20T10:37:18</time>
      </trkpt>
      <trkpt lat="44.43739" lon="1.48082">
        <ele>191</ele>
        <time>2011-03-20T10:37:35</time>
      </trkpt>
      <trkpt lat="44.43741" lon="1.48081">
        <ele>191</ele>
        <time>2011-03-20T10:37:36</time>
      </trkpt>
      <trkpt lat="44.43746" lon="1.4808">
        <ele>191</ele>
        <time>2011-03-20T10:37:38</time>
      </trkpt>
      <trkpt lat="44.43749" lon="1.48079">
        <ele>191</ele>
        <time>2011-03-20T10:37:39</time>
      </trkpt>
      <trkpt lat="44.43756" lon="1.48078">
        <ele>191</ele>
        <time>2011-03-20T10:37:41</time>
      </trkpt>
      <trkpt lat="44.43763" lon="1.48079">
        <ele>191</ele>
        <time>2011-03-20T10:37:43</time>
      </trkpt>
      <trkpt lat="44.43766" lon="1.48079">
        <ele>191</ele>
        <time>2011-03-20T10:37:44</time>
      </trkpt>
      <trkpt lat="44.43774" lon="1.48079">
        <ele>191</ele>
        <time>2011-03-20T10:37:46</time>
      </trkpt>
      <trkpt lat="44.43778" lon="1.4808">
        <ele>191</ele>
        <time>2011-03-20T10:37:47</time>
      </trkpt>
      <trkpt lat="44.43788" lon="1.4808">
        <ele>191</ele>
        <time>2011-03-20T10:37:49</time>
      </trkpt>
      <trkpt lat="44.43793" lon="1.4808">
        <ele>186</ele>
        <time>2011-03-20T10:37:50</time>
      </trkpt>
      <trkpt lat="44.43804" lon="1.4808">
        <ele>186</ele>
        <time>2011-03-20T10:37:52</time>
      </trkpt>
      <trkpt lat="44.4381" lon="1.4808">
        <ele>186</ele>
        <time>2011-03-20T10:37:53</time>
      </trkpt>
      <trkpt lat="44.43822" lon="1.48079">
        <ele>186</ele>
        <time>2011-03-20T10:37:55</time>
      </trkpt>
      <trkpt lat="44.43828" lon="1.48078">
        <ele>186</ele>
        <time>2011-03-20T10:37:56</time>
      </trkpt>
      <trkpt lat="44.43834" lon="1.48078">
        <ele>186</ele>
        <time>2011-03-20T10:37:57</time>
      </trkpt>
      <trkpt lat="44.43839" lon="1.48078">
        <ele>186</ele>
        <time>2011-03-20T10:37:58</time>
      </trkpt>
      <trkpt lat="44.43849" lon="1.48078">
        <ele>186</ele>
        <time>2011-03-20T10:38:00</time>
      </trkpt>
      <trkpt lat="44.43853" lon="1.48078">
        <ele>186</ele>
        <time>2011-03-20T10:38:01</time>
      </trkpt>
      <trkpt lat="44.43858" lon="1.48078">
        <ele>186</ele>
        <time>2011-03-20T10:38:02</time>
      </trkpt>
      <trkpt lat="44.43866" lon="1.48077">
        <ele>186</ele>
        <time>2011-03-20T10:38:04</time>
      </trkpt>
      <trkpt lat="44.43874" lon="1.48077">
        <ele>186</ele>
        <time>2011-03-20T10:38:06</time>
      </trkpt>
      <trkpt lat="44.43878" lon="1.48076">
        <ele>185</ele>
        <time>2011-03-20T10:38:07</time>
      </trkpt>
      <trkpt lat="44.43882" lon="1.48076">
        <ele>185</ele>
        <time>2011-03-20T10:38:08</time>
      </trkpt>
      <trkpt lat="44.43891" lon="1.48075">
        <ele>185</ele>
        <time>2011-03-20T10:38:10</time>
      </trkpt>
      <trkpt lat="44.43896" lon="1.48075">
        <ele>185</ele>
        <time>2011-03-20T10:38:11</time>
      </trkpt>
      <trkpt lat="44.43906" lon="1.48074">
        <ele>185</ele>
        <time>2011-03-20T10:38:13</time>
      </trkpt>
      <trkpt lat="44.43911" lon="1.48073">
        <ele>185</ele>
        <time>2011-03-20T10:38:14</time>
      </trkpt>
      <trkpt lat="44.43922" lon="1.48071">
        <ele>185</ele>
        <time>2011-03-20T10:38:16</time>
      </trkpt>
      <trkpt lat="44.43928" lon="1.4807">
        <ele>185</ele>
        <time>2011-03-20T10:38:17</time>
      </trkpt>
      <trkpt lat="44.43938" lon="1.48069">
        <ele>185</ele>
        <time>2011-03-20T10:38:19</time>
      </trkpt>
      <trkpt lat="44.43944" lon="1.48068">
        <ele>185</ele>
        <time>2011-03-20T10:38:20</time>
      </trkpt>
      <trkpt lat="44.43954" lon="1.48066">
        <ele>185</ele>
        <time>2011-03-20T10:38:22</time>
      </trkpt>
      <trkpt lat="44.4396" lon="1.48064">
        <ele>188</ele>
        <time>2011-03-20T10:38:23</time>
      </trkpt>
      <trkpt lat="44.4397" lon="1.48056">
        <ele>188</ele>
        <time>2011-03-20T10:38:25</time>
      </trkpt>
      <trkpt lat="44.43974" lon="1.48053">
        <ele>188</ele>
        <time>2011-03-20T10:38:26</time>
      </trkpt>
      <trkpt lat="44.43979" lon="1.48048">
        <ele>188</ele>
        <time>2011-03-20T10:38:27</time>
      </trkpt>
      <trkpt lat="44.43987" lon="1.4804">
        <ele>186</ele>
        <time>2011-03-20T10:38:29</time>
      </trkpt>
      <trkpt lat="44.43991" lon="1.48037">
        <ele>186</ele>
        <time>2011-03-20T10:38:30</time>
      </trkpt>
      <trkpt lat="44.43996" lon="1.48034">
        <ele>186</ele>
        <time>2011-03-20T10:38:31</time>
      </trkpt>
      <trkpt lat="44.44006" lon="1.48027">
        <ele>186</ele>
        <time>2011-03-20T10:38:33</time>
      </trkpt>
      <trkpt lat="44.44018" lon="1.4802">
        <ele>186</ele>
        <time>2011-03-20T10:38:35</time>
      </trkpt>
      <trkpt lat="44.44024" lon="1.48018">
        <ele>186</ele>
        <time>2011-03-20T10:38:36</time>
      </trkpt>
      <trkpt lat="44.44036" lon="1.48012">
        <ele>186</ele>
        <time>2011-03-20T10:38:38</time>
      </trkpt>
      <trkpt lat="44.44042" lon="1.4801">
        <ele>180</ele>
        <time>2011-03-20T10:38:39</time>
      </trkpt>
      <trkpt lat="44.44054" lon="1.48006">
        <ele>180</ele>
        <time>2011-03-20T10:38:41</time>
      </trkpt>
      <trkpt lat="44.4406" lon="1.48005">
        <ele>180</ele>
        <time>2011-03-20T10:38:42</time>
      </trkpt>
      <trkpt lat="44.44072" lon="1.48001">
        <ele>180</ele>
        <time>2011-03-20T10:38:44</time>
      </trkpt>
      <trkpt lat="44.44078" lon="1.47998">
        <ele>180</ele>
        <time>2011-03-20T10:38:45</time>
      </trkpt>
      <trkpt lat="44.44083" lon="1.47996">
        <ele>180</ele>
        <time>2011-03-20T10:38:46</time>
      </trkpt>
      <trkpt lat="44.44095" lon="1.47991">
        <ele>180</ele>
        <time>2011-03-20T10:38:48</time>
      </trkpt>
      <trkpt lat="44.44107" lon="1.47986">
        <ele>180</ele>
        <time>2011-03-20T10:38:50</time>
      </trkpt>
      <trkpt lat="44.44114" lon="1.47984">
        <ele>180</ele>
        <time>2011-03-20T10:38:51</time>
      </trkpt>
      <trkpt lat="44.44126" lon="1.47982">
        <ele>178</ele>
        <time>2011-03-20T10:38:53</time>
      </trkpt>
      <trkpt lat="44.44138" lon="1.47982">
        <ele>178</ele>
        <time>2011-03-20T10:38:55</time>
      </trkpt>
      <trkpt lat="44.44149" lon="1.47981">
        <ele>178</ele>
        <time>2011-03-20T10:38:57</time>
      </trkpt>
      <trkpt lat="44.44161" lon="1.4798">
        <ele>178</ele>
        <time>2011-03-20T10:38:59</time>
      </trkpt>
      <trkpt lat="44.44172" lon="1.4798">
        <ele>178</ele>
        <time>2011-03-20T10:39:01</time>
      </trkpt>
      <trkpt lat="44.4418" lon="1.4798">
        <ele>178</ele>
        <time>2011-03-20T10:39:03</time>
      </trkpt>
      <trkpt lat="44.4419" lon="1.47982">
        <ele>178</ele>
        <time>2011-03-20T10:39:05</time>
      </trkpt>
      <trkpt lat="44.44201" lon="1.47982">
        <ele>178</ele>
        <time>2011-03-20T10:39:07</time>
      </trkpt>
      <trkpt lat="44.44206" lon="1.47982">
        <ele>178</ele>
        <time>2011-03-20T10:39:08</time>
      </trkpt>
      <trkpt lat="44.44215" lon="1.47979">
        <ele>173</ele>
        <time>2011-03-20T10:39:10</time>
      </trkpt>
      <trkpt lat="44.4422" lon="1.47976">
        <ele>173</ele>
        <time>2011-03-20T10:39:11</time>
      </trkpt>
      <trkpt lat="44.4423" lon="1.47967">
        <ele>173</ele>
        <time>2011-03-20T10:39:13</time>
      </trkpt>
      <trkpt lat="44.44242" lon="1.47962">
        <ele>173</ele>
        <time>2011-03-20T10:39:15</time>
      </trkpt>
      <trkpt lat="44.44253" lon="1.47962">
        <ele>173</ele>
        <time>2011-03-20T10:39:17</time>
      </trkpt>
      <trkpt lat="44.44265" lon="1.47967">
        <ele>173</ele>
        <time>2011-03-20T10:39:19</time>
      </trkpt>
      <trkpt lat="44.4427" lon="1.47971">
        <ele>173</ele>
        <time>2011-03-20T10:39:20</time>
      </trkpt>
      <trkpt lat="44.44275" lon="1.47976">
        <ele>173</ele>
        <time>2011-03-20T10:39:21</time>
      </trkpt>
      <trkpt lat="44.44284" lon="1.47983">
        <ele>173</ele>
        <time>2011-03-20T10:39:23</time>
      </trkpt>
      <trkpt lat="44.44289" lon="1.47986">
        <ele>173</ele>
        <time>2011-03-20T10:39:24</time>
      </trkpt>
      <trkpt lat="44.44299" lon="1.47993">
        <ele>170</ele>
        <time>2011-03-20T10:39:26</time>
      </trkpt>
      <trkpt lat="44.44309" lon="1.48">
        <ele>170</ele>
        <time>2011-03-20T10:39:28</time>
      </trkpt>
      <trkpt lat="44.44321" lon="1.48006">
        <ele>170</ele>
        <time>2011-03-20T10:39:30</time>
      </trkpt>
      <trkpt lat="44.44332" lon="1.48012">
        <ele>170</ele>
        <time>2011-03-20T10:39:32</time>
      </trkpt>
      <trkpt lat="44.44343" lon="1.48019">
        <ele>170</ele>
        <time>2011-03-20T10:39:34</time>
      </trkpt>
      <trkpt lat="44.44352" lon="1.48025">
        <ele>170</ele>
        <time>2011-03-20T10:39:36</time>
      </trkpt>
      <trkpt lat="44.44357" lon="1.48028">
        <ele>170</ele>
        <time>2011-03-20T10:39:37</time>
      </trkpt>
      <trkpt lat="44.44362" lon="1.48031">
        <ele>170</ele>
        <time>2011-03-20T10:39:38</time>
      </trkpt>
      <trkpt lat="44.44366" lon="1.48033">
        <ele>170</ele>
        <time>2011-03-20T10:39:39</time>
      </trkpt>
      <trkpt lat="44.44371" lon="1.48034">
        <ele>170</ele>
        <time>2011-03-20T10:39:40</time>
      </trkpt>
      <trkpt lat="44.4438" lon="1.48035">
        <ele>167</ele>
        <time>2011-03-20T10:39:42</time>
      </trkpt>
      <trkpt lat="44.44385" lon="1.48034">
        <ele>167</ele>
        <time>2011-03-20T10:39:43</time>
      </trkpt>
      <trkpt lat="44.44389" lon="1.48033">
        <ele>167</ele>
        <time>2011-03-20T10:39:44</time>
      </trkpt>
      <trkpt lat="44.44397" lon="1.48029">
        <ele>167</ele>
        <time>2011-03-20T10:39:46</time>
      </trkpt>
      <trkpt lat="44.444" lon="1.48025">
        <ele>167</ele>
        <time>2011-03-20T10:39:47</time>
      </trkpt>
      <trkpt lat="44.44405" lon="1.48018">
        <ele>167</ele>
        <time>2011-03-20T10:39:49</time>
      </trkpt>
      <trkpt lat="44.44408" lon="1.48015">
        <ele>167</ele>
        <time>2011-03-20T10:39:50</time>
      </trkpt>
      <trkpt lat="44.44414" lon="1.48007">
        <ele>167</ele>
        <time>2011-03-20T10:39:52</time>
      </trkpt>
      <trkpt lat="44.44418" lon="1.48003">
        <ele>167</ele>
        <time>2011-03-20T10:39:53</time>
      </trkpt>
      <trkpt lat="44.44421" lon="1.48">
        <ele>167</ele>
        <time>2011-03-20T10:39:54</time>
      </trkpt>
      <trkpt lat="44.44429" lon="1.47994">
        <ele>167</ele>
        <time>2011-03-20T10:39:56</time>
      </trkpt>
      <trkpt lat="44.44434" lon="1.47992">
        <ele>167</ele>
        <time>2011-03-20T10:39:57</time>
      </trkpt>
      <trkpt lat="44.44439" lon="1.4799">
        <ele>167</ele>
        <time>2011-03-20T10:39:58</time>
      </trkpt>
      <trkpt lat="44.44444" lon="1.47988">
        <ele>167</ele>
        <time>2011-03-20T10:39:59</time>
      </trkpt>
      <trkpt lat="44.44449" lon="1.47986">
        <ele>167</ele>
        <time>2011-03-20T10:40:00</time>
      </trkpt>
      <trkpt lat="44.4446" lon="1.47984">
        <ele>167</ele>
        <time>2011-03-20T10:40:02</time>
      </trkpt>
      <trkpt lat="44.44465" lon="1.47983">
        <ele>167</ele>
        <time>2011-03-20T10:40:03</time>
      </trkpt>
      <trkpt lat="44.44477" lon="1.47982">
        <ele>167</ele>
        <time>2011-03-20T10:40:05</time>
      </trkpt>
      <trkpt lat="44.44482" lon="1.47982">
        <ele>167</ele>
        <time>2011-03-20T10:40:06</time>
      </trkpt>
      <trkpt lat="44.44493" lon="1.47981">
        <ele>167</ele>
        <time>2011-03-20T10:40:08</time>
      </trkpt>
      <trkpt lat="44.44504" lon="1.47983">
        <ele>167</ele>
        <time>2011-03-20T10:40:10</time>
      </trkpt>
      <trkpt lat="44.44509" lon="1.47984">
        <ele>167</ele>
        <time>2011-03-20T10:40:11</time>
      </trkpt>
      <trkpt lat="44.4452" lon="1.47987">
        <ele>167</ele>
        <time>2011-03-20T10:40:13</time>
      </trkpt>
      <trkpt lat="44.44525" lon="1.47988">
        <ele>167</ele>
        <time>2011-03-20T10:40:14</time>
      </trkpt>
      <trkpt lat="44.44535" lon="1.47991">
        <ele>167</ele>
        <time>2011-03-20T10:40:16</time>
      </trkpt>
      <trkpt lat="44.44545" lon="1.47995">
        <ele>165</ele>
        <time>2011-03-20T10:40:18</time>
      </trkpt>
      <trkpt lat="44.44551" lon="1.47997">
        <ele>165</ele>
        <time>2011-03-20T10:40:19</time>
      </trkpt>
      <trkpt lat="44.44556" lon="1.47999">
        <ele>165</ele>
        <time>2011-03-20T10:40:20</time>
      </trkpt>
      <trkpt lat="44.44562" lon="1.48002">
        <ele>165</ele>
        <time>2011-03-20T10:40:21</time>
      </trkpt>
      <trkpt lat="44.44573" lon="1.48008">
        <ele>165</ele>
        <time>2011-03-20T10:40:23</time>
      </trkpt>
      <trkpt lat="44.44578" lon="1.48011">
        <ele>165</ele>
        <time>2011-03-20T10:40:24</time>
      </trkpt>
      <trkpt lat="44.44588" lon="1.48018">
        <ele>165</ele>
        <time>2011-03-20T10:40:26</time>
      </trkpt>
      <trkpt lat="44.44592" lon="1.48021">
        <ele>165</ele>
        <time>2011-03-20T10:40:27</time>
      </trkpt>
      <trkpt lat="44.44597" lon="1.48025">
        <ele>165</ele>
        <time>2011-03-20T10:40:28</time>
      </trkpt>
      <trkpt lat="44.44606" lon="1.48033">
        <ele>165</ele>
        <time>2011-03-20T10:40:30</time>
      </trkpt>
      <trkpt lat="44.44611" lon="1.48037">
        <ele>165</ele>
        <time>2011-03-20T10:40:31</time>
      </trkpt>
      <trkpt lat="44.4462" lon="1.48045">
        <ele>171</ele>
        <time>2011-03-20T10:40:33</time>
      </trkpt>
      <trkpt lat="44.44629" lon="1.48049">
        <ele>161</ele>
        <time>2011-03-20T10:40:35</time>
      </trkpt>
      <trkpt lat="44.44639" lon="1.48053">
        <ele>161</ele>
        <time>2011-03-20T10:40:37</time>
      </trkpt>
      <trkpt lat="44.44644" lon="1.48055">
        <ele>161</ele>
        <time>2011-03-20T10:40:38</time>
      </trkpt>
      <trkpt lat="44.44653" lon="1.4806">
        <ele>161</ele>
        <time>2011-03-20T10:40:40</time>
      </trkpt>
      <trkpt lat="44.44664" lon="1.48067">
        <ele>161</ele>
        <time>2011-03-20T10:40:42</time>
      </trkpt>
      <trkpt lat="44.44669" lon="1.4807">
        <ele>161</ele>
        <time>2011-03-20T10:40:43</time>
      </trkpt>
      <trkpt lat="44.44679" lon="1.48077">
        <ele>161</ele>
        <time>2011-03-20T10:40:45</time>
      </trkpt>
      <trkpt lat="44.44683" lon="1.4808">
        <ele>161</ele>
        <time>2011-03-20T10:40:46</time>
      </trkpt>
      <trkpt lat="44.44692" lon="1.48084">
        <ele>161</ele>
        <time>2011-03-20T10:40:48</time>
      </trkpt>
      <trkpt lat="44.44702" lon="1.48089">
        <ele>161</ele>
        <time>2011-03-20T10:40:50</time>
      </trkpt>
      <trkpt lat="44.44706" lon="1.48091">
        <ele>161</ele>
        <time>2011-03-20T10:40:51</time>
      </trkpt>
      <trkpt lat="44.44714" lon="1.48096">
        <ele>159</ele>
        <time>2011-03-20T10:40:53</time>
      </trkpt>
      <trkpt lat="44.44718" lon="1.48098">
        <ele>159</ele>
        <time>2011-03-20T10:40:54</time>
      </trkpt>
      <trkpt lat="44.44723" lon="1.48101">
        <ele>159</ele>
        <time>2011-03-20T10:40:55</time>
      </trkpt>
      <trkpt lat="44.44731" lon="1.48107">
        <ele>159</ele>
        <time>2011-03-20T10:40:57</time>
      </trkpt>
      <trkpt lat="44.44739" lon="1.48114">
        <ele>159</ele>
        <time>2011-03-20T10:40:59</time>
      </trkpt>
      <trkpt lat="44.44748" lon="1.48122">
        <ele>159</ele>
        <time>2011-03-20T10:41:01</time>
      </trkpt>
      <trkpt lat="44.44752" lon="1.48126">
        <ele>160</ele>
        <time>2011-03-20T10:41:02</time>
      </trkpt>
      <trkpt lat="44.44756" lon="1.48129">
        <ele>160</ele>
        <time>2011-03-20T10:41:03</time>
      </trkpt>
      <trkpt lat="44.44766" lon="1.48133">
        <ele>160</ele>
        <time>2011-03-20T10:41:05</time>
      </trkpt>
      <trkpt lat="44.44776" lon="1.48133">
        <ele>160</ele>
        <time>2011-03-20T10:41:07</time>
      </trkpt>
      <trkpt lat="44.44785" lon="1.48129">
        <ele>160</ele>
        <time>2011-03-20T10:41:09</time>
      </trkpt>
      <trkpt lat="44.44792" lon="1.4812">
        <ele>159</ele>
        <time>2011-03-20T10:41:11</time>
      </trkpt>
      <trkpt lat="44.44799" lon="1.48112">
        <ele>156</ele>
        <time>2011-03-20T10:41:13</time>
      </trkpt>
      <trkpt lat="44.44808" lon="1.48104">
        <ele>156</ele>
        <time>2011-03-20T10:41:15</time>
      </trkpt>
      <trkpt lat="44.44816" lon="1.48098">
        <ele>156</ele>
        <time>2011-03-20T10:41:17</time>
      </trkpt>
      <trkpt lat="44.44825" lon="1.48091">
        <ele>156</ele>
        <time>2011-03-20T10:41:19</time>
      </trkpt>
      <trkpt lat="44.44835" lon="1.48085">
        <ele>156</ele>
        <time>2011-03-20T10:41:21</time>
      </trkpt>
      <trkpt lat="44.4484" lon="1.48082">
        <ele>156</ele>
        <time>2011-03-20T10:41:22</time>
      </trkpt>
      <trkpt lat="44.44851" lon="1.48077">
        <ele>156</ele>
        <time>2011-03-20T10:41:24</time>
      </trkpt>
      <trkpt lat="44.44861" lon="1.48072">
        <ele>156</ele>
        <time>2011-03-20T10:41:26</time>
      </trkpt>
      <trkpt lat="44.44866" lon="1.4807">
        <ele>156</ele>
        <time>2011-03-20T10:41:27</time>
      </trkpt>
      <trkpt lat="44.44876" lon="1.48066">
        <ele>159</ele>
        <time>2011-03-20T10:41:29</time>
      </trkpt>
      <trkpt lat="44.4488" lon="1.48064">
        <ele>159</ele>
        <time>2011-03-20T10:41:30</time>
      </trkpt>
      <trkpt lat="44.44885" lon="1.48062">
        <ele>159</ele>
        <time>2011-03-20T10:41:31</time>
      </trkpt>
      <trkpt lat="44.44896" lon="1.48059">
        <ele>159</ele>
        <time>2011-03-20T10:41:33</time>
      </trkpt>
      <trkpt lat="44.44907" lon="1.48056">
        <ele>159</ele>
        <time>2011-03-20T10:41:35</time>
      </trkpt>
      <trkpt lat="44.44918" lon="1.48053">
        <ele>159</ele>
        <time>2011-03-20T10:41:37</time>
      </trkpt>
      <trkpt lat="44.44929" lon="1.4805">
        <ele>159</ele>
        <time>2011-03-20T10:41:39</time>
      </trkpt>
      <trkpt lat="44.4494" lon="1.48047">
        <ele>159</ele>
        <time>2011-03-20T10:41:41</time>
      </trkpt>
      <trkpt lat="44.44951" lon="1.48044">
        <ele>159</ele>
        <time>2011-03-20T10:41:43</time>
      </trkpt>
      <trkpt lat="44.44957" lon="1.48042">
        <ele>159</ele>
        <time>2011-03-20T10:41:44</time>
      </trkpt>
      <trkpt lat="44.44962" lon="1.48041">
        <ele>154</ele>
        <time>2011-03-20T10:41:45</time>
      </trkpt>
      <trkpt lat="44.44973" lon="1.48037">
        <ele>154</ele>
        <time>2011-03-20T10:41:47</time>
      </trkpt>
      <trkpt lat="44.44977" lon="1.48035">
        <ele>154</ele>
        <time>2011-03-20T10:41:48</time>
      </trkpt>
      <trkpt lat="44.44988" lon="1.4803">
        <ele>154</ele>
        <time>2011-03-20T10:41:50</time>
      </trkpt>
      <trkpt lat="44.44994" lon="1.48028">
        <ele>154</ele>
        <time>2011-03-20T10:41:51</time>
      </trkpt>
      <trkpt lat="44.44999" lon="1.48025">
        <ele>154</ele>
        <time>2011-03-20T10:41:52</time>
      </trkpt>
      <trkpt lat="44.45005" lon="1.48023">
        <ele>154</ele>
        <time>2011-03-20T10:41:53</time>
      </trkpt>
      <trkpt lat="44.45016" lon="1.4802">
        <ele>154</ele>
        <time>2011-03-20T10:41:55</time>
      </trkpt>
      <trkpt lat="44.45026" lon="1.48019">
        <ele>154</ele>
        <time>2011-03-20T10:41:57</time>
      </trkpt>
      <trkpt lat="44.45032" lon="1.48018">
        <ele>154</ele>
        <time>2011-03-20T10:41:58</time>
      </trkpt>
      <trkpt lat="44.45043" lon="1.48019">
        <ele>153</ele>
        <time>2011-03-20T10:42:00</time>
      </trkpt>
      <trkpt lat="44.45049" lon="1.48019">
        <ele>153</ele>
        <time>2011-03-20T10:42:01</time>
      </trkpt>
      <trkpt lat="44.4506" lon="1.4802">
        <ele>153</ele>
        <time>2011-03-20T10:42:03</time>
      </trkpt>
      <trkpt lat="44.45072" lon="1.4802">
        <ele>153</ele>
        <time>2011-03-20T10:42:05</time>
      </trkpt>
      <trkpt lat="44.45077" lon="1.4802">
        <ele>153</ele>
        <time>2011-03-20T10:42:06</time>
      </trkpt>
      <trkpt lat="44.45089" lon="1.48018">
        <ele>153</ele>
        <time>2011-03-20T10:42:08</time>
      </trkpt>
      <trkpt lat="44.451" lon="1.48014">
        <ele>153</ele>
        <time>2011-03-20T10:42:10</time>
      </trkpt>
      <trkpt lat="44.45106" lon="1.48012">
        <ele>153</ele>
        <time>2011-03-20T10:42:11</time>
      </trkpt>
      <trkpt lat="44.45116" lon="1.48011">
        <ele>153</ele>
        <time>2011-03-20T10:42:13</time>
      </trkpt>
      <trkpt lat="44.45125" lon="1.48017">
        <ele>153</ele>
        <time>2011-03-20T10:42:15</time>
      </trkpt>
      <trkpt lat="44.45129" lon="1.4802">
        <ele>153</ele>
        <time>2011-03-20T10:42:16</time>
      </trkpt>
      <trkpt lat="44.45133" lon="1.48023">
        <ele>153</ele>
        <time>2011-03-20T10:42:17</time>
      </trkpt>
      <trkpt lat="44.45142" lon="1.48028">
        <ele>153</ele>
        <time>2011-03-20T10:42:19</time>
      </trkpt>
      <trkpt lat="44.45147" lon="1.48031">
        <ele>153</ele>
        <time>2011-03-20T10:42:20</time>
      </trkpt>
      <trkpt lat="44.45154" lon="1.48037">
        <ele>153</ele>
        <time>2011-03-20T10:42:22</time>
      </trkpt>
      <trkpt lat="44.45161" lon="1.48042">
        <ele>153</ele>
        <time>2011-03-20T10:42:24</time>
      </trkpt>
      <trkpt lat="44.45166" lon="1.48044">
        <ele>157</ele>
        <time>2011-03-20T10:42:26</time>
      </trkpt>
      <trkpt lat="44.45171" lon="1.48045">
        <ele>157</ele>
        <time>2011-03-20T10:42:27</time>
      </trkpt>
      <trkpt lat="44.45175" lon="1.48046">
        <ele>157</ele>
        <time>2011-03-20T10:42:28</time>
      </trkpt>
      <trkpt lat="44.45178" lon="1.48048">
        <ele>157</ele>
        <time>2011-03-20T10:42:29</time>
      </trkpt>
      <trkpt lat="44.45185" lon="1.48052">
        <ele>157</ele>
        <time>2011-03-20T10:42:31</time>
      </trkpt>
      <trkpt lat="44.45192" lon="1.48057">
        <ele>157</ele>
        <time>2011-03-20T10:42:33</time>
      </trkpt>
      <trkpt lat="44.45196" lon="1.4806">
        <ele>157</ele>
        <time>2011-03-20T10:42:34</time>
      </trkpt>
      <trkpt lat="44.452" lon="1.48062">
        <ele>157</ele>
        <time>2011-03-20T10:42:35</time>
      </trkpt>
      <trkpt lat="44.45208" lon="1.48067">
        <ele>157</ele>
        <time>2011-03-20T10:42:37</time>
      </trkpt>
      <trkpt lat="44.45217" lon="1.48075">
        <ele>149</ele>
        <time>2011-03-20T10:42:39</time>
      </trkpt>
      <trkpt lat="44.45225" lon="1.48083">
        <ele>149</ele>
        <time>2011-03-20T10:42:41</time>
      </trkpt>
      <trkpt lat="44.45229" lon="1.48087">
        <ele>149</ele>
        <time>2011-03-20T10:42:42</time>
      </trkpt>
      <trkpt lat="44.45236" lon="1.48094">
        <ele>149</ele>
        <time>2011-03-20T10:42:44</time>
      </trkpt>
      <trkpt lat="44.45243" lon="1.48101">
        <ele>149</ele>
        <time>2011-03-20T10:42:46</time>
      </trkpt>
      <trkpt lat="44.45251" lon="1.48109">
        <ele>149</ele>
        <time>2011-03-20T10:42:48</time>
      </trkpt>
      <trkpt lat="44.45259" lon="1.48117">
        <ele>149</ele>
        <time>2011-03-20T10:42:50</time>
      </trkpt>
      <trkpt lat="44.45263" lon="1.4812">
        <ele>149</ele>
        <time>2011-03-20T10:42:51</time>
      </trkpt>
      <trkpt lat="44.45272" lon="1.48127">
        <ele>157</ele>
        <time>2011-03-20T10:42:53</time>
      </trkpt>
      <trkpt lat="44.45276" lon="1.4813">
        <ele>157</ele>
        <time>2011-03-20T10:42:54</time>
      </trkpt>
      <trkpt lat="44.45281" lon="1.48132">
        <ele>157</ele>
        <time>2011-03-20T10:42:55</time>
      </trkpt>
      <trkpt lat="44.45285" lon="1.48135">
        <ele>157</ele>
        <time>2011-03-20T10:42:56</time>
      </trkpt>
      <trkpt lat="44.45295" lon="1.48139">
        <ele>148</ele>
        <time>2011-03-20T10:42:58</time>
      </trkpt>
      <trkpt lat="44.453" lon="1.48141">
        <ele>148</ele>
        <time>2011-03-20T10:42:59</time>
      </trkpt>
      <trkpt lat="44.45309" lon="1.48145">
        <ele>148</ele>
        <time>2011-03-20T10:43:01</time>
      </trkpt>
      <trkpt lat="44.45317" lon="1.48151">
        <ele>148</ele>
        <time>2011-03-20T10:43:03</time>
      </trkpt>
      <trkpt lat="44.45321" lon="1.48154">
        <ele>148</ele>
        <time>2011-03-20T10:43:04</time>
      </trkpt>
      <trkpt lat="44.45325" lon="1.48158">
        <ele>148</ele>
        <time>2011-03-20T10:43:05</time>
      </trkpt>
      <trkpt lat="44.45331" lon="1.48165">
        <ele>148</ele>
        <time>2011-03-20T10:43:07</time>
      </trkpt>
      <trkpt lat="44.45335" lon="1.48168">
        <ele>148</ele>
        <time>2011-03-20T10:43:08</time>
      </trkpt>
      <trkpt lat="44.45342" lon="1.48175">
        <ele>148</ele>
        <time>2011-03-20T10:43:10</time>
      </trkpt>
      <trkpt lat="44.4535" lon="1.48179">
        <ele>148</ele>
        <time>2011-03-20T10:43:12</time>
      </trkpt>
      <trkpt lat="44.45354" lon="1.48181">
        <ele>148</ele>
        <time>2011-03-20T10:43:13</time>
      </trkpt>
      <trkpt lat="44.45364" lon="1.48183">
        <ele>148</ele>
        <time>2011-03-20T10:43:15</time>
      </trkpt>
      <trkpt lat="44.45369" lon="1.48184">
        <ele>148</ele>
        <time>2011-03-20T10:43:16</time>
      </trkpt>
      <trkpt lat="44.45379" lon="1.48183">
        <ele>143</ele>
        <time>2011-03-20T10:43:18</time>
      </trkpt>
      <trkpt lat="44.45385" lon="1.48182">
        <ele>143</ele>
        <time>2011-03-20T10:43:19</time>
      </trkpt>
      <trkpt lat="44.45396" lon="1.48179">
        <ele>143</ele>
        <time>2011-03-20T10:43:21</time>
      </trkpt>
      <trkpt lat="44.45401" lon="1.48178">
        <ele>143</ele>
        <time>2011-03-20T10:43:22</time>
      </trkpt>
      <trkpt lat="44.45412" lon="1.48178">
        <ele>143</ele>
        <time>2011-03-20T10:43:24</time>
      </trkpt>
      <trkpt lat="44.45422" lon="1.48183">
        <ele>143</ele>
        <time>2011-03-20T10:43:26</time>
      </trkpt>
      <trkpt lat="44.45431" lon="1.4819">
        <ele>143</ele>
        <time>2011-03-20T10:43:28</time>
      </trkpt>
      <trkpt lat="44.45436" lon="1.48194">
        <ele>143</ele>
        <time>2011-03-20T10:43:29</time>
      </trkpt>
      <trkpt lat="44.45443" lon="1.48203">
        <ele>143</ele>
        <time>2011-03-20T10:43:31</time>
      </trkpt>
      <trkpt lat="44.45451" lon="1.48212">
        <ele>149</ele>
        <time>2011-03-20T10:43:33</time>
      </trkpt>
      <trkpt lat="44.45455" lon="1.48217">
        <ele>149</ele>
        <time>2011-03-20T10:43:34</time>
      </trkpt>
      <trkpt lat="44.45459" lon="1.48221">
        <ele>144</ele>
        <time>2011-03-20T10:43:35</time>
      </trkpt>
      <trkpt lat="44.45467" lon="1.4823">
        <ele>144</ele>
        <time>2011-03-20T10:43:37</time>
      </trkpt>
      <trkpt lat="44.45471" lon="1.48234">
        <ele>144</ele>
        <time>2011-03-20T10:43:38</time>
      </trkpt>
      <trkpt lat="44.45476" lon="1.48237">
        <ele>144</ele>
        <time>2011-03-20T10:43:39</time>
      </trkpt>
      <trkpt lat="44.45485" lon="1.48243">
        <ele>144</ele>
        <time>2011-03-20T10:43:41</time>
      </trkpt>
      <trkpt lat="44.4549" lon="1.48246">
        <ele>144</ele>
        <time>2011-03-20T10:43:42</time>
      </trkpt>
      <trkpt lat="44.45494" lon="1.48247">
        <ele>144</ele>
        <time>2011-03-20T10:43:43</time>
      </trkpt>
      <trkpt lat="44.45503" lon="1.4825">
        <ele>144</ele>
        <time>2011-03-20T10:43:45</time>
      </trkpt>
      <trkpt lat="44.45508" lon="1.4825">
        <ele>144</ele>
        <time>2011-03-20T10:43:46</time>
      </trkpt>
      <trkpt lat="44.45517" lon="1.48249">
        <ele>144</ele>
        <time>2011-03-20T10:43:48</time>
      </trkpt>
      <trkpt lat="44.45522" lon="1.48247">
        <ele>144</ele>
        <time>2011-03-20T10:43:49</time>
      </trkpt>
      <trkpt lat="44.45531" lon="1.48241">
        <ele>144</ele>
        <time>2011-03-20T10:43:51</time>
      </trkpt>
      <trkpt lat="44.45536" lon="1.48238">
        <ele>144</ele>
        <time>2011-03-20T10:43:52</time>
      </trkpt>
      <trkpt lat="44.45541" lon="1.48234">
        <ele>144</ele>
        <time>2011-03-20T10:43:53</time>
      </trkpt>
      <trkpt lat="44.45552" lon="1.48225">
        <ele>148</ele>
        <time>2011-03-20T10:43:55</time>
      </trkpt>
      <trkpt lat="44.45563" lon="1.48218">
        <ele>148</ele>
        <time>2011-03-20T10:43:57</time>
      </trkpt>
      <trkpt lat="44.45574" lon="1.48211">
        <ele>148</ele>
        <time>2011-03-20T10:43:59</time>
      </trkpt>
      <trkpt lat="44.45586" lon="1.48206">
        <ele>145</ele>
        <time>2011-03-20T10:44:01</time>
      </trkpt>
      <trkpt lat="44.45597" lon="1.48205">
        <ele>145</ele>
        <time>2011-03-20T10:44:03</time>
      </trkpt>
      <trkpt lat="44.45609" lon="1.48207">
        <ele>145</ele>
        <time>2011-03-20T10:44:05</time>
      </trkpt>
      <trkpt lat="44.45621" lon="1.48209">
        <ele>148</ele>
        <time>2011-03-20T10:44:07</time>
      </trkpt>
      <trkpt lat="44.45632" lon="1.48212">
        <ele>139</ele>
        <time>2011-03-20T10:44:09</time>
      </trkpt>
      <trkpt lat="44.45643" lon="1.48216">
        <ele>139</ele>
        <time>2011-03-20T10:44:11</time>
      </trkpt>
      <trkpt lat="44.45648" lon="1.48218">
        <ele>139</ele>
        <time>2011-03-20T10:44:12</time>
      </trkpt>
      <trkpt lat="44.45659" lon="1.48221">
        <ele>139</ele>
        <time>2011-03-20T10:44:14</time>
      </trkpt>
      <trkpt lat="44.45664" lon="1.48222">
        <ele>139</ele>
        <time>2011-03-20T10:44:15</time>
      </trkpt>
      <trkpt lat="44.45674" lon="1.48225">
        <ele>139</ele>
        <time>2011-03-20T10:44:17</time>
      </trkpt>
      <trkpt lat="44.45684" lon="1.48224">
        <ele>139</ele>
        <time>2011-03-20T10:44:19</time>
      </trkpt>
      <trkpt lat="44.45694" lon="1.4822">
        <ele>139</ele>
        <time>2011-03-20T10:44:21</time>
      </trkpt>
      <trkpt lat="44.45699" lon="1.48218">
        <ele>139</ele>
        <time>2011-03-20T10:44:22</time>
      </trkpt>
      <trkpt lat="44.45709" lon="1.48213">
        <ele>145</ele>
        <time>2011-03-20T10:44:24</time>
      </trkpt>
      <trkpt lat="44.45715" lon="1.48211">
        <ele>145</ele>
        <time>2011-03-20T10:44:25</time>
      </trkpt>
      <trkpt lat="44.4572" lon="1.4821">
        <ele>145</ele>
        <time>2011-03-20T10:44:26</time>
      </trkpt>
      <trkpt lat="44.4573" lon="1.4821">
        <ele>145</ele>
        <time>2011-03-20T10:44:28</time>
      </trkpt>
      <trkpt lat="44.4574" lon="1.48212">
        <ele>145</ele>
        <time>2011-03-20T10:44:30</time>
      </trkpt>
      <trkpt lat="44.45749" lon="1.48214">
        <ele>145</ele>
        <time>2011-03-20T10:44:32</time>
      </trkpt>
      <trkpt lat="44.45758" lon="1.48215">
        <ele>145</ele>
        <time>2011-03-20T10:44:34</time>
      </trkpt>
      <trkpt lat="44.45763" lon="1.48215">
        <ele>145</ele>
        <time>2011-03-20T10:44:35</time>
      </trkpt>
      <trkpt lat="44.45769" lon="1.48214">
        <ele>145</ele>
        <time>2011-03-20T10:44:36</time>
      </trkpt>
      <trkpt lat="44.4578" lon="1.48209">
        <ele>145</ele>
        <time>2011-03-20T10:44:38</time>
      </trkpt>
      <trkpt lat="44.45788" lon="1.48204">
        <ele>144</ele>
        <time>2011-03-20T10:44:40</time>
      </trkpt>
      <trkpt lat="44.45792" lon="1.48201">
        <ele>143</ele>
        <time>2011-03-20T10:44:41</time>
      </trkpt>
      <trkpt lat="44.45797" lon="1.48196">
        <ele>143</ele>
        <time>2011-03-20T10:44:42</time>
      </trkpt>
      <trkpt lat="44.45806" lon="1.48188">
        <ele>143</ele>
        <time>2011-03-20T10:44:44</time>
      </trkpt>
      <trkpt lat="44.45816" lon="1.48183">
        <ele>143</ele>
        <time>2011-03-20T10:44:46</time>
      </trkpt>
      <trkpt lat="44.45821" lon="1.48183">
        <ele>143</ele>
        <time>2011-03-20T10:44:47</time>
      </trkpt>
      <trkpt lat="44.45831" lon="1.48185">
        <ele>143</ele>
        <time>2011-03-20T10:44:49</time>
      </trkpt>
      <trkpt lat="44.45836" lon="1.48186">
        <ele>143</ele>
        <time>2011-03-20T10:44:50</time>
      </trkpt>
      <trkpt lat="44.45842" lon="1.48188">
        <ele>143</ele>
        <time>2011-03-20T10:44:51</time>
      </trkpt>
      <trkpt lat="44.45853" lon="1.4819">
        <ele>143</ele>
        <time>2011-03-20T10:44:53</time>
      </trkpt>
      <trkpt lat="44.45863" lon="1.48192">
        <ele>143</ele>
        <time>2011-03-20T10:44:55</time>
      </trkpt>
      <trkpt lat="44.45874" lon="1.48194">
        <ele>143</ele>
        <time>2011-03-20T10:44:57</time>
      </trkpt>
      <trkpt lat="44.45879" lon="1.48196">
        <ele>135</ele>
        <time>2011-03-20T10:44:58</time>
      </trkpt>
      <trkpt lat="44.4589" lon="1.48198">
        <ele>135</ele>
        <time>2011-03-20T10:45:00</time>
      </trkpt>
      <trkpt lat="44.45895" lon="1.48199">
        <ele>135</ele>
        <time>2011-03-20T10:45:01</time>
      </trkpt>
      <trkpt lat="44.459" lon="1.482">
        <ele>135</ele>
        <time>2011-03-20T10:45:02</time>
      </trkpt>
      <trkpt lat="44.45906" lon="1.48201">
        <ele>135</ele>
        <time>2011-03-20T10:45:03</time>
      </trkpt>
      <trkpt lat="44.45916" lon="1.48203">
        <ele>135</ele>
        <time>2011-03-20T10:45:05</time>
      </trkpt>
      <trkpt lat="44.45927" lon="1.48204">
        <ele>135</ele>
        <time>2011-03-20T10:45:07</time>
      </trkpt>
      <trkpt lat="44.45932" lon="1.48205">
        <ele>135</ele>
        <time>2011-03-20T10:45:08</time>
      </trkpt>
      <trkpt lat="44.45942" lon="1.48208">
        <ele>135</ele>
        <time>2011-03-20T10:45:10</time>
      </trkpt>
      <trkpt lat="44.45951" lon="1.48214">
        <ele>142</ele>
        <time>2011-03-20T10:45:12</time>
      </trkpt>
      <trkpt lat="44.45958" lon="1.48224">
        <ele>142</ele>
        <time>2011-03-20T10:45:14</time>
      </trkpt>
      <trkpt lat="44.45963" lon="1.48236">
        <ele>132</ele>
        <time>2011-03-20T10:45:16</time>
      </trkpt>
      <trkpt lat="44.45968" lon="1.48247">
        <ele>132</ele>
        <time>2011-03-20T10:45:18</time>
      </trkpt>
      <trkpt lat="44.4597" lon="1.48253">
        <ele>132</ele>
        <time>2011-03-20T10:45:19</time>
      </trkpt>
      <trkpt lat="44.45976" lon="1.48262">
        <ele>132</ele>
        <time>2011-03-20T10:45:21</time>
      </trkpt>
      <trkpt lat="44.45983" lon="1.48271">
        <ele>132</ele>
        <time>2011-03-20T10:45:23</time>
      </trkpt>
      <trkpt lat="44.4599" lon="1.4828">
        <ele>132</ele>
        <time>2011-03-20T10:45:25</time>
      </trkpt>
      <trkpt lat="44.45994" lon="1.48284">
        <ele>132</ele>
        <time>2011-03-20T10:45:26</time>
      </trkpt>
      <trkpt lat="44.46001" lon="1.48293">
        <ele>135</ele>
        <time>2011-03-20T10:45:28</time>
      </trkpt>
      <trkpt lat="44.46005" lon="1.48297">
        <ele>135</ele>
        <time>2011-03-20T10:45:29</time>
      </trkpt>
      <trkpt lat="44.46012" lon="1.48305">
        <ele>135</ele>
        <time>2011-03-20T10:45:31</time>
      </trkpt>
      <trkpt lat="44.46016" lon="1.48309">
        <ele>135</ele>
        <time>2011-03-20T10:45:32</time>
      </trkpt>
      <trkpt lat="44.46023" lon="1.48317">
        <ele>135</ele>
        <time>2011-03-20T10:45:34</time>
      </trkpt>
      <trkpt lat="44.4603" lon="1.48325">
        <ele>135</ele>
        <time>2011-03-20T10:45:36</time>
      </trkpt>
      <trkpt lat="44.46033" lon="1.48328">
        <ele>135</ele>
        <time>2011-03-20T10:45:37</time>
      </trkpt>
      <trkpt lat="44.46036" lon="1.48332">
        <ele>135</ele>
        <time>2011-03-20T10:45:38</time>
      </trkpt>
      <trkpt lat="44.46039" lon="1.48336">
        <ele>135</ele>
        <time>2011-03-20T10:45:39</time>
      </trkpt>
      <trkpt lat="44.46044" lon="1.48343">
        <ele>128</ele>
        <time>2011-03-20T10:45:41</time>
      </trkpt>
      <trkpt lat="44.46047" lon="1.48347">
        <ele>128</ele>
        <time>2011-03-20T10:45:42</time>
      </trkpt>
      <trkpt lat="44.4605" lon="1.48352">
        <ele>128</ele>
        <time>2011-03-20T10:45:44</time>
      </trkpt>
      <trkpt lat="44.46051" lon="1.48355">
        <ele>128</ele>
        <time>2011-03-20T10:45:45</time>
      </trkpt>
      <trkpt lat="44.46053" lon="1.48362">
        <ele>128</ele>
        <time>2011-03-20T10:45:47</time>
      </trkpt>
      <trkpt lat="44.46055" lon="1.48369">
        <ele>128</ele>
        <time>2011-03-20T10:45:49</time>
      </trkpt>
      <trkpt lat="44.46059" lon="1.48378">
        <ele>124</ele>
        <time>2011-03-20T10:45:51</time>
      </trkpt>
      <trkpt lat="44.46062" lon="1.48383">
        <ele>124</ele>
        <time>2011-03-20T10:45:52</time>
      </trkpt>
      <trkpt lat="44.46065" lon="1.48387">
        <ele>124</ele>
        <time>2011-03-20T10:45:53</time>
      </trkpt>
      <trkpt lat="44.4607" lon="1.48396">
        <ele>124</ele>
        <time>2011-03-20T10:45:55</time>
      </trkpt>
      <trkpt lat="44.46074" lon="1.48406">
        <ele>124</ele>
        <time>2011-03-20T10:45:57</time>
      </trkpt>
      <trkpt lat="44.46076" lon="1.48411">
        <ele>124</ele>
        <time>2011-03-20T10:45:58</time>
      </trkpt>
      <trkpt lat="44.46078" lon="1.48418">
        <ele>124</ele>
        <time>2011-03-20T10:45:59</time>
      </trkpt>
      <trkpt lat="44.46082" lon="1.48431">
        <ele>124</ele>
        <time>2011-03-20T10:46:01</time>
      </trkpt>
      <trkpt lat="44.46086" lon="1.48447">
        <ele>124</ele>
        <time>2011-03-20T10:46:03</time>
      </trkpt>
      <trkpt lat="44.46093" lon="1.48474">
        <ele>120</ele>
        <time>2011-03-20T10:46:05</time>
      </trkpt>
      <trkpt lat="44.46096" lon="1.48483">
        <ele>120</ele>
        <time>2011-03-20T10:46:06</time>
      </trkpt>
      <trkpt lat="44.46102" lon="1.48499">
        <ele>120</ele>
        <time>2011-03-20T10:46:08</time>
      </trkpt>
      <trkpt lat="44.4611" lon="1.48512">
        <ele>120</ele>
        <time>2011-03-20T10:46:10</time>
      </trkpt>
      <trkpt lat="44.4612" lon="1.48522">
        <ele>120</ele>
        <time>2011-03-20T10:46:12</time>
      </trkpt>
      <trkpt lat="44.46124" lon="1.48526">
        <ele>120</ele>
        <time>2011-03-20T10:46:13</time>
      </trkpt>
      <trkpt lat="44.46133" lon="1.48534">
        <ele>119</ele>
        <time>2011-03-20T10:46:15</time>
      </trkpt>
      <trkpt lat="44.46138" lon="1.48538">
        <ele>119</ele>
        <time>2011-03-20T10:46:16</time>
      </trkpt>
      <trkpt lat="44.46142" lon="1.48542">
        <ele>117</ele>
        <time>2011-03-20T10:46:17</time>
      </trkpt>
      <trkpt lat="44.4615" lon="1.48551">
        <ele>117</ele>
        <time>2011-03-20T10:46:19</time>
      </trkpt>
      <trkpt lat="44.46154" lon="1.48555">
        <ele>117</ele>
        <time>2011-03-20T10:46:20</time>
      </trkpt>
      <trkpt lat="44.46159" lon="1.48559">
        <ele>117</ele>
        <time>2011-03-20T10:46:21</time>
      </trkpt>
      <trkpt lat="44.46168" lon="1.48567">
        <ele>117</ele>
        <time>2011-03-20T10:46:23</time>
      </trkpt>
      <trkpt lat="44.46172" lon="1.4857">
        <ele>117</ele>
        <time>2011-03-20T10:46:24</time>
      </trkpt>
      <trkpt lat="44.46181" lon="1.48577">
        <ele>117</ele>
        <time>2011-03-20T10:46:26</time>
      </trkpt>
      <trkpt lat="44.46189" lon="1.48584">
        <ele>117</ele>
        <time>2011-03-20T10:46:28</time>
      </trkpt>
      <trkpt lat="44.46196" lon="1.48591">
        <ele>117</ele>
        <time>2011-03-20T10:46:30</time>
      </trkpt>
      <trkpt lat="44.462" lon="1.48595">
        <ele>117</ele>
        <time>2011-03-20T10:46:31</time>
      </trkpt>
      <trkpt lat="44.46206" lon="1.48601">
        <ele>117</ele>
        <time>2011-03-20T10:46:33</time>
      </trkpt>
      <trkpt lat="44.46214" lon="1.48607">
        <ele>119</ele>
        <time>2011-03-20T10:46:35</time>
      </trkpt>
      <trkpt lat="44.46216" lon="1.48608">
        <ele>119</ele>
        <time>2011-03-20T10:46:36</time>
      </trkpt>
      <trkpt lat="44.46219" lon="1.48608">
        <ele>119</ele>
        <time>2011-03-20T10:46:37</time>
      </trkpt>
      <trkpt lat="44.46221" lon="1.48607">
        <ele>119</ele>
        <time>2011-03-20T10:46:38</time>
      </trkpt>
      <trkpt lat="44.46227" lon="1.48602">
        <ele>119</ele>
        <time>2011-03-20T10:46:40</time>
      </trkpt>
      <trkpt lat="44.4623" lon="1.48598">
        <ele>119</ele>
        <time>2011-03-20T10:46:41</time>
      </trkpt>
      <trkpt lat="44.46233" lon="1.48593">
        <ele>119</ele>
        <time>2011-03-20T10:46:42</time>
      </trkpt>
      <trkpt lat="44.46237" lon="1.48588">
        <ele>119</ele>
        <time>2011-03-20T10:46:43</time>
      </trkpt>
      <trkpt lat="44.46244" lon="1.48577">
        <ele>119</ele>
        <time>2011-03-20T10:46:45</time>
      </trkpt>
      <trkpt lat="44.46247" lon="1.48571">
        <ele>119</ele>
        <time>2011-03-20T10:46:46</time>
      </trkpt>
      <trkpt lat="44.46252" lon="1.48562">
        <ele>119</ele>
        <time>2011-03-20T10:46:48</time>
      </trkpt>
      <trkpt lat="44.46254" lon="1.48558">
        <ele>119</ele>
        <time>2011-03-20T10:46:49</time>
      </trkpt>
      <trkpt lat="44.46258" lon="1.48548">
        <ele>119</ele>
        <time>2011-03-20T10:46:51</time>
      </trkpt>
      <trkpt lat="44.46262" lon="1.48539">
        <ele>121</ele>
        <time>2011-03-20T10:46:53</time>
      </trkpt>
      <trkpt lat="44.46264" lon="1.48534">
        <ele>121</ele>
        <time>2011-03-20T10:46:54</time>
      </trkpt>
      <trkpt lat="44.46269" lon="1.48525">
        <ele>121</ele>
        <time>2011-03-20T10:46:56</time>
      </trkpt>
      <trkpt lat="44.46274" lon="1.48516">
        <ele>121</ele>
        <time>2011-03-20T10:46:58</time>
      </trkpt>
      <trkpt lat="44.46277" lon="1.48512">
        <ele>121</ele>
        <time>2011-03-20T10:46:59</time>
      </trkpt>
      <trkpt lat="44.46282" lon="1.48503">
        <ele>121</ele>
        <time>2011-03-20T10:47:01</time>
      </trkpt>
      <trkpt lat="44.46285" lon="1.48499">
        <ele>121</ele>
        <time>2011-03-20T10:47:02</time>
      </trkpt>
      <trkpt lat="44.4629" lon="1.48489">
        <ele>121</ele>
        <time>2011-03-20T10:47:04</time>
      </trkpt>
      <trkpt lat="44.46293" lon="1.48485">
        <ele>118</ele>
        <time>2011-03-20T10:47:05</time>
      </trkpt>
      <trkpt lat="44.46297" lon="1.48476">
        <ele>118</ele>
        <time>2011-03-20T10:47:07</time>
      </trkpt>
      <trkpt lat="44.46299" lon="1.48472">
        <ele>118</ele>
        <time>2011-03-20T10:47:08</time>
      </trkpt>
      <trkpt lat="44.46303" lon="1.48464">
        <ele>118</ele>
        <time>2011-03-20T10:47:10</time>
      </trkpt>
      <trkpt lat="44.46305" lon="1.4846">
        <ele>118</ele>
        <time>2011-03-20T10:47:11</time>
      </trkpt>
      <trkpt lat="44.46311" lon="1.48451">
        <ele>118</ele>
        <time>2011-03-20T10:47:13</time>
      </trkpt>
      <trkpt lat="44.46313" lon="1.48447">
        <ele>118</ele>
        <time>2011-03-20T10:47:14</time>
      </trkpt>
      <trkpt lat="44.46316" lon="1.48444">
        <ele>118</ele>
        <time>2011-03-20T10:47:15</time>
      </trkpt>
      <trkpt lat="44.46321" lon="1.48437">
        <ele>118</ele>
        <time>2011-03-20T10:47:17</time>
      </trkpt>
      <trkpt lat="44.46323" lon="1.48433">
        <ele>118</ele>
        <time>2011-03-20T10:47:18</time>
      </trkpt>
      <trkpt lat="44.46329" lon="1.48424">
        <ele>118</ele>
        <time>2011-03-20T10:47:20</time>
      </trkpt>
      <trkpt lat="44.46332" lon="1.4842">
        <ele>118</ele>
        <time>2011-03-20T10:47:21</time>
      </trkpt>
      <trkpt lat="44.46335" lon="1.48416">
        <ele>118</ele>
        <time>2011-03-20T10:47:22</time>
      </trkpt>
      <trkpt lat="44.46341" lon="1.48408">
        <ele>118</ele>
        <time>2011-03-20T10:47:24</time>
      </trkpt>
      <trkpt lat="44.46346" lon="1.484">
        <ele>118</ele>
        <time>2011-03-20T10:47:26</time>
      </trkpt>
      <trkpt lat="44.46351" lon="1.48391">
        <ele>118</ele>
        <time>2011-03-20T10:47:28</time>
      </trkpt>
      <trkpt lat="44.46354" lon="1.48387">
        <ele>118</ele>
        <time>2011-03-20T10:47:29</time>
      </trkpt>
      <trkpt lat="44.46356" lon="1.48384">
        <ele>118</ele>
        <time>2011-03-20T10:47:30</time>
      </trkpt>
      <trkpt lat="44.46359" lon="1.48379">
        <ele>118</ele>
        <time>2011-03-20T10:47:31</time>
      </trkpt>
      <trkpt lat="44.46361" lon="1.48376">
        <ele>118</ele>
        <time>2011-03-20T10:47:32</time>
      </trkpt>
      <trkpt lat="44.46367" lon="1.48369">
        <ele>118</ele>
        <time>2011-03-20T10:47:34</time>
      </trkpt>
      <trkpt lat="44.4637" lon="1.48366">
        <ele>118</ele>
        <time>2011-03-20T10:47:35</time>
      </trkpt>
      <trkpt lat="44.46375" lon="1.48357">
        <ele>118</ele>
        <time>2011-03-20T10:47:37</time>
      </trkpt>
      <trkpt lat="44.46377" lon="1.48353">
        <ele>120</ele>
        <time>2011-03-20T10:47:38</time>
      </trkpt>
      <trkpt lat="44.46382" lon="1.48344">
        <ele>120</ele>
        <time>2011-03-20T10:47:40</time>
      </trkpt>
      <trkpt lat="44.46385" lon="1.4834">
        <ele>120</ele>
        <time>2011-03-20T10:47:41</time>
      </trkpt>
      <trkpt lat="44.4639" lon="1.48332">
        <ele>120</ele>
        <time>2011-03-20T10:47:43</time>
      </trkpt>
      <trkpt lat="44.46393" lon="1.48328">
        <ele>120</ele>
        <time>2011-03-20T10:47:44</time>
      </trkpt>
      <trkpt lat="44.46396" lon="1.48324">
        <ele>120</ele>
        <time>2011-03-20T10:47:45</time>
      </trkpt>
      <trkpt lat="44.46401" lon="1.48316">
        <ele>120</ele>
        <time>2011-03-20T10:47:47</time>
      </trkpt>
      <trkpt lat="44.46404" lon="1.48312">
        <ele>120</ele>
        <time>2011-03-20T10:47:48</time>
      </trkpt>
      <trkpt lat="44.46409" lon="1.48304">
        <ele>120</ele>
        <time>2011-03-20T10:47:50</time>
      </trkpt>
      <trkpt lat="44.46412" lon="1.483">
        <ele>120</ele>
        <time>2011-03-20T10:47:51</time>
      </trkpt>
      <trkpt lat="44.46415" lon="1.48297">
        <ele>120</ele>
        <time>2011-03-20T10:47:52</time>
      </trkpt>
      <trkpt lat="44.46421" lon="1.4829">
        <ele>119</ele>
        <time>2011-03-20T10:47:54</time>
      </trkpt>
      <trkpt lat="44.46424" lon="1.48286">
        <ele>119</ele>
        <time>2011-03-20T10:47:55</time>
      </trkpt>
      <trkpt lat="44.46429" lon="1.4828">
        <ele>119</ele>
        <time>2011-03-20T10:47:57</time>
      </trkpt>
      <trkpt lat="44.46432" lon="1.48277">
        <ele>119</ele>
        <time>2011-03-20T10:47:58</time>
      </trkpt>
      <trkpt lat="44.46435" lon="1.48274">
        <ele>119</ele>
        <time>2011-03-20T10:47:59</time>
      </trkpt>
      <trkpt lat="44.46441" lon="1.48267">
        <ele>119</ele>
        <time>2011-03-20T10:48:01</time>
      </trkpt>
      <trkpt lat="44.46445" lon="1.48264">
        <ele>119</ele>
        <time>2011-03-20T10:48:02</time>
      </trkpt>
      <trkpt lat="44.46448" lon="1.4826">
        <ele>119</ele>
        <time>2011-03-20T10:48:03</time>
      </trkpt>
      <trkpt lat="44.46455" lon="1.48253">
        <ele>119</ele>
        <time>2011-03-20T10:48:05</time>
      </trkpt>
      <trkpt lat="44.46458" lon="1.4825">
        <ele>119</ele>
        <time>2011-03-20T10:48:06</time>
      </trkpt>
      <trkpt lat="44.46461" lon="1.48247">
        <ele>120</ele>
        <time>2011-03-20T10:48:07</time>
      </trkpt>
      <trkpt lat="44.46467" lon="1.4824">
        <ele>120</ele>
        <time>2011-03-20T10:48:09</time>
      </trkpt>
      <trkpt lat="44.46469" lon="1.48237">
        <ele>120</ele>
        <time>2011-03-20T10:48:10</time>
      </trkpt>
      <trkpt lat="44.46475" lon="1.4823">
        <ele>120</ele>
        <time>2011-03-20T10:48:12</time>
      </trkpt>
      <trkpt lat="44.46477" lon="1.48226">
        <ele>120</ele>
        <time>2011-03-20T10:48:13</time>
      </trkpt>
      <trkpt lat="44.46483" lon="1.48219">
        <ele>120</ele>
        <time>2011-03-20T10:48:15</time>
      </trkpt>
      <trkpt lat="44.46486" lon="1.48215">
        <ele>120</ele>
        <time>2011-03-20T10:48:16</time>
      </trkpt>
      <trkpt lat="44.46491" lon="1.48208">
        <ele>118</ele>
        <time>2011-03-20T10:48:18</time>
      </trkpt>
      <trkpt lat="44.46494" lon="1.48205">
        <ele>118</ele>
        <time>2011-03-20T10:48:19</time>
      </trkpt>
      <trkpt lat="44.46498" lon="1.48197">
        <ele>118</ele>
        <time>2011-03-20T10:48:21</time>
      </trkpt>
      <trkpt lat="44.46503" lon="1.4819">
        <ele>118</ele>
        <time>2011-03-20T10:48:23</time>
      </trkpt>
      <trkpt lat="44.46509" lon="1.48182">
        <ele>118</ele>
        <time>2011-03-20T10:48:25</time>
      </trkpt>
      <trkpt lat="44.46512" lon="1.48179">
        <ele>118</ele>
        <time>2011-03-20T10:48:26</time>
      </trkpt>
      <trkpt lat="44.46515" lon="1.48175">
        <ele>118</ele>
        <time>2011-03-20T10:48:27</time>
      </trkpt>
      <trkpt lat="44.46521" lon="1.48168">
        <ele>118</ele>
        <time>2011-03-20T10:48:29</time>
      </trkpt>
      <trkpt lat="44.46524" lon="1.48165">
        <ele>118</ele>
        <time>2011-03-20T10:48:30</time>
      </trkpt>
      <trkpt lat="44.4653" lon="1.48158">
        <ele>118</ele>
        <time>2011-03-20T10:48:32</time>
      </trkpt>
      <trkpt lat="44.46533" lon="1.48155">
        <ele>118</ele>
        <time>2011-03-20T10:48:33</time>
      </trkpt>
      <trkpt lat="44.46536" lon="1.48151">
        <ele>118</ele>
        <time>2011-03-20T10:48:34</time>
      </trkpt>
      <trkpt lat="44.46541" lon="1.48144">
        <ele>118</ele>
        <time>2011-03-20T10:48:36</time>
      </trkpt>
      <trkpt lat="44.46544" lon="1.48141">
        <ele>118</ele>
        <time>2011-03-20T10:48:37</time>
      </trkpt>
      <trkpt lat="44.46549" lon="1.48135">
        <ele>118</ele>
        <time>2011-03-20T10:48:39</time>
      </trkpt>
      <trkpt lat="44.46551" lon="1.48132">
        <ele>118</ele>
        <time>2011-03-20T10:48:40</time>
      </trkpt>
      <trkpt lat="44.46556" lon="1.48126">
        <ele>118</ele>
        <time>2011-03-20T10:48:42</time>
      </trkpt>
      <trkpt lat="44.46559" lon="1.48123">
        <ele>120</ele>
        <time>2011-03-20T10:48:43</time>
      </trkpt>
      <trkpt lat="44.46562" lon="1.48119">
        <ele>120</ele>
        <time>2011-03-20T10:48:44</time>
      </trkpt>
      <trkpt lat="44.46565" lon="1.48114">
        <ele>120</ele>
        <time>2011-03-20T10:48:45</time>
      </trkpt>
      <trkpt lat="44.46573" lon="1.48105">
        <ele>120</ele>
        <time>2011-03-20T10:48:47</time>
      </trkpt>
      <trkpt lat="44.46581" lon="1.48098">
        <ele>120</ele>
        <time>2011-03-20T10:48:49</time>
      </trkpt>
      <trkpt lat="44.46588" lon="1.48092">
        <ele>120</ele>
        <time>2011-03-20T10:48:51</time>
      </trkpt>
      <trkpt lat="44.46595" lon="1.48088">
        <ele>120</ele>
        <time>2011-03-20T10:48:53</time>
      </trkpt>
      <trkpt lat="44.46602" lon="1.48085">
        <ele>120</ele>
        <time>2011-03-20T10:48:55</time>
      </trkpt>
      <trkpt lat="44.46608" lon="1.48082">
        <ele>120</ele>
        <time>2011-03-20T10:48:57</time>
      </trkpt>
      <trkpt lat="44.46612" lon="1.48078">
        <ele>120</ele>
        <time>2011-03-20T10:48:59</time>
      </trkpt>
      <trkpt lat="44.46615" lon="1.48075">
        <ele>120</ele>
        <time>2011-03-20T10:49:00</time>
      </trkpt>
      <trkpt lat="44.46621" lon="1.48069">
        <ele>120</ele>
        <time>2011-03-20T10:49:02</time>
      </trkpt>
      <trkpt lat="44.46624" lon="1.48066">
        <ele>120</ele>
        <time>2011-03-20T10:49:03</time>
      </trkpt>
      <trkpt lat="44.46626" lon="1.48063">
        <ele>120</ele>
        <time>2011-03-20T10:49:04</time>
      </trkpt>
      <trkpt lat="44.46632" lon="1.48057">
        <ele>120</ele>
        <time>2011-03-20T10:49:06</time>
      </trkpt>
      <trkpt lat="44.46635" lon="1.48053">
        <ele>120</ele>
        <time>2011-03-20T10:49:07</time>
      </trkpt>
      <trkpt lat="44.46641" lon="1.48046">
        <ele>120</ele>
        <time>2011-03-20T10:49:09</time>
      </trkpt>
      <trkpt lat="44.46644" lon="1.48044">
        <ele>120</ele>
        <time>2011-03-20T10:49:10</time>
      </trkpt>
      <trkpt lat="44.46647" lon="1.48041">
        <ele>118</ele>
        <time>2011-03-20T10:49:11</time>
      </trkpt>
      <trkpt lat="44.46653" lon="1.48035">
        <ele>118</ele>
        <time>2011-03-20T10:49:13</time>
      </trkpt>
      <trkpt lat="44.46656" lon="1.48032">
        <ele>118</ele>
        <time>2011-03-20T10:49:14</time>
      </trkpt>
      <trkpt lat="44.46662" lon="1.48023">
        <ele>118</ele>
        <time>2011-03-20T10:49:16</time>
      </trkpt>
      <trkpt lat="44.46665" lon="1.48019">
        <ele>118</ele>
        <time>2011-03-20T10:49:17</time>
      </trkpt>
      <trkpt lat="44.46668" lon="1.48015">
        <ele>118</ele>
        <time>2011-03-20T10:49:18</time>
      </trkpt>
      <trkpt lat="44.46674" lon="1.48007">
        <ele>118</ele>
        <time>2011-03-20T10:49:20</time>
      </trkpt>
      <trkpt lat="44.46677" lon="1.48002">
        <ele>118</ele>
        <time>2011-03-20T10:49:21</time>
      </trkpt>
      <trkpt lat="44.4668" lon="1.47998">
        <ele>118</ele>
        <time>2011-03-20T10:49:22</time>
      </trkpt>
      <trkpt lat="44.46686" lon="1.47991">
        <ele>118</ele>
        <time>2011-03-20T10:49:24</time>
      </trkpt>
      <trkpt lat="44.46689" lon="1.47987">
        <ele>118</ele>
        <time>2011-03-20T10:49:25</time>
      </trkpt>
      <trkpt lat="44.46694" lon="1.47981">
        <ele>118</ele>
        <time>2011-03-20T10:49:27</time>
      </trkpt>
      <trkpt lat="44.46699" lon="1.47975">
        <ele>118</ele>
        <time>2011-03-20T10:49:29</time>
      </trkpt>
      <trkpt lat="44.46701" lon="1.47971">
        <ele>118</ele>
        <time>2011-03-20T10:49:30</time>
      </trkpt>
      <trkpt lat="44.46703" lon="1.47967">
        <ele>118</ele>
        <time>2011-03-20T10:49:31</time>
      </trkpt>
      <trkpt lat="44.46707" lon="1.47959">
        <ele>118</ele>
        <time>2011-03-20T10:49:33</time>
      </trkpt>
      <trkpt lat="44.4671" lon="1.47954">
        <ele>118</ele>
        <time>2011-03-20T10:49:34</time>
      </trkpt>
      <trkpt lat="44.46712" lon="1.47949">
        <ele>118</ele>
        <time>2011-03-20T10:49:35</time>
      </trkpt>
      <trkpt lat="44.46717" lon="1.4794">
        <ele>118</ele>
        <time>2011-03-20T10:49:37</time>
      </trkpt>
      <trkpt lat="44.46719" lon="1.47937">
        <ele>118</ele>
        <time>2011-03-20T10:49:38</time>
      </trkpt>
      <trkpt lat="44.46721" lon="1.47933">
        <ele>118</ele>
        <time>2011-03-20T10:49:39</time>
      </trkpt>
      <trkpt lat="44.46724" lon="1.47927">
        <ele>118</ele>
        <time>2011-03-20T10:49:41</time>
      </trkpt>
      <trkpt lat="44.46728" lon="1.47921">
        <ele>118</ele>
        <time>2011-03-20T10:49:43</time>
      </trkpt>
      <trkpt lat="44.4673" lon="1.47917">
        <ele>118</ele>
        <time>2011-03-20T10:49:44</time>
      </trkpt>
      <trkpt lat="44.46735" lon="1.4791">
        <ele>118</ele>
        <time>2011-03-20T10:49:46</time>
      </trkpt>
      <trkpt lat="44.46737" lon="1.47906">
        <ele>118</ele>
        <time>2011-03-20T10:49:47</time>
      </trkpt>
      <trkpt lat="44.46741" lon="1.47899">
        <ele>118</ele>
        <time>2011-03-20T10:49:49</time>
      </trkpt>
      <trkpt lat="44.46743" lon="1.47896">
        <ele>118</ele>
        <time>2011-03-20T10:49:50</time>
      </trkpt>
      <trkpt lat="44.46746" lon="1.47893">
        <ele>118</ele>
        <time>2011-03-20T10:49:51</time>
      </trkpt>
      <trkpt lat="44.4675" lon="1.47887">
        <ele>118</ele>
        <time>2011-03-20T10:49:53</time>
      </trkpt>
      <trkpt lat="44.46753" lon="1.47882">
        <ele>118</ele>
        <time>2011-03-20T10:49:55</time>
      </trkpt>
      <trkpt lat="44.46755" lon="1.47878">
        <ele>118</ele>
        <time>2011-03-20T10:49:57</time>
      </trkpt>
      <trkpt lat="44.46756" lon="1.47877">
        <ele>118</ele>
        <time>2011-03-20T10:49:58</time>
      </trkpt>
      <trkpt lat="44.46758" lon="1.47874">
        <ele>120</ele>
        <time>2011-03-20T10:50:00</time>
      </trkpt>
      <trkpt lat="44.4676" lon="1.4787">
        <ele>120</ele>
        <time>2011-03-20T10:50:02</time>
      </trkpt>
      <trkpt lat="44.46762" lon="1.47867">
        <ele>120</ele>
        <time>2011-03-20T10:50:04</time>
      </trkpt>
      <trkpt lat="44.46765" lon="1.47865">
        <ele>120</ele>
        <time>2011-03-20T10:50:07</time>
      </trkpt>
      <trkpt lat="44.46767" lon="1.47863">
        <ele>120</ele>
        <time>2011-03-20T10:50:10</time>
      </trkpt>
      <trkpt lat="44.46769" lon="1.4786">
        <ele>120</ele>
        <time>2011-03-20T10:50:12</time>
      </trkpt>
      <trkpt lat="44.46771" lon="1.47856">
        <ele>120</ele>
        <time>2011-03-20T10:50:14</time>
      </trkpt>
      <trkpt lat="44.46771" lon="1.47851">
        <ele>120</ele>
        <time>2011-03-20T10:50:17</time>
      </trkpt>
      <trkpt lat="44.46771" lon="1.47847">
        <ele>120</ele>
        <time>2011-03-20T10:50:19</time>
      </trkpt>
      <trkpt lat="44.46774" lon="1.47846">
        <ele>120</ele>
        <time>2011-03-20T10:50:21</time>
      </trkpt>
      <trkpt lat="44.46777" lon="1.47847">
        <ele>120</ele>
        <time>2011-03-20T10:50:23</time>
      </trkpt>
      <trkpt lat="44.46779" lon="1.47846">
        <ele>120</ele>
        <time>2011-03-20T10:50:25</time>
      </trkpt>
      <trkpt lat="44.46782" lon="1.47844">
        <ele>120</ele>
        <time>2011-03-20T10:50:28</time>
      </trkpt>
      <trkpt lat="44.46785" lon="1.47841">
        <ele>120</ele>
        <time>2011-03-20T10:50:31</time>
      </trkpt>
      <trkpt lat="44.46786" lon="1.47838">
        <ele>120</ele>
        <time>2011-03-20T10:50:33</time>
      </trkpt>
      <trkpt lat="44.46788" lon="1.47833">
        <ele>120</ele>
        <time>2011-03-20T10:50:35</time>
      </trkpt>
      <trkpt lat="44.46791" lon="1.47828">
        <ele>120</ele>
        <time>2011-03-20T10:50:37</time>
      </trkpt>
      <trkpt lat="44.46795" lon="1.47822">
        <ele>122</ele>
        <time>2011-03-20T10:50:39</time>
      </trkpt>
      <trkpt lat="44.46798" lon="1.47818">
        <ele>122</ele>
        <time>2011-03-20T10:50:40</time>
      </trkpt>
      <trkpt lat="44.46802" lon="1.47812">
        <ele>122</ele>
        <time>2011-03-20T10:50:42</time>
      </trkpt>
      <trkpt lat="44.46804" lon="1.47808">
        <ele>122</ele>
        <time>2011-03-20T10:50:43</time>
      </trkpt>
      <trkpt lat="44.46808" lon="1.47801">
        <ele>122</ele>
        <time>2011-03-20T10:50:45</time>
      </trkpt>
      <trkpt lat="44.46811" lon="1.47797">
        <ele>122</ele>
        <time>2011-03-20T10:50:46</time>
      </trkpt>
      <trkpt lat="44.46814" lon="1.4779">
        <ele>121</ele>
        <time>2011-03-20T10:50:48</time>
      </trkpt>
      <trkpt lat="44.46816" lon="1.47786">
        <ele>121</ele>
        <time>2011-03-20T10:50:49</time>
      </trkpt>
      <trkpt lat="44.4682" lon="1.4778">
        <ele>121</ele>
        <time>2011-03-20T10:50:51</time>
      </trkpt>
      <trkpt lat="44.46824" lon="1.47772">
        <ele>121</ele>
        <time>2011-03-20T10:50:53</time>
      </trkpt>
      <trkpt lat="44.46828" lon="1.47765">
        <ele>121</ele>
        <time>2011-03-20T10:50:55</time>
      </trkpt>
      <trkpt lat="44.46833" lon="1.47757">
        <ele>121</ele>
        <time>2011-03-20T10:50:57</time>
      </trkpt>
      <trkpt lat="44.46835" lon="1.47754">
        <ele>121</ele>
        <time>2011-03-20T10:50:58</time>
      </trkpt>
      <trkpt lat="44.46838" lon="1.4775">
        <ele>121</ele>
        <time>2011-03-20T10:50:59</time>
      </trkpt>
      <trkpt lat="44.4684" lon="1.47746">
        <ele>121</ele>
        <time>2011-03-20T10:51:00</time>
      </trkpt>
      <trkpt lat="44.46842" lon="1.47743">
        <ele>121</ele>
        <time>2011-03-20T10:51:01</time>
      </trkpt>
      <trkpt lat="44.46847" lon="1.47736">
        <ele>121</ele>
        <time>2011-03-20T10:51:03</time>
      </trkpt>
      <trkpt lat="44.46851" lon="1.4773">
        <ele>121</ele>
        <time>2011-03-20T10:51:05</time>
      </trkpt>
      <trkpt lat="44.46853" lon="1.47727">
        <ele>121</ele>
        <time>2011-03-20T10:51:06</time>
      </trkpt>
      <trkpt lat="44.46855" lon="1.47724">
        <ele>121</ele>
        <time>2011-03-20T10:51:07</time>
      </trkpt>
      <trkpt lat="44.4686" lon="1.47718">
        <ele>121</ele>
        <time>2011-03-20T10:51:09</time>
      </trkpt>
      <trkpt lat="44.46865" lon="1.47711">
        <ele>121</ele>
        <time>2011-03-20T10:51:11</time>
      </trkpt>
      <trkpt lat="44.4687" lon="1.47705">
        <ele>122</ele>
        <time>2011-03-20T10:51:13</time>
      </trkpt>
      <trkpt lat="44.46873" lon="1.47702">
        <ele>122</ele>
        <time>2011-03-20T10:51:14</time>
      </trkpt>
      <trkpt lat="44.46878" lon="1.47696">
        <ele>120</ele>
        <time>2011-03-20T10:51:16</time>
      </trkpt>
      <trkpt lat="44.46881" lon="1.47693">
        <ele>120</ele>
        <time>2011-03-20T10:51:17</time>
      </trkpt>
      <trkpt lat="44.46883" lon="1.47691">
        <ele>120</ele>
        <time>2011-03-20T10:51:18</time>
      </trkpt>
      <trkpt lat="44.46887" lon="1.47687">
        <ele>120</ele>
        <time>2011-03-20T10:51:20</time>
      </trkpt>
      <trkpt lat="44.46889" lon="1.47684">
        <ele>120</ele>
        <time>2011-03-20T10:51:21</time>
      </trkpt>
      <trkpt lat="44.46894" lon="1.47678">
        <ele>120</ele>
        <time>2011-03-20T10:51:23</time>
      </trkpt>
      <trkpt lat="44.46897" lon="1.47675">
        <ele>120</ele>
        <time>2011-03-20T10:51:24</time>
      </trkpt>
      <trkpt lat="44.46902" lon="1.4767">
        <ele>120</ele>
        <time>2011-03-20T10:51:26</time>
      </trkpt>
      <trkpt lat="44.46907" lon="1.47665">
        <ele>120</ele>
        <time>2011-03-20T10:51:28</time>
      </trkpt>
      <trkpt lat="44.46909" lon="1.47663">
        <ele>120</ele>
        <time>2011-03-20T10:51:29</time>
      </trkpt>
      <trkpt lat="44.46915" lon="1.47657">
        <ele>120</ele>
        <time>2011-03-20T10:51:31</time>
      </trkpt>
      <trkpt lat="44.46918" lon="1.47655">
        <ele>120</ele>
        <time>2011-03-20T10:51:32</time>
      </trkpt>
      <trkpt lat="44.46921" lon="1.47652">
        <ele>120</ele>
        <time>2011-03-20T10:51:33</time>
      </trkpt>
      <trkpt lat="44.46924" lon="1.4765">
        <ele>120</ele>
        <time>2011-03-20T10:51:34</time>
      </trkpt>
      <trkpt lat="44.46929" lon="1.47647">
        <ele>120</ele>
        <time>2011-03-20T10:51:36</time>
      </trkpt>
      <trkpt lat="44.46932" lon="1.47646">
        <ele>120</ele>
        <time>2011-03-20T10:51:37</time>
      </trkpt>
      <trkpt lat="44.46937" lon="1.47643">
        <ele>120</ele>
        <time>2011-03-20T10:51:39</time>
      </trkpt>
      <trkpt lat="44.4694" lon="1.47641">
        <ele>120</ele>
        <time>2011-03-20T10:51:40</time>
      </trkpt>
      <trkpt lat="44.46946" lon="1.47636">
        <ele>120</ele>
        <time>2011-03-20T10:51:42</time>
      </trkpt>
      <trkpt lat="44.46948" lon="1.47634">
        <ele>120</ele>
        <time>2011-03-20T10:51:43</time>
      </trkpt>
      <trkpt lat="44.46954" lon="1.4763">
        <ele>120</ele>
        <time>2011-03-20T10:51:45</time>
      </trkpt>
      <trkpt lat="44.46957" lon="1.47627">
        <ele>120</ele>
        <time>2011-03-20T10:51:46</time>
      </trkpt>
      <trkpt lat="44.46962" lon="1.47622">
        <ele>120</ele>
        <time>2011-03-20T10:51:48</time>
      </trkpt>
      <trkpt lat="44.46965" lon="1.4762">
        <ele>120</ele>
        <time>2011-03-20T10:51:49</time>
      </trkpt>
      <trkpt lat="44.46971" lon="1.47614">
        <ele>120</ele>
        <time>2011-03-20T10:51:51</time>
      </trkpt>
      <trkpt lat="44.46973" lon="1.47611">
        <ele>120</ele>
        <time>2011-03-20T10:51:52</time>
      </trkpt>
      <trkpt lat="44.46979" lon="1.47606">
        <ele>120</ele>
        <time>2011-03-20T10:51:54</time>
      </trkpt>
      <trkpt lat="44.46982" lon="1.47603">
        <ele>120</ele>
        <time>2011-03-20T10:51:55</time>
      </trkpt>
      <trkpt lat="44.46985" lon="1.47601">
        <ele>120</ele>
        <time>2011-03-20T10:51:56</time>
      </trkpt>
      <trkpt lat="44.46988" lon="1.47598">
        <ele>120</ele>
        <time>2011-03-20T10:51:57</time>
      </trkpt>
      <trkpt lat="44.46991" lon="1.47595">
        <ele>120</ele>
        <time>2011-03-20T10:51:58</time>
      </trkpt>
      <trkpt lat="44.46996" lon="1.47589">
        <ele>120</ele>
        <time>2011-03-20T10:52:00</time>
      </trkpt>
      <trkpt lat="44.46999" lon="1.47586">
        <ele>120</ele>
        <time>2011-03-20T10:52:01</time>
      </trkpt>
      <trkpt lat="44.47002" lon="1.47584">
        <ele>120</ele>
        <time>2011-03-20T10:52:02</time>
      </trkpt>
      <trkpt lat="44.47007" lon="1.47578">
        <ele>120</ele>
        <time>2011-03-20T10:52:04</time>
      </trkpt>
      <trkpt lat="44.4701" lon="1.47575">
        <ele>120</ele>
        <time>2011-03-20T10:52:05</time>
      </trkpt>
      <trkpt lat="44.47013" lon="1.47573">
        <ele>120</ele>
        <time>2011-03-20T10:52:06</time>
      </trkpt>
      <trkpt lat="44.47018" lon="1.47568">
        <ele>120</ele>
        <time>2011-03-20T10:52:08</time>
      </trkpt>
      <trkpt lat="44.47022" lon="1.47563">
        <ele>120</ele>
        <time>2011-03-20T10:52:10</time>
      </trkpt>
      <trkpt lat="44.47027" lon="1.47559">
        <ele>120</ele>
        <time>2011-03-20T10:52:12</time>
      </trkpt>
      <trkpt lat="44.47034" lon="1.47556">
        <ele>120</ele>
        <time>2011-03-20T10:52:14</time>
      </trkpt>
      <trkpt lat="44.47037" lon="1.47554">
        <ele>120</ele>
        <time>2011-03-20T10:52:15</time>
      </trkpt>
      <trkpt lat="44.47041" lon="1.47553">
        <ele>120</ele>
        <time>2011-03-20T10:52:16</time>
      </trkpt>
      <trkpt lat="44.47046" lon="1.47551">
        <ele>119</ele>
        <time>2011-03-20T10:52:17</time>
      </trkpt>
      <trkpt lat="44.47057" lon="1.47544">
        <ele>119</ele>
        <time>2011-03-20T10:52:19</time>
      </trkpt>
      <trkpt lat="44.47067" lon="1.47536">
        <ele>121</ele>
        <time>2011-03-20T10:52:21</time>
      </trkpt>
      <trkpt lat="44.47075" lon="1.47531">
        <ele>121</ele>
        <time>2011-03-20T10:52:23</time>
      </trkpt>
      <trkpt lat="44.47081" lon="1.47526">
        <ele>121</ele>
        <time>2011-03-20T10:52:25</time>
      </trkpt>
      <trkpt lat="44.47084" lon="1.47523">
        <ele>121</ele>
        <time>2011-03-20T10:52:26</time>
      </trkpt>
      <trkpt lat="44.47089" lon="1.47519">
        <ele>121</ele>
        <time>2011-03-20T10:52:28</time>
      </trkpt>
      <trkpt lat="44.47091" lon="1.47517">
        <ele>121</ele>
        <time>2011-03-20T10:52:29</time>
      </trkpt>
      <trkpt lat="44.47094" lon="1.47514">
        <ele>121</ele>
        <time>2011-03-20T10:52:30</time>
      </trkpt>
      <trkpt lat="44.471" lon="1.4751">
        <ele>121</ele>
        <time>2011-03-20T10:52:32</time>
      </trkpt>
      <trkpt lat="44.47103" lon="1.47507">
        <ele>121</ele>
        <time>2011-03-20T10:52:33</time>
      </trkpt>
      <trkpt lat="44.47108" lon="1.47501">
        <ele>121</ele>
        <time>2011-03-20T10:52:35</time>
      </trkpt>
      <trkpt lat="44.47111" lon="1.47498">
        <ele>121</ele>
        <time>2011-03-20T10:52:36</time>
      </trkpt>
      <trkpt lat="44.47116" lon="1.47492">
        <ele>121</ele>
        <time>2011-03-20T10:52:38</time>
      </trkpt>
      <trkpt lat="44.47121" lon="1.47487">
        <ele>121</ele>
        <time>2011-03-20T10:52:40</time>
      </trkpt>
      <trkpt lat="44.47126" lon="1.47481">
        <ele>119</ele>
        <time>2011-03-20T10:52:42</time>
      </trkpt>
      <trkpt lat="44.47129" lon="1.47479">
        <ele>119</ele>
        <time>2011-03-20T10:52:43</time>
      </trkpt>
      <trkpt lat="44.47131" lon="1.47477">
        <ele>119</ele>
        <time>2011-03-20T10:52:44</time>
      </trkpt>
      <trkpt lat="44.47135" lon="1.47474">
        <ele>119</ele>
        <time>2011-03-20T10:52:46</time>
      </trkpt>
      <trkpt lat="44.47137" lon="1.47472">
        <ele>119</ele>
        <time>2011-03-20T10:52:47</time>
      </trkpt>
      <trkpt lat="44.4714" lon="1.4747">
        <ele>119</ele>
        <time>2011-03-20T10:52:48</time>
      </trkpt>
      <trkpt lat="44.47144" lon="1.47467">
        <ele>119</ele>
        <time>2011-03-20T10:52:50</time>
      </trkpt>
      <trkpt lat="44.47149" lon="1.47463">
        <ele>119</ele>
        <time>2011-03-20T10:52:52</time>
      </trkpt>
      <trkpt lat="44.47154" lon="1.47458">
        <ele>122</ele>
        <time>2011-03-20T10:52:54</time>
      </trkpt>
      <trkpt lat="44.47157" lon="1.47456">
        <ele>122</ele>
        <time>2011-03-20T10:52:55</time>
      </trkpt>
      <trkpt lat="44.47159" lon="1.47454">
        <ele>122</ele>
        <time>2011-03-20T10:52:56</time>
      </trkpt>
      <trkpt lat="44.47165" lon="1.47449">
        <ele>122</ele>
        <time>2011-03-20T10:52:58</time>
      </trkpt>
      <trkpt lat="44.47171" lon="1.47443">
        <ele>122</ele>
        <time>2011-03-20T10:53:00</time>
      </trkpt>
      <trkpt lat="44.47174" lon="1.4744">
        <ele>122</ele>
        <time>2011-03-20T10:53:01</time>
      </trkpt>
      <trkpt lat="44.4718" lon="1.47433">
        <ele>122</ele>
        <time>2011-03-20T10:53:03</time>
      </trkpt>
      <trkpt lat="44.47186" lon="1.47426">
        <ele>122</ele>
        <time>2011-03-20T10:53:05</time>
      </trkpt>
      <trkpt lat="44.47195" lon="1.47419">
        <ele>122</ele>
        <time>2011-03-20T10:53:07</time>
      </trkpt>
      <trkpt lat="44.47204" lon="1.47415">
        <ele>122</ele>
        <time>2011-03-20T10:53:09</time>
      </trkpt>
      <trkpt lat="44.47207" lon="1.47413">
        <ele>122</ele>
        <time>2011-03-20T10:53:10</time>
      </trkpt>
      <trkpt lat="44.47209" lon="1.47411">
        <ele>119</ele>
        <time>2011-03-20T10:53:11</time>
      </trkpt>
      <trkpt lat="44.47212" lon="1.47409">
        <ele>119</ele>
        <time>2011-03-20T10:53:12</time>
      </trkpt>
      <trkpt lat="44.47216" lon="1.47405">
        <ele>119</ele>
        <time>2011-03-20T10:53:14</time>
      </trkpt>
      <trkpt lat="44.47218" lon="1.47399">
        <ele>119</ele>
        <time>2011-03-20T10:53:16</time>
      </trkpt>
      <trkpt lat="44.47222" lon="1.47391">
        <ele>119</ele>
        <time>2011-03-20T10:53:19</time>
      </trkpt>
      <trkpt lat="44.47224" lon="1.47388">
        <ele>119</ele>
        <time>2011-03-20T10:53:21</time>
      </trkpt>
      <trkpt lat="44.47227" lon="1.47386">
        <ele>119</ele>
        <time>2011-03-20T10:53:33</time>
      </trkpt>
      <trkpt lat="44.47231" lon="1.47384">
        <ele>119</ele>
        <time>2011-03-20T10:53:35</time>
      </trkpt>
      <trkpt lat="44.47233" lon="1.47383">
        <ele>119</ele>
        <time>2011-03-20T10:53:36</time>
      </trkpt>
      <trkpt lat="44.47239" lon="1.4738">
        <ele>119</ele>
        <time>2011-03-20T10:53:38</time>
      </trkpt>
      <trkpt lat="44.47247" lon="1.47373">
        <ele>121</ele>
        <time>2011-03-20T10:53:40</time>
      </trkpt>
      <trkpt lat="44.47251" lon="1.47369">
        <ele>121</ele>
        <time>2011-03-20T10:53:41</time>
      </trkpt>
      <trkpt lat="44.4726" lon="1.4736">
        <ele>121</ele>
        <time>2011-03-20T10:53:43</time>
      </trkpt>
      <trkpt lat="44.47264" lon="1.47354">
        <ele>121</ele>
        <time>2011-03-20T10:53:44</time>
      </trkpt>
      <trkpt lat="44.4727" lon="1.47348">
        <ele>121</ele>
        <time>2011-03-20T10:53:46</time>
      </trkpt>
      <trkpt lat="44.47276" lon="1.47343">
        <ele>121</ele>
        <time>2011-03-20T10:53:48</time>
      </trkpt>
      <trkpt lat="44.47281" lon="1.47336">
        <ele>121</ele>
        <time>2011-03-20T10:53:50</time>
      </trkpt>
      <trkpt lat="44.47286" lon="1.4733">
        <ele>121</ele>
        <time>2011-03-20T10:53:52</time>
      </trkpt>
      <trkpt lat="44.47292" lon="1.47323">
        <ele>119</ele>
        <time>2011-03-20T10:53:54</time>
      </trkpt>
      <trkpt lat="44.47294" lon="1.47319">
        <ele>119</ele>
        <time>2011-03-20T10:53:55</time>
      </trkpt>
      <trkpt lat="44.47297" lon="1.47316">
        <ele>119</ele>
        <time>2011-03-20T10:53:56</time>
      </trkpt>
      <trkpt lat="44.47299" lon="1.47313">
        <ele>119</ele>
        <time>2011-03-20T10:53:57</time>
      </trkpt>
      <trkpt lat="44.47305" lon="1.47305">
        <ele>119</ele>
        <time>2011-03-20T10:53:59</time>
      </trkpt>
      <trkpt lat="44.47307" lon="1.47301">
        <ele>119</ele>
        <time>2011-03-20T10:54:00</time>
      </trkpt>
      <trkpt lat="44.47312" lon="1.47294">
        <ele>119</ele>
        <time>2011-03-20T10:54:02</time>
      </trkpt>
      <trkpt lat="44.47313" lon="1.47291">
        <ele>121</ele>
        <time>2011-03-20T10:54:03</time>
      </trkpt>
      <trkpt lat="44.47316" lon="1.47285">
        <ele>121</ele>
        <time>2011-03-20T10:54:05</time>
      </trkpt>
      <trkpt lat="44.4732" lon="1.47277">
        <ele>121</ele>
        <time>2011-03-20T10:54:07</time>
      </trkpt>
      <trkpt lat="44.47325" lon="1.47269">
        <ele>121</ele>
        <time>2011-03-20T10:54:09</time>
      </trkpt>
      <trkpt lat="44.47331" lon="1.47262">
        <ele>121</ele>
        <time>2011-03-20T10:54:12</time>
      </trkpt>
      <trkpt lat="44.47333" lon="1.47259">
        <ele>121</ele>
        <time>2011-03-20T10:54:13</time>
      </trkpt>
      <trkpt lat="44.47337" lon="1.47251">
        <ele>121</ele>
        <time>2011-03-20T10:54:15</time>
      </trkpt>
      <trkpt lat="44.47342" lon="1.47244">
        <ele>121</ele>
        <time>2011-03-20T10:54:17</time>
      </trkpt>
      <trkpt lat="44.47344" lon="1.4724">
        <ele>121</ele>
        <time>2011-03-20T10:54:18</time>
      </trkpt>
      <trkpt lat="44.47346" lon="1.47236">
        <ele>121</ele>
        <time>2011-03-20T10:54:19</time>
      </trkpt>
      <trkpt lat="44.47351" lon="1.47227">
        <ele>121</ele>
        <time>2011-03-20T10:54:21</time>
      </trkpt>
      <trkpt lat="44.47356" lon="1.47218">
        <ele>121</ele>
        <time>2011-03-20T10:54:23</time>
      </trkpt>
      <trkpt lat="44.47359" lon="1.47213">
        <ele>121</ele>
        <time>2011-03-20T10:54:24</time>
      </trkpt>
      <trkpt lat="44.47364" lon="1.47203">
        <ele>121</ele>
        <time>2011-03-20T10:54:26</time>
      </trkpt>
      <trkpt lat="44.47368" lon="1.47195">
        <ele>121</ele>
        <time>2011-03-20T10:54:28</time>
      </trkpt>
      <trkpt lat="44.4737" lon="1.47191">
        <ele>121</ele>
        <time>2011-03-20T10:54:29</time>
      </trkpt>
      <trkpt lat="44.47372" lon="1.47187">
        <ele>121</ele>
        <time>2011-03-20T10:54:30</time>
      </trkpt>
      <trkpt lat="44.47376" lon="1.47179">
        <ele>120</ele>
        <time>2011-03-20T10:54:32</time>
      </trkpt>
      <trkpt lat="44.4738" lon="1.47171">
        <ele>120</ele>
        <time>2011-03-20T10:54:34</time>
      </trkpt>
      <trkpt lat="44.47382" lon="1.47164">
        <ele>120</ele>
        <time>2011-03-20T10:54:36</time>
      </trkpt>
      <trkpt lat="44.47382" lon="1.47155">
        <ele>120</ele>
        <time>2011-03-20T10:54:39</time>
      </trkpt>
      <trkpt lat="44.47382" lon="1.47149">
        <ele>120</ele>
        <time>2011-03-20T10:54:41</time>
      </trkpt>
      <trkpt lat="44.47382" lon="1.47144">
        <ele>120</ele>
        <time>2011-03-20T10:54:43</time>
      </trkpt>
      <trkpt lat="44.47383" lon="1.47141">
        <ele>120</ele>
        <time>2011-03-20T10:54:44</time>
      </trkpt>
      <trkpt lat="44.47384" lon="1.47134">
        <ele>120</ele>
        <time>2011-03-20T10:54:46</time>
      </trkpt>
      <trkpt lat="44.47385" lon="1.47131">
        <ele>120</ele>
        <time>2011-03-20T10:54:47</time>
      </trkpt>
      <trkpt lat="44.47385" lon="1.47128">
        <ele>120</ele>
        <time>2011-03-20T10:54:48</time>
      </trkpt>
      <trkpt lat="44.47388" lon="1.4712">
        <ele>122</ele>
        <time>2011-03-20T10:54:50</time>
      </trkpt>
      <trkpt lat="44.47392" lon="1.47113">
        <ele>122</ele>
        <time>2011-03-20T10:54:52</time>
      </trkpt>
      <trkpt lat="44.47396" lon="1.47107">
        <ele>122</ele>
        <time>2011-03-20T10:54:54</time>
      </trkpt>
      <trkpt lat="44.47397" lon="1.47103">
        <ele>122</ele>
        <time>2011-03-20T10:54:55</time>
      </trkpt>
      <trkpt lat="44.474" lon="1.47096">
        <ele>122</ele>
        <time>2011-03-20T10:54:57</time>
      </trkpt>
      <trkpt lat="44.47402" lon="1.47088">
        <ele>122</ele>
        <time>2011-03-20T10:54:59</time>
      </trkpt>
      <trkpt lat="44.47404" lon="1.4708">
        <ele>122</ele>
        <time>2011-03-20T10:55:01</time>
      </trkpt>
      <trkpt lat="44.47406" lon="1.47071">
        <ele>122</ele>
        <time>2011-03-20T10:55:03</time>
      </trkpt>
      <trkpt lat="44.4741" lon="1.47061">
        <ele>122</ele>
        <time>2011-03-20T10:55:05</time>
      </trkpt>
      <trkpt lat="44.47413" lon="1.4705">
        <ele>122</ele>
        <time>2011-03-20T10:55:07</time>
      </trkpt>
      <trkpt lat="44.47414" lon="1.47044">
        <ele>122</ele>
        <time>2011-03-20T10:55:08</time>
      </trkpt>
      <trkpt lat="44.47415" lon="1.47034">
        <ele>122</ele>
        <time>2011-03-20T10:55:10</time>
      </trkpt>
      <trkpt lat="44.47415" lon="1.47029">
        <ele>122</ele>
        <time>2011-03-20T10:55:11</time>
      </trkpt>
      <trkpt lat="44.47415" lon="1.47019">
        <ele>122</ele>
        <time>2011-03-20T10:55:13</time>
      </trkpt>
      <trkpt lat="44.47415" lon="1.47015">
        <ele>122</ele>
        <time>2011-03-20T10:55:14</time>
      </trkpt>
      <trkpt lat="44.47414" lon="1.47006">
        <ele>122</ele>
        <time>2011-03-20T10:55:16</time>
      </trkpt>
      <trkpt lat="44.47412" lon="1.46997">
        <ele>122</ele>
        <time>2011-03-20T10:55:18</time>
      </trkpt>
      <trkpt lat="44.47411" lon="1.46987">
        <ele>122</ele>
        <time>2011-03-20T10:55:21</time>
      </trkpt>
      <trkpt lat="44.47411" lon="1.4698">
        <ele>122</ele>
        <time>2011-03-20T10:55:23</time>
      </trkpt>
      <trkpt lat="44.47411" lon="1.46976">
        <ele>122</ele>
        <time>2011-03-20T10:55:24</time>
      </trkpt>
      <trkpt lat="44.47411" lon="1.46972">
        <ele>122</ele>
        <time>2011-03-20T10:55:25</time>
      </trkpt>
      <trkpt lat="44.47411" lon="1.46964">
        <ele>122</ele>
        <time>2011-03-20T10:55:27</time>
      </trkpt>
      <trkpt lat="44.47411" lon="1.46956">
        <ele>121</ele>
        <time>2011-03-20T10:55:29</time>
      </trkpt>
      <trkpt lat="44.47411" lon="1.46952">
        <ele>121</ele>
        <time>2011-03-20T10:55:30</time>
      </trkpt>
      <trkpt lat="44.47411" lon="1.46944">
        <ele>121</ele>
        <time>2011-03-20T10:55:32</time>
      </trkpt>
      <trkpt lat="44.47411" lon="1.46939">
        <ele>121</ele>
        <time>2011-03-20T10:55:33</time>
      </trkpt>
      <trkpt lat="44.4741" lon="1.46933">
        <ele>121</ele>
        <time>2011-03-20T10:55:34</time>
      </trkpt>
      <trkpt lat="44.47408" lon="1.46923">
        <ele>121</ele>
        <time>2011-03-20T10:55:36</time>
      </trkpt>
      <trkpt lat="44.47407" lon="1.46917">
        <ele>121</ele>
        <time>2011-03-20T10:55:37</time>
      </trkpt>
      <trkpt lat="44.47405" lon="1.46908">
        <ele>121</ele>
        <time>2011-03-20T10:55:39</time>
      </trkpt>
      <trkpt lat="44.47403" lon="1.46901">
        <ele>121</ele>
        <time>2011-03-20T10:55:41</time>
      </trkpt>
      <trkpt lat="44.47402" lon="1.46892">
        <ele>121</ele>
        <time>2011-03-20T10:55:43</time>
      </trkpt>
      <trkpt lat="44.47401" lon="1.46888">
        <ele>121</ele>
        <time>2011-03-20T10:55:44</time>
      </trkpt>
      <trkpt lat="44.47401" lon="1.46884">
        <ele>121</ele>
        <time>2011-03-20T10:55:45</time>
      </trkpt>
      <trkpt lat="44.47401" lon="1.46877">
        <ele>121</ele>
        <time>2011-03-20T10:55:47</time>
      </trkpt>
      <trkpt lat="44.47401" lon="1.46873">
        <ele>119</ele>
        <time>2011-03-20T10:55:48</time>
      </trkpt>
      <trkpt lat="44.47401" lon="1.46865">
        <ele>119</ele>
        <time>2011-03-20T10:55:50</time>
      </trkpt>
      <trkpt lat="44.474" lon="1.46861">
        <ele>119</ele>
        <time>2011-03-20T10:55:51</time>
      </trkpt>
      <trkpt lat="44.474" lon="1.46856">
        <ele>119</ele>
        <time>2011-03-20T10:55:52</time>
      </trkpt>
      <trkpt lat="44.474" lon="1.46848">
        <ele>119</ele>
        <time>2011-03-20T10:55:54</time>
      </trkpt>
      <trkpt lat="44.47399" lon="1.46839">
        <ele>119</ele>
        <time>2011-03-20T10:55:56</time>
      </trkpt>
      <trkpt lat="44.47399" lon="1.46835">
        <ele>119</ele>
        <time>2011-03-20T10:55:57</time>
      </trkpt>
      <trkpt lat="44.47398" lon="1.46831">
        <ele>119</ele>
        <time>2011-03-20T10:55:58</time>
      </trkpt>
      <trkpt lat="44.47397" lon="1.46824">
        <ele>119</ele>
        <time>2011-03-20T10:56:00</time>
      </trkpt>
      <trkpt lat="44.47396" lon="1.4682">
        <ele>119</ele>
        <time>2011-03-20T10:56:01</time>
      </trkpt>
      <trkpt lat="44.47394" lon="1.4681">
        <ele>119</ele>
        <time>2011-03-20T10:56:03</time>
      </trkpt>
      <trkpt lat="44.47393" lon="1.46805">
        <ele>119</ele>
        <time>2011-03-20T10:56:04</time>
      </trkpt>
      <trkpt lat="44.47391" lon="1.46797">
        <ele>119</ele>
        <time>2011-03-20T10:56:06</time>
      </trkpt>
      <trkpt lat="44.4739" lon="1.46794">
        <ele>119</ele>
        <time>2011-03-20T10:56:07</time>
      </trkpt>
      <trkpt lat="44.47389" lon="1.4679">
        <ele>119</ele>
        <time>2011-03-20T10:56:08</time>
      </trkpt>
      <trkpt lat="44.47387" lon="1.46783">
        <ele>119</ele>
        <time>2011-03-20T10:56:10</time>
      </trkpt>
      <trkpt lat="44.47385" lon="1.46776">
        <ele>119</ele>
        <time>2011-03-20T10:56:12</time>
      </trkpt>
      <trkpt lat="44.47384" lon="1.46771">
        <ele>119</ele>
        <time>2011-03-20T10:56:13</time>
      </trkpt>
      <trkpt lat="44.47382" lon="1.46762">
        <ele>119</ele>
        <time>2011-03-20T10:56:15</time>
      </trkpt>
      <trkpt lat="44.47381" lon="1.46757">
        <ele>119</ele>
        <time>2011-03-20T10:56:16</time>
      </trkpt>
      <trkpt lat="44.4738" lon="1.46753">
        <ele>119</ele>
        <time>2011-03-20T10:56:17</time>
      </trkpt>
      <trkpt lat="44.47379" lon="1.46745">
        <ele>119</ele>
        <time>2011-03-20T10:56:19</time>
      </trkpt>
      <trkpt lat="44.47378" lon="1.46741">
        <ele>119</ele>
        <time>2011-03-20T10:56:20</time>
      </trkpt>
      <trkpt lat="44.47377" lon="1.46737">
        <ele>119</ele>
        <time>2011-03-20T10:56:21</time>
      </trkpt>
      <trkpt lat="44.47375" lon="1.46729">
        <ele>120</ele>
        <time>2011-03-20T10:56:23</time>
      </trkpt>
      <trkpt lat="44.47373" lon="1.46719">
        <ele>120</ele>
        <time>2011-03-20T10:56:25</time>
      </trkpt>
      <trkpt lat="44.47372" lon="1.4671">
        <ele>120</ele>
        <time>2011-03-20T10:56:27</time>
      </trkpt>
      <trkpt lat="44.47371" lon="1.46702">
        <ele>119</ele>
        <time>2011-03-20T10:56:29</time>
      </trkpt>
      <trkpt lat="44.47368" lon="1.46693">
        <ele>119</ele>
        <time>2011-03-20T10:56:31</time>
      </trkpt>
      <trkpt lat="44.47365" lon="1.46683">
        <ele>119</ele>
        <time>2011-03-20T10:56:33</time>
      </trkpt>
      <trkpt lat="44.47362" lon="1.46674">
        <ele>119</ele>
        <time>2011-03-20T10:56:35</time>
      </trkpt>
      <trkpt lat="44.47361" lon="1.4667">
        <ele>119</ele>
        <time>2011-03-20T10:56:36</time>
      </trkpt>
      <trkpt lat="44.47358" lon="1.46661">
        <ele>119</ele>
        <time>2011-03-20T10:56:38</time>
      </trkpt>
      <trkpt lat="44.47356" lon="1.46656">
        <ele>119</ele>
        <time>2011-03-20T10:56:39</time>
      </trkpt>
      <trkpt lat="44.47353" lon="1.46646">
        <ele>119</ele>
        <time>2011-03-20T10:56:41</time>
      </trkpt>
      <trkpt lat="44.47352" lon="1.46641">
        <ele>119</ele>
        <time>2011-03-20T10:56:42</time>
      </trkpt>
      <trkpt lat="44.47349" lon="1.46632">
        <ele>119</ele>
        <time>2011-03-20T10:56:44</time>
      </trkpt>
      <trkpt lat="44.47348" lon="1.46627">
        <ele>119</ele>
        <time>2011-03-20T10:56:45</time>
      </trkpt>
      <trkpt lat="44.47346" lon="1.46618">
        <ele>118</ele>
        <time>2011-03-20T10:56:47</time>
      </trkpt>
      <trkpt lat="44.47344" lon="1.46613">
        <ele>118</ele>
        <time>2011-03-20T10:56:48</time>
      </trkpt>
      <trkpt lat="44.4734" lon="1.46604">
        <ele>118</ele>
        <time>2011-03-20T10:56:50</time>
      </trkpt>
      <trkpt lat="44.47338" lon="1.466">
        <ele>118</ele>
        <time>2011-03-20T10:56:51</time>
      </trkpt>
      <trkpt lat="44.47336" lon="1.46595">
        <ele>118</ele>
        <time>2011-03-20T10:56:52</time>
      </trkpt>
      <trkpt lat="44.47333" lon="1.46585">
        <ele>118</ele>
        <time>2011-03-20T10:56:54</time>
      </trkpt>
      <trkpt lat="44.47331" lon="1.4658">
        <ele>118</ele>
        <time>2011-03-20T10:56:55</time>
      </trkpt>
      <trkpt lat="44.47329" lon="1.46575">
        <ele>118</ele>
        <time>2011-03-20T10:56:56</time>
      </trkpt>
      <trkpt lat="44.47326" lon="1.46566">
        <ele>118</ele>
        <time>2011-03-20T10:56:58</time>
      </trkpt>
      <trkpt lat="44.47324" lon="1.46562">
        <ele>118</ele>
        <time>2011-03-20T10:56:59</time>
      </trkpt>
      <trkpt lat="44.47321" lon="1.46552">
        <ele>118</ele>
        <time>2011-03-20T10:57:01</time>
      </trkpt>
      <trkpt lat="44.47319" lon="1.46547">
        <ele>118</ele>
        <time>2011-03-20T10:57:02</time>
      </trkpt>
      <trkpt lat="44.47317" lon="1.46542">
        <ele>118</ele>
        <time>2011-03-20T10:57:03</time>
      </trkpt>
      <trkpt lat="44.47313" lon="1.46533">
        <ele>117</ele>
        <time>2011-03-20T10:57:05</time>
      </trkpt>
      <trkpt lat="44.47311" lon="1.46529">
        <ele>117</ele>
        <time>2011-03-20T10:57:06</time>
      </trkpt>
      <trkpt lat="44.47308" lon="1.46525">
        <ele>117</ele>
        <time>2011-03-20T10:57:07</time>
      </trkpt>
      <trkpt lat="44.47303" lon="1.46515">
        <ele>117</ele>
        <time>2011-03-20T10:57:09</time>
      </trkpt>
      <trkpt lat="44.47301" lon="1.46511">
        <ele>117</ele>
        <time>2011-03-20T10:57:10</time>
      </trkpt>
      <trkpt lat="44.47296" lon="1.46501">
        <ele>117</ele>
        <time>2011-03-20T10:57:12</time>
      </trkpt>
      <trkpt lat="44.47293" lon="1.46497">
        <ele>117</ele>
        <time>2011-03-20T10:57:13</time>
      </trkpt>
      <trkpt lat="44.4729" lon="1.46493">
        <ele>119</ele>
        <time>2011-03-20T10:57:14</time>
      </trkpt>
      <trkpt lat="44.47286" lon="1.46484">
        <ele>119</ele>
        <time>2011-03-20T10:57:16</time>
      </trkpt>
      <trkpt lat="44.47284" lon="1.4648">
        <ele>119</ele>
        <time>2011-03-20T10:57:17</time>
      </trkpt>
      <trkpt lat="44.47281" lon="1.46472">
        <ele>119</ele>
        <time>2011-03-20T10:57:19</time>
      </trkpt>
      <trkpt lat="44.47279" lon="1.46469">
        <ele>119</ele>
        <time>2011-03-20T10:57:20</time>
      </trkpt>
      <trkpt lat="44.47275" lon="1.46461">
        <ele>119</ele>
        <time>2011-03-20T10:57:22</time>
      </trkpt>
      <trkpt lat="44.47273" lon="1.46457">
        <ele>118</ele>
        <time>2011-03-20T10:57:23</time>
      </trkpt>
      <trkpt lat="44.47267" lon="1.4645">
        <ele>118</ele>
        <time>2011-03-20T10:57:25</time>
      </trkpt>
      <trkpt lat="44.47264" lon="1.46447">
        <ele>118</ele>
        <time>2011-03-20T10:57:26</time>
      </trkpt>
      <trkpt lat="44.47262" lon="1.46443">
        <ele>118</ele>
        <time>2011-03-20T10:57:27</time>
      </trkpt>
      <trkpt lat="44.47259" lon="1.46439">
        <ele>118</ele>
        <time>2011-03-20T10:57:28</time>
      </trkpt>
      <trkpt lat="44.47254" lon="1.46431">
        <ele>118</ele>
        <time>2011-03-20T10:57:30</time>
      </trkpt>
      <trkpt lat="44.47249" lon="1.46424">
        <ele>118</ele>
        <time>2011-03-20T10:57:32</time>
      </trkpt>
      <trkpt lat="44.47244" lon="1.46418">
        <ele>118</ele>
        <time>2011-03-20T10:57:34</time>
      </trkpt>
      <trkpt lat="44.47239" lon="1.46411">
        <ele>118</ele>
        <time>2011-03-20T10:57:36</time>
      </trkpt>
      <trkpt lat="44.47234" lon="1.46405">
        <ele>118</ele>
        <time>2011-03-20T10:57:38</time>
      </trkpt>
      <trkpt lat="44.47231" lon="1.46402">
        <ele>118</ele>
        <time>2011-03-20T10:57:39</time>
      </trkpt>
      <trkpt lat="44.47225" lon="1.46395">
        <ele>118</ele>
        <time>2011-03-20T10:57:41</time>
      </trkpt>
      <trkpt lat="44.4722" lon="1.46391">
        <ele>118</ele>
        <time>2011-03-20T10:57:43</time>
      </trkpt>
      <trkpt lat="44.47218" lon="1.46388">
        <ele>118</ele>
        <time>2011-03-20T10:57:44</time>
      </trkpt>
      <trkpt lat="44.47216" lon="1.46385">
        <ele>118</ele>
        <time>2011-03-20T10:57:45</time>
      </trkpt>
      <trkpt lat="44.4721" lon="1.46378">
        <ele>118</ele>
        <time>2011-03-20T10:57:47</time>
      </trkpt>
      <trkpt lat="44.47207" lon="1.46375">
        <ele>116</ele>
        <time>2011-03-20T10:57:48</time>
      </trkpt>
      <trkpt lat="44.47202" lon="1.46369">
        <ele>116</ele>
        <time>2011-03-20T10:57:50</time>
      </trkpt>
      <trkpt lat="44.47201" lon="1.46368">
        <ele>116</ele>
        <time>2011-03-20T10:57:51</time>
      </trkpt>
      <trkpt lat="44.47198" lon="1.46365">
        <ele>116</ele>
        <time>2011-03-20T10:57:52</time>
      </trkpt>
      <trkpt lat="44.47193" lon="1.46358">
        <ele>116</ele>
        <time>2011-03-20T10:57:54</time>
      </trkpt>
      <trkpt lat="44.47187" lon="1.46349">
        <ele>116</ele>
        <time>2011-03-20T10:57:56</time>
      </trkpt>
      <trkpt lat="44.47185" lon="1.46345">
        <ele>116</ele>
        <time>2011-03-20T10:57:57</time>
      </trkpt>
      <trkpt lat="44.47182" lon="1.4634">
        <ele>116</ele>
        <time>2011-03-20T10:57:58</time>
      </trkpt>
      <trkpt lat="44.47177" lon="1.46333">
        <ele>116</ele>
        <time>2011-03-20T10:58:00</time>
      </trkpt>
      <trkpt lat="44.47174" lon="1.46329">
        <ele>116</ele>
        <time>2011-03-20T10:58:01</time>
      </trkpt>
      <trkpt lat="44.47169" lon="1.46321">
        <ele>116</ele>
        <time>2011-03-20T10:58:03</time>
      </trkpt>
      <trkpt lat="44.47166" lon="1.46317">
        <ele>116</ele>
        <time>2011-03-20T10:58:04</time>
      </trkpt>
      <trkpt lat="44.47162" lon="1.46308">
        <ele>116</ele>
        <time>2011-03-20T10:58:06</time>
      </trkpt>
      <trkpt lat="44.47157" lon="1.46299">
        <ele>116</ele>
        <time>2011-03-20T10:58:08</time>
      </trkpt>
      <trkpt lat="44.47155" lon="1.46295">
        <ele>116</ele>
        <time>2011-03-20T10:58:09</time>
      </trkpt>
      <trkpt lat="44.47153" lon="1.46291">
        <ele>116</ele>
        <time>2011-03-20T10:58:10</time>
      </trkpt>
      <trkpt lat="44.47148" lon="1.46282">
        <ele>116</ele>
        <time>2011-03-20T10:58:12</time>
      </trkpt>
      <trkpt lat="44.47143" lon="1.46274">
        <ele>116</ele>
        <time>2011-03-20T10:58:14</time>
      </trkpt>
      <trkpt lat="44.47138" lon="1.46266">
        <ele>116</ele>
        <time>2011-03-20T10:58:16</time>
      </trkpt>
      <trkpt lat="44.47136" lon="1.46262">
        <ele>116</ele>
        <time>2011-03-20T10:58:17</time>
      </trkpt>
      <trkpt lat="44.47133" lon="1.46254">
        <ele>116</ele>
        <time>2011-03-20T10:58:19</time>
      </trkpt>
      <trkpt lat="44.4713" lon="1.46246">
        <ele>116</ele>
        <time>2011-03-20T10:58:21</time>
      </trkpt>
      <trkpt lat="44.47128" lon="1.46237">
        <ele>116</ele>
        <time>2011-03-20T10:58:23</time>
      </trkpt>
      <trkpt lat="44.47127" lon="1.46231">
        <ele>116</ele>
        <time>2011-03-20T10:58:24</time>
      </trkpt>
      <trkpt lat="44.47125" lon="1.46221">
        <ele>120</ele>
        <time>2011-03-20T10:58:26</time>
      </trkpt>
      <trkpt lat="44.47124" lon="1.46216">
        <ele>120</ele>
        <time>2011-03-20T10:58:27</time>
      </trkpt>
      <trkpt lat="44.47122" lon="1.46205">
        <ele>120</ele>
        <time>2011-03-20T10:58:29</time>
      </trkpt>
      <trkpt lat="44.4712" lon="1.46195">
        <ele>120</ele>
        <time>2011-03-20T10:58:31</time>
      </trkpt>
      <trkpt lat="44.47118" lon="1.46185">
        <ele>120</ele>
        <time>2011-03-20T10:58:33</time>
      </trkpt>
      <trkpt lat="44.47116" lon="1.46175">
        <ele>120</ele>
        <time>2011-03-20T10:58:35</time>
      </trkpt>
      <trkpt lat="44.47116" lon="1.46165">
        <ele>120</ele>
        <time>2011-03-20T10:58:37</time>
      </trkpt>
      <trkpt lat="44.47116" lon="1.4616">
        <ele>120</ele>
        <time>2011-03-20T10:58:38</time>
      </trkpt>
      <trkpt lat="44.47116" lon="1.46148">
        <ele>120</ele>
        <time>2011-03-20T10:58:40</time>
      </trkpt>
      <trkpt lat="44.47116" lon="1.46143">
        <ele>120</ele>
        <time>2011-03-20T10:58:41</time>
      </trkpt>
      <trkpt lat="44.47116" lon="1.46137">
        <ele>120</ele>
        <time>2011-03-20T10:58:42</time>
      </trkpt>
      <trkpt lat="44.47116" lon="1.46132">
        <ele>120</ele>
        <time>2011-03-20T10:58:43</time>
      </trkpt>
      <trkpt lat="44.47115" lon="1.46127">
        <ele>120</ele>
        <time>2011-03-20T10:58:44</time>
      </trkpt>
      <trkpt lat="44.47114" lon="1.46123">
        <ele>120</ele>
        <time>2011-03-20T10:58:45</time>
      </trkpt>
      <trkpt lat="44.47114" lon="1.46116">
        <ele>120</ele>
        <time>2011-03-20T10:58:47</time>
      </trkpt>
      <trkpt lat="44.47112" lon="1.46109">
        <ele>120</ele>
        <time>2011-03-20T10:58:49</time>
      </trkpt>
      <trkpt lat="44.47111" lon="1.46106">
        <ele>120</ele>
        <time>2011-03-20T10:58:50</time>
      </trkpt>
      <trkpt lat="44.4711" lon="1.46103">
        <ele>120</ele>
        <time>2011-03-20T10:58:51</time>
      </trkpt>
      <trkpt lat="44.47108" lon="1.46108">
        <ele>120</ele>
        <time>2011-03-20T10:59:00</time>
      </trkpt>
      <trkpt lat="44.47108" lon="1.46108">
        <ele>120</ele>
        <time>2011-03-20T10:59:11</time>
      </trkpt>
      <trkpt lat="44.47103" lon="1.46108">
        <ele>120</ele>
        <time>2011-03-20T10:59:12</time>
      </trkpt>
      <trkpt lat="44.47102" lon="1.46108">
        <ele>120</ele>
        <time>2011-03-20T10:59:29</time>
      </trkpt>
      <trkpt lat="44.47105" lon="1.46107">
        <ele>120</ele>
        <time>2011-03-20T10:59:43</time>
      </trkpt>
      <trkpt lat="44.47105" lon="1.46107">
        <ele>120</ele>
        <time>2011-03-20T10:59:45</time>
      </trkpt>
      <trkpt lat="44.47105" lon="1.46107">
        <ele>120</ele>
        <time>2011-03-20T10:59:46</time>
      </trkpt>
      <trkpt lat="44.47107" lon="1.46104">
        <ele>120</ele>
        <time>2011-03-20T11:00:00</time>
      </trkpt>
      <trkpt lat="44.47107" lon="1.46104">
        <ele>120</ele>
        <time>2011-03-20T11:00:04</time>
      </trkpt>
      <trkpt lat="44.47109" lon="1.46102">
        <ele>120</ele>
        <time>2011-03-20T11:00:16</time>
      </trkpt>
      <trkpt lat="44.47109" lon="1.46102">
        <ele>120</ele>
        <time>2011-03-20T11:00:20</time>
      </trkpt>
      <trkpt lat="44.47109" lon="1.46102">
        <ele>120</ele>
        <time>2011-03-20T11:00:21</time>
      </trkpt>
      <trkpt lat="44.47114" lon="1.46103">
        <ele>120</ele>
        <time>2011-03-20T11:00:29</time>
      </trkpt>
      <trkpt lat="44.47114" lon="1.46103">
        <ele>120</ele>
        <time>2011-03-20T11:00:38</time>
      </trkpt>
      <trkpt lat="44.47115" lon="1.461">
        <ele>120</ele>
        <time>2011-03-20T11:00:41</time>
      </trkpt>
      <trkpt lat="44.47113" lon="1.46095">
        <ele>120</ele>
        <time>2011-03-20T11:00:43</time>
      </trkpt>
      <trkpt lat="44.47113" lon="1.46095">
        <ele>120</ele>
        <time>2011-03-20T11:00:44</time>
      </trkpt>
      <trkpt lat="44.47111" lon="1.4609">
        <ele>120</ele>
        <time>2011-03-20T11:00:45</time>
      </trkpt>
      <trkpt lat="44.47109" lon="1.46085">
        <ele>120</ele>
        <time>2011-03-20T11:00:47</time>
      </trkpt>
      <trkpt lat="44.47106" lon="1.46078">
        <ele>120</ele>
        <time>2011-03-20T11:00:49</time>
      </trkpt>
      <trkpt lat="44.47104" lon="1.46075">
        <ele>120</ele>
        <time>2011-03-20T11:00:50</time>
      </trkpt>
      <trkpt lat="44.47103" lon="1.46072">
        <ele>120</ele>
        <time>2011-03-20T11:00:51</time>
      </trkpt>
      <trkpt lat="44.47101" lon="1.46068">
        <ele>120</ele>
        <time>2011-03-20T11:00:52</time>
      </trkpt>
      <trkpt lat="44.47098" lon="1.4606">
        <ele>120</ele>
        <time>2011-03-20T11:00:54</time>
      </trkpt>
      <trkpt lat="44.47095" lon="1.46052">
        <ele>120</ele>
        <time>2011-03-20T11:00:56</time>
      </trkpt>
      <trkpt lat="44.47092" lon="1.46045">
        <ele>120</ele>
        <time>2011-03-20T11:00:58</time>
      </trkpt>
      <trkpt lat="44.47091" lon="1.46042">
        <ele>120</ele>
        <time>2011-03-20T11:00:59</time>
      </trkpt>
      <trkpt lat="44.47089" lon="1.46035">
        <ele>120</ele>
        <time>2011-03-20T11:01:01</time>
      </trkpt>
      <trkpt lat="44.47087" lon="1.46028">
        <ele>120</ele>
        <time>2011-03-20T11:01:03</time>
      </trkpt>
      <trkpt lat="44.47085" lon="1.46025">
        <ele>120</ele>
        <time>2011-03-20T11:01:04</time>
      </trkpt>
      <trkpt lat="44.47083" lon="1.46016">
        <ele>120</ele>
        <time>2011-03-20T11:01:06</time>
      </trkpt>
      <trkpt lat="44.47082" lon="1.46012">
        <ele>120</ele>
        <time>2011-03-20T11:01:07</time>
      </trkpt>
      <trkpt lat="44.47081" lon="1.46008">
        <ele>120</ele>
        <time>2011-03-20T11:01:08</time>
      </trkpt>
      <trkpt lat="44.4708" lon="1.46005">
        <ele>120</ele>
        <time>2011-03-20T11:01:09</time>
      </trkpt>
      <trkpt lat="44.47075" lon="1.46002">
        <ele>120</ele>
        <time>2011-03-20T11:01:11</time>
      </trkpt>
      <trkpt lat="44.47073" lon="1.46">
        <ele>120</ele>
        <time>2011-03-20T11:01:12</time>
      </trkpt>
      <trkpt lat="44.47072" lon="1.45996">
        <ele>120</ele>
        <time>2011-03-20T11:01:13</time>
      </trkpt>
      <trkpt lat="44.4707" lon="1.45992">
        <ele>120</ele>
        <time>2011-03-20T11:01:14</time>
      </trkpt>
      <trkpt lat="44.47069" lon="1.45982">
        <ele>120</ele>
        <time>2011-03-20T11:01:16</time>
      </trkpt>
      <trkpt lat="44.47067" lon="1.45978">
        <ele>120</ele>
        <time>2011-03-20T11:01:17</time>
      </trkpt>
      <trkpt lat="44.47066" lon="1.45973">
        <ele>120</ele>
        <time>2011-03-20T11:01:18</time>
      </trkpt>
      <trkpt lat="44.47065" lon="1.45968">
        <ele>120</ele>
        <time>2011-03-20T11:01:19</time>
      </trkpt>
      <trkpt lat="44.47063" lon="1.45957">
        <ele>118</ele>
        <time>2011-03-20T11:01:21</time>
      </trkpt>
      <trkpt lat="44.47063" lon="1.45952">
        <ele>118</ele>
        <time>2011-03-20T11:01:22</time>
      </trkpt>
      <trkpt lat="44.47062" lon="1.45946">
        <ele>118</ele>
        <time>2011-03-20T11:01:23</time>
      </trkpt>
      <trkpt lat="44.47061" lon="1.45935">
        <ele>118</ele>
        <time>2011-03-20T11:01:25</time>
      </trkpt>
      <trkpt lat="44.4706" lon="1.45931">
        <ele>118</ele>
        <time>2011-03-20T11:01:26</time>
      </trkpt>
      <trkpt lat="44.47059" lon="1.45926">
        <ele>118</ele>
        <time>2011-03-20T11:01:27</time>
      </trkpt>
      <trkpt lat="44.47055" lon="1.45916">
        <ele>118</ele>
        <time>2011-03-20T11:01:29</time>
      </trkpt>
      <trkpt lat="44.47052" lon="1.45906">
        <ele>118</ele>
        <time>2011-03-20T11:01:31</time>
      </trkpt>
      <trkpt lat="44.4705" lon="1.459">
        <ele>118</ele>
        <time>2011-03-20T11:01:32</time>
      </trkpt>
      <trkpt lat="44.47048" lon="1.4589">
        <ele>118</ele>
        <time>2011-03-20T11:01:34</time>
      </trkpt>
      <trkpt lat="44.47046" lon="1.45879">
        <ele>118</ele>
        <time>2011-03-20T11:01:36</time>
      </trkpt>
      <trkpt lat="44.47045" lon="1.45874">
        <ele>116</ele>
        <time>2011-03-20T11:01:37</time>
      </trkpt>
      <trkpt lat="44.47042" lon="1.45863">
        <ele>116</ele>
        <time>2011-03-20T11:01:39</time>
      </trkpt>
      <trkpt lat="44.4704" lon="1.45858">
        <ele>122</ele>
        <time>2011-03-20T11:01:40</time>
      </trkpt>
      <trkpt lat="44.47036" lon="1.45847">
        <ele>122</ele>
        <time>2011-03-20T11:01:42</time>
      </trkpt>
      <trkpt lat="44.47032" lon="1.45838">
        <ele>122</ele>
        <time>2011-03-20T11:01:44</time>
      </trkpt>
      <trkpt lat="44.47028" lon="1.4583">
        <ele>122</ele>
        <time>2011-03-20T11:01:46</time>
      </trkpt>
      <trkpt lat="44.47024" lon="1.45823">
        <ele>122</ele>
        <time>2011-03-20T11:01:48</time>
      </trkpt>
      <trkpt lat="44.4702" lon="1.45815">
        <ele>122</ele>
        <time>2011-03-20T11:01:50</time>
      </trkpt>
      <trkpt lat="44.47018" lon="1.4581">
        <ele>122</ele>
        <time>2011-03-20T11:01:51</time>
      </trkpt>
      <trkpt lat="44.47014" lon="1.45801">
        <ele>122</ele>
        <time>2011-03-20T11:01:53</time>
      </trkpt>
      <trkpt lat="44.4701" lon="1.45793">
        <ele>122</ele>
        <time>2011-03-20T11:01:55</time>
      </trkpt>
      <trkpt lat="44.47009" lon="1.45789">
        <ele>120</ele>
        <time>2011-03-20T11:01:56</time>
      </trkpt>
      <trkpt lat="44.47005" lon="1.45781">
        <ele>120</ele>
        <time>2011-03-20T11:01:58</time>
      </trkpt>
      <trkpt lat="44.47001" lon="1.45774">
        <ele>120</ele>
        <time>2011-03-20T11:02:00</time>
      </trkpt>
      <trkpt lat="44.47" lon="1.45771">
        <ele>120</ele>
        <time>2011-03-20T11:02:01</time>
      </trkpt>
      <trkpt lat="44.46997" lon="1.45764">
        <ele>120</ele>
        <time>2011-03-20T11:02:03</time>
      </trkpt>
      <trkpt lat="44.46996" lon="1.45761">
        <ele>120</ele>
        <time>2011-03-20T11:02:04</time>
      </trkpt>
      <trkpt lat="44.46992" lon="1.45753">
        <ele>120</ele>
        <time>2011-03-20T11:02:06</time>
      </trkpt>
      <trkpt lat="44.46988" lon="1.45745">
        <ele>120</ele>
        <time>2011-03-20T11:02:08</time>
      </trkpt>
      <trkpt lat="44.46986" lon="1.45735">
        <ele>120</ele>
        <time>2011-03-20T11:02:10</time>
      </trkpt>
      <trkpt lat="44.46984" lon="1.45731">
        <ele>120</ele>
        <time>2011-03-20T11:02:11</time>
      </trkpt>
      <trkpt lat="44.46982" lon="1.45722">
        <ele>120</ele>
        <time>2011-03-20T11:02:13</time>
      </trkpt>
      <trkpt lat="44.46978" lon="1.45711">
        <ele>120</ele>
        <time>2011-03-20T11:02:15</time>
      </trkpt>
      <trkpt lat="44.46976" lon="1.45705">
        <ele>122</ele>
        <time>2011-03-20T11:02:16</time>
      </trkpt>
      <trkpt lat="44.46974" lon="1.457">
        <ele>122</ele>
        <time>2011-03-20T11:02:17</time>
      </trkpt>
      <trkpt lat="44.46972" lon="1.45691">
        <ele>122</ele>
        <time>2011-03-20T11:02:19</time>
      </trkpt>
      <trkpt lat="44.46971" lon="1.45687">
        <ele>122</ele>
        <time>2011-03-20T11:02:20</time>
      </trkpt>
      <trkpt lat="44.46967" lon="1.45679">
        <ele>122</ele>
        <time>2011-03-20T11:02:22</time>
      </trkpt>
      <trkpt lat="44.46965" lon="1.45675">
        <ele>122</ele>
        <time>2011-03-20T11:02:23</time>
      </trkpt>
      <trkpt lat="44.46963" lon="1.4567">
        <ele>122</ele>
        <time>2011-03-20T11:02:24</time>
      </trkpt>
      <trkpt lat="44.4696" lon="1.45662">
        <ele>122</ele>
        <time>2011-03-20T11:02:26</time>
      </trkpt>
      <trkpt lat="44.46956" lon="1.45653">
        <ele>136</ele>
        <time>2011-03-20T11:02:28</time>
      </trkpt>
      <trkpt lat="44.46953" lon="1.45645">
        <ele>136</ele>
        <time>2011-03-20T11:02:30</time>
      </trkpt>
      <trkpt lat="44.46951" lon="1.45638">
        <ele>136</ele>
        <time>2011-03-20T11:02:32</time>
      </trkpt>
      <trkpt lat="44.4695" lon="1.45632">
        <ele>136</ele>
        <time>2011-03-20T11:02:34</time>
      </trkpt>
      <trkpt lat="44.46949" lon="1.45628">
        <ele>136</ele>
        <time>2011-03-20T11:02:36</time>
      </trkpt>
      <trkpt lat="44.46948" lon="1.45624">
        <ele>130</ele>
        <time>2011-03-20T11:02:38</time>
      </trkpt>
      <trkpt lat="44.46946" lon="1.45619">
        <ele>130</ele>
        <time>2011-03-20T11:02:40</time>
      </trkpt>
      <trkpt lat="44.46945" lon="1.45613">
        <ele>130</ele>
        <time>2011-03-20T11:02:42</time>
      </trkpt>
      <trkpt lat="44.46945" lon="1.4561">
        <ele>130</ele>
        <time>2011-03-20T11:02:43</time>
      </trkpt>
      <trkpt lat="44.46944" lon="1.45606">
        <ele>130</ele>
        <time>2011-03-20T11:02:44</time>
      </trkpt>
      <trkpt lat="44.46943" lon="1.45598">
        <ele>130</ele>
        <time>2011-03-20T11:02:46</time>
      </trkpt>
      <trkpt lat="44.46941" lon="1.45591">
        <ele>130</ele>
        <time>2011-03-20T11:02:48</time>
      </trkpt>
      <trkpt lat="44.46939" lon="1.45588">
        <ele>130</ele>
        <time>2011-03-20T11:02:50</time>
      </trkpt>
      <trkpt lat="44.46938" lon="1.45585">
        <ele>130</ele>
        <time>2011-03-20T11:02:52</time>
      </trkpt>
      <trkpt lat="44.46937" lon="1.45581">
        <ele>130</ele>
        <time>2011-03-20T11:02:54</time>
      </trkpt>
      <trkpt lat="44.46936" lon="1.45574">
        <ele>130</ele>
        <time>2011-03-20T11:02:56</time>
      </trkpt>
      <trkpt lat="44.46935" lon="1.45571">
        <ele>130</ele>
        <time>2011-03-20T11:02:57</time>
      </trkpt>
      <trkpt lat="44.46933" lon="1.45565">
        <ele>130</ele>
        <time>2011-03-20T11:02:59</time>
      </trkpt>
      <trkpt lat="44.46931" lon="1.4556">
        <ele>130</ele>
        <time>2011-03-20T11:03:01</time>
      </trkpt>
      <trkpt lat="44.46928" lon="1.45554">
        <ele>130</ele>
        <time>2011-03-20T11:03:03</time>
      </trkpt>
      <trkpt lat="44.46926" lon="1.45549">
        <ele>130</ele>
        <time>2011-03-20T11:03:05</time>
      </trkpt>
      <trkpt lat="44.46925" lon="1.45542">
        <ele>130</ele>
        <time>2011-03-20T11:03:07</time>
      </trkpt>
      <trkpt lat="44.46925" lon="1.45539">
        <ele>127</ele>
        <time>2011-03-20T11:03:08</time>
      </trkpt>
      <trkpt lat="44.46923" lon="1.45532">
        <ele>127</ele>
        <time>2011-03-20T11:03:10</time>
      </trkpt>
      <trkpt lat="44.46923" lon="1.45528">
        <ele>127</ele>
        <time>2011-03-20T11:03:11</time>
      </trkpt>
      <trkpt lat="44.46921" lon="1.45522">
        <ele>127</ele>
        <time>2011-03-20T11:03:13</time>
      </trkpt>
      <trkpt lat="44.4692" lon="1.45519">
        <ele>127</ele>
        <time>2011-03-20T11:03:14</time>
      </trkpt>
      <trkpt lat="44.46918" lon="1.4551">
        <ele>127</ele>
        <time>2011-03-20T11:03:16</time>
      </trkpt>
      <trkpt lat="44.46917" lon="1.45505">
        <ele>127</ele>
        <time>2011-03-20T11:03:17</time>
      </trkpt>
      <trkpt lat="44.46915" lon="1.45496">
        <ele>127</ele>
        <time>2011-03-20T11:03:19</time>
      </trkpt>
      <trkpt lat="44.46914" lon="1.45487">
        <ele>127</ele>
        <time>2011-03-20T11:03:21</time>
      </trkpt>
      <trkpt lat="44.46912" lon="1.45479">
        <ele>127</ele>
        <time>2011-03-20T11:03:23</time>
      </trkpt>
      <trkpt lat="44.4691" lon="1.45471">
        <ele>127</ele>
        <time>2011-03-20T11:03:25</time>
      </trkpt>
      <trkpt lat="44.4691" lon="1.45467">
        <ele>127</ele>
        <time>2011-03-20T11:03:26</time>
      </trkpt>
      <trkpt lat="44.46909" lon="1.45463">
        <ele>127</ele>
        <time>2011-03-20T11:03:27</time>
      </trkpt>
      <trkpt lat="44.46907" lon="1.45457">
        <ele>121</ele>
        <time>2011-03-20T11:03:29</time>
      </trkpt>
      <trkpt lat="44.46905" lon="1.45448">
        <ele>121</ele>
        <time>2011-03-20T11:03:32</time>
      </trkpt>
      <trkpt lat="44.46904" lon="1.45444">
        <ele>121</ele>
        <time>2011-03-20T11:03:34</time>
      </trkpt>
      <trkpt lat="44.46902" lon="1.4544">
        <ele>121</ele>
        <time>2011-03-20T11:03:36</time>
      </trkpt>
      <trkpt lat="44.469" lon="1.45436">
        <ele>121</ele>
        <time>2011-03-20T11:03:38</time>
      </trkpt>
      <trkpt lat="44.46898" lon="1.4543">
        <ele>121</ele>
        <time>2011-03-20T11:03:40</time>
      </trkpt>
      <trkpt lat="44.46898" lon="1.45426">
        <ele>121</ele>
        <time>2011-03-20T11:03:41</time>
      </trkpt>
      <trkpt lat="44.46896" lon="1.45418">
        <ele>121</ele>
        <time>2011-03-20T11:03:43</time>
      </trkpt>
      <trkpt lat="44.46895" lon="1.45413">
        <ele>121</ele>
        <time>2011-03-20T11:03:44</time>
      </trkpt>
      <trkpt lat="44.46894" lon="1.45409">
        <ele>121</ele>
        <time>2011-03-20T11:03:45</time>
      </trkpt>
      <trkpt lat="44.46893" lon="1.45401">
        <ele>121</ele>
        <time>2011-03-20T11:03:47</time>
      </trkpt>
      <trkpt lat="44.46892" lon="1.45398">
        <ele>121</ele>
        <time>2011-03-20T11:03:48</time>
      </trkpt>
      <trkpt lat="44.46892" lon="1.45391">
        <ele>121</ele>
        <time>2011-03-20T11:03:50</time>
      </trkpt>
      <trkpt lat="44.4689" lon="1.45384">
        <ele>121</ele>
        <time>2011-03-20T11:03:52</time>
      </trkpt>
      <trkpt lat="44.46888" lon="1.45379">
        <ele>121</ele>
        <time>2011-03-20T11:03:53</time>
      </trkpt>
      <trkpt lat="44.46886" lon="1.45374">
        <ele>116</ele>
        <time>2011-03-20T11:03:54</time>
      </trkpt>
      <trkpt lat="44.46884" lon="1.45365">
        <ele>116</ele>
        <time>2011-03-20T11:03:56</time>
      </trkpt>
      <trkpt lat="44.46883" lon="1.45361">
        <ele>116</ele>
        <time>2011-03-20T11:03:57</time>
      </trkpt>
      <trkpt lat="44.4688" lon="1.45354">
        <ele>116</ele>
        <time>2011-03-20T11:03:59</time>
      </trkpt>
      <trkpt lat="44.46879" lon="1.4535">
        <ele>116</ele>
        <time>2011-03-20T11:04:01</time>
      </trkpt>
      <trkpt lat="44.46877" lon="1.45345">
        <ele>116</ele>
        <time>2011-03-20T11:04:03</time>
      </trkpt>
      <trkpt lat="44.46877" lon="1.4534">
        <ele>116</ele>
        <time>2011-03-20T11:04:05</time>
      </trkpt>
      <trkpt lat="44.46876" lon="1.45336">
        <ele>116</ele>
        <time>2011-03-20T11:04:06</time>
      </trkpt>
      <trkpt lat="44.46875" lon="1.45331">
        <ele>140</ele>
        <time>2011-03-20T11:04:08</time>
      </trkpt>
      <trkpt lat="44.46875" lon="1.45328">
        <ele>140</ele>
        <time>2011-03-20T11:04:09</time>
      </trkpt>
      <trkpt lat="44.46874" lon="1.45321">
        <ele>140</ele>
        <time>2011-03-20T11:04:11</time>
      </trkpt>
      <trkpt lat="44.46872" lon="1.45314">
        <ele>140</ele>
        <time>2011-03-20T11:04:14</time>
      </trkpt>
      <trkpt lat="44.46873" lon="1.45307">
        <ele>140</ele>
        <time>2011-03-20T11:04:16</time>
      </trkpt>
      <trkpt lat="44.46873" lon="1.45302">
        <ele>140</ele>
        <time>2011-03-20T11:04:18</time>
      </trkpt>
      <trkpt lat="44.46873" lon="1.45296">
        <ele>140</ele>
        <time>2011-03-20T11:04:20</time>
      </trkpt>
      <trkpt lat="44.46874" lon="1.45291">
        <ele>137</ele>
        <time>2011-03-20T11:04:22</time>
      </trkpt>
      <trkpt lat="44.46874" lon="1.45288">
        <ele>137</ele>
        <time>2011-03-20T11:04:24</time>
      </trkpt>
      <trkpt lat="44.46874" lon="1.45283">
        <ele>137</ele>
        <time>2011-03-20T11:04:27</time>
      </trkpt>
      <trkpt lat="44.46874" lon="1.4528">
        <ele>137</ele>
        <time>2011-03-20T11:04:29</time>
      </trkpt>
      <trkpt lat="44.46874" lon="1.45277">
        <ele>137</ele>
        <time>2011-03-20T11:04:31</time>
      </trkpt>
      <trkpt lat="44.46872" lon="1.45274">
        <ele>137</ele>
        <time>2011-03-20T11:04:33</time>
      </trkpt>
      <trkpt lat="44.46869" lon="1.45271">
        <ele>137</ele>
        <time>2011-03-20T11:04:35</time>
      </trkpt>
      <trkpt lat="44.46867" lon="1.45268">
        <ele>137</ele>
        <time>2011-03-20T11:04:37</time>
      </trkpt>
      <trkpt lat="44.46865" lon="1.45264">
        <ele>137</ele>
        <time>2011-03-20T11:04:39</time>
      </trkpt>
      <trkpt lat="44.46864" lon="1.45258">
        <ele>137</ele>
        <time>2011-03-20T11:04:41</time>
      </trkpt>
      <trkpt lat="44.46861" lon="1.45251">
        <ele>137</ele>
        <time>2011-03-20T11:04:43</time>
      </trkpt>
      <trkpt lat="44.4686" lon="1.45248">
        <ele>137</ele>
        <time>2011-03-20T11:04:44</time>
      </trkpt>
      <trkpt lat="44.46858" lon="1.45242">
        <ele>137</ele>
        <time>2011-03-20T11:04:46</time>
      </trkpt>
      <trkpt lat="44.46857" lon="1.45235">
        <ele>137</ele>
        <time>2011-03-20T11:04:48</time>
      </trkpt>
      <trkpt lat="44.46856" lon="1.45232">
        <ele>137</ele>
        <time>2011-03-20T11:04:49</time>
      </trkpt>
      <trkpt lat="44.46855" lon="1.45226">
        <ele>137</ele>
        <time>2011-03-20T11:04:51</time>
      </trkpt>
      <trkpt lat="44.46854" lon="1.45219">
        <ele>137</ele>
        <time>2011-03-20T11:04:53</time>
      </trkpt>
      <trkpt lat="44.46852" lon="1.45212">
        <ele>137</ele>
        <time>2011-03-20T11:04:55</time>
      </trkpt>
      <trkpt lat="44.46851" lon="1.45208">
        <ele>137</ele>
        <time>2011-03-20T11:04:56</time>
      </trkpt>
      <trkpt lat="44.46849" lon="1.45202">
        <ele>132</ele>
        <time>2011-03-20T11:04:58</time>
      </trkpt>
      <trkpt lat="44.46846" lon="1.45195">
        <ele>132</ele>
        <time>2011-03-20T11:05:00</time>
      </trkpt>
      <trkpt lat="44.46845" lon="1.45193">
        <ele>132</ele>
        <time>2011-03-20T11:05:01</time>
      </trkpt>
      <trkpt lat="44.46842" lon="1.45187">
        <ele>132</ele>
        <time>2011-03-20T11:05:03</time>
      </trkpt>
      <trkpt lat="44.46841" lon="1.45183">
        <ele>132</ele>
        <time>2011-03-20T11:05:04</time>
      </trkpt>
      <trkpt lat="44.46839" lon="1.45179">
        <ele>132</ele>
        <time>2011-03-20T11:05:05</time>
      </trkpt>
      <trkpt lat="44.46837" lon="1.45172">
        <ele>132</ele>
        <time>2011-03-20T11:05:07</time>
      </trkpt>
      <trkpt lat="44.46836" lon="1.45168">
        <ele>132</ele>
        <time>2011-03-20T11:05:08</time>
      </trkpt>
      <trkpt lat="44.46832" lon="1.4516">
        <ele>132</ele>
        <time>2011-03-20T11:05:10</time>
      </trkpt>
      <trkpt lat="44.4683" lon="1.45156">
        <ele>132</ele>
        <time>2011-03-20T11:05:11</time>
      </trkpt>
      <trkpt lat="44.46827" lon="1.45151">
        <ele>132</ele>
        <time>2011-03-20T11:05:13</time>
      </trkpt>
      <trkpt lat="44.46824" lon="1.45147">
        <ele>132</ele>
        <time>2011-03-20T11:05:15</time>
      </trkpt>
      <trkpt lat="44.46822" lon="1.45142">
        <ele>132</ele>
        <time>2011-03-20T11:05:17</time>
      </trkpt>
      <trkpt lat="44.46821" lon="1.45139">
        <ele>132</ele>
        <time>2011-03-20T11:05:18</time>
      </trkpt>
      <trkpt lat="44.46819" lon="1.45136">
        <ele>132</ele>
        <time>2011-03-20T11:05:19</time>
      </trkpt>
      <trkpt lat="44.46817" lon="1.45131">
        <ele>132</ele>
        <time>2011-03-20T11:05:21</time>
      </trkpt>
      <trkpt lat="44.46815" lon="1.45126">
        <ele>132</ele>
        <time>2011-03-20T11:05:23</time>
      </trkpt>
      <trkpt lat="44.46812" lon="1.45122">
        <ele>126</ele>
        <time>2011-03-20T11:05:25</time>
      </trkpt>
      <trkpt lat="44.46811" lon="1.45119">
        <ele>126</ele>
        <time>2011-03-20T11:05:26</time>
      </trkpt>
      <trkpt lat="44.46809" lon="1.45113">
        <ele>126</ele>
        <time>2011-03-20T11:05:28</time>
      </trkpt>
      <trkpt lat="44.46808" lon="1.45109">
        <ele>126</ele>
        <time>2011-03-20T11:05:29</time>
      </trkpt>
      <trkpt lat="44.46805" lon="1.45102">
        <ele>126</ele>
        <time>2011-03-20T11:05:31</time>
      </trkpt>
      <trkpt lat="44.46804" lon="1.45099">
        <ele>126</ele>
        <time>2011-03-20T11:05:32</time>
      </trkpt>
      <trkpt lat="44.46803" lon="1.45095">
        <ele>126</ele>
        <time>2011-03-20T11:05:33</time>
      </trkpt>
      <trkpt lat="44.468" lon="1.45088">
        <ele>126</ele>
        <time>2011-03-20T11:05:35</time>
      </trkpt>
      <trkpt lat="44.46797" lon="1.45084">
        <ele>126</ele>
        <time>2011-03-20T11:05:37</time>
      </trkpt>
      <trkpt lat="44.46795" lon="1.45081">
        <ele>126</ele>
        <time>2011-03-20T11:05:39</time>
      </trkpt>
      <trkpt lat="44.46794" lon="1.45076">
        <ele>126</ele>
        <time>2011-03-20T11:05:41</time>
      </trkpt>
      <trkpt lat="44.46792" lon="1.45067">
        <ele>126</ele>
        <time>2011-03-20T11:05:43</time>
      </trkpt>
      <trkpt lat="44.46791" lon="1.45061">
        <ele>144</ele>
        <time>2011-03-20T11:05:45</time>
      </trkpt>
      <trkpt lat="44.46788" lon="1.45053">
        <ele>144</ele>
        <time>2011-03-20T11:05:47</time>
      </trkpt>
      <trkpt lat="44.46786" lon="1.45049">
        <ele>144</ele>
        <time>2011-03-20T11:05:48</time>
      </trkpt>
      <trkpt lat="44.46784" lon="1.45045">
        <ele>144</ele>
        <time>2011-03-20T11:05:49</time>
      </trkpt>
      <trkpt lat="44.46782" lon="1.45037">
        <ele>129</ele>
        <time>2011-03-20T11:05:51</time>
      </trkpt>
      <trkpt lat="44.46781" lon="1.45034">
        <ele>129</ele>
        <time>2011-03-20T11:05:52</time>
      </trkpt>
      <trkpt lat="44.46779" lon="1.45027">
        <ele>129</ele>
        <time>2011-03-20T11:05:54</time>
      </trkpt>
      <trkpt lat="44.46777" lon="1.45021">
        <ele>129</ele>
        <time>2011-03-20T11:05:56</time>
      </trkpt>
      <trkpt lat="44.46774" lon="1.45014">
        <ele>129</ele>
        <time>2011-03-20T11:05:58</time>
      </trkpt>
      <trkpt lat="44.46771" lon="1.45007">
        <ele>129</ele>
        <time>2011-03-20T11:06:00</time>
      </trkpt>
      <trkpt lat="44.4677" lon="1.45004">
        <ele>129</ele>
        <time>2011-03-20T11:06:01</time>
      </trkpt>
      <trkpt lat="44.46768" lon="1.44997">
        <ele>129</ele>
        <time>2011-03-20T11:06:03</time>
      </trkpt>
      <trkpt lat="44.46766" lon="1.44993">
        <ele>129</ele>
        <time>2011-03-20T11:06:04</time>
      </trkpt>
      <trkpt lat="44.46765" lon="1.4499">
        <ele>129</ele>
        <time>2011-03-20T11:06:05</time>
      </trkpt>
      <trkpt lat="44.46761" lon="1.44983">
        <ele>129</ele>
        <time>2011-03-20T11:06:07</time>
      </trkpt>
      <trkpt lat="44.46756" lon="1.44976">
        <ele>129</ele>
        <time>2011-03-20T11:06:09</time>
      </trkpt>
      <trkpt lat="44.46754" lon="1.44973">
        <ele>129</ele>
        <time>2011-03-20T11:06:10</time>
      </trkpt>
      <trkpt lat="44.46752" lon="1.44969">
        <ele>129</ele>
        <time>2011-03-20T11:06:11</time>
      </trkpt>
      <trkpt lat="44.46749" lon="1.44963">
        <ele>129</ele>
        <time>2011-03-20T11:06:13</time>
      </trkpt>
      <trkpt lat="44.46746" lon="1.44958">
        <ele>117</ele>
        <time>2011-03-20T11:06:15</time>
      </trkpt>
      <trkpt lat="44.46743" lon="1.44952">
        <ele>117</ele>
        <time>2011-03-20T11:06:17</time>
      </trkpt>
      <trkpt lat="44.46741" lon="1.44949">
        <ele>117</ele>
        <time>2011-03-20T11:06:18</time>
      </trkpt>
      <trkpt lat="44.46738" lon="1.44943">
        <ele>117</ele>
        <time>2011-03-20T11:06:20</time>
      </trkpt>
      <trkpt lat="44.46735" lon="1.44935">
        <ele>117</ele>
        <time>2011-03-20T11:06:22</time>
      </trkpt>
      <trkpt lat="44.46732" lon="1.44928">
        <ele>117</ele>
        <time>2011-03-20T11:06:24</time>
      </trkpt>
      <trkpt lat="44.4673" lon="1.44924">
        <ele>117</ele>
        <time>2011-03-20T11:06:25</time>
      </trkpt>
      <trkpt lat="44.46728" lon="1.44921">
        <ele>117</ele>
        <time>2011-03-20T11:06:26</time>
      </trkpt>
      <trkpt lat="44.46726" lon="1.44918">
        <ele>117</ele>
        <time>2011-03-20T11:06:27</time>
      </trkpt>
      <trkpt lat="44.46724" lon="1.44912">
        <ele>117</ele>
        <time>2011-03-20T11:06:29</time>
      </trkpt>
      <trkpt lat="44.4672" lon="1.44905">
        <ele>117</ele>
        <time>2011-03-20T11:06:35</time>
      </trkpt>
      <trkpt lat="44.46719" lon="1.44902">
        <ele>117</ele>
        <time>2011-03-20T11:06:37</time>
      </trkpt>
      <trkpt lat="44.46717" lon="1.44898">
        <ele>117</ele>
        <time>2011-03-20T11:06:39</time>
      </trkpt>
      <trkpt lat="44.46716" lon="1.44893">
        <ele>117</ele>
        <time>2011-03-20T11:06:41</time>
      </trkpt>
      <trkpt lat="44.46714" lon="1.4489">
        <ele>117</ele>
        <time>2011-03-20T11:06:42</time>
      </trkpt>
      <trkpt lat="44.46713" lon="1.44887">
        <ele>117</ele>
        <time>2011-03-20T11:06:43</time>
      </trkpt>
      <trkpt lat="44.46712" lon="1.44884">
        <ele>117</ele>
        <time>2011-03-20T11:06:44</time>
      </trkpt>
      <trkpt lat="44.4671" lon="1.4488">
        <ele>117</ele>
        <time>2011-03-20T11:06:45</time>
      </trkpt>
      <trkpt lat="44.46707" lon="1.44872">
        <ele>127</ele>
        <time>2011-03-20T11:06:47</time>
      </trkpt>
      <trkpt lat="44.46704" lon="1.44865">
        <ele>127</ele>
        <time>2011-03-20T11:06:49</time>
      </trkpt>
      <trkpt lat="44.46702" lon="1.44861">
        <ele>127</ele>
        <time>2011-03-20T11:06:50</time>
      </trkpt>
      <trkpt lat="44.467" lon="1.44857">
        <ele>127</ele>
        <time>2011-03-20T11:06:51</time>
      </trkpt>
      <trkpt lat="44.46698" lon="1.44853">
        <ele>127</ele>
        <time>2011-03-20T11:06:52</time>
      </trkpt>
      <trkpt lat="44.46696" lon="1.44849">
        <ele>127</ele>
        <time>2011-03-20T11:06:53</time>
      </trkpt>
      <trkpt lat="44.46694" lon="1.44845">
        <ele>127</ele>
        <time>2011-03-20T11:06:54</time>
      </trkpt>
      <trkpt lat="44.46691" lon="1.44837">
        <ele>127</ele>
        <time>2011-03-20T11:06:56</time>
      </trkpt>
      <trkpt lat="44.46687" lon="1.44829">
        <ele>127</ele>
        <time>2011-03-20T11:06:58</time>
      </trkpt>
      <trkpt lat="44.46684" lon="1.44822">
        <ele>127</ele>
        <time>2011-03-20T11:07:00</time>
      </trkpt>
      <trkpt lat="44.4668" lon="1.44815">
        <ele>127</ele>
        <time>2011-03-20T11:07:02</time>
      </trkpt>
      <trkpt lat="44.46677" lon="1.44809">
        <ele>127</ele>
        <time>2011-03-20T11:07:04</time>
      </trkpt>
      <trkpt lat="44.46675" lon="1.44806">
        <ele>127</ele>
        <time>2011-03-20T11:07:05</time>
      </trkpt>
      <trkpt lat="44.46674" lon="1.44803">
        <ele>127</ele>
        <time>2011-03-20T11:07:06</time>
      </trkpt>
      <trkpt lat="44.46672" lon="1.448">
        <ele>127</ele>
        <time>2011-03-20T11:07:07</time>
      </trkpt>
      <trkpt lat="44.46669" lon="1.44794">
        <ele>127</ele>
        <time>2011-03-20T11:07:09</time>
      </trkpt>
      <trkpt lat="44.46667" lon="1.4479">
        <ele>120</ele>
        <time>2011-03-20T11:07:10</time>
      </trkpt>
      <trkpt lat="44.46666" lon="1.44787">
        <ele>120</ele>
        <time>2011-03-20T11:07:11</time>
      </trkpt>
      <trkpt lat="44.46664" lon="1.44783">
        <ele>120</ele>
        <time>2011-03-20T11:07:12</time>
      </trkpt>
      <trkpt lat="44.46662" lon="1.44779">
        <ele>120</ele>
        <time>2011-03-20T11:07:13</time>
      </trkpt>
      <trkpt lat="44.4666" lon="1.44775">
        <ele>120</ele>
        <time>2011-03-20T11:07:14</time>
      </trkpt>
      <trkpt lat="44.46655" lon="1.44769">
        <ele>120</ele>
        <time>2011-03-20T11:07:16</time>
      </trkpt>
      <trkpt lat="44.46653" lon="1.44766">
        <ele>120</ele>
        <time>2011-03-20T11:07:17</time>
      </trkpt>
      <trkpt lat="44.46651" lon="1.44764">
        <ele>120</ele>
        <time>2011-03-20T11:07:18</time>
      </trkpt>
      <trkpt lat="44.46649" lon="1.44763">
        <ele>120</ele>
        <time>2011-03-20T11:07:19</time>
      </trkpt>
      <trkpt lat="44.46645" lon="1.44762">
        <ele>120</ele>
        <time>2011-03-20T11:07:21</time>
      </trkpt>
      <trkpt lat="44.46641" lon="1.44765">
        <ele>120</ele>
        <time>2011-03-20T11:07:23</time>
      </trkpt>
      <trkpt lat="44.46639" lon="1.44767">
        <ele>120</ele>
        <time>2011-03-20T11:07:24</time>
      </trkpt>
      <trkpt lat="44.46635" lon="1.44771">
        <ele>120</ele>
        <time>2011-03-20T11:07:26</time>
      </trkpt>
      <trkpt lat="44.46634" lon="1.44774">
        <ele>120</ele>
        <time>2011-03-20T11:07:27</time>
      </trkpt>
      <trkpt lat="44.46632" lon="1.44777">
        <ele>120</ele>
        <time>2011-03-20T11:07:28</time>
      </trkpt>
      <trkpt lat="44.46629" lon="1.44783">
        <ele>120</ele>
        <time>2011-03-20T11:07:30</time>
      </trkpt>
      <trkpt lat="44.46625" lon="1.44789">
        <ele>120</ele>
        <time>2011-03-20T11:07:32</time>
      </trkpt>
      <trkpt lat="44.46623" lon="1.44791">
        <ele>120</ele>
        <time>2011-03-20T11:07:33</time>
      </trkpt>
      <trkpt lat="44.46621" lon="1.44795">
        <ele>131</ele>
        <time>2011-03-20T11:07:35</time>
      </trkpt>
      <trkpt lat="44.46619" lon="1.44798">
        <ele>131</ele>
        <time>2011-03-20T11:07:37</time>
      </trkpt>
      <trkpt lat="44.46613" lon="1.448">
        <ele>131</ele>
        <time>2011-03-20T11:07:46</time>
      </trkpt>
      <trkpt lat="44.46613" lon="1.448">
        <ele>131</ele>
        <time>2011-03-20T11:07:56</time>
      </trkpt>
      <trkpt lat="44.46615" lon="1.44802">
        <ele>131</ele>
        <time>2011-03-20T11:07:58</time>
      </trkpt>
      <trkpt lat="44.46614" lon="1.44798">
        <ele>131</ele>
        <time>2011-03-20T11:08:01</time>
      </trkpt>
      <trkpt lat="44.46614" lon="1.44798">
        <ele>131</ele>
        <time>2011-03-20T11:08:02</time>
      </trkpt>
      <trkpt lat="44.46613" lon="1.44795">
        <ele>131</ele>
        <time>2011-03-20T11:08:03</time>
      </trkpt>
      <trkpt lat="44.4661" lon="1.44792">
        <ele>120</ele>
        <time>2011-03-20T11:08:05</time>
      </trkpt>
      <trkpt lat="44.46606" lon="1.44787">
        <ele>120</ele>
        <time>2011-03-20T11:08:07</time>
      </trkpt>
      <trkpt lat="44.46603" lon="1.44785">
        <ele>120</ele>
        <time>2011-03-20T11:08:08</time>
      </trkpt>
      <trkpt lat="44.466" lon="1.44782">
        <ele>120</ele>
        <time>2011-03-20T11:08:09</time>
      </trkpt>
      <trkpt lat="44.46593" lon="1.44777">
        <ele>120</ele>
        <time>2011-03-20T11:08:11</time>
      </trkpt>
      <trkpt lat="44.46589" lon="1.44774">
        <ele>120</ele>
        <time>2011-03-20T11:08:12</time>
      </trkpt>
      <trkpt lat="44.4658" lon="1.44767">
        <ele>120</ele>
        <time>2011-03-20T11:08:14</time>
      </trkpt>
      <trkpt lat="44.46572" lon="1.44761">
        <ele>120</ele>
        <time>2011-03-20T11:08:16</time>
      </trkpt>
      <trkpt lat="44.46568" lon="1.44758">
        <ele>120</ele>
        <time>2011-03-20T11:08:17</time>
      </trkpt>
      <trkpt lat="44.46557" lon="1.4475">
        <ele>120</ele>
        <time>2011-03-20T11:08:19</time>
      </trkpt>
      <trkpt lat="44.4655" lon="1.44745">
        <ele>120</ele>
        <time>2011-03-20T11:08:21</time>
      </trkpt>
      <trkpt lat="44.46546" lon="1.44743">
        <ele>120</ele>
        <time>2011-03-20T11:08:22</time>
      </trkpt>
      <trkpt lat="44.46543" lon="1.44741">
        <ele>120</ele>
        <time>2011-03-20T11:08:23</time>
      </trkpt>
      <trkpt lat="44.46539" lon="1.44738">
        <ele>126</ele>
        <time>2011-03-20T11:08:24</time>
      </trkpt>
      <trkpt lat="44.46532" lon="1.44733">
        <ele>126</ele>
        <time>2011-03-20T11:08:26</time>
      </trkpt>
      <trkpt lat="44.46529" lon="1.44731">
        <ele>126</ele>
        <time>2011-03-20T11:08:27</time>
      </trkpt>
      <trkpt lat="44.46522" lon="1.44727">
        <ele>126</ele>
        <time>2011-03-20T11:08:29</time>
      </trkpt>
      <trkpt lat="44.46518" lon="1.44725">
        <ele>126</ele>
        <time>2011-03-20T11:08:30</time>
      </trkpt>
      <trkpt lat="44.4651" lon="1.44721">
        <ele>126</ele>
        <time>2011-03-20T11:08:32</time>
      </trkpt>
      <trkpt lat="44.46506" lon="1.44719">
        <ele>126</ele>
        <time>2011-03-20T11:08:33</time>
      </trkpt>
      <trkpt lat="44.46498" lon="1.44715">
        <ele>126</ele>
        <time>2011-03-20T11:08:35</time>
      </trkpt>
      <trkpt lat="44.46491" lon="1.44712">
        <ele>126</ele>
        <time>2011-03-20T11:08:37</time>
      </trkpt>
      <trkpt lat="44.46487" lon="1.44711">
        <ele>126</ele>
        <time>2011-03-20T11:08:38</time>
      </trkpt>
      <trkpt lat="44.4648" lon="1.44707">
        <ele>119</ele>
        <time>2011-03-20T11:08:40</time>
      </trkpt>
      <trkpt lat="44.46473" lon="1.44704">
        <ele>119</ele>
        <time>2011-03-20T11:08:42</time>
      </trkpt>
      <trkpt lat="44.4647" lon="1.44703">
        <ele>119</ele>
        <time>2011-03-20T11:08:43</time>
      </trkpt>
      <trkpt lat="44.46463" lon="1.447">
        <ele>119</ele>
        <time>2011-03-20T11:08:45</time>
      </trkpt>
      <trkpt lat="44.4646" lon="1.44699">
        <ele>119</ele>
        <time>2011-03-20T11:08:46</time>
      </trkpt>
      <trkpt lat="44.46453" lon="1.44696">
        <ele>123</ele>
        <time>2011-03-20T11:08:48</time>
      </trkpt>
      <trkpt lat="44.46449" lon="1.44695">
        <ele>123</ele>
        <time>2011-03-20T11:08:49</time>
      </trkpt>
      <trkpt lat="44.46446" lon="1.44694">
        <ele>123</ele>
        <time>2011-03-20T11:08:50</time>
      </trkpt>
      <trkpt lat="44.46444" lon="1.44693">
        <ele>123</ele>
        <time>2011-03-20T11:08:51</time>
      </trkpt>
      <trkpt lat="44.46438" lon="1.44691">
        <ele>123</ele>
        <time>2011-03-20T11:08:53</time>
      </trkpt>
      <trkpt lat="44.46432" lon="1.4469">
        <ele>123</ele>
        <time>2011-03-20T11:08:55</time>
      </trkpt>
      <trkpt lat="44.46425" lon="1.44688">
        <ele>123</ele>
        <time>2011-03-20T11:08:57</time>
      </trkpt>
      <trkpt lat="44.46422" lon="1.44687">
        <ele>123</ele>
        <time>2011-03-20T11:08:58</time>
      </trkpt>
      <trkpt lat="44.46415" lon="1.44685">
        <ele>123</ele>
        <time>2011-03-20T11:09:00</time>
      </trkpt>
      <trkpt lat="44.46412" lon="1.44684">
        <ele>123</ele>
        <time>2011-03-20T11:09:01</time>
      </trkpt>
      <trkpt lat="44.46405" lon="1.44682">
        <ele>123</ele>
        <time>2011-03-20T11:09:03</time>
      </trkpt>
      <trkpt lat="44.46398" lon="1.44681">
        <ele>123</ele>
        <time>2011-03-20T11:09:05</time>
      </trkpt>
      <trkpt lat="44.46391" lon="1.4468">
        <ele>123</ele>
        <time>2011-03-20T11:09:07</time>
      </trkpt>
      <trkpt lat="44.46388" lon="1.44679">
        <ele>123</ele>
        <time>2011-03-20T11:09:08</time>
      </trkpt>
      <trkpt lat="44.4638" lon="1.44678">
        <ele>123</ele>
        <time>2011-03-20T11:09:10</time>
      </trkpt>
      <trkpt lat="44.46377" lon="1.44678">
        <ele>123</ele>
        <time>2011-03-20T11:09:11</time>
      </trkpt>
      <trkpt lat="44.46369" lon="1.44678">
        <ele>123</ele>
        <time>2011-03-20T11:09:13</time>
      </trkpt>
      <trkpt lat="44.46361" lon="1.44677">
        <ele>123</ele>
        <time>2011-03-20T11:09:15</time>
      </trkpt>
      <trkpt lat="44.46358" lon="1.44677">
        <ele>123</ele>
        <time>2011-03-20T11:09:16</time>
      </trkpt>
      <trkpt lat="44.4635" lon="1.44676">
        <ele>123</ele>
        <time>2011-03-20T11:09:18</time>
      </trkpt>
      <trkpt lat="44.46346" lon="1.44675">
        <ele>123</ele>
        <time>2011-03-20T11:09:19</time>
      </trkpt>
      <trkpt lat="44.46342" lon="1.44674">
        <ele>123</ele>
        <time>2011-03-20T11:09:20</time>
      </trkpt>
      <trkpt lat="44.46334" lon="1.44672">
        <ele>123</ele>
        <time>2011-03-20T11:09:22</time>
      </trkpt>
      <trkpt lat="44.4633" lon="1.44671">
        <ele>123</ele>
        <time>2011-03-20T11:09:23</time>
      </trkpt>
      <trkpt lat="44.46322" lon="1.4467">
        <ele>123</ele>
        <time>2011-03-20T11:09:25</time>
      </trkpt>
      <trkpt lat="44.46313" lon="1.44668">
        <ele>123</ele>
        <time>2011-03-20T11:09:27</time>
      </trkpt>
      <trkpt lat="44.46309" lon="1.44667">
        <ele>123</ele>
        <time>2011-03-20T11:09:28</time>
      </trkpt>
      <trkpt lat="44.463" lon="1.44666">
        <ele>123</ele>
        <time>2011-03-20T11:09:30</time>
      </trkpt>
      <trkpt lat="44.46296" lon="1.44666">
        <ele>123</ele>
        <time>2011-03-20T11:09:31</time>
      </trkpt>
      <trkpt lat="44.46287" lon="1.44666">
        <ele>124</ele>
        <time>2011-03-20T11:09:33</time>
      </trkpt>
      <trkpt lat="44.46283" lon="1.44665">
        <ele>124</ele>
        <time>2011-03-20T11:09:34</time>
      </trkpt>
      <trkpt lat="44.46275" lon="1.44665">
        <ele>124</ele>
        <time>2011-03-20T11:09:36</time>
      </trkpt>
      <trkpt lat="44.46267" lon="1.44664">
        <ele>124</ele>
        <time>2011-03-20T11:09:38</time>
      </trkpt>
      <trkpt lat="44.46258" lon="1.44662">
        <ele>124</ele>
        <time>2011-03-20T11:09:40</time>
      </trkpt>
      <trkpt lat="44.4625" lon="1.44659">
        <ele>124</ele>
        <time>2011-03-20T11:09:42</time>
      </trkpt>
      <trkpt lat="44.46241" lon="1.44656">
        <ele>124</ele>
        <time>2011-03-20T11:09:44</time>
      </trkpt>
      <trkpt lat="44.46231" lon="1.44653">
        <ele>124</ele>
        <time>2011-03-20T11:09:46</time>
      </trkpt>
      <trkpt lat="44.46222" lon="1.44651">
        <ele>124</ele>
        <time>2011-03-20T11:09:48</time>
      </trkpt>
      <trkpt lat="44.46213" lon="1.44649">
        <ele>124</ele>
        <time>2011-03-20T11:09:50</time>
      </trkpt>
      <trkpt lat="44.46204" lon="1.44647">
        <ele>124</ele>
        <time>2011-03-20T11:09:52</time>
      </trkpt>
      <trkpt lat="44.46195" lon="1.44646">
        <ele>124</ele>
        <time>2011-03-20T11:09:54</time>
      </trkpt>
      <trkpt lat="44.46186" lon="1.44643">
        <ele>124</ele>
        <time>2011-03-20T11:09:56</time>
      </trkpt>
      <trkpt lat="44.46182" lon="1.44642">
        <ele>124</ele>
        <time>2011-03-20T11:09:57</time>
      </trkpt>
      <trkpt lat="44.46173" lon="1.4464">
        <ele>124</ele>
        <time>2011-03-20T11:09:59</time>
      </trkpt>
      <trkpt lat="44.46165" lon="1.44638">
        <ele>124</ele>
        <time>2011-03-20T11:10:01</time>
      </trkpt>
      <trkpt lat="44.46156" lon="1.44635">
        <ele>124</ele>
        <time>2011-03-20T11:10:03</time>
      </trkpt>
      <trkpt lat="44.46146" lon="1.44632">
        <ele>124</ele>
        <time>2011-03-20T11:10:05</time>
      </trkpt>
      <trkpt lat="44.46141" lon="1.4463">
        <ele>124</ele>
        <time>2011-03-20T11:10:06</time>
      </trkpt>
      <trkpt lat="44.46131" lon="1.44627">
        <ele>124</ele>
        <time>2011-03-20T11:10:08</time>
      </trkpt>
      <trkpt lat="44.46122" lon="1.44624">
        <ele>121</ele>
        <time>2011-03-20T11:10:10</time>
      </trkpt>
      <trkpt lat="44.46117" lon="1.44623">
        <ele>121</ele>
        <time>2011-03-20T11:10:11</time>
      </trkpt>
      <trkpt lat="44.46113" lon="1.44622">
        <ele>121</ele>
        <time>2011-03-20T11:10:12</time>
      </trkpt>
      <trkpt lat="44.46108" lon="1.44621">
        <ele>121</ele>
        <time>2011-03-20T11:10:13</time>
      </trkpt>
      <trkpt lat="44.46103" lon="1.4462">
        <ele>121</ele>
        <time>2011-03-20T11:10:14</time>
      </trkpt>
      <trkpt lat="44.46094" lon="1.44616">
        <ele>121</ele>
        <time>2011-03-20T11:10:16</time>
      </trkpt>
      <trkpt lat="44.46084" lon="1.44613">
        <ele>121</ele>
        <time>2011-03-20T11:10:18</time>
      </trkpt>
      <trkpt lat="44.46075" lon="1.44611">
        <ele>121</ele>
        <time>2011-03-20T11:10:20</time>
      </trkpt>
      <trkpt lat="44.46066" lon="1.44609">
        <ele>121</ele>
        <time>2011-03-20T11:10:22</time>
      </trkpt>
      <trkpt lat="44.46057" lon="1.44607">
        <ele>121</ele>
        <time>2011-03-20T11:10:24</time>
      </trkpt>
      <trkpt lat="44.46048" lon="1.44605">
        <ele>121</ele>
        <time>2011-03-20T11:10:26</time>
      </trkpt>
      <trkpt lat="44.46039" lon="1.44602">
        <ele>122</ele>
        <time>2011-03-20T11:10:28</time>
      </trkpt>
      <trkpt lat="44.4603" lon="1.44601">
        <ele>122</ele>
        <time>2011-03-20T11:10:30</time>
      </trkpt>
      <trkpt lat="44.46021" lon="1.44601">
        <ele>122</ele>
        <time>2011-03-20T11:10:32</time>
      </trkpt>
      <trkpt lat="44.46014" lon="1.44606">
        <ele>122</ele>
        <time>2011-03-20T11:10:34</time>
      </trkpt>
      <trkpt lat="44.46012" lon="1.4461">
        <ele>122</ele>
        <time>2011-03-20T11:10:35</time>
      </trkpt>
      <trkpt lat="44.46009" lon="1.44614">
        <ele>122</ele>
        <time>2011-03-20T11:10:36</time>
      </trkpt>
      <trkpt lat="44.46006" lon="1.44625">
        <ele>127</ele>
        <time>2011-03-20T11:10:38</time>
      </trkpt>
      <trkpt lat="44.46005" lon="1.44631">
        <ele>127</ele>
        <time>2011-03-20T11:10:39</time>
      </trkpt>
      <trkpt lat="44.46004" lon="1.44637">
        <ele>127</ele>
        <time>2011-03-20T11:10:40</time>
      </trkpt>
      <trkpt lat="44.46" lon="1.44646">
        <ele>127</ele>
        <time>2011-03-20T11:10:42</time>
      </trkpt>
      <trkpt lat="44.45995" lon="1.44652">
        <ele>127</ele>
        <time>2011-03-20T11:10:44</time>
      </trkpt>
      <trkpt lat="44.45992" lon="1.44653">
        <ele>127</ele>
        <time>2011-03-20T11:10:45</time>
      </trkpt>
      <trkpt lat="44.45989" lon="1.44654">
        <ele>127</ele>
        <time>2011-03-20T11:10:46</time>
      </trkpt>
      <trkpt lat="44.45984" lon="1.44656">
        <ele>127</ele>
        <time>2011-03-20T11:10:48</time>
      </trkpt>
      <trkpt lat="44.45982" lon="1.44657">
        <ele>127</ele>
        <time>2011-03-20T11:10:49</time>
      </trkpt>
      <trkpt lat="44.45978" lon="1.44657">
        <ele>127</ele>
        <time>2011-03-20T11:10:51</time>
      </trkpt>
      <trkpt lat="44.45975" lon="1.44658">
        <ele>127</ele>
        <time>2011-03-20T11:10:53</time>
      </trkpt>
      <trkpt lat="44.45971" lon="1.44659">
        <ele>127</ele>
        <time>2011-03-20T11:10:55</time>
      </trkpt>
      <trkpt lat="44.45967" lon="1.44659">
        <ele>127</ele>
        <time>2011-03-20T11:10:57</time>
      </trkpt>
      <trkpt lat="44.45962" lon="1.4466">
        <ele>127</ele>
        <time>2011-03-20T11:10:59</time>
      </trkpt>
      <trkpt lat="44.45957" lon="1.44661">
        <ele>125</ele>
        <time>2011-03-20T11:11:01</time>
      </trkpt>
      <trkpt lat="44.45951" lon="1.44663">
        <ele>125</ele>
        <time>2011-03-20T11:11:03</time>
      </trkpt>
      <trkpt lat="44.45949" lon="1.44663">
        <ele>125</ele>
        <time>2011-03-20T11:11:04</time>
      </trkpt>
      <trkpt lat="44.45943" lon="1.44664">
        <ele>125</ele>
        <time>2011-03-20T11:11:06</time>
      </trkpt>
      <trkpt lat="44.4594" lon="1.44664">
        <ele>125</ele>
        <time>2011-03-20T11:11:07</time>
      </trkpt>
      <trkpt lat="44.45934" lon="1.44665">
        <ele>125</ele>
        <time>2011-03-20T11:11:09</time>
      </trkpt>
      <trkpt lat="44.45931" lon="1.44666">
        <ele>125</ele>
        <time>2011-03-20T11:11:10</time>
      </trkpt>
      <trkpt lat="44.45926" lon="1.44668">
        <ele>125</ele>
        <time>2011-03-20T11:11:12</time>
      </trkpt>
      <trkpt lat="44.45923" lon="1.44669">
        <ele>125</ele>
        <time>2011-03-20T11:11:13</time>
      </trkpt>
      <trkpt lat="44.45916" lon="1.4467">
        <ele>125</ele>
        <time>2011-03-20T11:11:15</time>
      </trkpt>
      <trkpt lat="44.45913" lon="1.4467">
        <ele>125</ele>
        <time>2011-03-20T11:11:16</time>
      </trkpt>
      <trkpt lat="44.45906" lon="1.44671">
        <ele>125</ele>
        <time>2011-03-20T11:11:18</time>
      </trkpt>
      <trkpt lat="44.45899" lon="1.44673">
        <ele>125</ele>
        <time>2011-03-20T11:11:20</time>
      </trkpt>
      <trkpt lat="44.45895" lon="1.44675">
        <ele>125</ele>
        <time>2011-03-20T11:11:21</time>
      </trkpt>
      <trkpt lat="44.45888" lon="1.44678">
        <ele>125</ele>
        <time>2011-03-20T11:11:23</time>
      </trkpt>
      <trkpt lat="44.45884" lon="1.44679">
        <ele>125</ele>
        <time>2011-03-20T11:11:24</time>
      </trkpt>
      <trkpt lat="44.45881" lon="1.4468">
        <ele>125</ele>
        <time>2011-03-20T11:11:25</time>
      </trkpt>
      <trkpt lat="44.45873" lon="1.44682">
        <ele>123</ele>
        <time>2011-03-20T11:11:27</time>
      </trkpt>
      <trkpt lat="44.45867" lon="1.44686">
        <ele>123</ele>
        <time>2011-03-20T11:11:29</time>
      </trkpt>
      <trkpt lat="44.4586" lon="1.44689">
        <ele>123</ele>
        <time>2011-03-20T11:11:31</time>
      </trkpt>
      <trkpt lat="44.45857" lon="1.44691">
        <ele>123</ele>
        <time>2011-03-20T11:11:32</time>
      </trkpt>
      <trkpt lat="44.45853" lon="1.44692">
        <ele>123</ele>
        <time>2011-03-20T11:11:33</time>
      </trkpt>
      <trkpt lat="44.45849" lon="1.44694">
        <ele>123</ele>
        <time>2011-03-20T11:11:34</time>
      </trkpt>
      <trkpt lat="44.45841" lon="1.44695">
        <ele>123</ele>
        <time>2011-03-20T11:11:36</time>
      </trkpt>
      <trkpt lat="44.45831" lon="1.44696">
        <ele>123</ele>
        <time>2011-03-20T11:11:38</time>
      </trkpt>
      <trkpt lat="44.45826" lon="1.44697">
        <ele>123</ele>
        <time>2011-03-20T11:11:39</time>
      </trkpt>
      <trkpt lat="44.45821" lon="1.44698">
        <ele>123</ele>
        <time>2011-03-20T11:11:40</time>
      </trkpt>
      <trkpt lat="44.45812" lon="1.447">
        <ele>123</ele>
        <time>2011-03-20T11:11:42</time>
      </trkpt>
      <trkpt lat="44.45805" lon="1.44702">
        <ele>123</ele>
        <time>2011-03-20T11:11:44</time>
      </trkpt>
      <trkpt lat="44.45798" lon="1.44705">
        <ele>123</ele>
        <time>2011-03-20T11:11:46</time>
      </trkpt>
      <trkpt lat="44.45794" lon="1.44705">
        <ele>123</ele>
        <time>2011-03-20T11:11:47</time>
      </trkpt>
      <trkpt lat="44.4579" lon="1.44704">
        <ele>119</ele>
        <time>2011-03-20T11:11:48</time>
      </trkpt>
      <trkpt lat="44.45786" lon="1.44703">
        <ele>119</ele>
        <time>2011-03-20T11:11:49</time>
      </trkpt>
      <trkpt lat="44.45778" lon="1.44701">
        <ele>119</ele>
        <time>2011-03-20T11:11:51</time>
      </trkpt>
      <trkpt lat="44.45769" lon="1.44698">
        <ele>119</ele>
        <time>2011-03-20T11:11:53</time>
      </trkpt>
      <trkpt lat="44.45764" lon="1.44697">
        <ele>119</ele>
        <time>2011-03-20T11:11:54</time>
      </trkpt>
      <trkpt lat="44.45759" lon="1.44696">
        <ele>119</ele>
        <time>2011-03-20T11:11:55</time>
      </trkpt>
      <trkpt lat="44.45749" lon="1.44695">
        <ele>119</ele>
        <time>2011-03-20T11:11:57</time>
      </trkpt>
      <trkpt lat="44.45739" lon="1.44695">
        <ele>119</ele>
        <time>2011-03-20T11:11:59</time>
      </trkpt>
      <trkpt lat="44.45729" lon="1.44696">
        <ele>119</ele>
        <time>2011-03-20T11:12:01</time>
      </trkpt>
      <trkpt lat="44.45719" lon="1.44697">
        <ele>119</ele>
        <time>2011-03-20T11:12:03</time>
      </trkpt>
      <trkpt lat="44.45709" lon="1.44698">
        <ele>119</ele>
        <time>2011-03-20T11:12:05</time>
      </trkpt>
      <trkpt lat="44.45704" lon="1.44699">
        <ele>119</ele>
        <time>2011-03-20T11:12:06</time>
      </trkpt>
      <trkpt lat="44.45695" lon="1.447">
        <ele>119</ele>
        <time>2011-03-20T11:12:08</time>
      </trkpt>
      <trkpt lat="44.45691" lon="1.44701">
        <ele>119</ele>
        <time>2011-03-20T11:12:09</time>
      </trkpt>
      <trkpt lat="44.45686" lon="1.44702">
        <ele>119</ele>
        <time>2011-03-20T11:12:10</time>
      </trkpt>
      <trkpt lat="44.45681" lon="1.44702">
        <ele>119</ele>
        <time>2011-03-20T11:12:11</time>
      </trkpt>
      <trkpt lat="44.45677" lon="1.44702">
        <ele>119</ele>
        <time>2011-03-20T11:12:12</time>
      </trkpt>
      <trkpt lat="44.45672" lon="1.44702">
        <ele>119</ele>
        <time>2011-03-20T11:12:13</time>
      </trkpt>
      <trkpt lat="44.45662" lon="1.44702">
        <ele>119</ele>
        <time>2011-03-20T11:12:15</time>
      </trkpt>
      <trkpt lat="44.45657" lon="1.44701">
        <ele>119</ele>
        <time>2011-03-20T11:12:16</time>
      </trkpt>
      <trkpt lat="44.45653" lon="1.447">
        <ele>119</ele>
        <time>2011-03-20T11:12:17</time>
      </trkpt>
      <trkpt lat="44.45644" lon="1.44694">
        <ele>119</ele>
        <time>2011-03-20T11:12:19</time>
      </trkpt>
      <trkpt lat="44.4564" lon="1.44683">
        <ele>119</ele>
        <time>2011-03-20T11:12:21</time>
      </trkpt>
      <trkpt lat="44.45638" lon="1.4467">
        <ele>119</ele>
        <time>2011-03-20T11:12:23</time>
      </trkpt>
      <trkpt lat="44.45637" lon="1.44655">
        <ele>119</ele>
        <time>2011-03-20T11:12:25</time>
      </trkpt>
      <trkpt lat="44.45637" lon="1.44648">
        <ele>119</ele>
        <time>2011-03-20T11:12:26</time>
      </trkpt>
      <trkpt lat="44.45636" lon="1.4464">
        <ele>119</ele>
        <time>2011-03-20T11:12:27</time>
      </trkpt>
      <trkpt lat="44.45634" lon="1.44626">
        <ele>119</ele>
        <time>2011-03-20T11:12:29</time>
      </trkpt>
      <trkpt lat="44.45634" lon="1.44618">
        <ele>119</ele>
        <time>2011-03-20T11:12:30</time>
      </trkpt>
      <trkpt lat="44.45632" lon="1.44603">
        <ele>119</ele>
        <time>2011-03-20T11:12:32</time>
      </trkpt>
      <trkpt lat="44.45631" lon="1.44596">
        <ele>119</ele>
        <time>2011-03-20T11:12:33</time>
      </trkpt>
      <trkpt lat="44.4563" lon="1.44589">
        <ele>119</ele>
        <time>2011-03-20T11:12:34</time>
      </trkpt>
      <trkpt lat="44.45628" lon="1.44575">
        <ele>119</ele>
        <time>2011-03-20T11:12:36</time>
      </trkpt>
      <trkpt lat="44.45628" lon="1.44567">
        <ele>119</ele>
        <time>2011-03-20T11:12:37</time>
      </trkpt>
      <trkpt lat="44.45627" lon="1.4456">
        <ele>119</ele>
        <time>2011-03-20T11:12:38</time>
      </trkpt>
      <trkpt lat="44.45626" lon="1.44546">
        <ele>119</ele>
        <time>2011-03-20T11:12:40</time>
      </trkpt>
      <trkpt lat="44.45625" lon="1.44539">
        <ele>119</ele>
        <time>2011-03-20T11:12:41</time>
      </trkpt>
      <trkpt lat="44.45624" lon="1.44524">
        <ele>119</ele>
        <time>2011-03-20T11:12:43</time>
      </trkpt>
      <trkpt lat="44.45623" lon="1.44517">
        <ele>119</ele>
        <time>2011-03-20T11:12:44</time>
      </trkpt>
      <trkpt lat="44.45622" lon="1.44509">
        <ele>119</ele>
        <time>2011-03-20T11:12:45</time>
      </trkpt>
      <trkpt lat="44.45619" lon="1.44493">
        <ele>119</ele>
        <time>2011-03-20T11:12:47</time>
      </trkpt>
      <trkpt lat="44.45618" lon="1.44486">
        <ele>119</ele>
        <time>2011-03-20T11:12:48</time>
      </trkpt>
      <trkpt lat="44.45617" lon="1.44471">
        <ele>119</ele>
        <time>2011-03-20T11:12:50</time>
      </trkpt>
      <trkpt lat="44.45615" lon="1.44457">
        <ele>118</ele>
        <time>2011-03-20T11:12:52</time>
      </trkpt>
      <trkpt lat="44.45614" lon="1.44443">
        <ele>118</ele>
        <time>2011-03-20T11:12:54</time>
      </trkpt>
      <trkpt lat="44.45614" lon="1.44436">
        <ele>118</ele>
        <time>2011-03-20T11:12:55</time>
      </trkpt>
      <trkpt lat="44.45613" lon="1.44429">
        <ele>118</ele>
        <time>2011-03-20T11:12:56</time>
      </trkpt>
      <trkpt lat="44.45612" lon="1.44416">
        <ele>118</ele>
        <time>2011-03-20T11:12:58</time>
      </trkpt>
      <trkpt lat="44.45612" lon="1.44409">
        <ele>118</ele>
        <time>2011-03-20T11:12:59</time>
      </trkpt>
      <trkpt lat="44.45611" lon="1.44403">
        <ele>118</ele>
        <time>2011-03-20T11:13:00</time>
      </trkpt>
      <trkpt lat="44.4561" lon="1.44396">
        <ele>118</ele>
        <time>2011-03-20T11:13:01</time>
      </trkpt>
      <trkpt lat="44.45609" lon="1.4439">
        <ele>118</ele>
        <time>2011-03-20T11:13:02</time>
      </trkpt>
      <trkpt lat="44.45609" lon="1.44385">
        <ele>118</ele>
        <time>2011-03-20T11:13:03</time>
      </trkpt>
      <trkpt lat="44.45608" lon="1.44374">
        <ele>117</ele>
        <time>2011-03-20T11:13:05</time>
      </trkpt>
      <trkpt lat="44.45607" lon="1.44369">
        <ele>117</ele>
        <time>2011-03-20T11:13:06</time>
      </trkpt>
      <trkpt lat="44.45606" lon="1.44363">
        <ele>117</ele>
        <time>2011-03-20T11:13:07</time>
      </trkpt>
      <trkpt lat="44.45605" lon="1.44353">
        <ele>117</ele>
        <time>2011-03-20T11:13:09</time>
      </trkpt>
      <trkpt lat="44.45604" lon="1.44348">
        <ele>117</ele>
        <time>2011-03-20T11:13:10</time>
      </trkpt>
      <trkpt lat="44.45604" lon="1.44342">
        <ele>117</ele>
        <time>2011-03-20T11:13:11</time>
      </trkpt>
      <trkpt lat="44.45603" lon="1.44337">
        <ele>117</ele>
        <time>2011-03-20T11:13:12</time>
      </trkpt>
      <trkpt lat="44.45597" lon="1.44331">
        <ele>117</ele>
        <time>2011-03-20T11:13:14</time>
      </trkpt>
      <trkpt lat="44.45593" lon="1.44332">
        <ele>117</ele>
        <time>2011-03-20T11:13:15</time>
      </trkpt>
      <trkpt lat="44.45589" lon="1.44333">
        <ele>117</ele>
        <time>2011-03-20T11:13:16</time>
      </trkpt>
      <trkpt lat="44.4558" lon="1.44337">
        <ele>117</ele>
        <time>2011-03-20T11:13:18</time>
      </trkpt>
      <trkpt lat="44.45575" lon="1.44339">
        <ele>117</ele>
        <time>2011-03-20T11:13:19</time>
      </trkpt>
      <trkpt lat="44.45566" lon="1.44343">
        <ele>117</ele>
        <time>2011-03-20T11:13:21</time>
      </trkpt>
      <trkpt lat="44.45558" lon="1.44346">
        <ele>117</ele>
        <time>2011-03-20T11:13:23</time>
      </trkpt>
      <trkpt lat="44.4555" lon="1.44347">
        <ele>117</ele>
        <time>2011-03-20T11:13:25</time>
      </trkpt>
      <trkpt lat="44.45541" lon="1.44347">
        <ele>118</ele>
        <time>2011-03-20T11:13:27</time>
      </trkpt>
      <trkpt lat="44.45536" lon="1.44346">
        <ele>118</ele>
        <time>2011-03-20T11:13:28</time>
      </trkpt>
      <trkpt lat="44.45527" lon="1.44343">
        <ele>118</ele>
        <time>2011-03-20T11:13:30</time>
      </trkpt>
      <trkpt lat="44.45522" lon="1.44341">
        <ele>118</ele>
        <time>2011-03-20T11:13:31</time>
      </trkpt>
      <trkpt lat="44.45517" lon="1.4434">
        <ele>118</ele>
        <time>2011-03-20T11:13:32</time>
      </trkpt>
      <trkpt lat="44.45507" lon="1.44337">
        <ele>118</ele>
        <time>2011-03-20T11:13:34</time>
      </trkpt>
      <trkpt lat="44.45497" lon="1.44334">
        <ele>118</ele>
        <time>2011-03-20T11:13:36</time>
      </trkpt>
      <trkpt lat="44.45486" lon="1.44331">
        <ele>118</ele>
        <time>2011-03-20T11:13:38</time>
      </trkpt>
      <trkpt lat="44.45481" lon="1.44329">
        <ele>118</ele>
        <time>2011-03-20T11:13:39</time>
      </trkpt>
      <trkpt lat="44.4547" lon="1.44327">
        <ele>118</ele>
        <time>2011-03-20T11:13:41</time>
      </trkpt>
      <trkpt lat="44.45465" lon="1.44325">
        <ele>118</ele>
        <time>2011-03-20T11:13:42</time>
      </trkpt>
      <trkpt lat="44.45454" lon="1.44323">
        <ele>118</ele>
        <time>2011-03-20T11:13:44</time>
      </trkpt>
      <trkpt lat="44.45449" lon="1.44322">
        <ele>118</ele>
        <time>2011-03-20T11:13:45</time>
      </trkpt>
      <trkpt lat="44.45444" lon="1.44321">
        <ele>118</ele>
        <time>2011-03-20T11:13:46</time>
      </trkpt>
      <trkpt lat="44.45433" lon="1.4432">
        <ele>118</ele>
        <time>2011-03-20T11:13:48</time>
      </trkpt>
      <trkpt lat="44.45427" lon="1.4432">
        <ele>118</ele>
        <time>2011-03-20T11:13:49</time>
      </trkpt>
      <trkpt lat="44.45417" lon="1.4432">
        <ele>118</ele>
        <time>2011-03-20T11:13:51</time>
      </trkpt>
      <trkpt lat="44.45411" lon="1.4432">
        <ele>118</ele>
        <time>2011-03-20T11:13:52</time>
      </trkpt>
      <trkpt lat="44.45406" lon="1.44321">
        <ele>118</ele>
        <time>2011-03-20T11:13:53</time>
      </trkpt>
      <trkpt lat="44.45396" lon="1.44321">
        <ele>118</ele>
        <time>2011-03-20T11:13:55</time>
      </trkpt>
      <trkpt lat="44.45391" lon="1.44323">
        <ele>118</ele>
        <time>2011-03-20T11:13:56</time>
      </trkpt>
      <trkpt lat="44.45381" lon="1.44324">
        <ele>118</ele>
        <time>2011-03-20T11:13:58</time>
      </trkpt>
      <trkpt lat="44.45374" lon="1.44325">
        <ele>117</ele>
        <time>2011-03-20T11:14:00</time>
      </trkpt>
      <trkpt lat="44.4537" lon="1.44325">
        <ele>117</ele>
        <time>2011-03-20T11:14:01</time>
      </trkpt>
      <trkpt lat="44.45358" lon="1.44327">
        <ele>117</ele>
        <time>2011-03-20T11:14:03</time>
      </trkpt>
      <trkpt lat="44.45344" lon="1.44329">
        <ele>117</ele>
        <time>2011-03-20T11:14:05</time>
      </trkpt>
      <trkpt lat="44.45332" lon="1.44332">
        <ele>117</ele>
        <time>2011-03-20T11:14:07</time>
      </trkpt>
      <trkpt lat="44.45326" lon="1.44333">
        <ele>117</ele>
        <time>2011-03-20T11:14:08</time>
      </trkpt>
      <trkpt lat="44.4532" lon="1.44333">
        <ele>117</ele>
        <time>2011-03-20T11:14:09</time>
      </trkpt>
      <trkpt lat="44.45315" lon="1.44334">
        <ele>117</ele>
        <time>2011-03-20T11:14:10</time>
      </trkpt>
      <trkpt lat="44.45304" lon="1.44334">
        <ele>117</ele>
        <time>2011-03-20T11:14:12</time>
      </trkpt>
      <trkpt lat="44.45298" lon="1.44334">
        <ele>117</ele>
        <time>2011-03-20T11:14:13</time>
      </trkpt>
      <trkpt lat="44.45288" lon="1.44335">
        <ele>117</ele>
        <time>2011-03-20T11:14:15</time>
      </trkpt>
      <trkpt lat="44.45282" lon="1.44336">
        <ele>117</ele>
        <time>2011-03-20T11:14:16</time>
      </trkpt>
      <trkpt lat="44.45271" lon="1.44337">
        <ele>117</ele>
        <time>2011-03-20T11:14:18</time>
      </trkpt>
      <trkpt lat="44.45259" lon="1.4434">
        <ele>117</ele>
        <time>2011-03-20T11:14:20</time>
      </trkpt>
      <trkpt lat="44.45248" lon="1.44344">
        <ele>117</ele>
        <time>2011-03-20T11:14:22</time>
      </trkpt>
      <trkpt lat="44.45237" lon="1.44348">
        <ele>117</ele>
        <time>2011-03-20T11:14:24</time>
      </trkpt>
      <trkpt lat="44.45231" lon="1.44351">
        <ele>117</ele>
        <time>2011-03-20T11:14:25</time>
      </trkpt>
      <trkpt lat="44.45225" lon="1.44354">
        <ele>117</ele>
        <time>2011-03-20T11:14:26</time>
      </trkpt>
      <trkpt lat="44.45214" lon="1.44361">
        <ele>117</ele>
        <time>2011-03-20T11:14:28</time>
      </trkpt>
      <trkpt lat="44.45209" lon="1.44364">
        <ele>117</ele>
        <time>2011-03-20T11:14:29</time>
      </trkpt>
      <trkpt lat="44.45204" lon="1.44367">
        <ele>119</ele>
        <time>2011-03-20T11:14:30</time>
      </trkpt>
      <trkpt lat="44.45194" lon="1.44375">
        <ele>119</ele>
        <time>2011-03-20T11:14:32</time>
      </trkpt>
      <trkpt lat="44.45185" lon="1.44381">
        <ele>119</ele>
        <time>2011-03-20T11:14:34</time>
      </trkpt>
      <trkpt lat="44.45181" lon="1.44384">
        <ele>119</ele>
        <time>2011-03-20T11:14:35</time>
      </trkpt>
      <trkpt lat="44.45172" lon="1.4439">
        <ele>119</ele>
        <time>2011-03-20T11:14:37</time>
      </trkpt>
      <trkpt lat="44.45163" lon="1.44394">
        <ele>119</ele>
        <time>2011-03-20T11:14:39</time>
      </trkpt>
      <trkpt lat="44.45159" lon="1.44396">
        <ele>119</ele>
        <time>2011-03-20T11:14:40</time>
      </trkpt>
      <trkpt lat="44.4515" lon="1.444">
        <ele>119</ele>
        <time>2011-03-20T11:14:42</time>
      </trkpt>
      <trkpt lat="44.45141" lon="1.44402">
        <ele>119</ele>
        <time>2011-03-20T11:14:44</time>
      </trkpt>
      <trkpt lat="44.45132" lon="1.44405">
        <ele>119</ele>
        <time>2011-03-20T11:14:46</time>
      </trkpt>
      <trkpt lat="44.45123" lon="1.44408">
        <ele>118</ele>
        <time>2011-03-20T11:14:48</time>
      </trkpt>
      <trkpt lat="44.45118" lon="1.4441">
        <ele>118</ele>
        <time>2011-03-20T11:14:49</time>
      </trkpt>
      <trkpt lat="44.45109" lon="1.44416">
        <ele>118</ele>
        <time>2011-03-20T11:14:51</time>
      </trkpt>
      <trkpt lat="44.451" lon="1.44422">
        <ele>118</ele>
        <time>2011-03-20T11:14:53</time>
      </trkpt>
      <trkpt lat="44.45095" lon="1.44426">
        <ele>118</ele>
        <time>2011-03-20T11:14:54</time>
      </trkpt>
      <trkpt lat="44.45087" lon="1.44431">
        <ele>118</ele>
        <time>2011-03-20T11:14:56</time>
      </trkpt>
      <trkpt lat="44.45078" lon="1.44435">
        <ele>118</ele>
        <time>2011-03-20T11:14:58</time>
      </trkpt>
      <trkpt lat="44.45073" lon="1.44437">
        <ele>118</ele>
        <time>2011-03-20T11:14:59</time>
      </trkpt>
      <trkpt lat="44.45069" lon="1.44439">
        <ele>118</ele>
        <time>2011-03-20T11:15:00</time>
      </trkpt>
      <trkpt lat="44.45064" lon="1.44441">
        <ele>118</ele>
        <time>2011-03-20T11:15:01</time>
      </trkpt>
      <trkpt lat="44.45055" lon="1.44446">
        <ele>118</ele>
        <time>2011-03-20T11:15:03</time>
      </trkpt>
      <trkpt lat="44.45045" lon="1.4445">
        <ele>118</ele>
        <time>2011-03-20T11:15:05</time>
      </trkpt>
      <trkpt lat="44.45041" lon="1.44452">
        <ele>117</ele>
        <time>2011-03-20T11:15:06</time>
      </trkpt>
      <trkpt lat="44.45032" lon="1.44456">
        <ele>117</ele>
        <time>2011-03-20T11:15:08</time>
      </trkpt>
      <trkpt lat="44.45027" lon="1.44458">
        <ele>117</ele>
        <time>2011-03-20T11:15:09</time>
      </trkpt>
      <trkpt lat="44.45023" lon="1.4446">
        <ele>118</ele>
        <time>2011-03-20T11:15:10</time>
      </trkpt>
      <trkpt lat="44.45018" lon="1.44461">
        <ele>118</ele>
        <time>2011-03-20T11:15:11</time>
      </trkpt>
      <trkpt lat="44.45007" lon="1.44465">
        <ele>118</ele>
        <time>2011-03-20T11:15:13</time>
      </trkpt>
      <trkpt lat="44.45002" lon="1.44466">
        <ele>118</ele>
        <time>2011-03-20T11:15:14</time>
      </trkpt>
      <trkpt lat="44.44993" lon="1.44468">
        <ele>118</ele>
        <time>2011-03-20T11:15:16</time>
      </trkpt>
      <trkpt lat="44.44984" lon="1.4447">
        <ele>118</ele>
        <time>2011-03-20T11:15:18</time>
      </trkpt>
      <trkpt lat="44.44976" lon="1.44472">
        <ele>118</ele>
        <time>2011-03-20T11:15:20</time>
      </trkpt>
      <trkpt lat="44.44967" lon="1.44474">
        <ele>118</ele>
        <time>2011-03-20T11:15:22</time>
      </trkpt>
      <trkpt lat="44.44963" lon="1.44475">
        <ele>118</ele>
        <time>2011-03-20T11:15:23</time>
      </trkpt>
      <trkpt lat="44.44955" lon="1.44478">
        <ele>117</ele>
        <time>2011-03-20T11:15:25</time>
      </trkpt>
      <trkpt lat="44.44948" lon="1.44483">
        <ele>117</ele>
        <time>2011-03-20T11:15:27</time>
      </trkpt>
      <trkpt lat="44.44941" lon="1.44489">
        <ele>117</ele>
        <time>2011-03-20T11:15:29</time>
      </trkpt>
      <trkpt lat="44.44938" lon="1.44492">
        <ele>117</ele>
        <time>2011-03-20T11:15:30</time>
      </trkpt>
      <trkpt lat="44.44935" lon="1.44495">
        <ele>117</ele>
        <time>2011-03-20T11:15:31</time>
      </trkpt>
      <trkpt lat="44.44929" lon="1.44501">
        <ele>117</ele>
        <time>2011-03-20T11:15:33</time>
      </trkpt>
      <trkpt lat="44.44926" lon="1.44504">
        <ele>117</ele>
        <time>2011-03-20T11:15:34</time>
      </trkpt>
      <trkpt lat="44.4492" lon="1.44505">
        <ele>117</ele>
        <time>2011-03-20T11:15:36</time>
      </trkpt>
      <trkpt lat="44.44917" lon="1.445">
        <ele>117</ele>
        <time>2011-03-20T11:15:38</time>
      </trkpt>
      <trkpt lat="44.44915" lon="1.44493">
        <ele>117</ele>
        <time>2011-03-20T11:15:40</time>
      </trkpt>
      <trkpt lat="44.44914" lon="1.4449">
        <ele>117</ele>
        <time>2011-03-20T11:15:41</time>
      </trkpt>
      <trkpt lat="44.44912" lon="1.44482">
        <ele>117</ele>
        <time>2011-03-20T11:15:43</time>
      </trkpt>
      <trkpt lat="44.4491" lon="1.44478">
        <ele>117</ele>
        <time>2011-03-20T11:15:44</time>
      </trkpt>
      <trkpt lat="44.44909" lon="1.44474">
        <ele>117</ele>
        <time>2011-03-20T11:15:45</time>
      </trkpt>
      <trkpt lat="44.44907" lon="1.44465">
        <ele>117</ele>
        <time>2011-03-20T11:15:47</time>
      </trkpt>
      <trkpt lat="44.44906" lon="1.44461">
        <ele>117</ele>
        <time>2011-03-20T11:15:48</time>
      </trkpt>
      <trkpt lat="44.44905" lon="1.44457">
        <ele>118</ele>
        <time>2011-03-20T11:15:49</time>
      </trkpt>
      <trkpt lat="44.44902" lon="1.44448">
        <ele>118</ele>
        <time>2011-03-20T11:15:51</time>
      </trkpt>
      <trkpt lat="44.44901" lon="1.44444">
        <ele>118</ele>
        <time>2011-03-20T11:15:52</time>
      </trkpt>
      <trkpt lat="44.44899" lon="1.44435">
        <ele>118</ele>
        <time>2011-03-20T11:15:54</time>
      </trkpt>
      <trkpt lat="44.44898" lon="1.4443">
        <ele>118</ele>
        <time>2011-03-20T11:15:55</time>
      </trkpt>
      <trkpt lat="44.44896" lon="1.4442">
        <ele>118</ele>
        <time>2011-03-20T11:15:57</time>
      </trkpt>
      <trkpt lat="44.44895" lon="1.44415">
        <ele>118</ele>
        <time>2011-03-20T11:15:58</time>
      </trkpt>
      <trkpt lat="44.44893" lon="1.44404">
        <ele>118</ele>
        <time>2011-03-20T11:16:00</time>
      </trkpt>
      <trkpt lat="44.44891" lon="1.44394">
        <ele>118</ele>
        <time>2011-03-20T11:16:02</time>
      </trkpt>
      <trkpt lat="44.44889" lon="1.44389">
        <ele>118</ele>
        <time>2011-03-20T11:16:03</time>
      </trkpt>
      <trkpt lat="44.44887" lon="1.44379">
        <ele>118</ele>
        <time>2011-03-20T11:16:05</time>
      </trkpt>
      <trkpt lat="44.44885" lon="1.44368">
        <ele>123</ele>
        <time>2011-03-20T11:16:07</time>
      </trkpt>
      <trkpt lat="44.44884" lon="1.44363">
        <ele>123</ele>
        <time>2011-03-20T11:16:08</time>
      </trkpt>
      <trkpt lat="44.44883" lon="1.44352">
        <ele>123</ele>
        <time>2011-03-20T11:16:10</time>
      </trkpt>
      <trkpt lat="44.44882" lon="1.44343">
        <ele>123</ele>
        <time>2011-03-20T11:16:12</time>
      </trkpt>
      <trkpt lat="44.44881" lon="1.44338">
        <ele>123</ele>
        <time>2011-03-20T11:16:13</time>
      </trkpt>
      <trkpt lat="44.44876" lon="1.44331">
        <ele>123</ele>
        <time>2011-03-20T11:16:15</time>
      </trkpt>
      <trkpt lat="44.44874" lon="1.44334">
        <ele>125</ele>
        <time>2011-03-20T11:16:16</time>
      </trkpt>
      <trkpt lat="44.44872" lon="1.44327">
        <ele>125</ele>
        <time>2011-03-20T11:16:28</time>
      </trkpt>
      <trkpt lat="44.44872" lon="1.44327">
        <ele>125</ele>
        <time>2011-03-20T11:16:36</time>
      </trkpt>
      <trkpt lat="44.4487" lon="1.4433">
        <ele>125</ele>
        <time>2011-03-20T11:16:41</time>
      </trkpt>
      <trkpt lat="44.44867" lon="1.44333">
        <ele>125</ele>
        <time>2011-03-20T11:16:43</time>
      </trkpt>
      <trkpt lat="44.44867" lon="1.44333">
        <ele>125</ele>
        <time>2011-03-20T11:16:44</time>
      </trkpt>
      <trkpt lat="44.44863" lon="1.44335">
        <ele>125</ele>
        <time>2011-03-20T11:16:45</time>
      </trkpt>
      <trkpt lat="44.44859" lon="1.44337">
        <ele>125</ele>
        <time>2011-03-20T11:16:47</time>
      </trkpt>
      <trkpt lat="44.44857" lon="1.44338">
        <ele>125</ele>
        <time>2011-03-20T11:16:48</time>
      </trkpt>
      <trkpt lat="44.44854" lon="1.4434">
        <ele>125</ele>
        <time>2011-03-20T11:16:49</time>
      </trkpt>
      <trkpt lat="44.44848" lon="1.44342">
        <ele>125</ele>
        <time>2011-03-20T11:16:51</time>
      </trkpt>
      <trkpt lat="44.44845" lon="1.44344">
        <ele>125</ele>
        <time>2011-03-20T11:16:52</time>
      </trkpt>
      <trkpt lat="44.44837" lon="1.44349">
        <ele>125</ele>
        <time>2011-03-20T11:16:54</time>
      </trkpt>
      <trkpt lat="44.44834" lon="1.44353">
        <ele>125</ele>
        <time>2011-03-20T11:16:55</time>
      </trkpt>
      <trkpt lat="44.44826" lon="1.44361">
        <ele>125</ele>
        <time>2011-03-20T11:16:57</time>
      </trkpt>
      <trkpt lat="44.44822" lon="1.44365">
        <ele>125</ele>
        <time>2011-03-20T11:16:58</time>
      </trkpt>
      <trkpt lat="44.44814" lon="1.44372">
        <ele>125</ele>
        <time>2011-03-20T11:17:00</time>
      </trkpt>
      <trkpt lat="44.4481" lon="1.44376">
        <ele>121</ele>
        <time>2011-03-20T11:17:01</time>
      </trkpt>
      <trkpt lat="44.44801" lon="1.44383">
        <ele>121</ele>
        <time>2011-03-20T11:17:03</time>
      </trkpt>
      <trkpt lat="44.44796" lon="1.44388">
        <ele>121</ele>
        <time>2011-03-20T11:17:04</time>
      </trkpt>
      <trkpt lat="44.44791" lon="1.44392">
        <ele>127</ele>
        <time>2011-03-20T11:17:05</time>
      </trkpt>
      <trkpt lat="44.44786" lon="1.44397">
        <ele>127</ele>
        <time>2011-03-20T11:17:06</time>
      </trkpt>
      <trkpt lat="44.44782" lon="1.44401">
        <ele>127</ele>
        <time>2011-03-20T11:17:07</time>
      </trkpt>
      <trkpt lat="44.44772" lon="1.44409">
        <ele>127</ele>
        <time>2011-03-20T11:17:09</time>
      </trkpt>
      <trkpt lat="44.44763" lon="1.44417">
        <ele>127</ele>
        <time>2011-03-20T11:17:11</time>
      </trkpt>
      <trkpt lat="44.44753" lon="1.44426">
        <ele>127</ele>
        <time>2011-03-20T11:17:13</time>
      </trkpt>
      <trkpt lat="44.44743" lon="1.44434">
        <ele>127</ele>
        <time>2011-03-20T11:17:15</time>
      </trkpt>
      <trkpt lat="44.44732" lon="1.44442">
        <ele>127</ele>
        <time>2011-03-20T11:17:17</time>
      </trkpt>
      <trkpt lat="44.44726" lon="1.44446">
        <ele>127</ele>
        <time>2011-03-20T11:17:18</time>
      </trkpt>
      <trkpt lat="44.44715" lon="1.44454">
        <ele>127</ele>
        <time>2011-03-20T11:17:20</time>
      </trkpt>
      <trkpt lat="44.44703" lon="1.44461">
        <ele>122</ele>
        <time>2011-03-20T11:17:22</time>
      </trkpt>
      <trkpt lat="44.44692" lon="1.44469">
        <ele>122</ele>
        <time>2011-03-20T11:17:24</time>
      </trkpt>
      <trkpt lat="44.4468" lon="1.44476">
        <ele>122</ele>
        <time>2011-03-20T11:17:26</time>
      </trkpt>
      <trkpt lat="44.44674" lon="1.4448">
        <ele>122</ele>
        <time>2011-03-20T11:17:27</time>
      </trkpt>
      <trkpt lat="44.44663" lon="1.44488">
        <ele>122</ele>
        <time>2011-03-20T11:17:29</time>
      </trkpt>
      <trkpt lat="44.44651" lon="1.44495">
        <ele>122</ele>
        <time>2011-03-20T11:17:31</time>
      </trkpt>
      <trkpt lat="44.44646" lon="1.44499">
        <ele>122</ele>
        <time>2011-03-20T11:17:32</time>
      </trkpt>
      <trkpt lat="44.4464" lon="1.44503">
        <ele>122</ele>
        <time>2011-03-20T11:17:33</time>
      </trkpt>
      <trkpt lat="44.44634" lon="1.44507">
        <ele>122</ele>
        <time>2011-03-20T11:17:34</time>
      </trkpt>
      <trkpt lat="44.44623" lon="1.44515">
        <ele>125</ele>
        <time>2011-03-20T11:17:36</time>
      </trkpt>
      <trkpt lat="44.44611" lon="1.44522">
        <ele>125</ele>
        <time>2011-03-20T11:17:38</time>
      </trkpt>
      <trkpt lat="44.44599" lon="1.44529">
        <ele>125</ele>
        <time>2011-03-20T11:17:40</time>
      </trkpt>
      <trkpt lat="44.44593" lon="1.44532">
        <ele>125</ele>
        <time>2011-03-20T11:17:41</time>
      </trkpt>
      <trkpt lat="44.44587" lon="1.44534">
        <ele>125</ele>
        <time>2011-03-20T11:17:42</time>
      </trkpt>
      <trkpt lat="44.44575" lon="1.44536">
        <ele>125</ele>
        <time>2011-03-20T11:17:44</time>
      </trkpt>
      <trkpt lat="44.44563" lon="1.44538">
        <ele>125</ele>
        <time>2011-03-20T11:17:46</time>
      </trkpt>
      <trkpt lat="44.44551" lon="1.44539">
        <ele>125</ele>
        <time>2011-03-20T11:17:48</time>
      </trkpt>
      <trkpt lat="44.44544" lon="1.44539">
        <ele>125</ele>
        <time>2011-03-20T11:17:49</time>
      </trkpt>
      <trkpt lat="44.44538" lon="1.44539">
        <ele>124</ele>
        <time>2011-03-20T11:17:50</time>
      </trkpt>
      <trkpt lat="44.44526" lon="1.44539">
        <ele>124</ele>
        <time>2011-03-20T11:17:52</time>
      </trkpt>
      <trkpt lat="44.44513" lon="1.44539">
        <ele>124</ele>
        <time>2011-03-20T11:17:54</time>
      </trkpt>
      <trkpt lat="44.445" lon="1.44539">
        <ele>124</ele>
        <time>2011-03-20T11:17:56</time>
      </trkpt>
      <trkpt lat="44.44494" lon="1.44538">
        <ele>124</ele>
        <time>2011-03-20T11:17:57</time>
      </trkpt>
      <trkpt lat="44.44483" lon="1.44536">
        <ele>124</ele>
        <time>2011-03-20T11:17:59</time>
      </trkpt>
      <trkpt lat="44.44478" lon="1.44535">
        <ele>124</ele>
        <time>2011-03-20T11:18:00</time>
      </trkpt>
      <trkpt lat="44.44468" lon="1.44533">
        <ele>124</ele>
        <time>2011-03-20T11:18:02</time>
      </trkpt>
      <trkpt lat="44.44464" lon="1.44532">
        <ele>124</ele>
        <time>2011-03-20T11:18:03</time>
      </trkpt>
      <trkpt lat="44.44456" lon="1.4453">
        <ele>122</ele>
        <time>2011-03-20T11:18:05</time>
      </trkpt>
      <trkpt lat="44.44451" lon="1.44531">
        <ele>122</ele>
        <time>2011-03-20T11:18:07</time>
      </trkpt>
      <trkpt lat="44.44448" lon="1.44532">
        <ele>122</ele>
        <time>2011-03-20T11:18:08</time>
      </trkpt>
      <trkpt lat="44.44443" lon="1.44532">
        <ele>122</ele>
        <time>2011-03-20T11:18:09</time>
      </trkpt>
      <trkpt lat="44.44438" lon="1.44532">
        <ele>122</ele>
        <time>2011-03-20T11:18:10</time>
      </trkpt>
      <trkpt lat="44.44432" lon="1.4453">
        <ele>122</ele>
        <time>2011-03-20T11:18:11</time>
      </trkpt>
      <trkpt lat="44.4442" lon="1.44527">
        <ele>122</ele>
        <time>2011-03-20T11:18:13</time>
      </trkpt>
      <trkpt lat="44.44408" lon="1.44522">
        <ele>122</ele>
        <time>2011-03-20T11:18:15</time>
      </trkpt>
      <trkpt lat="44.44396" lon="1.44517">
        <ele>122</ele>
        <time>2011-03-20T11:18:17</time>
      </trkpt>
      <trkpt lat="44.4439" lon="1.44514">
        <ele>122</ele>
        <time>2011-03-20T11:18:18</time>
      </trkpt>
      <trkpt lat="44.44378" lon="1.44508">
        <ele>122</ele>
        <time>2011-03-20T11:18:20</time>
      </trkpt>
      <trkpt lat="44.44366" lon="1.445">
        <ele>119</ele>
        <time>2011-03-20T11:18:22</time>
      </trkpt>
      <trkpt lat="44.4436" lon="1.44495">
        <ele>119</ele>
        <time>2011-03-20T11:18:23</time>
      </trkpt>
      <trkpt lat="44.4435" lon="1.44485">
        <ele>119</ele>
        <time>2011-03-20T11:18:25</time>
      </trkpt>
      <trkpt lat="44.44345" lon="1.44479">
        <ele>119</ele>
        <time>2011-03-20T11:18:26</time>
      </trkpt>
      <trkpt lat="44.44335" lon="1.44466">
        <ele>119</ele>
        <time>2011-03-20T11:18:28</time>
      </trkpt>
      <trkpt lat="44.44326" lon="1.44452">
        <ele>122</ele>
        <time>2011-03-20T11:18:30</time>
      </trkpt>
      <trkpt lat="44.44322" lon="1.44445">
        <ele>122</ele>
        <time>2011-03-20T11:18:31</time>
      </trkpt>
      <trkpt lat="44.44315" lon="1.44431">
        <ele>122</ele>
        <time>2011-03-20T11:18:33</time>
      </trkpt>
      <trkpt lat="44.44308" lon="1.44417">
        <ele>122</ele>
        <time>2011-03-20T11:18:35</time>
      </trkpt>
      <trkpt lat="44.443" lon="1.44404">
        <ele>122</ele>
        <time>2011-03-20T11:18:37</time>
      </trkpt>
      <trkpt lat="44.44296" lon="1.44397">
        <ele>122</ele>
        <time>2011-03-20T11:18:38</time>
      </trkpt>
      <trkpt lat="44.44291" lon="1.44382">
        <ele>118</ele>
        <time>2011-03-20T11:18:40</time>
      </trkpt>
      <trkpt lat="44.44289" lon="1.44373">
        <ele>118</ele>
        <time>2011-03-20T11:18:41</time>
      </trkpt>
      <trkpt lat="44.44288" lon="1.44355">
        <ele>118</ele>
        <time>2011-03-20T11:18:43</time>
      </trkpt>
      <trkpt lat="44.44289" lon="1.44346">
        <ele>118</ele>
        <time>2011-03-20T11:18:44</time>
      </trkpt>
      <trkpt lat="44.44291" lon="1.44328">
        <ele>118</ele>
        <time>2011-03-20T11:18:46</time>
      </trkpt>
      <trkpt lat="44.44292" lon="1.4431">
        <ele>126</ele>
        <time>2011-03-20T11:18:48</time>
      </trkpt>
      <trkpt lat="44.44294" lon="1.44293">
        <ele>126</ele>
        <time>2011-03-20T11:18:50</time>
      </trkpt>
      <trkpt lat="44.44295" lon="1.44276">
        <ele>125</ele>
        <time>2011-03-20T11:18:52</time>
      </trkpt>
      <trkpt lat="44.44296" lon="1.44267">
        <ele>125</ele>
        <time>2011-03-20T11:18:53</time>
      </trkpt>
      <trkpt lat="44.44297" lon="1.44251">
        <ele>125</ele>
        <time>2011-03-20T11:18:55</time>
      </trkpt>
      <trkpt lat="44.44298" lon="1.44243">
        <ele>125</ele>
        <time>2011-03-20T11:18:56</time>
      </trkpt>
      <trkpt lat="44.44299" lon="1.44236">
        <ele>125</ele>
        <time>2011-03-20T11:18:57</time>
      </trkpt>
      <trkpt lat="44.443" lon="1.44223">
        <ele>125</ele>
        <time>2011-03-20T11:18:59</time>
      </trkpt>
      <trkpt lat="44.44299" lon="1.44216">
        <ele>125</ele>
        <time>2011-03-20T11:19:00</time>
      </trkpt>
      <trkpt lat="44.44292" lon="1.44205">
        <ele>124</ele>
        <time>2011-03-20T11:19:02</time>
      </trkpt>
      <trkpt lat="44.44288" lon="1.442">
        <ele>120</ele>
        <time>2011-03-20T11:19:03</time>
      </trkpt>
      <trkpt lat="44.44279" lon="1.4419">
        <ele>120</ele>
        <time>2011-03-20T11:19:05</time>
      </trkpt>
      <trkpt lat="44.44275" lon="1.44186">
        <ele>120</ele>
        <time>2011-03-20T11:19:06</time>
      </trkpt>
      <trkpt lat="44.44272" lon="1.43998">
        <ele>121</ele>
        <time>2011-03-20T11:19:07</time>
      </trkpt>
      <trkpt lat="44.44266" lon="1.44177">
        <ele>120</ele>
        <time>2011-03-20T11:19:08</time>
      </trkpt>
      <trkpt lat="44.44262" lon="1.44172">
        <ele>120</ele>
        <time>2011-03-20T11:19:09</time>
      </trkpt>
      <trkpt lat="44.44253" lon="1.44163">
        <ele>120</ele>
        <time>2011-03-20T11:19:11</time>
      </trkpt>
      <trkpt lat="44.44248" lon="1.44158">
        <ele>120</ele>
        <time>2011-03-20T11:19:12</time>
      </trkpt>
      <trkpt lat="44.44244" lon="1.44153">
        <ele>120</ele>
        <time>2011-03-20T11:19:13</time>
      </trkpt>
      <trkpt lat="44.44239" lon="1.44147">
        <ele>120</ele>
        <time>2011-03-20T11:19:14</time>
      </trkpt>
      <trkpt lat="44.44233" lon="1.44142">
        <ele>120</ele>
        <time>2011-03-20T11:19:15</time>
      </trkpt>
      <trkpt lat="44.44228" lon="1.44136">
        <ele>120</ele>
        <time>2011-03-20T11:19:16</time>
      </trkpt>
      <trkpt lat="44.44219" lon="1.44126">
        <ele>120</ele>
        <time>2011-03-20T11:19:18</time>
      </trkpt>
      <trkpt lat="44.44215" lon="1.44119">
        <ele>121</ele>
        <time>2011-03-20T11:19:19</time>
      </trkpt>
      <trkpt lat="44.44212" lon="1.44113">
        <ele>121</ele>
        <time>2011-03-20T11:19:20</time>
      </trkpt>
      <trkpt lat="44.44209" lon="1.44106">
        <ele>121</ele>
        <time>2011-03-20T11:19:21</time>
      </trkpt>
      <trkpt lat="44.44204" lon="1.44093">
        <ele>118</ele>
        <time>2011-03-20T11:19:23</time>
      </trkpt>
      <trkpt lat="44.44203" lon="1.44088">
        <ele>118</ele>
        <time>2011-03-20T11:19:24</time>
      </trkpt>
      <trkpt lat="44.44205" lon="1.44079">
        <ele>118</ele>
        <time>2011-03-20T11:19:26</time>
      </trkpt>
      <trkpt lat="44.44214" lon="1.44074">
        <ele>121</ele>
        <time>2011-03-20T11:19:28</time>
      </trkpt>
      <trkpt lat="44.44219" lon="1.44072">
        <ele>121</ele>
        <time>2011-03-20T11:19:29</time>
      </trkpt>
      <trkpt lat="44.44224" lon="1.4407">
        <ele>121</ele>
        <time>2011-03-20T11:19:30</time>
      </trkpt>
      <trkpt lat="44.44229" lon="1.44068">
        <ele>121</ele>
        <time>2011-03-20T11:19:31</time>
      </trkpt>
      <trkpt lat="44.44238" lon="1.44064">
        <ele>121</ele>
        <time>2011-03-20T11:19:33</time>
      </trkpt>
      <trkpt lat="44.44242" lon="1.44062">
        <ele>121</ele>
        <time>2011-03-20T11:19:34</time>
      </trkpt>
      <trkpt lat="44.44249" lon="1.44059">
        <ele>121</ele>
        <time>2011-03-20T11:19:36</time>
      </trkpt>
      <trkpt lat="44.44252" lon="1.44057">
        <ele>121</ele>
        <time>2011-03-20T11:19:37</time>
      </trkpt>
      <trkpt lat="44.44259" lon="1.44052">
        <ele>121</ele>
        <time>2011-03-20T11:19:39</time>
      </trkpt>
      <trkpt lat="44.44262" lon="1.4405">
        <ele>121</ele>
        <time>2011-03-20T11:19:40</time>
      </trkpt>
      <trkpt lat="44.44266" lon="1.44042">
        <ele>121</ele>
        <time>2011-03-20T11:19:42</time>
      </trkpt>
      <trkpt lat="44.44267" lon="1.44034">
        <ele>121</ele>
        <time>2011-03-20T11:19:44</time>
      </trkpt>
      <trkpt lat="44.44268" lon="1.44031">
        <ele>121</ele>
        <time>2011-03-20T11:19:45</time>
      </trkpt>
      <trkpt lat="44.4427" lon="1.44024">
        <ele>121</ele>
        <time>2011-03-20T11:19:47</time>
      </trkpt>
      <trkpt lat="44.44271" lon="1.44021">
        <ele>121</ele>
        <time>2011-03-20T11:19:48</time>
      </trkpt>
      <trkpt lat="44.44274" lon="1.44016">
        <ele>121</ele>
        <time>2011-03-20T11:19:50</time>
      </trkpt>
      <trkpt lat="44.44273" lon="1.44009">
        <ele>121</ele>
        <time>2011-03-20T11:19:52</time>
      </trkpt>
      <trkpt lat="44.44273" lon="1.44005">
        <ele>121</ele>
        <time>2011-03-20T11:19:53</time>
      </trkpt>
      <trkpt lat="44.44272" lon="1.44002">
        <ele>121</ele>
        <time>2011-03-20T11:19:54</time>
      </trkpt>
      <trkpt lat="44.44272" lon="1.43998">
        <ele>121</ele>
        <time>2011-03-20T11:19:55</time>
      </trkpt>
      <trkpt lat="44.44272" lon="1.43998">
        <ele>121</ele>
        <time>2011-03-20T11:20:15</time>
      </trkpt>
    </trkseg>
  </trk>
</gpx>